<?xml version="1.0" encoding="UTF-8" standalone="no" ?>
<gpx xmlns="http://www.topografix.com/GPX/1/1" xmlns:xsi="http://www.w3.org/2001/XMLSchema-instance" xsi:schemaLocation="http://www.topografix.com/GPX/1/1 http://www.topografix.com/GPX/1/1/gpx.xsd" version="1.1" creator="VisuGPX - https://www.visugpx.com">
  <metadata>
    <name>Rando Vtt Bonnes 2021</name>
    <desc><![CDATA[Un peu trop roulante par endroits..... ]]></desc>
  </metadata>
  <trk>
    <name><![CDATA[Rando Vtt Bonnes 2021_1]]></name>
    <trkseg>
      <trkpt lat="46.5719" lon="0.55784">
        <ele>120</ele>
        <time>2021-10-10T06:20:16Z</time>
      </trkpt>
      <trkpt lat="46.57186" lon="0.55785">
        <ele>120</ele>
        <time>2021-10-10T06:20:18Z</time>
      </trkpt>
      <trkpt lat="46.57186" lon="0.55788">
        <ele>120</ele>
        <time>2021-10-10T06:20:21Z</time>
      </trkpt>
      <trkpt lat="46.57176" lon="0.55809">
        <ele>120.4</ele>
        <time>2021-10-10T06:20:26Z</time>
      </trkpt>
      <trkpt lat="46.57168" lon="0.55833">
        <ele>120.8</ele>
        <time>2021-10-10T06:20:31Z</time>
      </trkpt>
      <trkpt lat="46.57163" lon="0.55865">
        <ele>120.6</ele>
        <time>2021-10-10T06:20:38Z</time>
      </trkpt>
      <trkpt lat="46.57161" lon="0.55882">
        <ele>121.2</ele>
        <time>2021-10-10T06:20:41Z</time>
      </trkpt>
      <trkpt lat="46.5716" lon="0.55894">
        <ele>121.6</ele>
        <time>2021-10-10T06:20:43Z</time>
      </trkpt>
      <trkpt lat="46.57158" lon="0.55906">
        <ele>121.6</ele>
        <time>2021-10-10T06:20:45Z</time>
      </trkpt>
      <trkpt lat="46.57152" lon="0.55953">
        <ele>122.2</ele>
        <time>2021-10-10T06:20:53Z</time>
      </trkpt>
      <trkpt lat="46.5715" lon="0.55972">
        <ele>122.4</ele>
        <time>2021-10-10T06:20:56Z</time>
      </trkpt>
      <trkpt lat="46.57145" lon="0.56011">
        <ele>122.4</ele>
        <time>2021-10-10T06:21:02Z</time>
      </trkpt>
      <trkpt lat="46.57138" lon="0.56071">
        <ele>122</ele>
        <time>2021-10-10T06:21:11Z</time>
      </trkpt>
      <trkpt lat="46.57137" lon="0.56077">
        <ele>122</ele>
        <time>2021-10-10T06:21:12Z</time>
      </trkpt>
      <trkpt lat="46.57129" lon="0.56088">
        <ele>122</ele>
        <time>2021-10-10T06:21:15Z</time>
      </trkpt>
      <trkpt lat="46.57123" lon="0.56105">
        <ele>121.8</ele>
        <time>2021-10-10T06:21:19Z</time>
      </trkpt>
      <trkpt lat="46.5712" lon="0.56118">
        <ele>121.4</ele>
        <time>2021-10-10T06:21:23Z</time>
      </trkpt>
      <trkpt lat="46.57119" lon="0.5612">
        <ele>121.4</ele>
        <time>2021-10-10T06:21:24Z</time>
      </trkpt>
      <trkpt lat="46.57115" lon="0.56122">
        <ele>121.2</ele>
        <time>2021-10-10T06:21:25Z</time>
      </trkpt>
      <trkpt lat="46.57104" lon="0.56127">
        <ele>121</ele>
        <time>2021-10-10T06:21:30Z</time>
      </trkpt>
      <trkpt lat="46.57096" lon="0.56129">
        <ele>121</ele>
        <time>2021-10-10T06:21:32Z</time>
      </trkpt>
      <trkpt lat="46.57083" lon="0.56134">
        <ele>121.2</ele>
        <time>2021-10-10T06:21:35Z</time>
      </trkpt>
      <trkpt lat="46.57075" lon="0.56138">
        <ele>121.6</ele>
        <time>2021-10-10T06:21:37Z</time>
      </trkpt>
      <trkpt lat="46.5707" lon="0.56147">
        <ele>121.6</ele>
        <time>2021-10-10T06:21:39Z</time>
      </trkpt>
      <trkpt lat="46.57063" lon="0.56186">
        <ele>121.6</ele>
        <time>2021-10-10T06:21:45Z</time>
      </trkpt>
      <trkpt lat="46.57057" lon="0.56221">
        <ele>121</ele>
        <time>2021-10-10T06:21:50Z</time>
      </trkpt>
      <trkpt lat="46.57055" lon="0.56229">
        <ele>121</ele>
        <time>2021-10-10T06:21:51Z</time>
      </trkpt>
      <trkpt lat="46.57045" lon="0.5628">
        <ele>120.2</ele>
        <time>2021-10-10T06:21:58Z</time>
      </trkpt>
      <trkpt lat="46.5704" lon="0.56301">
        <ele>119.8</ele>
        <time>2021-10-10T06:22:01Z</time>
      </trkpt>
      <trkpt lat="46.57037" lon="0.56311">
        <ele>119.6</ele>
        <time>2021-10-10T06:22:03Z</time>
      </trkpt>
      <trkpt lat="46.57039" lon="0.56321">
        <ele>119.2</ele>
        <time>2021-10-10T06:22:05Z</time>
      </trkpt>
      <trkpt lat="46.57042" lon="0.56325">
        <ele>119.2</ele>
        <time>2021-10-10T06:22:06Z</time>
      </trkpt>
      <trkpt lat="46.57045" lon="0.56328">
        <ele>119</ele>
        <time>2021-10-10T06:22:07Z</time>
      </trkpt>
      <trkpt lat="46.57061" lon="0.56343">
        <ele>118.8</ele>
        <time>2021-10-10T06:22:11Z</time>
      </trkpt>
      <trkpt lat="46.57074" lon="0.56357">
        <ele>118.4</ele>
        <time>2021-10-10T06:22:15Z</time>
      </trkpt>
      <trkpt lat="46.57077" lon="0.56362">
        <ele>118.4</ele>
        <time>2021-10-10T06:22:16Z</time>
      </trkpt>
      <trkpt lat="46.57078" lon="0.56368">
        <ele>118.4</ele>
        <time>2021-10-10T06:22:17Z</time>
      </trkpt>
      <trkpt lat="46.57078" lon="0.5638">
        <ele>118.4</ele>
        <time>2021-10-10T06:22:19Z</time>
      </trkpt>
      <trkpt lat="46.57077" lon="0.56388">
        <ele>118.4</ele>
        <time>2021-10-10T06:22:20Z</time>
      </trkpt>
      <trkpt lat="46.57068" lon="0.56444">
        <ele>118.6</ele>
        <time>2021-10-10T06:22:28Z</time>
      </trkpt>
      <trkpt lat="46.57062" lon="0.56459">
        <ele>118.6</ele>
        <time>2021-10-10T06:22:31Z</time>
      </trkpt>
      <trkpt lat="46.57062" lon="0.56464">
        <ele>118.6</ele>
        <time>2021-10-10T06:22:32Z</time>
      </trkpt>
      <trkpt lat="46.57063" lon="0.56469">
        <ele>118.6</ele>
        <time>2021-10-10T06:22:33Z</time>
      </trkpt>
      <trkpt lat="46.57071" lon="0.56476">
        <ele>118.6</ele>
        <time>2021-10-10T06:22:35Z</time>
      </trkpt>
      <trkpt lat="46.57101" lon="0.56506">
        <ele>119</ele>
        <time>2021-10-10T06:22:42Z</time>
      </trkpt>
      <trkpt lat="46.57106" lon="0.56511">
        <ele>118.8</ele>
        <time>2021-10-10T06:22:43Z</time>
      </trkpt>
      <trkpt lat="46.57118" lon="0.56531">
        <ele>118.6</ele>
        <time>2021-10-10T06:22:46Z</time>
      </trkpt>
      <trkpt lat="46.57137" lon="0.56566">
        <ele>118</ele>
        <time>2021-10-10T06:22:51Z</time>
      </trkpt>
      <trkpt lat="46.57141" lon="0.56573">
        <ele>118</ele>
        <time>2021-10-10T06:22:52Z</time>
      </trkpt>
      <trkpt lat="46.57147" lon="0.56587">
        <ele>117.8</ele>
        <time>2021-10-10T06:22:54Z</time>
      </trkpt>
      <trkpt lat="46.57147" lon="0.566">
        <ele>117.6</ele>
        <time>2021-10-10T06:22:56Z</time>
      </trkpt>
      <trkpt lat="46.57144" lon="0.56606">
        <ele>117.6</ele>
        <time>2021-10-10T06:22:57Z</time>
      </trkpt>
      <trkpt lat="46.57123" lon="0.56658">
        <ele>117.8</ele>
        <time>2021-10-10T06:23:05Z</time>
      </trkpt>
      <trkpt lat="46.57105" lon="0.56698">
        <ele>117.8</ele>
        <time>2021-10-10T06:23:11Z</time>
      </trkpt>
      <trkpt lat="46.57085" lon="0.56745">
        <ele>117.8</ele>
        <time>2021-10-10T06:23:18Z</time>
      </trkpt>
      <trkpt lat="46.57063" lon="0.56788">
        <ele>117.2</ele>
        <time>2021-10-10T06:23:24Z</time>
      </trkpt>
      <trkpt lat="46.57058" lon="0.56795">
        <ele>116.8</ele>
        <time>2021-10-10T06:23:25Z</time>
      </trkpt>
      <trkpt lat="46.5704" lon="0.56827">
        <ele>115.6</ele>
        <time>2021-10-10T06:23:29Z</time>
      </trkpt>
      <trkpt lat="46.57025" lon="0.56852">
        <ele>115</ele>
        <time>2021-10-10T06:23:32Z</time>
      </trkpt>
      <trkpt lat="46.5702" lon="0.5686">
        <ele>114.6</ele>
        <time>2021-10-10T06:23:33Z</time>
      </trkpt>
      <trkpt lat="46.56991" lon="0.569">
        <ele>114.4</ele>
        <time>2021-10-10T06:23:39Z</time>
      </trkpt>
      <trkpt lat="46.56967" lon="0.5693">
        <ele>114</ele>
        <time>2021-10-10T06:23:45Z</time>
      </trkpt>
      <trkpt lat="46.56963" lon="0.56935">
        <ele>113.8</ele>
        <time>2021-10-10T06:23:46Z</time>
      </trkpt>
      <trkpt lat="46.56957" lon="0.56944">
        <ele>114.2</ele>
        <time>2021-10-10T06:23:48Z</time>
      </trkpt>
      <trkpt lat="46.56957" lon="0.56952">
        <ele>114.6</ele>
        <time>2021-10-10T06:23:50Z</time>
      </trkpt>
      <trkpt lat="46.56969" lon="0.56966">
        <ele>114.8</ele>
        <time>2021-10-10T06:23:54Z</time>
      </trkpt>
      <trkpt lat="46.57004" lon="0.5699">
        <ele>114.8</ele>
        <time>2021-10-10T06:24:02Z</time>
      </trkpt>
      <trkpt lat="46.57045" lon="0.57019">
        <ele>114.6</ele>
        <time>2021-10-10T06:24:10Z</time>
      </trkpt>
      <trkpt lat="46.57083" lon="0.57049">
        <ele>113.6</ele>
        <time>2021-10-10T06:24:17Z</time>
      </trkpt>
      <trkpt lat="46.571" lon="0.57062">
        <ele>113</ele>
        <time>2021-10-10T06:24:20Z</time>
      </trkpt>
      <trkpt lat="46.57106" lon="0.57074">
        <ele>112.8</ele>
        <time>2021-10-10T06:24:22Z</time>
      </trkpt>
      <trkpt lat="46.57107" lon="0.57081">
        <ele>112.8</ele>
        <time>2021-10-10T06:24:23Z</time>
      </trkpt>
      <trkpt lat="46.57106" lon="0.57088">
        <ele>112.8</ele>
        <time>2021-10-10T06:24:24Z</time>
      </trkpt>
      <trkpt lat="46.57103" lon="0.57099">
        <ele>112.8</ele>
        <time>2021-10-10T06:24:26Z</time>
      </trkpt>
      <trkpt lat="46.571" lon="0.57104">
        <ele>112.8</ele>
        <time>2021-10-10T06:24:27Z</time>
      </trkpt>
      <trkpt lat="46.5709" lon="0.57133">
        <ele>113.8</ele>
        <time>2021-10-10T06:24:32Z</time>
      </trkpt>
      <trkpt lat="46.57088" lon="0.57139">
        <ele>114</ele>
        <time>2021-10-10T06:24:33Z</time>
      </trkpt>
      <trkpt lat="46.57083" lon="0.57162">
        <ele>114.6</ele>
        <time>2021-10-10T06:24:37Z</time>
      </trkpt>
      <trkpt lat="46.5708" lon="0.57185">
        <ele>115.6</ele>
        <time>2021-10-10T06:24:41Z</time>
      </trkpt>
      <trkpt lat="46.57078" lon="0.57196">
        <ele>115.8</ele>
        <time>2021-10-10T06:24:43Z</time>
      </trkpt>
      <trkpt lat="46.57077" lon="0.57228">
        <ele>116.4</ele>
        <time>2021-10-10T06:24:48Z</time>
      </trkpt>
      <trkpt lat="46.57071" lon="0.5729">
        <ele>116.2</ele>
        <time>2021-10-10T06:24:57Z</time>
      </trkpt>
      <trkpt lat="46.57066" lon="0.57315">
        <ele>116.4</ele>
        <time>2021-10-10T06:25:01Z</time>
      </trkpt>
      <trkpt lat="46.57063" lon="0.57328">
        <ele>116.6</ele>
        <time>2021-10-10T06:25:03Z</time>
      </trkpt>
      <trkpt lat="46.57062" lon="0.57356">
        <ele>116.8</ele>
        <time>2021-10-10T06:25:07Z</time>
      </trkpt>
      <trkpt lat="46.57063" lon="0.57362">
        <ele>116.8</ele>
        <time>2021-10-10T06:25:08Z</time>
      </trkpt>
      <trkpt lat="46.57069" lon="0.57412">
        <ele>117.2</ele>
        <time>2021-10-10T06:25:15Z</time>
      </trkpt>
      <trkpt lat="46.57072" lon="0.57457">
        <ele>117.8</ele>
        <time>2021-10-10T06:25:21Z</time>
      </trkpt>
      <trkpt lat="46.57073" lon="0.57472">
        <ele>118</ele>
        <time>2021-10-10T06:25:22Z</time>
      </trkpt>
      <trkpt lat="46.57074" lon="0.57515">
        <ele>119</ele>
        <time>2021-10-10T06:25:29Z</time>
      </trkpt>
      <trkpt lat="46.57074" lon="0.57529">
        <ele>119.2</ele>
        <time>2021-10-10T06:25:31Z</time>
      </trkpt>
      <trkpt lat="46.57073" lon="0.57549">
        <ele>119.4</ele>
        <time>2021-10-10T06:25:34Z</time>
      </trkpt>
      <trkpt lat="46.57069" lon="0.57604">
        <ele>120</ele>
        <time>2021-10-10T06:25:42Z</time>
      </trkpt>
      <trkpt lat="46.57069" lon="0.57611">
        <ele>120</ele>
        <time>2021-10-10T06:25:43Z</time>
      </trkpt>
      <trkpt lat="46.57062" lon="0.57659">
        <ele>120</ele>
        <time>2021-10-10T06:25:51Z</time>
      </trkpt>
      <trkpt lat="46.57054" lon="0.57693">
        <ele>120.6</ele>
        <time>2021-10-10T06:25:57Z</time>
      </trkpt>
      <trkpt lat="46.57052" lon="0.57703">
        <ele>120.8</ele>
        <time>2021-10-10T06:25:59Z</time>
      </trkpt>
      <trkpt lat="46.57052" lon="0.57708">
        <ele>121</ele>
        <time>2021-10-10T06:26:00Z</time>
      </trkpt>
      <trkpt lat="46.57051" lon="0.5773">
        <ele>121.4</ele>
        <time>2021-10-10T06:26:04Z</time>
      </trkpt>
      <trkpt lat="46.57051" lon="0.57736">
        <ele>121.4</ele>
        <time>2021-10-10T06:26:05Z</time>
      </trkpt>
      <trkpt lat="46.57053" lon="0.57755">
        <ele>121.2</ele>
        <time>2021-10-10T06:26:08Z</time>
      </trkpt>
      <trkpt lat="46.57062" lon="0.57803">
        <ele>121.4</ele>
        <time>2021-10-10T06:26:15Z</time>
      </trkpt>
      <trkpt lat="46.57069" lon="0.57847">
        <ele>121.4</ele>
        <time>2021-10-10T06:26:21Z</time>
      </trkpt>
      <trkpt lat="46.57083" lon="0.57888">
        <ele>121.4</ele>
        <time>2021-10-10T06:26:27Z</time>
      </trkpt>
      <trkpt lat="46.57101" lon="0.57929">
        <ele>121</ele>
        <time>2021-10-10T06:26:33Z</time>
      </trkpt>
      <trkpt lat="46.57117" lon="0.57967">
        <ele>120</ele>
        <time>2021-10-10T06:26:38Z</time>
      </trkpt>
      <trkpt lat="46.57124" lon="0.57993">
        <ele>119.2</ele>
        <time>2021-10-10T06:26:41Z</time>
      </trkpt>
      <trkpt lat="46.57127" lon="0.58012">
        <ele>118.8</ele>
        <time>2021-10-10T06:26:43Z</time>
      </trkpt>
      <trkpt lat="46.57129" lon="0.58042">
        <ele>118.4</ele>
        <time>2021-10-10T06:26:46Z</time>
      </trkpt>
      <trkpt lat="46.57125" lon="0.58073">
        <ele>117.8</ele>
        <time>2021-10-10T06:26:49Z</time>
      </trkpt>
      <trkpt lat="46.57123" lon="0.58082">
        <ele>117.2</ele>
        <time>2021-10-10T06:26:50Z</time>
      </trkpt>
      <trkpt lat="46.5712" lon="0.581">
        <ele>116.4</ele>
        <time>2021-10-10T06:26:52Z</time>
      </trkpt>
      <trkpt lat="46.57115" lon="0.58126">
        <ele>115.4</ele>
        <time>2021-10-10T06:26:55Z</time>
      </trkpt>
      <trkpt lat="46.57112" lon="0.58144">
        <ele>114.6</ele>
        <time>2021-10-10T06:26:57Z</time>
      </trkpt>
      <trkpt lat="46.5711" lon="0.58153">
        <ele>114.2</ele>
        <time>2021-10-10T06:26:58Z</time>
      </trkpt>
      <trkpt lat="46.57105" lon="0.58181">
        <ele>113.2</ele>
        <time>2021-10-10T06:27:01Z</time>
      </trkpt>
      <trkpt lat="46.57103" lon="0.58191">
        <ele>113</ele>
        <time>2021-10-10T06:27:02Z</time>
      </trkpt>
      <trkpt lat="46.57096" lon="0.58237">
        <ele>112</ele>
        <time>2021-10-10T06:27:07Z</time>
      </trkpt>
      <trkpt lat="46.57095" lon="0.58246">
        <ele>111.8</ele>
        <time>2021-10-10T06:27:08Z</time>
      </trkpt>
      <trkpt lat="46.5709" lon="0.58271">
        <ele>110.8</ele>
        <time>2021-10-10T06:27:11Z</time>
      </trkpt>
      <trkpt lat="46.57086" lon="0.58294">
        <ele>110.6</ele>
        <time>2021-10-10T06:27:14Z</time>
      </trkpt>
      <trkpt lat="46.57084" lon="0.58306">
        <ele>110.8</ele>
        <time>2021-10-10T06:27:16Z</time>
      </trkpt>
      <trkpt lat="46.57086" lon="0.58317">
        <ele>110.8</ele>
        <time>2021-10-10T06:27:18Z</time>
      </trkpt>
      <trkpt lat="46.571" lon="0.58337">
        <ele>111.8</ele>
        <time>2021-10-10T06:27:22Z</time>
      </trkpt>
      <trkpt lat="46.57109" lon="0.58347">
        <ele>111.6</ele>
        <time>2021-10-10T06:27:23Z</time>
      </trkpt>
      <trkpt lat="46.57124" lon="0.5836">
        <ele>111.2</ele>
        <time>2021-10-10T06:27:27Z</time>
      </trkpt>
      <trkpt lat="46.57129" lon="0.58364">
        <ele>111</ele>
        <time>2021-10-10T06:27:28Z</time>
      </trkpt>
      <trkpt lat="46.57162" lon="0.58392">
        <ele>110.2</ele>
        <time>2021-10-10T06:27:34Z</time>
      </trkpt>
      <trkpt lat="46.57167" lon="0.58398">
        <ele>110.2</ele>
        <time>2021-10-10T06:27:35Z</time>
      </trkpt>
      <trkpt lat="46.57176" lon="0.58411">
        <ele>110</ele>
        <time>2021-10-10T06:27:37Z</time>
      </trkpt>
      <trkpt lat="46.5718" lon="0.58418">
        <ele>109.6</ele>
        <time>2021-10-10T06:27:38Z</time>
      </trkpt>
      <trkpt lat="46.57186" lon="0.58433">
        <ele>109.4</ele>
        <time>2021-10-10T06:27:40Z</time>
      </trkpt>
      <trkpt lat="46.57205" lon="0.58488">
        <ele>109</ele>
        <time>2021-10-10T06:27:47Z</time>
      </trkpt>
      <trkpt lat="46.57219" lon="0.58516">
        <ele>108.6</ele>
        <time>2021-10-10T06:27:51Z</time>
      </trkpt>
      <trkpt lat="46.57227" lon="0.58528">
        <ele>108.4</ele>
        <time>2021-10-10T06:27:53Z</time>
      </trkpt>
      <trkpt lat="46.57242" lon="0.58545">
        <ele>108.4</ele>
        <time>2021-10-10T06:27:56Z</time>
      </trkpt>
      <trkpt lat="46.57254" lon="0.58553">
        <ele>108</ele>
        <time>2021-10-10T06:27:58Z</time>
      </trkpt>
      <trkpt lat="46.5726" lon="0.58556">
        <ele>107.8</ele>
        <time>2021-10-10T06:27:59Z</time>
      </trkpt>
      <trkpt lat="46.57267" lon="0.58558">
        <ele>107.4</ele>
        <time>2021-10-10T06:28:00Z</time>
      </trkpt>
      <trkpt lat="46.57273" lon="0.58559">
        <ele>107.2</ele>
        <time>2021-10-10T06:28:01Z</time>
      </trkpt>
      <trkpt lat="46.57278" lon="0.58558">
        <ele>106.8</ele>
        <time>2021-10-10T06:28:02Z</time>
      </trkpt>
      <trkpt lat="46.57282" lon="0.58555">
        <ele>106</ele>
        <time>2021-10-10T06:28:03Z</time>
      </trkpt>
      <trkpt lat="46.57288" lon="0.58544">
        <ele>105</ele>
        <time>2021-10-10T06:28:05Z</time>
      </trkpt>
      <trkpt lat="46.57291" lon="0.58533">
        <ele>104.6</ele>
        <time>2021-10-10T06:28:07Z</time>
      </trkpt>
      <trkpt lat="46.57291" lon="0.58526">
        <ele>104.6</ele>
        <time>2021-10-10T06:28:09Z</time>
      </trkpt>
      <trkpt lat="46.57291" lon="0.58525">
        <ele>104.6</ele>
        <time>2021-10-10T06:28:13Z</time>
      </trkpt>
      <trkpt lat="46.57291" lon="0.58524">
        <ele>104.6</ele>
        <time>2021-10-10T06:28:20Z</time>
      </trkpt>
      <trkpt lat="46.57291" lon="0.58526">
        <ele>104.6</ele>
        <time>2021-10-10T06:28:25Z</time>
      </trkpt>
      <trkpt lat="46.57291" lon="0.58526">
        <ele>104.4</ele>
        <time>2021-10-10T06:28:44Z</time>
      </trkpt>
      <trkpt lat="46.57291" lon="0.58529">
        <ele>104.4</ele>
        <time>2021-10-10T06:29:01Z</time>
      </trkpt>
      <trkpt lat="46.57292" lon="0.58533">
        <ele>104.8</ele>
        <time>2021-10-10T06:29:03Z</time>
      </trkpt>
      <trkpt lat="46.57295" lon="0.58534">
        <ele>104.8</ele>
        <time>2021-10-10T06:29:04Z</time>
      </trkpt>
      <trkpt lat="46.57304" lon="0.58524">
        <ele>105.2</ele>
        <time>2021-10-10T06:29:08Z</time>
      </trkpt>
      <trkpt lat="46.57309" lon="0.58512">
        <ele>106.2</ele>
        <time>2021-10-10T06:29:11Z</time>
      </trkpt>
      <trkpt lat="46.57312" lon="0.58498">
        <ele>106.8</ele>
        <time>2021-10-10T06:29:14Z</time>
      </trkpt>
      <trkpt lat="46.57312" lon="0.58489">
        <ele>107.4</ele>
        <time>2021-10-10T06:29:16Z</time>
      </trkpt>
      <trkpt lat="46.5731" lon="0.58481">
        <ele>107.6</ele>
        <time>2021-10-10T06:29:18Z</time>
      </trkpt>
      <trkpt lat="46.57315" lon="0.58462">
        <ele>108.4</ele>
        <time>2021-10-10T06:29:22Z</time>
      </trkpt>
      <trkpt lat="46.57318" lon="0.58454">
        <ele>108.8</ele>
        <time>2021-10-10T06:29:24Z</time>
      </trkpt>
      <trkpt lat="46.57321" lon="0.58445">
        <ele>109.2</ele>
        <time>2021-10-10T06:29:26Z</time>
      </trkpt>
      <trkpt lat="46.57331" lon="0.58434">
        <ele>109.4</ele>
        <time>2021-10-10T06:29:30Z</time>
      </trkpt>
      <trkpt lat="46.57333" lon="0.58431">
        <ele>109.4</ele>
        <time>2021-10-10T06:29:31Z</time>
      </trkpt>
      <trkpt lat="46.57339" lon="0.5842">
        <ele>109.6</ele>
        <time>2021-10-10T06:29:34Z</time>
      </trkpt>
      <trkpt lat="46.57345" lon="0.58412">
        <ele>109.8</ele>
        <time>2021-10-10T06:29:37Z</time>
      </trkpt>
      <trkpt lat="46.5736" lon="0.58398">
        <ele>110.2</ele>
        <time>2021-10-10T06:29:43Z</time>
      </trkpt>
      <trkpt lat="46.57366" lon="0.58392">
        <ele>110.6</ele>
        <time>2021-10-10T06:29:45Z</time>
      </trkpt>
      <trkpt lat="46.57368" lon="0.5839">
        <ele>110.6</ele>
        <time>2021-10-10T06:29:46Z</time>
      </trkpt>
      <trkpt lat="46.57372" lon="0.58391">
        <ele>110.6</ele>
        <time>2021-10-10T06:29:47Z</time>
      </trkpt>
      <trkpt lat="46.5739" lon="0.58389">
        <ele>111</ele>
        <time>2021-10-10T06:29:52Z</time>
      </trkpt>
      <trkpt lat="46.57413" lon="0.58386">
        <ele>111.2</ele>
        <time>2021-10-10T06:29:58Z</time>
      </trkpt>
      <trkpt lat="46.57431" lon="0.58378">
        <ele>111.2</ele>
        <time>2021-10-10T06:30:03Z</time>
      </trkpt>
      <trkpt lat="46.57444" lon="0.58372">
        <ele>111</ele>
        <time>2021-10-10T06:30:07Z</time>
      </trkpt>
      <trkpt lat="46.57454" lon="0.5837">
        <ele>111</ele>
        <time>2021-10-10T06:30:10Z</time>
      </trkpt>
      <trkpt lat="46.57456" lon="0.58367">
        <ele>111.2</ele>
        <time>2021-10-10T06:30:11Z</time>
      </trkpt>
      <trkpt lat="46.57461" lon="0.58346">
        <ele>111.4</ele>
        <time>2021-10-10T06:30:16Z</time>
      </trkpt>
      <trkpt lat="46.57465" lon="0.58338">
        <ele>111.6</ele>
        <time>2021-10-10T06:30:18Z</time>
      </trkpt>
      <trkpt lat="46.57474" lon="0.5832">
        <ele>112.2</ele>
        <time>2021-10-10T06:30:22Z</time>
      </trkpt>
      <trkpt lat="46.57485" lon="0.58302">
        <ele>112.6</ele>
        <time>2021-10-10T06:30:29Z</time>
      </trkpt>
      <trkpt lat="46.57486" lon="0.58299">
        <ele>112.6</ele>
        <time>2021-10-10T06:30:30Z</time>
      </trkpt>
      <trkpt lat="46.5749" lon="0.58286">
        <ele>112.8</ele>
        <time>2021-10-10T06:30:34Z</time>
      </trkpt>
      <trkpt lat="46.57492" lon="0.5828">
        <ele>113</ele>
        <time>2021-10-10T06:30:36Z</time>
      </trkpt>
      <trkpt lat="46.57496" lon="0.58272">
        <ele>113.2</ele>
        <time>2021-10-10T06:30:39Z</time>
      </trkpt>
      <trkpt lat="46.57501" lon="0.58252">
        <ele>113.6</ele>
        <time>2021-10-10T06:30:44Z</time>
      </trkpt>
      <trkpt lat="46.57504" lon="0.58239">
        <ele>113.6</ele>
        <time>2021-10-10T06:30:48Z</time>
      </trkpt>
      <trkpt lat="46.57505" lon="0.58235">
        <ele>113.8</ele>
        <time>2021-10-10T06:30:49Z</time>
      </trkpt>
      <trkpt lat="46.57508" lon="0.58216">
        <ele>114.4</ele>
        <time>2021-10-10T06:30:54Z</time>
      </trkpt>
      <trkpt lat="46.57514" lon="0.58198">
        <ele>114.6</ele>
        <time>2021-10-10T06:30:59Z</time>
      </trkpt>
      <trkpt lat="46.57519" lon="0.58192">
        <ele>114.8</ele>
        <time>2021-10-10T06:31:01Z</time>
      </trkpt>
      <trkpt lat="46.57524" lon="0.58191">
        <ele>114.8</ele>
        <time>2021-10-10T06:31:03Z</time>
      </trkpt>
      <trkpt lat="46.57526" lon="0.58191">
        <ele>115</ele>
        <time>2021-10-10T06:31:04Z</time>
      </trkpt>
      <trkpt lat="46.57529" lon="0.5819">
        <ele>115</ele>
        <time>2021-10-10T06:31:05Z</time>
      </trkpt>
      <trkpt lat="46.57534" lon="0.58183">
        <ele>115</ele>
        <time>2021-10-10T06:31:08Z</time>
      </trkpt>
      <trkpt lat="46.57538" lon="0.58174">
        <ele>114.8</ele>
        <time>2021-10-10T06:31:11Z</time>
      </trkpt>
      <trkpt lat="46.57542" lon="0.58167">
        <ele>114.8</ele>
        <time>2021-10-10T06:31:13Z</time>
      </trkpt>
      <trkpt lat="46.57549" lon="0.58156">
        <ele>114.8</ele>
        <time>2021-10-10T06:31:14Z</time>
      </trkpt>
      <trkpt lat="46.57554" lon="0.58151">
        <ele>115</ele>
        <time>2021-10-10T06:31:18Z</time>
      </trkpt>
      <trkpt lat="46.57559" lon="0.5815">
        <ele>115.2</ele>
        <time>2021-10-10T06:31:20Z</time>
      </trkpt>
      <trkpt lat="46.57568" lon="0.58152">
        <ele>115.2</ele>
        <time>2021-10-10T06:31:23Z</time>
      </trkpt>
      <trkpt lat="46.57574" lon="0.58153">
        <ele>115.2</ele>
        <time>2021-10-10T06:31:25Z</time>
      </trkpt>
      <trkpt lat="46.57581" lon="0.58151">
        <ele>115</ele>
        <time>2021-10-10T06:31:27Z</time>
      </trkpt>
      <trkpt lat="46.57586" lon="0.58149">
        <ele>114.8</ele>
        <time>2021-10-10T06:31:29Z</time>
      </trkpt>
      <trkpt lat="46.57593" lon="0.58148">
        <ele>114.8</ele>
        <time>2021-10-10T06:31:31Z</time>
      </trkpt>
      <trkpt lat="46.576" lon="0.58148">
        <ele>115</ele>
        <time>2021-10-10T06:31:33Z</time>
      </trkpt>
      <trkpt lat="46.57603" lon="0.58147">
        <ele>114.8</ele>
        <time>2021-10-10T06:31:34Z</time>
      </trkpt>
      <trkpt lat="46.57611" lon="0.58141">
        <ele>114.6</ele>
        <time>2021-10-10T06:31:37Z</time>
      </trkpt>
      <trkpt lat="46.57625" lon="0.58136">
        <ele>114.4</ele>
        <time>2021-10-10T06:31:42Z</time>
      </trkpt>
      <trkpt lat="46.57628" lon="0.58138">
        <ele>114.4</ele>
        <time>2021-10-10T06:31:43Z</time>
      </trkpt>
      <trkpt lat="46.57636" lon="0.58156">
        <ele>114.8</ele>
        <time>2021-10-10T06:31:48Z</time>
      </trkpt>
      <trkpt lat="46.57645" lon="0.58187">
        <ele>114.8</ele>
        <time>2021-10-10T06:31:54Z</time>
      </trkpt>
      <trkpt lat="46.57645" lon="0.58193">
        <ele>114.8</ele>
        <time>2021-10-10T06:31:55Z</time>
      </trkpt>
      <trkpt lat="46.57646" lon="0.58199">
        <ele>114.8</ele>
        <time>2021-10-10T06:31:56Z</time>
      </trkpt>
      <trkpt lat="46.57646" lon="0.58224">
        <ele>114.4</ele>
        <time>2021-10-10T06:32:00Z</time>
      </trkpt>
      <trkpt lat="46.57646" lon="0.58243">
        <ele>114.2</ele>
        <time>2021-10-10T06:32:03Z</time>
      </trkpt>
      <trkpt lat="46.57646" lon="0.58264">
        <ele>113.8</ele>
        <time>2021-10-10T06:32:06Z</time>
      </trkpt>
      <trkpt lat="46.57645" lon="0.58271">
        <ele>113.6</ele>
        <time>2021-10-10T06:32:07Z</time>
      </trkpt>
      <trkpt lat="46.57641" lon="0.58323">
        <ele>113</ele>
        <time>2021-10-10T06:32:14Z</time>
      </trkpt>
      <trkpt lat="46.5764" lon="0.58338">
        <ele>112.6</ele>
        <time>2021-10-10T06:32:16Z</time>
      </trkpt>
      <trkpt lat="46.57639" lon="0.58381">
        <ele>111.6</ele>
        <time>2021-10-10T06:32:22Z</time>
      </trkpt>
      <trkpt lat="46.5764" lon="0.58402">
        <ele>110.4</ele>
        <time>2021-10-10T06:32:25Z</time>
      </trkpt>
      <trkpt lat="46.57642" lon="0.58425">
        <ele>110.2</ele>
        <time>2021-10-10T06:32:28Z</time>
      </trkpt>
      <trkpt lat="46.57645" lon="0.58468">
        <ele>109.2</ele>
        <time>2021-10-10T06:32:33Z</time>
      </trkpt>
      <trkpt lat="46.57646" lon="0.58476">
        <ele>109</ele>
        <time>2021-10-10T06:32:34Z</time>
      </trkpt>
      <trkpt lat="46.57649" lon="0.5852">
        <ele>108</ele>
        <time>2021-10-10T06:32:39Z</time>
      </trkpt>
      <trkpt lat="46.5765" lon="0.5853">
        <ele>107.6</ele>
        <time>2021-10-10T06:32:40Z</time>
      </trkpt>
      <trkpt lat="46.57652" lon="0.58539">
        <ele>107.2</ele>
        <time>2021-10-10T06:32:41Z</time>
      </trkpt>
      <trkpt lat="46.57655" lon="0.5855">
        <ele>106.6</ele>
        <time>2021-10-10T06:32:42Z</time>
      </trkpt>
      <trkpt lat="46.57664" lon="0.5858">
        <ele>105.2</ele>
        <time>2021-10-10T06:32:45Z</time>
      </trkpt>
      <trkpt lat="46.57668" lon="0.58598">
        <ele>104.2</ele>
        <time>2021-10-10T06:32:47Z</time>
      </trkpt>
      <trkpt lat="46.57671" lon="0.58617">
        <ele>103.4</ele>
        <time>2021-10-10T06:32:49Z</time>
      </trkpt>
      <trkpt lat="46.57671" lon="0.58628">
        <ele>103.2</ele>
        <time>2021-10-10T06:32:50Z</time>
      </trkpt>
      <trkpt lat="46.5767" lon="0.58638">
        <ele>103</ele>
        <time>2021-10-10T06:32:51Z</time>
      </trkpt>
      <trkpt lat="46.57668" lon="0.58659">
        <ele>101.8</ele>
        <time>2021-10-10T06:32:53Z</time>
      </trkpt>
      <trkpt lat="46.57666" lon="0.58679">
        <ele>101.4</ele>
        <time>2021-10-10T06:32:55Z</time>
      </trkpt>
      <trkpt lat="46.57667" lon="0.58697">
        <ele>100.8</ele>
        <time>2021-10-10T06:32:57Z</time>
      </trkpt>
      <trkpt lat="46.57669" lon="0.58711">
        <ele>100.6</ele>
        <time>2021-10-10T06:32:59Z</time>
      </trkpt>
      <trkpt lat="46.5767" lon="0.58717">
        <ele>100.6</ele>
        <time>2021-10-10T06:33:00Z</time>
      </trkpt>
      <trkpt lat="46.57674" lon="0.58729">
        <ele>100.4</ele>
        <time>2021-10-10T06:33:02Z</time>
      </trkpt>
      <trkpt lat="46.57677" lon="0.58733">
        <ele>100.4</ele>
        <time>2021-10-10T06:33:03Z</time>
      </trkpt>
      <trkpt lat="46.57681" lon="0.58736">
        <ele>100.6</ele>
        <time>2021-10-10T06:33:04Z</time>
      </trkpt>
      <trkpt lat="46.5769" lon="0.58742">
        <ele>100.8</ele>
        <time>2021-10-10T06:33:06Z</time>
      </trkpt>
      <trkpt lat="46.57699" lon="0.5875">
        <ele>101.4</ele>
        <time>2021-10-10T06:33:08Z</time>
      </trkpt>
      <trkpt lat="46.57734" lon="0.58786">
        <ele>101.4</ele>
        <time>2021-10-10T06:33:16Z</time>
      </trkpt>
      <trkpt lat="46.57772" lon="0.58823">
        <ele>101</ele>
        <time>2021-10-10T06:33:24Z</time>
      </trkpt>
      <trkpt lat="46.57809" lon="0.58845">
        <ele>100.2</ele>
        <time>2021-10-10T06:33:31Z</time>
      </trkpt>
      <trkpt lat="46.57815" lon="0.58845">
        <ele>100</ele>
        <time>2021-10-10T06:33:32Z</time>
      </trkpt>
      <trkpt lat="46.57821" lon="0.58845">
        <ele>100</ele>
        <time>2021-10-10T06:33:33Z</time>
      </trkpt>
      <trkpt lat="46.57833" lon="0.58843">
        <ele>99.8</ele>
        <time>2021-10-10T06:33:35Z</time>
      </trkpt>
      <trkpt lat="46.57838" lon="0.58842">
        <ele>99.6</ele>
        <time>2021-10-10T06:33:36Z</time>
      </trkpt>
      <trkpt lat="46.57843" lon="0.58839">
        <ele>99.4</ele>
        <time>2021-10-10T06:33:37Z</time>
      </trkpt>
      <trkpt lat="46.57853" lon="0.58831">
        <ele>98.6</ele>
        <time>2021-10-10T06:33:39Z</time>
      </trkpt>
      <trkpt lat="46.57857" lon="0.58826">
        <ele>98.6</ele>
        <time>2021-10-10T06:33:40Z</time>
      </trkpt>
      <trkpt lat="46.57892" lon="0.58791">
        <ele>98.4</ele>
        <time>2021-10-10T06:33:48Z</time>
      </trkpt>
      <trkpt lat="46.57907" lon="0.58776">
        <ele>99.8</ele>
        <time>2021-10-10T06:33:52Z</time>
      </trkpt>
      <trkpt lat="46.57914" lon="0.5877">
        <ele>100.2</ele>
        <time>2021-10-10T06:33:54Z</time>
      </trkpt>
      <trkpt lat="46.57925" lon="0.58763">
        <ele>100.6</ele>
        <time>2021-10-10T06:33:57Z</time>
      </trkpt>
      <trkpt lat="46.57929" lon="0.58762">
        <ele>101.4</ele>
        <time>2021-10-10T06:33:58Z</time>
      </trkpt>
      <trkpt lat="46.57943" lon="0.58756">
        <ele>102.4</ele>
        <time>2021-10-10T06:34:02Z</time>
      </trkpt>
      <trkpt lat="46.57952" lon="0.58752">
        <ele>103.4</ele>
        <time>2021-10-10T06:34:05Z</time>
      </trkpt>
      <trkpt lat="46.57961" lon="0.58746">
        <ele>104.6</ele>
        <time>2021-10-10T06:34:08Z</time>
      </trkpt>
      <trkpt lat="46.57971" lon="0.58732">
        <ele>106</ele>
        <time>2021-10-10T06:34:12Z</time>
      </trkpt>
      <trkpt lat="46.57975" lon="0.58725">
        <ele>106.6</ele>
        <time>2021-10-10T06:34:14Z</time>
      </trkpt>
      <trkpt lat="46.57977" lon="0.58721">
        <ele>107</ele>
        <time>2021-10-10T06:34:15Z</time>
      </trkpt>
      <trkpt lat="46.57988" lon="0.58704">
        <ele>108.2</ele>
        <time>2021-10-10T06:34:20Z</time>
      </trkpt>
      <trkpt lat="46.5799" lon="0.587">
        <ele>108.8</ele>
        <time>2021-10-10T06:34:21Z</time>
      </trkpt>
      <trkpt lat="46.57994" lon="0.58693">
        <ele>109.4</ele>
        <time>2021-10-10T06:34:23Z</time>
      </trkpt>
      <trkpt lat="46.58001" lon="0.58679">
        <ele>110.4</ele>
        <time>2021-10-10T06:34:27Z</time>
      </trkpt>
      <trkpt lat="46.58002" lon="0.58675">
        <ele>110.6</ele>
        <time>2021-10-10T06:34:28Z</time>
      </trkpt>
      <trkpt lat="46.58009" lon="0.58661">
        <ele>111.8</ele>
        <time>2021-10-10T06:34:32Z</time>
      </trkpt>
      <trkpt lat="46.58012" lon="0.58654">
        <ele>112.2</ele>
        <time>2021-10-10T06:34:34Z</time>
      </trkpt>
      <trkpt lat="46.58023" lon="0.58624">
        <ele>113</ele>
        <time>2021-10-10T06:34:41Z</time>
      </trkpt>
      <trkpt lat="46.58026" lon="0.58615">
        <ele>113.4</ele>
        <time>2021-10-10T06:34:43Z</time>
      </trkpt>
      <trkpt lat="46.58032" lon="0.58597">
        <ele>114</ele>
        <time>2021-10-10T06:34:47Z</time>
      </trkpt>
      <trkpt lat="46.58037" lon="0.58579">
        <ele>114.6</ele>
        <time>2021-10-10T06:34:51Z</time>
      </trkpt>
      <trkpt lat="46.58042" lon="0.58561">
        <ele>115.2</ele>
        <time>2021-10-10T06:34:55Z</time>
      </trkpt>
      <trkpt lat="46.58047" lon="0.58548">
        <ele>115.4</ele>
        <time>2021-10-10T06:34:58Z</time>
      </trkpt>
      <trkpt lat="46.58057" lon="0.58517">
        <ele>116.4</ele>
        <time>2021-10-10T06:35:05Z</time>
      </trkpt>
      <trkpt lat="46.58067" lon="0.58486">
        <ele>117.2</ele>
        <time>2021-10-10T06:35:12Z</time>
      </trkpt>
      <trkpt lat="46.58069" lon="0.58484">
        <ele>117.2</ele>
        <time>2021-10-10T06:35:13Z</time>
      </trkpt>
      <trkpt lat="46.58074" lon="0.58486">
        <ele>117.4</ele>
        <time>2021-10-10T06:35:15Z</time>
      </trkpt>
      <trkpt lat="46.58075" lon="0.5849">
        <ele>117.6</ele>
        <time>2021-10-10T06:35:16Z</time>
      </trkpt>
      <trkpt lat="46.58076" lon="0.58498">
        <ele>117.6</ele>
        <time>2021-10-10T06:35:18Z</time>
      </trkpt>
      <trkpt lat="46.58081" lon="0.5853">
        <ele>117.6</ele>
        <time>2021-10-10T06:35:24Z</time>
      </trkpt>
      <trkpt lat="46.58091" lon="0.58584">
        <ele>117.4</ele>
        <time>2021-10-10T06:35:32Z</time>
      </trkpt>
      <trkpt lat="46.58096" lon="0.58623">
        <ele>116.4</ele>
        <time>2021-10-10T06:35:37Z</time>
      </trkpt>
      <trkpt lat="46.58098" lon="0.58632">
        <ele>116</ele>
        <time>2021-10-10T06:35:38Z</time>
      </trkpt>
      <trkpt lat="46.58098" lon="0.58641">
        <ele>115.8</ele>
        <time>2021-10-10T06:35:39Z</time>
      </trkpt>
      <trkpt lat="46.58099" lon="0.58668">
        <ele>115.2</ele>
        <time>2021-10-10T06:35:42Z</time>
      </trkpt>
      <trkpt lat="46.58099" lon="0.58678">
        <ele>115</ele>
        <time>2021-10-10T06:35:43Z</time>
      </trkpt>
      <trkpt lat="46.58098" lon="0.58707">
        <ele>114.4</ele>
        <time>2021-10-10T06:35:46Z</time>
      </trkpt>
      <trkpt lat="46.58099" lon="0.58717">
        <ele>113.8</ele>
        <time>2021-10-10T06:35:47Z</time>
      </trkpt>
      <trkpt lat="46.581" lon="0.58727">
        <ele>113.2</ele>
        <time>2021-10-10T06:35:48Z</time>
      </trkpt>
      <trkpt lat="46.58102" lon="0.58747">
        <ele>112.6</ele>
        <time>2021-10-10T06:35:50Z</time>
      </trkpt>
      <trkpt lat="46.58101" lon="0.58767">
        <ele>111.8</ele>
        <time>2021-10-10T06:35:52Z</time>
      </trkpt>
      <trkpt lat="46.581" lon="0.58776">
        <ele>111.6</ele>
        <time>2021-10-10T06:35:53Z</time>
      </trkpt>
      <trkpt lat="46.58098" lon="0.58794">
        <ele>110.8</ele>
        <time>2021-10-10T06:35:55Z</time>
      </trkpt>
      <trkpt lat="46.58098" lon="0.58802">
        <ele>110.4</ele>
        <time>2021-10-10T06:35:56Z</time>
      </trkpt>
      <trkpt lat="46.58098" lon="0.58809">
        <ele>110.2</ele>
        <time>2021-10-10T06:35:57Z</time>
      </trkpt>
      <trkpt lat="46.58095" lon="0.58824">
        <ele>109</ele>
        <time>2021-10-10T06:35:59Z</time>
      </trkpt>
      <trkpt lat="46.58095" lon="0.58836">
        <ele>108.2</ele>
        <time>2021-10-10T06:36:01Z</time>
      </trkpt>
      <trkpt lat="46.58097" lon="0.58841">
        <ele>108</ele>
        <time>2021-10-10T06:36:02Z</time>
      </trkpt>
      <trkpt lat="46.58096" lon="0.58844">
        <ele>107.6</ele>
        <time>2021-10-10T06:36:03Z</time>
      </trkpt>
      <trkpt lat="46.58095" lon="0.5885">
        <ele>107</ele>
        <time>2021-10-10T06:36:05Z</time>
      </trkpt>
      <trkpt lat="46.58093" lon="0.58852">
        <ele>106.8</ele>
        <time>2021-10-10T06:36:06Z</time>
      </trkpt>
      <trkpt lat="46.58091" lon="0.58854">
        <ele>106.6</ele>
        <time>2021-10-10T06:36:07Z</time>
      </trkpt>
      <trkpt lat="46.58087" lon="0.58862">
        <ele>106</ele>
        <time>2021-10-10T06:36:09Z</time>
      </trkpt>
      <trkpt lat="46.58086" lon="0.58867">
        <ele>105.6</ele>
        <time>2021-10-10T06:36:10Z</time>
      </trkpt>
      <trkpt lat="46.58079" lon="0.58889">
        <ele>104.4</ele>
        <time>2021-10-10T06:36:13Z</time>
      </trkpt>
      <trkpt lat="46.58074" lon="0.58905">
        <ele>103.4</ele>
        <time>2021-10-10T06:36:15Z</time>
      </trkpt>
      <trkpt lat="46.58072" lon="0.58914">
        <ele>103.2</ele>
        <time>2021-10-10T06:36:16Z</time>
      </trkpt>
      <trkpt lat="46.58067" lon="0.5893">
        <ele>101.6</ele>
        <time>2021-10-10T06:36:18Z</time>
      </trkpt>
      <trkpt lat="46.58063" lon="0.58947">
        <ele>100.2</ele>
        <time>2021-10-10T06:36:20Z</time>
      </trkpt>
      <trkpt lat="46.58062" lon="0.58954">
        <ele>99.6</ele>
        <time>2021-10-10T06:36:21Z</time>
      </trkpt>
      <trkpt lat="46.58061" lon="0.58961">
        <ele>98.8</ele>
        <time>2021-10-10T06:36:22Z</time>
      </trkpt>
      <trkpt lat="46.58058" lon="0.58975">
        <ele>97.4</ele>
        <time>2021-10-10T06:36:24Z</time>
      </trkpt>
      <trkpt lat="46.58057" lon="0.58983">
        <ele>96.2</ele>
        <time>2021-10-10T06:36:25Z</time>
      </trkpt>
      <trkpt lat="46.58056" lon="0.5899">
        <ele>95.6</ele>
        <time>2021-10-10T06:36:26Z</time>
      </trkpt>
      <trkpt lat="46.58055" lon="0.58997">
        <ele>95</ele>
        <time>2021-10-10T06:36:27Z</time>
      </trkpt>
      <trkpt lat="46.58055" lon="0.59011">
        <ele>94.2</ele>
        <time>2021-10-10T06:36:28Z</time>
      </trkpt>
      <trkpt lat="46.58055" lon="0.59011">
        <ele>93.8</ele>
        <time>2021-10-10T06:36:30Z</time>
      </trkpt>
      <trkpt lat="46.58053" lon="0.59022">
        <ele>93.4</ele>
        <time>2021-10-10T06:36:31Z</time>
      </trkpt>
      <trkpt lat="46.58051" lon="0.59024">
        <ele>92.8</ele>
        <time>2021-10-10T06:36:32Z</time>
      </trkpt>
      <trkpt lat="46.58048" lon="0.59027">
        <ele>91.4</ele>
        <time>2021-10-10T06:36:34Z</time>
      </trkpt>
      <trkpt lat="46.58048" lon="0.59032">
        <ele>91</ele>
        <time>2021-10-10T06:36:36Z</time>
      </trkpt>
      <trkpt lat="46.58048" lon="0.59038">
        <ele>90.6</ele>
        <time>2021-10-10T06:36:53Z</time>
      </trkpt>
      <trkpt lat="46.58045" lon="0.59033">
        <ele>90.6</ele>
        <time>2021-10-10T06:37:03Z</time>
      </trkpt>
      <trkpt lat="46.58044" lon="0.59032">
        <ele>90.6</ele>
        <time>2021-10-10T06:37:04Z</time>
      </trkpt>
      <trkpt lat="46.58037" lon="0.59021">
        <ele>91.2</ele>
        <time>2021-10-10T06:37:09Z</time>
      </trkpt>
      <trkpt lat="46.58026" lon="0.59006">
        <ele>91.4</ele>
        <time>2021-10-10T06:37:15Z</time>
      </trkpt>
      <trkpt lat="46.58012" lon="0.58987">
        <ele>92</ele>
        <time>2021-10-10T06:37:21Z</time>
      </trkpt>
      <trkpt lat="46.57999" lon="0.58968">
        <ele>92</ele>
        <time>2021-10-10T06:37:26Z</time>
      </trkpt>
      <trkpt lat="46.57975" lon="0.58947">
        <ele>92.2</ele>
        <time>2021-10-10T06:37:33Z</time>
      </trkpt>
      <trkpt lat="46.57972" lon="0.58944">
        <ele>92.2</ele>
        <time>2021-10-10T06:37:34Z</time>
      </trkpt>
      <trkpt lat="46.57967" lon="0.58942">
        <ele>92.6</ele>
        <time>2021-10-10T06:37:35Z</time>
      </trkpt>
      <trkpt lat="46.57954" lon="0.58933">
        <ele>93</ele>
        <time>2021-10-10T06:37:38Z</time>
      </trkpt>
      <trkpt lat="46.57944" lon="0.58925">
        <ele>93.2</ele>
        <time>2021-10-10T06:37:40Z</time>
      </trkpt>
      <trkpt lat="46.57927" lon="0.58911">
        <ele>93.4</ele>
        <time>2021-10-10T06:37:44Z</time>
      </trkpt>
      <trkpt lat="46.57909" lon="0.58899">
        <ele>94</ele>
        <time>2021-10-10T06:37:48Z</time>
      </trkpt>
      <trkpt lat="46.57894" lon="0.58889">
        <ele>94.6</ele>
        <time>2021-10-10T06:37:52Z</time>
      </trkpt>
      <trkpt lat="46.57886" lon="0.58884">
        <ele>95.2</ele>
        <time>2021-10-10T06:37:54Z</time>
      </trkpt>
      <trkpt lat="46.57871" lon="0.58875">
        <ele>96.2</ele>
        <time>2021-10-10T06:37:58Z</time>
      </trkpt>
      <trkpt lat="46.57856" lon="0.58869">
        <ele>97</ele>
        <time>2021-10-10T06:38:03Z</time>
      </trkpt>
      <trkpt lat="46.57854" lon="0.5887">
        <ele>97.4</ele>
        <time>2021-10-10T06:38:04Z</time>
      </trkpt>
      <trkpt lat="46.57853" lon="0.58876">
        <ele>97.8</ele>
        <time>2021-10-10T06:38:07Z</time>
      </trkpt>
      <trkpt lat="46.57851" lon="0.58883">
        <ele>98.4</ele>
        <time>2021-10-10T06:38:09Z</time>
      </trkpt>
      <trkpt lat="46.5785" lon="0.58899">
        <ele>99.2</ele>
        <time>2021-10-10T06:38:13Z</time>
      </trkpt>
      <trkpt lat="46.57851" lon="0.58908">
        <ele>99.4</ele>
        <time>2021-10-10T06:38:15Z</time>
      </trkpt>
      <trkpt lat="46.57854" lon="0.58926">
        <ele>100.6</ele>
        <time>2021-10-10T06:38:19Z</time>
      </trkpt>
      <trkpt lat="46.57856" lon="0.58947">
        <ele>101.8</ele>
        <time>2021-10-10T06:38:24Z</time>
      </trkpt>
      <trkpt lat="46.57857" lon="0.58951">
        <ele>102.2</ele>
        <time>2021-10-10T06:38:25Z</time>
      </trkpt>
      <trkpt lat="46.57862" lon="0.58964">
        <ele>103.2</ele>
        <time>2021-10-10T06:38:29Z</time>
      </trkpt>
      <trkpt lat="46.57864" lon="0.5897">
        <ele>104</ele>
        <time>2021-10-10T06:38:31Z</time>
      </trkpt>
      <trkpt lat="46.57865" lon="0.58973">
        <ele>104.4</ele>
        <time>2021-10-10T06:38:32Z</time>
      </trkpt>
      <trkpt lat="46.5787" lon="0.5899">
        <ele>105.6</ele>
        <time>2021-10-10T06:38:37Z</time>
      </trkpt>
      <trkpt lat="46.57873" lon="0.59004">
        <ele>106.8</ele>
        <time>2021-10-10T06:38:41Z</time>
      </trkpt>
      <trkpt lat="46.57876" lon="0.59013">
        <ele>107.2</ele>
        <time>2021-10-10T06:38:43Z</time>
      </trkpt>
      <trkpt lat="46.57877" lon="0.59032">
        <ele>107.6</ele>
        <time>2021-10-10T06:38:48Z</time>
      </trkpt>
      <trkpt lat="46.57877" lon="0.59036">
        <ele>108</ele>
        <time>2021-10-10T06:38:49Z</time>
      </trkpt>
      <trkpt lat="46.57876" lon="0.59056">
        <ele>109</ele>
        <time>2021-10-10T06:38:54Z</time>
      </trkpt>
      <trkpt lat="46.57875" lon="0.59059">
        <ele>109.2</ele>
        <time>2021-10-10T06:38:55Z</time>
      </trkpt>
      <trkpt lat="46.57872" lon="0.59079">
        <ele>110.2</ele>
        <time>2021-10-10T06:39:00Z</time>
      </trkpt>
      <trkpt lat="46.57871" lon="0.59091">
        <ele>111.2</ele>
        <time>2021-10-10T06:39:03Z</time>
      </trkpt>
      <trkpt lat="46.57869" lon="0.59108">
        <ele>112.2</ele>
        <time>2021-10-10T06:39:08Z</time>
      </trkpt>
      <trkpt lat="46.57869" lon="0.59112">
        <ele>112.4</ele>
        <time>2021-10-10T06:39:09Z</time>
      </trkpt>
      <trkpt lat="46.57868" lon="0.59128">
        <ele>113</ele>
        <time>2021-10-10T06:39:13Z</time>
      </trkpt>
      <trkpt lat="46.57865" lon="0.5914">
        <ele>113.6</ele>
        <time>2021-10-10T06:39:16Z</time>
      </trkpt>
      <trkpt lat="46.57862" lon="0.59149">
        <ele>114.2</ele>
        <time>2021-10-10T06:39:19Z</time>
      </trkpt>
      <trkpt lat="46.57859" lon="0.59159">
        <ele>114.6</ele>
        <time>2021-10-10T06:39:22Z</time>
      </trkpt>
      <trkpt lat="46.57857" lon="0.59174">
        <ele>115.8</ele>
        <time>2021-10-10T06:39:26Z</time>
      </trkpt>
      <trkpt lat="46.57854" lon="0.59191">
        <ele>116.6</ele>
        <time>2021-10-10T06:39:31Z</time>
      </trkpt>
      <trkpt lat="46.57854" lon="0.59194">
        <ele>116.8</ele>
        <time>2021-10-10T06:39:32Z</time>
      </trkpt>
      <trkpt lat="46.57859" lon="0.59222">
        <ele>117.6</ele>
        <time>2021-10-10T06:39:39Z</time>
      </trkpt>
      <trkpt lat="46.57862" lon="0.59233">
        <ele>117.8</ele>
        <time>2021-10-10T06:39:42Z</time>
      </trkpt>
      <trkpt lat="46.57868" lon="0.59246">
        <ele>118</ele>
        <time>2021-10-10T06:39:45Z</time>
      </trkpt>
      <trkpt lat="46.57885" lon="0.59274">
        <ele>117.8</ele>
        <time>2021-10-10T06:39:53Z</time>
      </trkpt>
      <trkpt lat="46.57895" lon="0.59288">
        <ele>117.6</ele>
        <time>2021-10-10T06:39:58Z</time>
      </trkpt>
      <trkpt lat="46.57905" lon="0.59307">
        <ele>117.4</ele>
        <time>2021-10-10T06:40:04Z</time>
      </trkpt>
      <trkpt lat="46.57921" lon="0.59334">
        <ele>117.4</ele>
        <time>2021-10-10T06:40:11Z</time>
      </trkpt>
      <trkpt lat="46.57941" lon="0.59364">
        <ele>117.4</ele>
        <time>2021-10-10T06:40:17Z</time>
      </trkpt>
      <trkpt lat="46.57957" lon="0.5939">
        <ele>117</ele>
        <time>2021-10-10T06:40:22Z</time>
      </trkpt>
      <trkpt lat="46.5797" lon="0.59409">
        <ele>116.8</ele>
        <time>2021-10-10T06:40:26Z</time>
      </trkpt>
      <trkpt lat="46.5799" lon="0.59436">
        <ele>116.2</ele>
        <time>2021-10-10T06:40:32Z</time>
      </trkpt>
      <trkpt lat="46.58001" lon="0.59447">
        <ele>116.4</ele>
        <time>2021-10-10T06:40:35Z</time>
      </trkpt>
      <trkpt lat="46.58011" lon="0.59457">
        <ele>116.6</ele>
        <time>2021-10-10T06:40:38Z</time>
      </trkpt>
      <trkpt lat="46.58029" lon="0.59475">
        <ele>116.6</ele>
        <time>2021-10-10T06:40:43Z</time>
      </trkpt>
      <trkpt lat="46.58042" lon="0.59486">
        <ele>116.2</ele>
        <time>2021-10-10T06:40:47Z</time>
      </trkpt>
      <trkpt lat="46.58048" lon="0.59491">
        <ele>116.2</ele>
        <time>2021-10-10T06:40:49Z</time>
      </trkpt>
      <trkpt lat="46.58051" lon="0.59493">
        <ele>116.2</ele>
        <time>2021-10-10T06:40:50Z</time>
      </trkpt>
      <trkpt lat="46.58053" lon="0.59493">
        <ele>116.2</ele>
        <time>2021-10-10T06:40:51Z</time>
      </trkpt>
      <trkpt lat="46.58057" lon="0.59488">
        <ele>115.8</ele>
        <time>2021-10-10T06:40:53Z</time>
      </trkpt>
      <trkpt lat="46.58059" lon="0.59484">
        <ele>115.6</ele>
        <time>2021-10-10T06:40:54Z</time>
      </trkpt>
      <trkpt lat="46.58062" lon="0.59474">
        <ele>115.2</ele>
        <time>2021-10-10T06:40:56Z</time>
      </trkpt>
      <trkpt lat="46.58063" lon="0.59468">
        <ele>114.8</ele>
        <time>2021-10-10T06:40:57Z</time>
      </trkpt>
      <trkpt lat="46.58064" lon="0.59461">
        <ele>114.6</ele>
        <time>2021-10-10T06:40:58Z</time>
      </trkpt>
      <trkpt lat="46.58064" lon="0.59453">
        <ele>114.2</ele>
        <time>2021-10-10T06:40:59Z</time>
      </trkpt>
      <trkpt lat="46.58065" lon="0.59446">
        <ele>114</ele>
        <time>2021-10-10T06:41:00Z</time>
      </trkpt>
      <trkpt lat="46.58066" lon="0.5944">
        <ele>113.8</ele>
        <time>2021-10-10T06:41:01Z</time>
      </trkpt>
      <trkpt lat="46.58069" lon="0.59436">
        <ele>113.4</ele>
        <time>2021-10-10T06:41:02Z</time>
      </trkpt>
      <trkpt lat="46.58072" lon="0.59431">
        <ele>113.2</ele>
        <time>2021-10-10T06:41:03Z</time>
      </trkpt>
      <trkpt lat="46.58074" lon="0.59425">
        <ele>112.6</ele>
        <time>2021-10-10T06:41:04Z</time>
      </trkpt>
      <trkpt lat="46.58076" lon="0.59418">
        <ele>112.2</ele>
        <time>2021-10-10T06:41:05Z</time>
      </trkpt>
      <trkpt lat="46.58081" lon="0.59396">
        <ele>111</ele>
        <time>2021-10-10T06:41:08Z</time>
      </trkpt>
      <trkpt lat="46.58082" lon="0.59387">
        <ele>110.6</ele>
        <time>2021-10-10T06:41:09Z</time>
      </trkpt>
      <trkpt lat="46.58084" lon="0.59371">
        <ele>109.6</ele>
        <time>2021-10-10T06:41:11Z</time>
      </trkpt>
      <trkpt lat="46.58084" lon="0.59365">
        <ele>108.4</ele>
        <time>2021-10-10T06:41:12Z</time>
      </trkpt>
      <trkpt lat="46.58085" lon="0.5936">
        <ele>107.8</ele>
        <time>2021-10-10T06:41:13Z</time>
      </trkpt>
      <trkpt lat="46.58085" lon="0.59356">
        <ele>107.2</ele>
        <time>2021-10-10T06:41:14Z</time>
      </trkpt>
      <trkpt lat="46.58089" lon="0.59346">
        <ele>106.6</ele>
        <time>2021-10-10T06:41:17Z</time>
      </trkpt>
      <trkpt lat="46.58091" lon="0.59341">
        <ele>105.4</ele>
        <time>2021-10-10T06:41:18Z</time>
      </trkpt>
      <trkpt lat="46.58095" lon="0.5933">
        <ele>104</ele>
        <time>2021-10-10T06:41:20Z</time>
      </trkpt>
      <trkpt lat="46.58096" lon="0.59324">
        <ele>103.4</ele>
        <time>2021-10-10T06:41:21Z</time>
      </trkpt>
      <trkpt lat="46.58096" lon="0.59318">
        <ele>103</ele>
        <time>2021-10-10T06:41:22Z</time>
      </trkpt>
      <trkpt lat="46.58097" lon="0.59297">
        <ele>101.8</ele>
        <time>2021-10-10T06:41:26Z</time>
      </trkpt>
      <trkpt lat="46.58098" lon="0.59292">
        <ele>101.2</ele>
        <time>2021-10-10T06:41:27Z</time>
      </trkpt>
      <trkpt lat="46.58099" lon="0.59287">
        <ele>100.6</ele>
        <time>2021-10-10T06:41:28Z</time>
      </trkpt>
      <trkpt lat="46.58105" lon="0.59276">
        <ele>99.4</ele>
        <time>2021-10-10T06:41:30Z</time>
      </trkpt>
      <trkpt lat="46.58107" lon="0.59269">
        <ele>98.6</ele>
        <time>2021-10-10T06:41:32Z</time>
      </trkpt>
      <trkpt lat="46.58108" lon="0.59266">
        <ele>97.4</ele>
        <time>2021-10-10T06:41:33Z</time>
      </trkpt>
      <trkpt lat="46.58106" lon="0.59258">
        <ele>96.2</ele>
        <time>2021-10-10T06:41:36Z</time>
      </trkpt>
      <trkpt lat="46.58106" lon="0.59246">
        <ele>95</ele>
        <time>2021-10-10T06:41:39Z</time>
      </trkpt>
      <trkpt lat="46.58108" lon="0.5924">
        <ele>94.4</ele>
        <time>2021-10-10T06:41:40Z</time>
      </trkpt>
      <trkpt lat="46.5811" lon="0.59235">
        <ele>93.4</ele>
        <time>2021-10-10T06:41:41Z</time>
      </trkpt>
      <trkpt lat="46.58115" lon="0.59224">
        <ele>92</ele>
        <time>2021-10-10T06:41:43Z</time>
      </trkpt>
      <trkpt lat="46.58116" lon="0.59219">
        <ele>91.4</ele>
        <time>2021-10-10T06:41:44Z</time>
      </trkpt>
      <trkpt lat="46.58119" lon="0.59216">
        <ele>90.6</ele>
        <time>2021-10-10T06:41:45Z</time>
      </trkpt>
      <trkpt lat="46.58126" lon="0.59216">
        <ele>89.6</ele>
        <time>2021-10-10T06:41:47Z</time>
      </trkpt>
      <trkpt lat="46.5814" lon="0.59225">
        <ele>88.8</ele>
        <time>2021-10-10T06:41:53Z</time>
      </trkpt>
      <trkpt lat="46.58153" lon="0.59233">
        <ele>88.6</ele>
        <time>2021-10-10T06:41:58Z</time>
      </trkpt>
      <trkpt lat="46.58156" lon="0.59234">
        <ele>88.6</ele>
        <time>2021-10-10T06:41:59Z</time>
      </trkpt>
      <trkpt lat="46.58172" lon="0.59246">
        <ele>88.4</ele>
        <time>2021-10-10T06:42:05Z</time>
      </trkpt>
      <trkpt lat="46.58194" lon="0.59261">
        <ele>88</ele>
        <time>2021-10-10T06:42:11Z</time>
      </trkpt>
      <trkpt lat="46.58221" lon="0.59278">
        <ele>87.6</ele>
        <time>2021-10-10T06:42:18Z</time>
      </trkpt>
      <trkpt lat="46.5823" lon="0.59283">
        <ele>87.4</ele>
        <time>2021-10-10T06:42:20Z</time>
      </trkpt>
      <trkpt lat="46.58251" lon="0.593">
        <ele>87.2</ele>
        <time>2021-10-10T06:42:25Z</time>
      </trkpt>
      <trkpt lat="46.58258" lon="0.59305">
        <ele>87.2</ele>
        <time>2021-10-10T06:42:27Z</time>
      </trkpt>
      <trkpt lat="46.58272" lon="0.59314">
        <ele>87</ele>
        <time>2021-10-10T06:42:30Z</time>
      </trkpt>
      <trkpt lat="46.58312" lon="0.59344">
        <ele>86.4</ele>
        <time>2021-10-10T06:42:38Z</time>
      </trkpt>
      <trkpt lat="46.58317" lon="0.59348">
        <ele>86.2</ele>
        <time>2021-10-10T06:42:39Z</time>
      </trkpt>
      <trkpt lat="46.58351" lon="0.59376">
        <ele>85.2</ele>
        <time>2021-10-10T06:42:46Z</time>
      </trkpt>
      <trkpt lat="46.58356" lon="0.5938">
        <ele>85.2</ele>
        <time>2021-10-10T06:42:47Z</time>
      </trkpt>
      <trkpt lat="46.58392" lon="0.59416">
        <ele>84.8</ele>
        <time>2021-10-10T06:42:55Z</time>
      </trkpt>
      <trkpt lat="46.58417" lon="0.59459">
        <ele>84</ele>
        <time>2021-10-10T06:43:02Z</time>
      </trkpt>
      <trkpt lat="46.58443" lon="0.59505">
        <ele>83.6</ele>
        <time>2021-10-10T06:43:10Z</time>
      </trkpt>
      <trkpt lat="46.58452" lon="0.59518">
        <ele>83.4</ele>
        <time>2021-10-10T06:43:13Z</time>
      </trkpt>
      <trkpt lat="46.58454" lon="0.59525">
        <ele>83.6</ele>
        <time>2021-10-10T06:43:15Z</time>
      </trkpt>
      <trkpt lat="46.58456" lon="0.59547">
        <ele>85.2</ele>
        <time>2021-10-10T06:43:20Z</time>
      </trkpt>
      <trkpt lat="46.58457" lon="0.59551">
        <ele>85.6</ele>
        <time>2021-10-10T06:43:21Z</time>
      </trkpt>
      <trkpt lat="46.58458" lon="0.59561">
        <ele>86.4</ele>
        <time>2021-10-10T06:43:23Z</time>
      </trkpt>
      <trkpt lat="46.58462" lon="0.59575">
        <ele>87.8</ele>
        <time>2021-10-10T06:43:26Z</time>
      </trkpt>
      <trkpt lat="46.58463" lon="0.59579">
        <ele>88.2</ele>
        <time>2021-10-10T06:43:27Z</time>
      </trkpt>
      <trkpt lat="46.58465" lon="0.59587">
        <ele>88.8</ele>
        <time>2021-10-10T06:43:29Z</time>
      </trkpt>
      <trkpt lat="46.58466" lon="0.59596">
        <ele>90</ele>
        <time>2021-10-10T06:43:32Z</time>
      </trkpt>
      <trkpt lat="46.58467" lon="0.59599">
        <ele>90.4</ele>
        <time>2021-10-10T06:43:33Z</time>
      </trkpt>
      <trkpt lat="46.58467" lon="0.59604">
        <ele>91.2</ele>
        <time>2021-10-10T06:43:35Z</time>
      </trkpt>
      <trkpt lat="46.58468" lon="0.59612">
        <ele>92.2</ele>
        <time>2021-10-10T06:43:38Z</time>
      </trkpt>
      <trkpt lat="46.58468" lon="0.59615">
        <ele>92.4</ele>
        <time>2021-10-10T06:43:39Z</time>
      </trkpt>
      <trkpt lat="46.5847" lon="0.59624">
        <ele>93.4</ele>
        <time>2021-10-10T06:43:42Z</time>
      </trkpt>
      <trkpt lat="46.5847" lon="0.59632">
        <ele>94.2</ele>
        <time>2021-10-10T06:43:45Z</time>
      </trkpt>
      <trkpt lat="46.5847" lon="0.59635">
        <ele>94.6</ele>
        <time>2021-10-10T06:43:46Z</time>
      </trkpt>
      <trkpt lat="46.58469" lon="0.59647">
        <ele>95.8</ele>
        <time>2021-10-10T06:43:51Z</time>
      </trkpt>
      <trkpt lat="46.58468" lon="0.59658">
        <ele>96.8</ele>
        <time>2021-10-10T06:43:55Z</time>
      </trkpt>
      <trkpt lat="46.58468" lon="0.59665">
        <ele>98</ele>
        <time>2021-10-10T06:43:58Z</time>
      </trkpt>
      <trkpt lat="46.58467" lon="0.59668">
        <ele>98.2</ele>
        <time>2021-10-10T06:43:59Z</time>
      </trkpt>
      <trkpt lat="46.58465" lon="0.59681">
        <ele>99</ele>
        <time>2021-10-10T06:44:04Z</time>
      </trkpt>
      <trkpt lat="46.58465" lon="0.59686">
        <ele>99.2</ele>
        <time>2021-10-10T06:44:06Z</time>
      </trkpt>
      <trkpt lat="46.58462" lon="0.597">
        <ele>100.2</ele>
        <time>2021-10-10T06:44:11Z</time>
      </trkpt>
      <trkpt lat="46.58461" lon="0.59705">
        <ele>100.4</ele>
        <time>2021-10-10T06:44:13Z</time>
      </trkpt>
      <trkpt lat="46.58458" lon="0.59723">
        <ele>101.4</ele>
        <time>2021-10-10T06:44:19Z</time>
      </trkpt>
      <trkpt lat="46.58457" lon="0.59735">
        <ele>102.2</ele>
        <time>2021-10-10T06:44:23Z</time>
      </trkpt>
      <trkpt lat="46.58456" lon="0.59741">
        <ele>102.4</ele>
        <time>2021-10-10T06:44:25Z</time>
      </trkpt>
      <trkpt lat="46.58454" lon="0.59753">
        <ele>103</ele>
        <time>2021-10-10T06:44:29Z</time>
      </trkpt>
      <trkpt lat="46.58453" lon="0.59761">
        <ele>103.6</ele>
        <time>2021-10-10T06:44:32Z</time>
      </trkpt>
      <trkpt lat="46.58452" lon="0.59771">
        <ele>104</ele>
        <time>2021-10-10T06:44:35Z</time>
      </trkpt>
      <trkpt lat="46.58449" lon="0.59789">
        <ele>104.6</ele>
        <time>2021-10-10T06:44:40Z</time>
      </trkpt>
      <trkpt lat="46.58445" lon="0.59812">
        <ele>105.4</ele>
        <time>2021-10-10T06:44:46Z</time>
      </trkpt>
      <trkpt lat="46.58444" lon="0.5982">
        <ele>105.8</ele>
        <time>2021-10-10T06:44:48Z</time>
      </trkpt>
      <trkpt lat="46.58443" lon="0.59839">
        <ele>106.6</ele>
        <time>2021-10-10T06:44:52Z</time>
      </trkpt>
      <trkpt lat="46.58441" lon="0.59856">
        <ele>107</ele>
        <time>2021-10-10T06:44:56Z</time>
      </trkpt>
      <trkpt lat="46.58441" lon="0.59868">
        <ele>107.4</ele>
        <time>2021-10-10T06:44:59Z</time>
      </trkpt>
      <trkpt lat="46.58441" lon="0.5989">
        <ele>107.8</ele>
        <time>2021-10-10T06:45:05Z</time>
      </trkpt>
      <trkpt lat="46.58441" lon="0.59895">
        <ele>108</ele>
        <time>2021-10-10T06:45:06Z</time>
      </trkpt>
      <trkpt lat="46.5844" lon="0.59909">
        <ele>108.4</ele>
        <time>2021-10-10T06:45:10Z</time>
      </trkpt>
      <trkpt lat="46.5844" lon="0.59921">
        <ele>109</ele>
        <time>2021-10-10T06:45:13Z</time>
      </trkpt>
      <trkpt lat="46.58438" lon="0.59932">
        <ele>109.4</ele>
        <time>2021-10-10T06:45:16Z</time>
      </trkpt>
      <trkpt lat="46.58441" lon="0.59942">
        <ele>109.6</ele>
        <time>2021-10-10T06:45:19Z</time>
      </trkpt>
      <trkpt lat="46.58444" lon="0.59945">
        <ele>109.6</ele>
        <time>2021-10-10T06:45:20Z</time>
      </trkpt>
      <trkpt lat="46.58459" lon="0.59943">
        <ele>109.2</ele>
        <time>2021-10-10T06:45:25Z</time>
      </trkpt>
      <trkpt lat="46.58463" lon="0.59941">
        <ele>108.6</ele>
        <time>2021-10-10T06:45:26Z</time>
      </trkpt>
      <trkpt lat="46.58466" lon="0.5994">
        <ele>108.2</ele>
        <time>2021-10-10T06:45:27Z</time>
      </trkpt>
      <trkpt lat="46.58472" lon="0.59941">
        <ele>107.8</ele>
        <time>2021-10-10T06:45:29Z</time>
      </trkpt>
      <trkpt lat="46.58475" lon="0.5994">
        <ele>107.6</ele>
        <time>2021-10-10T06:45:30Z</time>
      </trkpt>
      <trkpt lat="46.58487" lon="0.59941">
        <ele>106.4</ele>
        <time>2021-10-10T06:45:33Z</time>
      </trkpt>
      <trkpt lat="46.58491" lon="0.59943">
        <ele>106</ele>
        <time>2021-10-10T06:45:34Z</time>
      </trkpt>
      <trkpt lat="46.58495" lon="0.59944">
        <ele>105.8</ele>
        <time>2021-10-10T06:45:35Z</time>
      </trkpt>
      <trkpt lat="46.58504" lon="0.59945">
        <ele>105.4</ele>
        <time>2021-10-10T06:45:37Z</time>
      </trkpt>
      <trkpt lat="46.58511" lon="0.59949">
        <ele>104.8</ele>
        <time>2021-10-10T06:45:39Z</time>
      </trkpt>
      <trkpt lat="46.58515" lon="0.59956">
        <ele>104.2</ele>
        <time>2021-10-10T06:45:41Z</time>
      </trkpt>
      <trkpt lat="46.58519" lon="0.59965">
        <ele>104</ele>
        <time>2021-10-10T06:45:44Z</time>
      </trkpt>
      <trkpt lat="46.58525" lon="0.59969">
        <ele>103.8</ele>
        <time>2021-10-10T06:45:46Z</time>
      </trkpt>
      <trkpt lat="46.58536" lon="0.59974">
        <ele>103.6</ele>
        <time>2021-10-10T06:45:49Z</time>
      </trkpt>
      <trkpt lat="46.58544" lon="0.59975">
        <ele>103</ele>
        <time>2021-10-10T06:45:51Z</time>
      </trkpt>
      <trkpt lat="46.58548" lon="0.59975">
        <ele>102.8</ele>
        <time>2021-10-10T06:45:52Z</time>
      </trkpt>
      <trkpt lat="46.58561" lon="0.59975">
        <ele>101.6</ele>
        <time>2021-10-10T06:45:55Z</time>
      </trkpt>
      <trkpt lat="46.58564" lon="0.59976">
        <ele>101</ele>
        <time>2021-10-10T06:45:56Z</time>
      </trkpt>
      <trkpt lat="46.58567" lon="0.59976">
        <ele>100.4</ele>
        <time>2021-10-10T06:45:57Z</time>
      </trkpt>
      <trkpt lat="46.58569" lon="0.59977">
        <ele>99.8</ele>
        <time>2021-10-10T06:45:58Z</time>
      </trkpt>
      <trkpt lat="46.58572" lon="0.59975">
        <ele>99.2</ele>
        <time>2021-10-10T06:46:00Z</time>
      </trkpt>
      <trkpt lat="46.58576" lon="0.59972">
        <ele>98.4</ele>
        <time>2021-10-10T06:46:02Z</time>
      </trkpt>
      <trkpt lat="46.58578" lon="0.59971">
        <ele>98</ele>
        <time>2021-10-10T06:46:03Z</time>
      </trkpt>
      <trkpt lat="46.58583" lon="0.59972">
        <ele>96.8</ele>
        <time>2021-10-10T06:46:05Z</time>
      </trkpt>
      <trkpt lat="46.5859" lon="0.59975">
        <ele>95.4</ele>
        <time>2021-10-10T06:46:07Z</time>
      </trkpt>
      <trkpt lat="46.58596" lon="0.59976">
        <ele>94.2</ele>
        <time>2021-10-10T06:46:09Z</time>
      </trkpt>
      <trkpt lat="46.58597" lon="0.59978">
        <ele>93.8</ele>
        <time>2021-10-10T06:46:10Z</time>
      </trkpt>
      <trkpt lat="46.58599" lon="0.59979">
        <ele>93.6</ele>
        <time>2021-10-10T06:46:11Z</time>
      </trkpt>
      <trkpt lat="46.58603" lon="0.59982">
        <ele>93.6</ele>
        <time>2021-10-10T06:46:14Z</time>
      </trkpt>
      <trkpt lat="46.58605" lon="0.59984">
        <ele>93.8</ele>
        <time>2021-10-10T06:46:15Z</time>
      </trkpt>
      <trkpt lat="46.58612" lon="0.5999">
        <ele>94</ele>
        <time>2021-10-10T06:46:18Z</time>
      </trkpt>
      <trkpt lat="46.58614" lon="0.59992">
        <ele>94.2</ele>
        <time>2021-10-10T06:46:20Z</time>
      </trkpt>
      <trkpt lat="46.58619" lon="0.59996">
        <ele>93.8</ele>
        <time>2021-10-10T06:46:24Z</time>
      </trkpt>
      <trkpt lat="46.58623" lon="0.6">
        <ele>93.6</ele>
        <time>2021-10-10T06:46:26Z</time>
      </trkpt>
      <trkpt lat="46.58638" lon="0.60013">
        <ele>93.4</ele>
        <time>2021-10-10T06:46:32Z</time>
      </trkpt>
      <trkpt lat="46.58645" lon="0.60018">
        <ele>93.2</ele>
        <time>2021-10-10T06:46:34Z</time>
      </trkpt>
      <trkpt lat="46.58653" lon="0.60023">
        <ele>92</ele>
        <time>2021-10-10T06:46:37Z</time>
      </trkpt>
      <trkpt lat="46.58658" lon="0.60024">
        <ele>90.8</ele>
        <time>2021-10-10T06:46:39Z</time>
      </trkpt>
      <trkpt lat="46.58663" lon="0.60025">
        <ele>89.8</ele>
        <time>2021-10-10T06:46:41Z</time>
      </trkpt>
      <trkpt lat="46.58668" lon="0.60027">
        <ele>88.4</ele>
        <time>2021-10-10T06:46:43Z</time>
      </trkpt>
      <trkpt lat="46.58673" lon="0.60026">
        <ele>87.2</ele>
        <time>2021-10-10T06:46:45Z</time>
      </trkpt>
      <trkpt lat="46.58674" lon="0.60026">
        <ele>86.6</ele>
        <time>2021-10-10T06:46:46Z</time>
      </trkpt>
      <trkpt lat="46.58677" lon="0.60026">
        <ele>85.8</ele>
        <time>2021-10-10T06:46:47Z</time>
      </trkpt>
      <trkpt lat="46.58681" lon="0.60027">
        <ele>84.6</ele>
        <time>2021-10-10T06:46:48Z</time>
      </trkpt>
      <trkpt lat="46.58685" lon="0.60027">
        <ele>82.8</ele>
        <time>2021-10-10T06:46:51Z</time>
      </trkpt>
      <trkpt lat="46.58687" lon="0.60027">
        <ele>81.8</ele>
        <time>2021-10-10T06:46:52Z</time>
      </trkpt>
      <trkpt lat="46.58692" lon="0.60026">
        <ele>79.8</ele>
        <time>2021-10-10T06:46:54Z</time>
      </trkpt>
      <trkpt lat="46.58695" lon="0.60025">
        <ele>79.2</ele>
        <time>2021-10-10T06:46:55Z</time>
      </trkpt>
      <trkpt lat="46.58698" lon="0.60024">
        <ele>78.6</ele>
        <time>2021-10-10T06:46:56Z</time>
      </trkpt>
      <trkpt lat="46.58701" lon="0.60023">
        <ele>77.6</ele>
        <time>2021-10-10T06:46:57Z</time>
      </trkpt>
      <trkpt lat="46.58704" lon="0.60022">
        <ele>76.2</ele>
        <time>2021-10-10T06:46:58Z</time>
      </trkpt>
      <trkpt lat="46.58711" lon="0.60024">
        <ele>74.6</ele>
        <time>2021-10-10T06:47:00Z</time>
      </trkpt>
      <trkpt lat="46.58718" lon="0.60031">
        <ele>73.6</ele>
        <time>2021-10-10T06:47:03Z</time>
      </trkpt>
      <trkpt lat="46.58725" lon="0.60035">
        <ele>73.4</ele>
        <time>2021-10-10T06:47:05Z</time>
      </trkpt>
      <trkpt lat="46.5874" lon="0.60047">
        <ele>73</ele>
        <time>2021-10-10T06:47:09Z</time>
      </trkpt>
      <trkpt lat="46.58751" lon="0.6006">
        <ele>73</ele>
        <time>2021-10-10T06:47:12Z</time>
      </trkpt>
      <trkpt lat="46.58763" lon="0.60069">
        <ele>72.8</ele>
        <time>2021-10-10T06:47:15Z</time>
      </trkpt>
      <trkpt lat="46.58765" lon="0.60072">
        <ele>72.6</ele>
        <time>2021-10-10T06:47:16Z</time>
      </trkpt>
      <trkpt lat="46.58765" lon="0.60085">
        <ele>72.6</ele>
        <time>2021-10-10T06:47:20Z</time>
      </trkpt>
      <trkpt lat="46.5876" lon="0.60093">
        <ele>73</ele>
        <time>2021-10-10T06:47:24Z</time>
      </trkpt>
      <trkpt lat="46.58756" lon="0.60099">
        <ele>75</ele>
        <time>2021-10-10T06:47:28Z</time>
      </trkpt>
      <trkpt lat="46.58754" lon="0.60104">
        <ele>75.6</ele>
        <time>2021-10-10T06:47:30Z</time>
      </trkpt>
      <trkpt lat="46.58753" lon="0.60108">
        <ele>76.4</ele>
        <time>2021-10-10T06:47:32Z</time>
      </trkpt>
      <trkpt lat="46.58753" lon="0.60114">
        <ele>77.4</ele>
        <time>2021-10-10T06:47:35Z</time>
      </trkpt>
      <trkpt lat="46.58753" lon="0.60116">
        <ele>77.6</ele>
        <time>2021-10-10T06:47:36Z</time>
      </trkpt>
      <trkpt lat="46.58754" lon="0.60122">
        <ele>78.6</ele>
        <time>2021-10-10T06:47:39Z</time>
      </trkpt>
      <trkpt lat="46.58753" lon="0.6013">
        <ele>79.6</ele>
        <time>2021-10-10T06:47:43Z</time>
      </trkpt>
      <trkpt lat="46.58752" lon="0.60131">
        <ele>80</ele>
        <time>2021-10-10T06:47:44Z</time>
      </trkpt>
      <trkpt lat="46.58752" lon="0.60135">
        <ele>80.6</ele>
        <time>2021-10-10T06:47:46Z</time>
      </trkpt>
      <trkpt lat="46.58752" lon="0.60136">
        <ele>81</ele>
        <time>2021-10-10T06:47:47Z</time>
      </trkpt>
      <trkpt lat="46.58752" lon="0.60141">
        <ele>81.8</ele>
        <time>2021-10-10T06:47:51Z</time>
      </trkpt>
      <trkpt lat="46.58752" lon="0.60145">
        <ele>82.6</ele>
        <time>2021-10-10T06:47:54Z</time>
      </trkpt>
      <trkpt lat="46.58752" lon="0.60146">
        <ele>83.2</ele>
        <time>2021-10-10T06:47:55Z</time>
      </trkpt>
      <trkpt lat="46.58753" lon="0.60151">
        <ele>84</ele>
        <time>2021-10-10T06:47:57Z</time>
      </trkpt>
      <trkpt lat="46.58754" lon="0.60153">
        <ele>84.2</ele>
        <time>2021-10-10T06:47:58Z</time>
      </trkpt>
      <trkpt lat="46.58756" lon="0.60158">
        <ele>84.8</ele>
        <time>2021-10-10T06:48:01Z</time>
      </trkpt>
      <trkpt lat="46.58758" lon="0.60163">
        <ele>85.4</ele>
        <time>2021-10-10T06:48:04Z</time>
      </trkpt>
      <trkpt lat="46.58762" lon="0.6017">
        <ele>86.4</ele>
        <time>2021-10-10T06:48:09Z</time>
      </trkpt>
      <trkpt lat="46.58766" lon="0.60176">
        <ele>87.4</ele>
        <time>2021-10-10T06:48:14Z</time>
      </trkpt>
      <trkpt lat="46.58768" lon="0.60177">
        <ele>87.6</ele>
        <time>2021-10-10T06:48:15Z</time>
      </trkpt>
      <trkpt lat="46.58779" lon="0.60187">
        <ele>88.6</ele>
        <time>2021-10-10T06:48:23Z</time>
      </trkpt>
      <trkpt lat="46.5878" lon="0.60189">
        <ele>88.6</ele>
        <time>2021-10-10T06:48:24Z</time>
      </trkpt>
      <trkpt lat="46.58787" lon="0.60196">
        <ele>89.8</ele>
        <time>2021-10-10T06:48:30Z</time>
      </trkpt>
      <trkpt lat="46.58788" lon="0.60198">
        <ele>90</ele>
        <time>2021-10-10T06:48:31Z</time>
      </trkpt>
      <trkpt lat="46.58794" lon="0.60205">
        <ele>90.8</ele>
        <time>2021-10-10T06:48:36Z</time>
      </trkpt>
      <trkpt lat="46.58796" lon="0.60207">
        <ele>91.4</ele>
        <time>2021-10-10T06:48:38Z</time>
      </trkpt>
      <trkpt lat="46.58799" lon="0.60213">
        <ele>92</ele>
        <time>2021-10-10T06:48:41Z</time>
      </trkpt>
      <trkpt lat="46.58803" lon="0.60219">
        <ele>93</ele>
        <time>2021-10-10T06:48:45Z</time>
      </trkpt>
      <trkpt lat="46.58804" lon="0.60221">
        <ele>93.2</ele>
        <time>2021-10-10T06:48:46Z</time>
      </trkpt>
      <trkpt lat="46.5881" lon="0.60232">
        <ele>94.2</ele>
        <time>2021-10-10T06:48:52Z</time>
      </trkpt>
      <trkpt lat="46.58811" lon="0.60233">
        <ele>94.2</ele>
        <time>2021-10-10T06:48:53Z</time>
      </trkpt>
      <trkpt lat="46.58814" lon="0.60239">
        <ele>95.2</ele>
        <time>2021-10-10T06:48:57Z</time>
      </trkpt>
      <trkpt lat="46.58816" lon="0.60244">
        <ele>95.4</ele>
        <time>2021-10-10T06:48:59Z</time>
      </trkpt>
      <trkpt lat="46.58829" lon="0.60267">
        <ele>95.8</ele>
        <time>2021-10-10T06:49:09Z</time>
      </trkpt>
      <trkpt lat="46.58835" lon="0.6028">
        <ele>95.8</ele>
        <time>2021-10-10T06:49:15Z</time>
      </trkpt>
      <trkpt lat="46.58837" lon="0.60281">
        <ele>95.8</ele>
        <time>2021-10-10T06:49:17Z</time>
      </trkpt>
      <trkpt lat="46.5884" lon="0.60279">
        <ele>95.6</ele>
        <time>2021-10-10T06:49:19Z</time>
      </trkpt>
      <trkpt lat="46.58851" lon="0.60274">
        <ele>95</ele>
        <time>2021-10-10T06:49:24Z</time>
      </trkpt>
      <trkpt lat="46.58857" lon="0.6027">
        <ele>93.8</ele>
        <time>2021-10-10T06:49:26Z</time>
      </trkpt>
      <trkpt lat="46.58862" lon="0.60269">
        <ele>93</ele>
        <time>2021-10-10T06:49:28Z</time>
      </trkpt>
      <trkpt lat="46.58865" lon="0.60269">
        <ele>92.8</ele>
        <time>2021-10-10T06:49:29Z</time>
      </trkpt>
      <trkpt lat="46.58876" lon="0.60273">
        <ele>91.8</ele>
        <time>2021-10-10T06:49:33Z</time>
      </trkpt>
      <trkpt lat="46.58879" lon="0.60274">
        <ele>91.4</ele>
        <time>2021-10-10T06:49:34Z</time>
      </trkpt>
      <trkpt lat="46.58886" lon="0.60276">
        <ele>90.6</ele>
        <time>2021-10-10T06:49:36Z</time>
      </trkpt>
      <trkpt lat="46.58888" lon="0.60278">
        <ele>89.8</ele>
        <time>2021-10-10T06:49:37Z</time>
      </trkpt>
      <trkpt lat="46.58892" lon="0.60282">
        <ele>89.2</ele>
        <time>2021-10-10T06:49:39Z</time>
      </trkpt>
      <trkpt lat="46.58903" lon="0.60284">
        <ele>88.6</ele>
        <time>2021-10-10T06:49:42Z</time>
      </trkpt>
      <trkpt lat="46.58917" lon="0.60285">
        <ele>87.4</ele>
        <time>2021-10-10T06:49:46Z</time>
      </trkpt>
      <trkpt lat="46.58922" lon="0.60281">
        <ele>86.4</ele>
        <time>2021-10-10T06:49:48Z</time>
      </trkpt>
      <trkpt lat="46.58925" lon="0.60281">
        <ele>86</ele>
        <time>2021-10-10T06:49:49Z</time>
      </trkpt>
      <trkpt lat="46.58934" lon="0.60282">
        <ele>85.2</ele>
        <time>2021-10-10T06:49:51Z</time>
      </trkpt>
      <trkpt lat="46.58944" lon="0.60283">
        <ele>84.4</ele>
        <time>2021-10-10T06:49:53Z</time>
      </trkpt>
      <trkpt lat="46.58948" lon="0.60283">
        <ele>84.2</ele>
        <time>2021-10-10T06:49:54Z</time>
      </trkpt>
      <trkpt lat="46.5896" lon="0.6028">
        <ele>82.4</ele>
        <time>2021-10-10T06:49:57Z</time>
      </trkpt>
      <trkpt lat="46.58963" lon="0.60278">
        <ele>81.8</ele>
        <time>2021-10-10T06:49:58Z</time>
      </trkpt>
      <trkpt lat="46.58966" lon="0.60278">
        <ele>81.2</ele>
        <time>2021-10-10T06:49:59Z</time>
      </trkpt>
      <trkpt lat="46.5897" lon="0.60282">
        <ele>80.2</ele>
        <time>2021-10-10T06:50:01Z</time>
      </trkpt>
      <trkpt lat="46.58973" lon="0.60288">
        <ele>79.2</ele>
        <time>2021-10-10T06:50:04Z</time>
      </trkpt>
      <trkpt lat="46.58973" lon="0.60291">
        <ele>79.2</ele>
        <time>2021-10-10T06:50:05Z</time>
      </trkpt>
      <trkpt lat="46.5897" lon="0.60298">
        <ele>79.4</ele>
        <time>2021-10-10T06:50:08Z</time>
      </trkpt>
      <trkpt lat="46.58969" lon="0.60303">
        <ele>79.8</ele>
        <time>2021-10-10T06:50:10Z</time>
      </trkpt>
      <trkpt lat="46.58967" lon="0.60312">
        <ele>80.2</ele>
        <time>2021-10-10T06:50:13Z</time>
      </trkpt>
      <trkpt lat="46.58965" lon="0.60318">
        <ele>80.2</ele>
        <time>2021-10-10T06:50:15Z</time>
      </trkpt>
      <trkpt lat="46.58968" lon="0.60331">
        <ele>79.8</ele>
        <time>2021-10-10T06:50:19Z</time>
      </trkpt>
      <trkpt lat="46.5897" lon="0.60338">
        <ele>79.6</ele>
        <time>2021-10-10T06:50:21Z</time>
      </trkpt>
      <trkpt lat="46.58974" lon="0.60341">
        <ele>78.6</ele>
        <time>2021-10-10T06:50:23Z</time>
      </trkpt>
      <trkpt lat="46.58976" lon="0.60342">
        <ele>78.4</ele>
        <time>2021-10-10T06:50:24Z</time>
      </trkpt>
      <trkpt lat="46.58978" lon="0.60345">
        <ele>77.4</ele>
        <time>2021-10-10T06:50:26Z</time>
      </trkpt>
      <trkpt lat="46.58979" lon="0.60347">
        <ele>76.4</ele>
        <time>2021-10-10T06:50:28Z</time>
      </trkpt>
      <trkpt lat="46.58981" lon="0.60348">
        <ele>75.6</ele>
        <time>2021-10-10T06:50:32Z</time>
      </trkpt>
      <trkpt lat="46.58983" lon="0.60348">
        <ele>75.2</ele>
        <time>2021-10-10T06:50:34Z</time>
      </trkpt>
      <trkpt lat="46.58988" lon="0.60347">
        <ele>74</ele>
        <time>2021-10-10T06:50:37Z</time>
      </trkpt>
      <trkpt lat="46.5899" lon="0.60347">
        <ele>73.8</ele>
        <time>2021-10-10T06:50:38Z</time>
      </trkpt>
      <trkpt lat="46.58994" lon="0.60346">
        <ele>73.4</ele>
        <time>2021-10-10T06:50:40Z</time>
      </trkpt>
      <trkpt lat="46.58997" lon="0.60346">
        <ele>73</ele>
        <time>2021-10-10T06:50:41Z</time>
      </trkpt>
      <trkpt lat="46.58999" lon="0.60346">
        <ele>72.2</ele>
        <time>2021-10-10T06:50:42Z</time>
      </trkpt>
      <trkpt lat="46.59" lon="0.60345">
        <ele>71.6</ele>
        <time>2021-10-10T06:50:43Z</time>
      </trkpt>
      <trkpt lat="46.59003" lon="0.60346">
        <ele>71.2</ele>
        <time>2021-10-10T06:50:45Z</time>
      </trkpt>
      <trkpt lat="46.59008" lon="0.60345">
        <ele>70.6</ele>
        <time>2021-10-10T06:50:47Z</time>
      </trkpt>
      <trkpt lat="46.59015" lon="0.60344">
        <ele>69.4</ele>
        <time>2021-10-10T06:50:49Z</time>
      </trkpt>
      <trkpt lat="46.59028" lon="0.60345">
        <ele>68.4</ele>
        <time>2021-10-10T06:50:52Z</time>
      </trkpt>
      <trkpt lat="46.59033" lon="0.60346">
        <ele>68.2</ele>
        <time>2021-10-10T06:50:53Z</time>
      </trkpt>
      <trkpt lat="46.59054" lon="0.60348">
        <ele>68</ele>
        <time>2021-10-10T06:50:58Z</time>
      </trkpt>
      <trkpt lat="46.59071" lon="0.60346">
        <ele>67.2</ele>
        <time>2021-10-10T06:51:02Z</time>
      </trkpt>
      <trkpt lat="46.59076" lon="0.60347">
        <ele>67</ele>
        <time>2021-10-10T06:51:03Z</time>
      </trkpt>
      <trkpt lat="46.59081" lon="0.60347">
        <ele>67</ele>
        <time>2021-10-10T06:51:04Z</time>
      </trkpt>
      <trkpt lat="46.59104" lon="0.60356">
        <ele>66</ele>
        <time>2021-10-10T06:51:09Z</time>
      </trkpt>
      <trkpt lat="46.59108" lon="0.60357">
        <ele>65.8</ele>
        <time>2021-10-10T06:51:10Z</time>
      </trkpt>
      <trkpt lat="46.59116" lon="0.60358">
        <ele>65.6</ele>
        <time>2021-10-10T06:51:12Z</time>
      </trkpt>
      <trkpt lat="46.5913" lon="0.60357">
        <ele>65.2</ele>
        <time>2021-10-10T06:51:15Z</time>
      </trkpt>
      <trkpt lat="46.59152" lon="0.60354">
        <ele>64.8</ele>
        <time>2021-10-10T06:51:19Z</time>
      </trkpt>
      <trkpt lat="46.59169" lon="0.60351">
        <ele>64.4</ele>
        <time>2021-10-10T06:51:22Z</time>
      </trkpt>
      <trkpt lat="46.59203" lon="0.60348">
        <ele>64.2</ele>
        <time>2021-10-10T06:51:28Z</time>
      </trkpt>
      <trkpt lat="46.59208" lon="0.60346">
        <ele>64.2</ele>
        <time>2021-10-10T06:51:29Z</time>
      </trkpt>
      <trkpt lat="46.59213" lon="0.60338">
        <ele>64</ele>
        <time>2021-10-10T06:51:31Z</time>
      </trkpt>
      <trkpt lat="46.59211" lon="0.60328">
        <ele>64</ele>
        <time>2021-10-10T06:51:34Z</time>
      </trkpt>
      <trkpt lat="46.59202" lon="0.60318">
        <ele>65</ele>
        <time>2021-10-10T06:51:38Z</time>
      </trkpt>
      <trkpt lat="46.59195" lon="0.60312">
        <ele>65.8</ele>
        <time>2021-10-10T06:51:41Z</time>
      </trkpt>
      <trkpt lat="46.59189" lon="0.60309">
        <ele>66.4</ele>
        <time>2021-10-10T06:51:43Z</time>
      </trkpt>
      <trkpt lat="46.59184" lon="0.60306">
        <ele>67.2</ele>
        <time>2021-10-10T06:51:45Z</time>
      </trkpt>
      <trkpt lat="46.59182" lon="0.60305">
        <ele>68</ele>
        <time>2021-10-10T06:51:47Z</time>
      </trkpt>
      <trkpt lat="46.59181" lon="0.60303">
        <ele>68.2</ele>
        <time>2021-10-10T06:51:48Z</time>
      </trkpt>
      <trkpt lat="46.59181" lon="0.60302">
        <ele>68.4</ele>
        <time>2021-10-10T06:51:49Z</time>
      </trkpt>
      <trkpt lat="46.59182" lon="0.60301">
        <ele>68.8</ele>
        <time>2021-10-10T06:51:50Z</time>
      </trkpt>
      <trkpt lat="46.59185" lon="0.603">
        <ele>69.4</ele>
        <time>2021-10-10T06:51:52Z</time>
      </trkpt>
      <trkpt lat="46.59187" lon="0.603">
        <ele>69.6</ele>
        <time>2021-10-10T06:51:53Z</time>
      </trkpt>
      <trkpt lat="46.592" lon="0.60302">
        <ele>70.4</ele>
        <time>2021-10-10T06:51:59Z</time>
      </trkpt>
      <trkpt lat="46.59206" lon="0.60302">
        <ele>71</ele>
        <time>2021-10-10T06:52:02Z</time>
      </trkpt>
      <trkpt lat="46.59211" lon="0.60302">
        <ele>71.6</ele>
        <time>2021-10-10T06:52:04Z</time>
      </trkpt>
      <trkpt lat="46.59219" lon="0.60302">
        <ele>73</ele>
        <time>2021-10-10T06:52:08Z</time>
      </trkpt>
      <trkpt lat="46.5922" lon="0.60303">
        <ele>73.2</ele>
        <time>2021-10-10T06:52:09Z</time>
      </trkpt>
      <trkpt lat="46.59224" lon="0.60303">
        <ele>74</ele>
        <time>2021-10-10T06:52:11Z</time>
      </trkpt>
      <trkpt lat="46.59231" lon="0.60304">
        <ele>75.4</ele>
        <time>2021-10-10T06:52:16Z</time>
      </trkpt>
      <trkpt lat="46.59233" lon="0.60304">
        <ele>75.6</ele>
        <time>2021-10-10T06:52:17Z</time>
      </trkpt>
      <trkpt lat="46.59239" lon="0.60306">
        <ele>76.6</ele>
        <time>2021-10-10T06:52:20Z</time>
      </trkpt>
      <trkpt lat="46.59247" lon="0.60308">
        <ele>77.6</ele>
        <time>2021-10-10T06:52:24Z</time>
      </trkpt>
      <trkpt lat="46.59248" lon="0.60308">
        <ele>77.6</ele>
        <time>2021-10-10T06:52:25Z</time>
      </trkpt>
      <trkpt lat="46.59261" lon="0.60311">
        <ele>78.6</ele>
        <time>2021-10-10T06:52:31Z</time>
      </trkpt>
      <trkpt lat="46.59263" lon="0.60311">
        <ele>78.8</ele>
        <time>2021-10-10T06:52:32Z</time>
      </trkpt>
      <trkpt lat="46.59273" lon="0.6031">
        <ele>79.8</ele>
        <time>2021-10-10T06:52:37Z</time>
      </trkpt>
      <trkpt lat="46.59276" lon="0.6031">
        <ele>80.6</ele>
        <time>2021-10-10T06:52:39Z</time>
      </trkpt>
      <trkpt lat="46.59279" lon="0.60308">
        <ele>81</ele>
        <time>2021-10-10T06:52:41Z</time>
      </trkpt>
      <trkpt lat="46.59285" lon="0.60305">
        <ele>82</ele>
        <time>2021-10-10T06:52:45Z</time>
      </trkpt>
      <trkpt lat="46.59289" lon="0.60303">
        <ele>82.8</ele>
        <time>2021-10-10T06:52:48Z</time>
      </trkpt>
      <trkpt lat="46.59291" lon="0.60302">
        <ele>83.2</ele>
        <time>2021-10-10T06:52:49Z</time>
      </trkpt>
      <trkpt lat="46.59298" lon="0.60297">
        <ele>84.2</ele>
        <time>2021-10-10T06:52:54Z</time>
      </trkpt>
      <trkpt lat="46.593" lon="0.60296">
        <ele>84.6</ele>
        <time>2021-10-10T06:52:55Z</time>
      </trkpt>
      <trkpt lat="46.59304" lon="0.60293">
        <ele>85.6</ele>
        <time>2021-10-10T06:52:58Z</time>
      </trkpt>
      <trkpt lat="46.59308" lon="0.60289">
        <ele>86</ele>
        <time>2021-10-10T06:53:01Z</time>
      </trkpt>
      <trkpt lat="46.5931" lon="0.60287">
        <ele>86.4</ele>
        <time>2021-10-10T06:53:03Z</time>
      </trkpt>
      <trkpt lat="46.59313" lon="0.60283">
        <ele>86.8</ele>
        <time>2021-10-10T06:53:06Z</time>
      </trkpt>
      <trkpt lat="46.59317" lon="0.60279">
        <ele>87</ele>
        <time>2021-10-10T06:53:09Z</time>
      </trkpt>
      <trkpt lat="46.59319" lon="0.60277">
        <ele>87.2</ele>
        <time>2021-10-10T06:53:10Z</time>
      </trkpt>
      <trkpt lat="46.59323" lon="0.60273">
        <ele>87.8</ele>
        <time>2021-10-10T06:53:13Z</time>
      </trkpt>
      <trkpt lat="46.5933" lon="0.60266">
        <ele>88.4</ele>
        <time>2021-10-10T06:53:17Z</time>
      </trkpt>
      <trkpt lat="46.59338" lon="0.60257">
        <ele>88.8</ele>
        <time>2021-10-10T06:53:21Z</time>
      </trkpt>
      <trkpt lat="46.5934" lon="0.60254">
        <ele>88.8</ele>
        <time>2021-10-10T06:53:22Z</time>
      </trkpt>
      <trkpt lat="46.5936" lon="0.60227">
        <ele>89.4</ele>
        <time>2021-10-10T06:53:31Z</time>
      </trkpt>
      <trkpt lat="46.5938" lon="0.60202">
        <ele>89</ele>
        <time>2021-10-10T06:53:38Z</time>
      </trkpt>
      <trkpt lat="46.59392" lon="0.60182">
        <ele>88.8</ele>
        <time>2021-10-10T06:53:42Z</time>
      </trkpt>
      <trkpt lat="46.59394" lon="0.60176">
        <ele>88.6</ele>
        <time>2021-10-10T06:53:43Z</time>
      </trkpt>
      <trkpt lat="46.59399" lon="0.60161">
        <ele>87.8</ele>
        <time>2021-10-10T06:53:45Z</time>
      </trkpt>
      <trkpt lat="46.59405" lon="0.60145">
        <ele>87.4</ele>
        <time>2021-10-10T06:53:47Z</time>
      </trkpt>
      <trkpt lat="46.59408" lon="0.60139">
        <ele>87.2</ele>
        <time>2021-10-10T06:53:48Z</time>
      </trkpt>
      <trkpt lat="46.59412" lon="0.60134">
        <ele>86.4</ele>
        <time>2021-10-10T06:53:49Z</time>
      </trkpt>
      <trkpt lat="46.59419" lon="0.6013">
        <ele>85.4</ele>
        <time>2021-10-10T06:53:51Z</time>
      </trkpt>
      <trkpt lat="46.59422" lon="0.60129">
        <ele>85.4</ele>
        <time>2021-10-10T06:53:52Z</time>
      </trkpt>
      <trkpt lat="46.59432" lon="0.60128">
        <ele>85.8</ele>
        <time>2021-10-10T06:53:56Z</time>
      </trkpt>
      <trkpt lat="46.59443" lon="0.60127">
        <ele>86.4</ele>
        <time>2021-10-10T06:54:00Z</time>
      </trkpt>
      <trkpt lat="46.59452" lon="0.60122">
        <ele>87</ele>
        <time>2021-10-10T06:54:03Z</time>
      </trkpt>
      <trkpt lat="46.59458" lon="0.60115">
        <ele>87.6</ele>
        <time>2021-10-10T06:54:05Z</time>
      </trkpt>
      <trkpt lat="46.59465" lon="0.60104">
        <ele>88</ele>
        <time>2021-10-10T06:54:08Z</time>
      </trkpt>
      <trkpt lat="46.59471" lon="0.60092">
        <ele>88.4</ele>
        <time>2021-10-10T06:54:11Z</time>
      </trkpt>
      <trkpt lat="46.59475" lon="0.60083">
        <ele>88.6</ele>
        <time>2021-10-10T06:54:13Z</time>
      </trkpt>
      <trkpt lat="46.5948" lon="0.60072">
        <ele>89.2</ele>
        <time>2021-10-10T06:54:16Z</time>
      </trkpt>
      <trkpt lat="46.59489" lon="0.60053">
        <ele>89.8</ele>
        <time>2021-10-10T06:54:21Z</time>
      </trkpt>
      <trkpt lat="46.59492" lon="0.60045">
        <ele>90.2</ele>
        <time>2021-10-10T06:54:23Z</time>
      </trkpt>
      <trkpt lat="46.59506" lon="0.60025">
        <ele>90.6</ele>
        <time>2021-10-10T06:54:29Z</time>
      </trkpt>
      <trkpt lat="46.5952" lon="0.60013">
        <ele>90.8</ele>
        <time>2021-10-10T06:54:33Z</time>
      </trkpt>
      <trkpt lat="46.59523" lon="0.60008">
        <ele>90.8</ele>
        <time>2021-10-10T06:54:34Z</time>
      </trkpt>
      <trkpt lat="46.59527" lon="0.60004">
        <ele>90.8</ele>
        <time>2021-10-10T06:54:35Z</time>
      </trkpt>
      <trkpt lat="46.59542" lon="0.59982">
        <ele>90.8</ele>
        <time>2021-10-10T06:54:40Z</time>
      </trkpt>
      <trkpt lat="46.59553" lon="0.5997">
        <ele>91.2</ele>
        <time>2021-10-10T06:54:43Z</time>
      </trkpt>
      <trkpt lat="46.59557" lon="0.59966">
        <ele>91</ele>
        <time>2021-10-10T06:54:44Z</time>
      </trkpt>
      <trkpt lat="46.59577" lon="0.59955">
        <ele>90.8</ele>
        <time>2021-10-10T06:54:48Z</time>
      </trkpt>
      <trkpt lat="46.59604" lon="0.59934">
        <ele>90</ele>
        <time>2021-10-10T06:54:53Z</time>
      </trkpt>
      <trkpt lat="46.59609" lon="0.59928">
        <ele>89.6</ele>
        <time>2021-10-10T06:54:54Z</time>
      </trkpt>
      <trkpt lat="46.59613" lon="0.5992">
        <ele>89.4</ele>
        <time>2021-10-10T06:54:55Z</time>
      </trkpt>
      <trkpt lat="46.59617" lon="0.59899">
        <ele>88.4</ele>
        <time>2021-10-10T06:54:56Z</time>
      </trkpt>
      <trkpt lat="46.59617" lon="0.59899">
        <ele>88.4</ele>
        <time>2021-10-10T06:54:57Z</time>
      </trkpt>
      <trkpt lat="46.59616" lon="0.59877">
        <ele>87.4</ele>
        <time>2021-10-10T06:54:59Z</time>
      </trkpt>
      <trkpt lat="46.59614" lon="0.59853">
        <ele>86.8</ele>
        <time>2021-10-10T06:55:01Z</time>
      </trkpt>
      <trkpt lat="46.59614" lon="0.59841">
        <ele>86.2</ele>
        <time>2021-10-10T06:55:02Z</time>
      </trkpt>
      <trkpt lat="46.59614" lon="0.59817">
        <ele>85</ele>
        <time>2021-10-10T06:55:04Z</time>
      </trkpt>
      <trkpt lat="46.59615" lon="0.59808">
        <ele>84.4</ele>
        <time>2021-10-10T06:55:05Z</time>
      </trkpt>
      <trkpt lat="46.59617" lon="0.59802">
        <ele>83.6</ele>
        <time>2021-10-10T06:55:06Z</time>
      </trkpt>
      <trkpt lat="46.59624" lon="0.59798">
        <ele>82.4</ele>
        <time>2021-10-10T06:55:08Z</time>
      </trkpt>
      <trkpt lat="46.59631" lon="0.59805">
        <ele>81.8</ele>
        <time>2021-10-10T06:55:10Z</time>
      </trkpt>
      <trkpt lat="46.59634" lon="0.5981">
        <ele>81.4</ele>
        <time>2021-10-10T06:55:11Z</time>
      </trkpt>
      <trkpt lat="46.59647" lon="0.59837">
        <ele>80.2</ele>
        <time>2021-10-10T06:55:15Z</time>
      </trkpt>
      <trkpt lat="46.59655" lon="0.59853">
        <ele>79.8</ele>
        <time>2021-10-10T06:55:17Z</time>
      </trkpt>
      <trkpt lat="46.59659" lon="0.59861">
        <ele>79.2</ele>
        <time>2021-10-10T06:55:18Z</time>
      </trkpt>
      <trkpt lat="46.59673" lon="0.59884">
        <ele>77.6</ele>
        <time>2021-10-10T06:55:21Z</time>
      </trkpt>
      <trkpt lat="46.59684" lon="0.59899">
        <ele>76.2</ele>
        <time>2021-10-10T06:55:23Z</time>
      </trkpt>
      <trkpt lat="46.59697" lon="0.59916">
        <ele>75</ele>
        <time>2021-10-10T06:55:25Z</time>
      </trkpt>
      <trkpt lat="46.59707" lon="0.59935">
        <ele>74</ele>
        <time>2021-10-10T06:55:27Z</time>
      </trkpt>
      <trkpt lat="46.59712" lon="0.59946">
        <ele>73.2</ele>
        <time>2021-10-10T06:55:28Z</time>
      </trkpt>
      <trkpt lat="46.59718" lon="0.59964">
        <ele>71.6</ele>
        <time>2021-10-10T06:55:30Z</time>
      </trkpt>
      <trkpt lat="46.59719" lon="0.59972">
        <ele>70</ele>
        <time>2021-10-10T06:55:31Z</time>
      </trkpt>
      <trkpt lat="46.59721" lon="0.59979">
        <ele>68.8</ele>
        <time>2021-10-10T06:55:32Z</time>
      </trkpt>
      <trkpt lat="46.59724" lon="0.59984">
        <ele>68.2</ele>
        <time>2021-10-10T06:55:33Z</time>
      </trkpt>
      <trkpt lat="46.59728" lon="0.59986">
        <ele>67.6</ele>
        <time>2021-10-10T06:55:34Z</time>
      </trkpt>
      <trkpt lat="46.59739" lon="0.59985">
        <ele>67</ele>
        <time>2021-10-10T06:55:36Z</time>
      </trkpt>
      <trkpt lat="46.59746" lon="0.59983">
        <ele>66.8</ele>
        <time>2021-10-10T06:55:37Z</time>
      </trkpt>
      <trkpt lat="46.59753" lon="0.59981">
        <ele>66.4</ele>
        <time>2021-10-10T06:55:38Z</time>
      </trkpt>
      <trkpt lat="46.59775" lon="0.59974">
        <ele>65.2</ele>
        <time>2021-10-10T06:55:41Z</time>
      </trkpt>
      <trkpt lat="46.59782" lon="0.59971">
        <ele>64.8</ele>
        <time>2021-10-10T06:55:42Z</time>
      </trkpt>
      <trkpt lat="46.5979" lon="0.59966">
        <ele>64.2</ele>
        <time>2021-10-10T06:55:43Z</time>
      </trkpt>
      <trkpt lat="46.59798" lon="0.59962">
        <ele>63.8</ele>
        <time>2021-10-10T06:55:44Z</time>
      </trkpt>
      <trkpt lat="46.59827" lon="0.59944">
        <ele>63</ele>
        <time>2021-10-10T06:55:48Z</time>
      </trkpt>
      <trkpt lat="46.59834" lon="0.5994">
        <ele>62.6</ele>
        <time>2021-10-10T06:55:49Z</time>
      </trkpt>
      <trkpt lat="46.59867" lon="0.59914">
        <ele>62</ele>
        <time>2021-10-10T06:55:54Z</time>
      </trkpt>
      <trkpt lat="46.59884" lon="0.59897">
        <ele>62</ele>
        <time>2021-10-10T06:55:57Z</time>
      </trkpt>
      <trkpt lat="46.59902" lon="0.59884">
        <ele>61.8</ele>
        <time>2021-10-10T06:56:00Z</time>
      </trkpt>
      <trkpt lat="46.59914" lon="0.59875">
        <ele>61.6</ele>
        <time>2021-10-10T06:56:02Z</time>
      </trkpt>
      <trkpt lat="46.59933" lon="0.59864">
        <ele>61.4</ele>
        <time>2021-10-10T06:56:05Z</time>
      </trkpt>
      <trkpt lat="46.59962" lon="0.59842">
        <ele>61.6</ele>
        <time>2021-10-10T06:56:10Z</time>
      </trkpt>
      <trkpt lat="46.60002" lon="0.59818">
        <ele>61.2</ele>
        <time>2021-10-10T06:56:17Z</time>
      </trkpt>
      <trkpt lat="46.60039" lon="0.59791">
        <ele>61.6</ele>
        <time>2021-10-10T06:56:25Z</time>
      </trkpt>
      <trkpt lat="46.60076" lon="0.59761">
        <ele>62</ele>
        <time>2021-10-10T06:56:34Z</time>
      </trkpt>
      <trkpt lat="46.60094" lon="0.59744">
        <ele>62</ele>
        <time>2021-10-10T06:56:40Z</time>
      </trkpt>
      <trkpt lat="46.60113" lon="0.59725">
        <ele>60.8</ele>
        <time>2021-10-10T06:56:45Z</time>
      </trkpt>
      <trkpt lat="46.60125" lon="0.59712">
        <ele>60.4</ele>
        <time>2021-10-10T06:56:48Z</time>
      </trkpt>
      <trkpt lat="46.6014" lon="0.597">
        <ele>60.4</ele>
        <time>2021-10-10T06:56:51Z</time>
      </trkpt>
      <trkpt lat="46.60153" lon="0.59686">
        <ele>60.4</ele>
        <time>2021-10-10T06:56:55Z</time>
      </trkpt>
      <trkpt lat="46.60162" lon="0.59674">
        <ele>61</ele>
        <time>2021-10-10T06:57:00Z</time>
      </trkpt>
      <trkpt lat="46.60183" lon="0.59658">
        <ele>61.2</ele>
        <time>2021-10-10T06:57:06Z</time>
      </trkpt>
      <trkpt lat="46.60193" lon="0.59648">
        <ele>60.8</ele>
        <time>2021-10-10T06:57:09Z</time>
      </trkpt>
      <trkpt lat="46.60199" lon="0.59643">
        <ele>60.8</ele>
        <time>2021-10-10T06:57:11Z</time>
      </trkpt>
      <trkpt lat="46.60222" lon="0.59626">
        <ele>61.6</ele>
        <time>2021-10-10T06:57:17Z</time>
      </trkpt>
      <trkpt lat="46.60237" lon="0.59611">
        <ele>61.8</ele>
        <time>2021-10-10T06:57:21Z</time>
      </trkpt>
      <trkpt lat="46.6025" lon="0.59601">
        <ele>61.8</ele>
        <time>2021-10-10T06:57:24Z</time>
      </trkpt>
      <trkpt lat="46.60267" lon="0.59581">
        <ele>61.4</ele>
        <time>2021-10-10T06:57:29Z</time>
      </trkpt>
      <trkpt lat="46.6027" lon="0.59577">
        <ele>61.4</ele>
        <time>2021-10-10T06:57:30Z</time>
      </trkpt>
      <trkpt lat="46.6027" lon="0.59574">
        <ele>61.4</ele>
        <time>2021-10-10T06:57:31Z</time>
      </trkpt>
      <trkpt lat="46.60267" lon="0.5957">
        <ele>61.2</ele>
        <time>2021-10-10T06:57:33Z</time>
      </trkpt>
      <trkpt lat="46.60253" lon="0.59572">
        <ele>61.6</ele>
        <time>2021-10-10T06:57:38Z</time>
      </trkpt>
      <trkpt lat="46.60242" lon="0.59572">
        <ele>62.6</ele>
        <time>2021-10-10T06:57:42Z</time>
      </trkpt>
      <trkpt lat="46.6024" lon="0.59571">
        <ele>63</ele>
        <time>2021-10-10T06:57:43Z</time>
      </trkpt>
      <trkpt lat="46.60238" lon="0.59571">
        <ele>63.8</ele>
        <time>2021-10-10T06:57:44Z</time>
      </trkpt>
      <trkpt lat="46.60232" lon="0.59573">
        <ele>65</ele>
        <time>2021-10-10T06:57:47Z</time>
      </trkpt>
      <trkpt lat="46.60226" lon="0.59575">
        <ele>66</ele>
        <time>2021-10-10T06:57:51Z</time>
      </trkpt>
      <trkpt lat="46.60221" lon="0.59575">
        <ele>67.4</ele>
        <time>2021-10-10T06:57:55Z</time>
      </trkpt>
      <trkpt lat="46.60219" lon="0.59574">
        <ele>68</ele>
        <time>2021-10-10T06:57:57Z</time>
      </trkpt>
      <trkpt lat="46.60216" lon="0.59573">
        <ele>68.4</ele>
        <time>2021-10-10T06:57:59Z</time>
      </trkpt>
      <trkpt lat="46.60212" lon="0.5957">
        <ele>70.2</ele>
        <time>2021-10-10T06:58:03Z</time>
      </trkpt>
      <trkpt lat="46.60211" lon="0.59566">
        <ele>71.2</ele>
        <time>2021-10-10T06:58:06Z</time>
      </trkpt>
      <trkpt lat="46.60209" lon="0.59562">
        <ele>72.6</ele>
        <time>2021-10-10T06:58:10Z</time>
      </trkpt>
      <trkpt lat="46.60204" lon="0.59554">
        <ele>73.8</ele>
        <time>2021-10-10T06:58:15Z</time>
      </trkpt>
      <trkpt lat="46.60202" lon="0.5955">
        <ele>74.6</ele>
        <time>2021-10-10T06:58:18Z</time>
      </trkpt>
      <trkpt lat="46.60202" lon="0.59549">
        <ele>74.8</ele>
        <time>2021-10-10T06:58:19Z</time>
      </trkpt>
      <trkpt lat="46.60197" lon="0.5954">
        <ele>76</ele>
        <time>2021-10-10T06:58:24Z</time>
      </trkpt>
      <trkpt lat="46.60195" lon="0.59533">
        <ele>77.2</ele>
        <time>2021-10-10T06:58:29Z</time>
      </trkpt>
      <trkpt lat="46.60194" lon="0.59531">
        <ele>77.4</ele>
        <time>2021-10-10T06:58:30Z</time>
      </trkpt>
      <trkpt lat="46.60194" lon="0.59528">
        <ele>77.6</ele>
        <time>2021-10-10T06:58:31Z</time>
      </trkpt>
      <trkpt lat="46.60192" lon="0.59522">
        <ele>78.2</ele>
        <time>2021-10-10T06:58:34Z</time>
      </trkpt>
      <trkpt lat="46.6019" lon="0.59516">
        <ele>79</ele>
        <time>2021-10-10T06:58:38Z</time>
      </trkpt>
      <trkpt lat="46.6019" lon="0.59515">
        <ele>79.4</ele>
        <time>2021-10-10T06:58:39Z</time>
      </trkpt>
      <trkpt lat="46.60186" lon="0.59506">
        <ele>80.4</ele>
        <time>2021-10-10T06:58:44Z</time>
      </trkpt>
      <trkpt lat="46.6018" lon="0.59497">
        <ele>81.4</ele>
        <time>2021-10-10T06:58:50Z</time>
      </trkpt>
      <trkpt lat="46.60179" lon="0.59495">
        <ele>81.6</ele>
        <time>2021-10-10T06:58:51Z</time>
      </trkpt>
      <trkpt lat="46.60171" lon="0.59475">
        <ele>82.4</ele>
        <time>2021-10-10T06:59:00Z</time>
      </trkpt>
      <trkpt lat="46.60169" lon="0.59474">
        <ele>82.8</ele>
        <time>2021-10-10T06:59:01Z</time>
      </trkpt>
      <trkpt lat="46.60161" lon="0.5946">
        <ele>84</ele>
        <time>2021-10-10T06:59:07Z</time>
      </trkpt>
      <trkpt lat="46.60158" lon="0.59453">
        <ele>84.4</ele>
        <time>2021-10-10T06:59:10Z</time>
      </trkpt>
      <trkpt lat="46.60146" lon="0.59436">
        <ele>85</ele>
        <time>2021-10-10T06:59:17Z</time>
      </trkpt>
      <trkpt lat="46.60144" lon="0.59434">
        <ele>85</ele>
        <time>2021-10-10T06:59:18Z</time>
      </trkpt>
      <trkpt lat="46.60132" lon="0.5942">
        <ele>86.2</ele>
        <time>2021-10-10T06:59:24Z</time>
      </trkpt>
      <trkpt lat="46.60124" lon="0.59413">
        <ele>86.4</ele>
        <time>2021-10-10T06:59:28Z</time>
      </trkpt>
      <trkpt lat="46.6012" lon="0.59414">
        <ele>86.6</ele>
        <time>2021-10-10T06:59:30Z</time>
      </trkpt>
      <trkpt lat="46.60116" lon="0.59415">
        <ele>87.2</ele>
        <time>2021-10-10T06:59:35Z</time>
      </trkpt>
      <trkpt lat="46.60116" lon="0.59414">
        <ele>87</ele>
        <time>2021-10-10T06:59:47Z</time>
      </trkpt>
      <trkpt lat="46.60116" lon="0.59413">
        <ele>87</ele>
        <time>2021-10-10T07:00:01Z</time>
      </trkpt>
      <trkpt lat="46.60115" lon="0.59414">
        <ele>87</ele>
        <time>2021-10-10T07:00:09Z</time>
      </trkpt>
      <trkpt lat="46.60115" lon="0.59414">
        <ele>87</ele>
        <time>2021-10-10T07:00:16Z</time>
      </trkpt>
      <trkpt lat="46.60114" lon="0.59418">
        <ele>87</ele>
        <time>2021-10-10T07:00:22Z</time>
      </trkpt>
      <trkpt lat="46.60109" lon="0.59429">
        <ele>87</ele>
        <time>2021-10-10T07:00:27Z</time>
      </trkpt>
      <trkpt lat="46.601" lon="0.59445">
        <ele>87.4</ele>
        <time>2021-10-10T07:00:32Z</time>
      </trkpt>
      <trkpt lat="46.60096" lon="0.59451">
        <ele>87.8</ele>
        <time>2021-10-10T07:00:34Z</time>
      </trkpt>
      <trkpt lat="46.60082" lon="0.5948">
        <ele>88</ele>
        <time>2021-10-10T07:00:41Z</time>
      </trkpt>
      <trkpt lat="46.60066" lon="0.59505">
        <ele>88.2</ele>
        <time>2021-10-10T07:00:47Z</time>
      </trkpt>
      <trkpt lat="46.60062" lon="0.59508">
        <ele>88.2</ele>
        <time>2021-10-10T07:00:48Z</time>
      </trkpt>
      <trkpt lat="46.60058" lon="0.5951">
        <ele>88.2</ele>
        <time>2021-10-10T07:00:49Z</time>
      </trkpt>
      <trkpt lat="46.60054" lon="0.59511">
        <ele>88.4</ele>
        <time>2021-10-10T07:00:50Z</time>
      </trkpt>
      <trkpt lat="46.6005" lon="0.5951">
        <ele>88.4</ele>
        <time>2021-10-10T07:00:51Z</time>
      </trkpt>
      <trkpt lat="46.60047" lon="0.59509">
        <ele>88.4</ele>
        <time>2021-10-10T07:00:52Z</time>
      </trkpt>
      <trkpt lat="46.60038" lon="0.59506">
        <ele>88.4</ele>
        <time>2021-10-10T07:00:55Z</time>
      </trkpt>
      <trkpt lat="46.60037" lon="0.59504">
        <ele>88.4</ele>
        <time>2021-10-10T07:00:56Z</time>
      </trkpt>
      <trkpt lat="46.60037" lon="0.595">
        <ele>88.4</ele>
        <time>2021-10-10T07:00:57Z</time>
      </trkpt>
      <trkpt lat="46.6004" lon="0.59498">
        <ele>88.4</ele>
        <time>2021-10-10T07:00:59Z</time>
      </trkpt>
      <trkpt lat="46.60048" lon="0.59508">
        <ele>88.2</ele>
        <time>2021-10-10T07:01:02Z</time>
      </trkpt>
      <trkpt lat="46.60056" lon="0.59512">
        <ele>88.4</ele>
        <time>2021-10-10T07:01:04Z</time>
      </trkpt>
      <trkpt lat="46.60065" lon="0.5951">
        <ele>88.4</ele>
        <time>2021-10-10T07:01:06Z</time>
      </trkpt>
      <trkpt lat="46.60072" lon="0.59504">
        <ele>88.6</ele>
        <time>2021-10-10T07:01:08Z</time>
      </trkpt>
      <trkpt lat="46.60078" lon="0.59496">
        <ele>88.4</ele>
        <time>2021-10-10T07:01:10Z</time>
      </trkpt>
      <trkpt lat="46.60092" lon="0.59469">
        <ele>88.2</ele>
        <time>2021-10-10T07:01:16Z</time>
      </trkpt>
      <trkpt lat="46.60096" lon="0.59459">
        <ele>88.2</ele>
        <time>2021-10-10T07:01:18Z</time>
      </trkpt>
      <trkpt lat="46.60095" lon="0.59449">
        <ele>88</ele>
        <time>2021-10-10T07:01:20Z</time>
      </trkpt>
      <trkpt lat="46.60087" lon="0.59436">
        <ele>88</ele>
        <time>2021-10-10T07:01:23Z</time>
      </trkpt>
      <trkpt lat="46.60067" lon="0.59414">
        <ele>89.2</ele>
        <time>2021-10-10T07:01:28Z</time>
      </trkpt>
      <trkpt lat="46.60061" lon="0.59405">
        <ele>89.4</ele>
        <time>2021-10-10T07:01:30Z</time>
      </trkpt>
      <trkpt lat="46.60058" lon="0.594">
        <ele>89.4</ele>
        <time>2021-10-10T07:01:31Z</time>
      </trkpt>
      <trkpt lat="46.60048" lon="0.5938">
        <ele>90</ele>
        <time>2021-10-10T07:01:35Z</time>
      </trkpt>
      <trkpt lat="46.60045" lon="0.5937">
        <ele>90.2</ele>
        <time>2021-10-10T07:01:37Z</time>
      </trkpt>
      <trkpt lat="46.60043" lon="0.59347">
        <ele>90.6</ele>
        <time>2021-10-10T07:01:41Z</time>
      </trkpt>
      <trkpt lat="46.60039" lon="0.59326">
        <ele>90.8</ele>
        <time>2021-10-10T07:01:45Z</time>
      </trkpt>
      <trkpt lat="46.60027" lon="0.59313">
        <ele>91.2</ele>
        <time>2021-10-10T07:01:49Z</time>
      </trkpt>
      <trkpt lat="46.60016" lon="0.59304">
        <ele>91.6</ele>
        <time>2021-10-10T07:01:52Z</time>
      </trkpt>
      <trkpt lat="46.60009" lon="0.59296">
        <ele>92</ele>
        <time>2021-10-10T07:01:54Z</time>
      </trkpt>
      <trkpt lat="46.59981" lon="0.59267">
        <ele>92</ele>
        <time>2021-10-10T07:02:02Z</time>
      </trkpt>
      <trkpt lat="46.59969" lon="0.59249">
        <ele>92</ele>
        <time>2021-10-10T07:02:06Z</time>
      </trkpt>
      <trkpt lat="46.59965" lon="0.59245">
        <ele>92</ele>
        <time>2021-10-10T07:02:07Z</time>
      </trkpt>
      <trkpt lat="46.59941" lon="0.59216">
        <ele>92.6</ele>
        <time>2021-10-10T07:02:14Z</time>
      </trkpt>
      <trkpt lat="46.59934" lon="0.59207">
        <ele>92.6</ele>
        <time>2021-10-10T07:02:16Z</time>
      </trkpt>
      <trkpt lat="46.59928" lon="0.59199">
        <ele>92.6</ele>
        <time>2021-10-10T07:02:18Z</time>
      </trkpt>
      <trkpt lat="46.59917" lon="0.59191">
        <ele>92.8</ele>
        <time>2021-10-10T07:02:21Z</time>
      </trkpt>
      <trkpt lat="46.59906" lon="0.59181">
        <ele>93.8</ele>
        <time>2021-10-10T07:02:25Z</time>
      </trkpt>
      <trkpt lat="46.59899" lon="0.59176">
        <ele>94.2</ele>
        <time>2021-10-10T07:02:27Z</time>
      </trkpt>
      <trkpt lat="46.59886" lon="0.59164">
        <ele>94.8</ele>
        <time>2021-10-10T07:02:32Z</time>
      </trkpt>
      <trkpt lat="46.59883" lon="0.59162">
        <ele>94.8</ele>
        <time>2021-10-10T07:02:33Z</time>
      </trkpt>
      <trkpt lat="46.59856" lon="0.59141">
        <ele>95.4</ele>
        <time>2021-10-10T07:02:41Z</time>
      </trkpt>
      <trkpt lat="46.5985" lon="0.59135">
        <ele>95.6</ele>
        <time>2021-10-10T07:02:43Z</time>
      </trkpt>
      <trkpt lat="46.59848" lon="0.59126">
        <ele>95.8</ele>
        <time>2021-10-10T07:02:45Z</time>
      </trkpt>
      <trkpt lat="46.59848" lon="0.59122">
        <ele>95.8</ele>
        <time>2021-10-10T07:02:46Z</time>
      </trkpt>
      <trkpt lat="46.59848" lon="0.59097">
        <ele>96.2</ele>
        <time>2021-10-10T07:02:51Z</time>
      </trkpt>
      <trkpt lat="46.59844" lon="0.59084">
        <ele>96.6</ele>
        <time>2021-10-10T07:02:54Z</time>
      </trkpt>
      <trkpt lat="46.59843" lon="0.5908">
        <ele>96.8</ele>
        <time>2021-10-10T07:02:55Z</time>
      </trkpt>
      <trkpt lat="46.59843" lon="0.5907">
        <ele>96.8</ele>
        <time>2021-10-10T07:02:57Z</time>
      </trkpt>
      <trkpt lat="46.59843" lon="0.59052">
        <ele>97</ele>
        <time>2021-10-10T07:03:00Z</time>
      </trkpt>
      <trkpt lat="46.59842" lon="0.59001">
        <ele>98</ele>
        <time>2021-10-10T07:03:09Z</time>
      </trkpt>
      <trkpt lat="46.59846" lon="0.5896">
        <ele>98.6</ele>
        <time>2021-10-10T07:03:16Z</time>
      </trkpt>
      <trkpt lat="46.59848" lon="0.58916">
        <ele>99</ele>
        <time>2021-10-10T07:03:24Z</time>
      </trkpt>
      <trkpt lat="46.59848" lon="0.58905">
        <ele>99.4</ele>
        <time>2021-10-10T07:03:26Z</time>
      </trkpt>
      <trkpt lat="46.59848" lon="0.58862">
        <ele>100</ele>
        <time>2021-10-10T07:03:34Z</time>
      </trkpt>
      <trkpt lat="46.59849" lon="0.58844">
        <ele>100.2</ele>
        <time>2021-10-10T07:03:37Z</time>
      </trkpt>
      <trkpt lat="46.5985" lon="0.58814">
        <ele>100.2</ele>
        <time>2021-10-10T07:03:42Z</time>
      </trkpt>
      <trkpt lat="46.59854" lon="0.58772">
        <ele>100.4</ele>
        <time>2021-10-10T07:03:49Z</time>
      </trkpt>
      <trkpt lat="46.59854" lon="0.58733">
        <ele>99.6</ele>
        <time>2021-10-10T07:03:55Z</time>
      </trkpt>
      <trkpt lat="46.59856" lon="0.58703">
        <ele>98.8</ele>
        <time>2021-10-10T07:03:59Z</time>
      </trkpt>
      <trkpt lat="46.59857" lon="0.58678">
        <ele>98.2</ele>
        <time>2021-10-10T07:04:02Z</time>
      </trkpt>
      <trkpt lat="46.59858" lon="0.58661">
        <ele>97.6</ele>
        <time>2021-10-10T07:04:04Z</time>
      </trkpt>
      <trkpt lat="46.59859" lon="0.58645">
        <ele>96.6</ele>
        <time>2021-10-10T07:04:06Z</time>
      </trkpt>
      <trkpt lat="46.5986" lon="0.5863">
        <ele>94.8</ele>
        <time>2021-10-10T07:04:08Z</time>
      </trkpt>
      <trkpt lat="46.5986" lon="0.58623">
        <ele>94.2</ele>
        <time>2021-10-10T07:04:09Z</time>
      </trkpt>
      <trkpt lat="46.5986" lon="0.58617">
        <ele>93.4</ele>
        <time>2021-10-10T07:04:10Z</time>
      </trkpt>
      <trkpt lat="46.5986" lon="0.58614">
        <ele>93</ele>
        <time>2021-10-10T07:04:11Z</time>
      </trkpt>
      <trkpt lat="46.59861" lon="0.58612">
        <ele>92.6</ele>
        <time>2021-10-10T07:04:12Z</time>
      </trkpt>
      <trkpt lat="46.59863" lon="0.58611">
        <ele>92</ele>
        <time>2021-10-10T07:04:13Z</time>
      </trkpt>
      <trkpt lat="46.59867" lon="0.58615">
        <ele>91.4</ele>
        <time>2021-10-10T07:04:15Z</time>
      </trkpt>
      <trkpt lat="46.59874" lon="0.5862">
        <ele>90.8</ele>
        <time>2021-10-10T07:04:17Z</time>
      </trkpt>
      <trkpt lat="46.59882" lon="0.58626">
        <ele>90.2</ele>
        <time>2021-10-10T07:04:19Z</time>
      </trkpt>
      <trkpt lat="46.59887" lon="0.58629">
        <ele>89.8</ele>
        <time>2021-10-10T07:04:20Z</time>
      </trkpt>
      <trkpt lat="46.5991" lon="0.58642">
        <ele>88.4</ele>
        <time>2021-10-10T07:04:24Z</time>
      </trkpt>
      <trkpt lat="46.59915" lon="0.58646">
        <ele>88.2</ele>
        <time>2021-10-10T07:04:25Z</time>
      </trkpt>
      <trkpt lat="46.59931" lon="0.58656">
        <ele>87</ele>
        <time>2021-10-10T07:04:28Z</time>
      </trkpt>
      <trkpt lat="46.59937" lon="0.5866">
        <ele>86</ele>
        <time>2021-10-10T07:04:29Z</time>
      </trkpt>
      <trkpt lat="46.59947" lon="0.5867">
        <ele>84.8</ele>
        <time>2021-10-10T07:04:31Z</time>
      </trkpt>
      <trkpt lat="46.59956" lon="0.58682">
        <ele>83.8</ele>
        <time>2021-10-10T07:04:33Z</time>
      </trkpt>
      <trkpt lat="46.59969" lon="0.587">
        <ele>82.6</ele>
        <time>2021-10-10T07:04:36Z</time>
      </trkpt>
      <trkpt lat="46.59976" lon="0.5871">
        <ele>80.6</ele>
        <time>2021-10-10T07:04:38Z</time>
      </trkpt>
      <trkpt lat="46.59981" lon="0.58719">
        <ele>79.2</ele>
        <time>2021-10-10T07:04:40Z</time>
      </trkpt>
      <trkpt lat="46.59986" lon="0.58725">
        <ele>78.8</ele>
        <time>2021-10-10T07:04:41Z</time>
      </trkpt>
      <trkpt lat="46.59986" lon="0.58725">
        <ele>78.2</ele>
        <time>2021-10-10T07:04:42Z</time>
      </trkpt>
      <trkpt lat="46.59988" lon="0.58725">
        <ele>77.6</ele>
        <time>2021-10-10T07:04:43Z</time>
      </trkpt>
      <trkpt lat="46.59993" lon="0.58722">
        <ele>77.2</ele>
        <time>2021-10-10T07:04:45Z</time>
      </trkpt>
      <trkpt lat="46.59997" lon="0.58718">
        <ele>76.8</ele>
        <time>2021-10-10T07:04:46Z</time>
      </trkpt>
      <trkpt lat="46.59999" lon="0.58714">
        <ele>76.6</ele>
        <time>2021-10-10T07:04:47Z</time>
      </trkpt>
      <trkpt lat="46.60001" lon="0.58709">
        <ele>75.8</ele>
        <time>2021-10-10T07:04:48Z</time>
      </trkpt>
      <trkpt lat="46.60005" lon="0.58698">
        <ele>75.6</ele>
        <time>2021-10-10T07:04:50Z</time>
      </trkpt>
      <trkpt lat="46.60007" lon="0.58689">
        <ele>75.6</ele>
        <time>2021-10-10T07:04:52Z</time>
      </trkpt>
      <trkpt lat="46.60007" lon="0.58685">
        <ele>75.6</ele>
        <time>2021-10-10T07:04:53Z</time>
      </trkpt>
      <trkpt lat="46.60005" lon="0.58682">
        <ele>75.8</ele>
        <time>2021-10-10T07:04:54Z</time>
      </trkpt>
      <trkpt lat="46.6" lon="0.58671">
        <ele>76</ele>
        <time>2021-10-10T07:04:57Z</time>
      </trkpt>
      <trkpt lat="46.59997" lon="0.58668">
        <ele>76.2</ele>
        <time>2021-10-10T07:04:58Z</time>
      </trkpt>
      <trkpt lat="46.59992" lon="0.58661">
        <ele>77</ele>
        <time>2021-10-10T07:05:00Z</time>
      </trkpt>
      <trkpt lat="46.59981" lon="0.58646">
        <ele>77.4</ele>
        <time>2021-10-10T07:05:04Z</time>
      </trkpt>
      <trkpt lat="46.59978" lon="0.58643">
        <ele>77.6</ele>
        <time>2021-10-10T07:05:05Z</time>
      </trkpt>
      <trkpt lat="46.59961" lon="0.58626">
        <ele>78</ele>
        <time>2021-10-10T07:05:11Z</time>
      </trkpt>
      <trkpt lat="46.59958" lon="0.58623">
        <ele>78</ele>
        <time>2021-10-10T07:05:12Z</time>
      </trkpt>
      <trkpt lat="46.59938" lon="0.58604">
        <ele>79</ele>
        <time>2021-10-10T07:05:18Z</time>
      </trkpt>
      <trkpt lat="46.59919" lon="0.58583">
        <ele>80</ele>
        <time>2021-10-10T07:05:25Z</time>
      </trkpt>
      <trkpt lat="46.59917" lon="0.58579">
        <ele>80.2</ele>
        <time>2021-10-10T07:05:26Z</time>
      </trkpt>
      <trkpt lat="46.59903" lon="0.58557">
        <ele>81.4</ele>
        <time>2021-10-10T07:05:33Z</time>
      </trkpt>
      <trkpt lat="46.59893" lon="0.5854">
        <ele>81.4</ele>
        <time>2021-10-10T07:05:38Z</time>
      </trkpt>
      <trkpt lat="46.59873" lon="0.58507">
        <ele>82.4</ele>
        <time>2021-10-10T07:05:46Z</time>
      </trkpt>
      <trkpt lat="46.59855" lon="0.5848">
        <ele>83</ele>
        <time>2021-10-10T07:05:54Z</time>
      </trkpt>
      <trkpt lat="46.59848" lon="0.5847">
        <ele>83.6</ele>
        <time>2021-10-10T07:05:58Z</time>
      </trkpt>
      <trkpt lat="46.59841" lon="0.58458">
        <ele>83.6</ele>
        <time>2021-10-10T07:06:02Z</time>
      </trkpt>
      <trkpt lat="46.59828" lon="0.58442">
        <ele>84.6</ele>
        <time>2021-10-10T07:06:07Z</time>
      </trkpt>
      <trkpt lat="46.59825" lon="0.58439">
        <ele>84.6</ele>
        <time>2021-10-10T07:06:08Z</time>
      </trkpt>
      <trkpt lat="46.59804" lon="0.58416">
        <ele>85.6</ele>
        <time>2021-10-10T07:06:16Z</time>
      </trkpt>
      <trkpt lat="46.59783" lon="0.58395">
        <ele>85.8</ele>
        <time>2021-10-10T07:06:25Z</time>
      </trkpt>
      <trkpt lat="46.59774" lon="0.58386">
        <ele>86.8</ele>
        <time>2021-10-10T07:06:29Z</time>
      </trkpt>
      <trkpt lat="46.59767" lon="0.5838">
        <ele>87.4</ele>
        <time>2021-10-10T07:06:32Z</time>
      </trkpt>
      <trkpt lat="46.59753" lon="0.58367">
        <ele>87.8</ele>
        <time>2021-10-10T07:06:37Z</time>
      </trkpt>
      <trkpt lat="46.5975" lon="0.58365">
        <ele>87.8</ele>
        <time>2021-10-10T07:06:38Z</time>
      </trkpt>
      <trkpt lat="46.59733" lon="0.58351">
        <ele>88.6</ele>
        <time>2021-10-10T07:06:44Z</time>
      </trkpt>
      <trkpt lat="46.59728" lon="0.58346">
        <ele>88.8</ele>
        <time>2021-10-10T07:06:46Z</time>
      </trkpt>
      <trkpt lat="46.59713" lon="0.58332">
        <ele>89.4</ele>
        <time>2021-10-10T07:06:50Z</time>
      </trkpt>
      <trkpt lat="46.59702" lon="0.58322">
        <ele>89.8</ele>
        <time>2021-10-10T07:06:53Z</time>
      </trkpt>
      <trkpt lat="46.59684" lon="0.58306">
        <ele>90.6</ele>
        <time>2021-10-10T07:06:58Z</time>
      </trkpt>
      <trkpt lat="46.59671" lon="0.58294">
        <ele>91</ele>
        <time>2021-10-10T07:07:02Z</time>
      </trkpt>
      <trkpt lat="46.5966" lon="0.58284">
        <ele>91.4</ele>
        <time>2021-10-10T07:07:05Z</time>
      </trkpt>
      <trkpt lat="46.59643" lon="0.58269">
        <ele>92</ele>
        <time>2021-10-10T07:07:11Z</time>
      </trkpt>
      <trkpt lat="46.59626" lon="0.58254">
        <ele>92.8</ele>
        <time>2021-10-10T07:07:18Z</time>
      </trkpt>
      <trkpt lat="46.59618" lon="0.58246">
        <ele>93.2</ele>
        <time>2021-10-10T07:07:22Z</time>
      </trkpt>
      <trkpt lat="46.59613" lon="0.5824">
        <ele>93.4</ele>
        <time>2021-10-10T07:07:24Z</time>
      </trkpt>
      <trkpt lat="46.59599" lon="0.58227">
        <ele>94.2</ele>
        <time>2021-10-10T07:07:29Z</time>
      </trkpt>
      <trkpt lat="46.59596" lon="0.58225">
        <ele>94.2</ele>
        <time>2021-10-10T07:07:30Z</time>
      </trkpt>
      <trkpt lat="46.59579" lon="0.58208">
        <ele>94.4</ele>
        <time>2021-10-10T07:07:36Z</time>
      </trkpt>
      <trkpt lat="46.59561" lon="0.58191">
        <ele>95.2</ele>
        <time>2021-10-10T07:07:42Z</time>
      </trkpt>
      <trkpt lat="46.59558" lon="0.58189">
        <ele>95.2</ele>
        <time>2021-10-10T07:07:43Z</time>
      </trkpt>
      <trkpt lat="46.59547" lon="0.58177">
        <ele>95.8</ele>
        <time>2021-10-10T07:07:47Z</time>
      </trkpt>
      <trkpt lat="46.59532" lon="0.58158">
        <ele>96.4</ele>
        <time>2021-10-10T07:07:52Z</time>
      </trkpt>
      <trkpt lat="46.59522" lon="0.58144">
        <ele>97</ele>
        <time>2021-10-10T07:07:55Z</time>
      </trkpt>
      <trkpt lat="46.59514" lon="0.58129">
        <ele>97.4</ele>
        <time>2021-10-10T07:07:58Z</time>
      </trkpt>
      <trkpt lat="46.59507" lon="0.58114">
        <ele>97.8</ele>
        <time>2021-10-10T07:08:02Z</time>
      </trkpt>
      <trkpt lat="46.59501" lon="0.58097">
        <ele>98.4</ele>
        <time>2021-10-10T07:08:08Z</time>
      </trkpt>
      <trkpt lat="46.59503" lon="0.58081">
        <ele>98.8</ele>
        <time>2021-10-10T07:08:13Z</time>
      </trkpt>
      <trkpt lat="46.59505" lon="0.58055">
        <ele>99.6</ele>
        <time>2021-10-10T07:08:20Z</time>
      </trkpt>
      <trkpt lat="46.59509" lon="0.58037">
        <ele>100.4</ele>
        <time>2021-10-10T07:08:25Z</time>
      </trkpt>
      <trkpt lat="46.5951" lon="0.58033">
        <ele>100.8</ele>
        <time>2021-10-10T07:08:26Z</time>
      </trkpt>
      <trkpt lat="46.59517" lon="0.58012">
        <ele>101.4</ele>
        <time>2021-10-10T07:08:31Z</time>
      </trkpt>
      <trkpt lat="46.59518" lon="0.58003">
        <ele>101.8</ele>
        <time>2021-10-10T07:08:33Z</time>
      </trkpt>
      <trkpt lat="46.59521" lon="0.57983">
        <ele>102.6</ele>
        <time>2021-10-10T07:08:37Z</time>
      </trkpt>
      <trkpt lat="46.59524" lon="0.57969">
        <ele>102.8</ele>
        <time>2021-10-10T07:08:40Z</time>
      </trkpt>
      <trkpt lat="46.59527" lon="0.57949">
        <ele>103.4</ele>
        <time>2021-10-10T07:08:44Z</time>
      </trkpt>
      <trkpt lat="46.59529" lon="0.57917">
        <ele>103.8</ele>
        <time>2021-10-10T07:08:50Z</time>
      </trkpt>
      <trkpt lat="46.5953" lon="0.57902">
        <ele>104</ele>
        <time>2021-10-10T07:08:53Z</time>
      </trkpt>
      <trkpt lat="46.59529" lon="0.57889">
        <ele>104</ele>
        <time>2021-10-10T07:08:56Z</time>
      </trkpt>
      <trkpt lat="46.59528" lon="0.57855">
        <ele>104.4</ele>
        <time>2021-10-10T07:09:03Z</time>
      </trkpt>
      <trkpt lat="46.59529" lon="0.57833">
        <ele>104.4</ele>
        <time>2021-10-10T07:09:08Z</time>
      </trkpt>
      <trkpt lat="46.5953" lon="0.57806">
        <ele>104.6</ele>
        <time>2021-10-10T07:09:14Z</time>
      </trkpt>
      <trkpt lat="46.59531" lon="0.57795">
        <ele>104.6</ele>
        <time>2021-10-10T07:09:16Z</time>
      </trkpt>
      <trkpt lat="46.59533" lon="0.57783">
        <ele>104.6</ele>
        <time>2021-10-10T07:09:18Z</time>
      </trkpt>
      <trkpt lat="46.59535" lon="0.57776">
        <ele>104.6</ele>
        <time>2021-10-10T07:09:19Z</time>
      </trkpt>
      <trkpt lat="46.59543" lon="0.57739">
        <ele>103.6</ele>
        <time>2021-10-10T07:09:24Z</time>
      </trkpt>
      <trkpt lat="46.59552" lon="0.577">
        <ele>103</ele>
        <time>2021-10-10T07:09:29Z</time>
      </trkpt>
      <trkpt lat="46.59553" lon="0.57693">
        <ele>102.8</ele>
        <time>2021-10-10T07:09:30Z</time>
      </trkpt>
      <trkpt lat="46.59554" lon="0.57686">
        <ele>102.8</ele>
        <time>2021-10-10T07:09:31Z</time>
      </trkpt>
      <trkpt lat="46.59557" lon="0.57657">
        <ele>102</ele>
        <time>2021-10-10T07:09:35Z</time>
      </trkpt>
      <trkpt lat="46.59559" lon="0.57649">
        <ele>102</ele>
        <time>2021-10-10T07:09:36Z</time>
      </trkpt>
      <trkpt lat="46.59567" lon="0.576">
        <ele>101.8</ele>
        <time>2021-10-10T07:09:42Z</time>
      </trkpt>
      <trkpt lat="46.59574" lon="0.57564">
        <ele>101.2</ele>
        <time>2021-10-10T07:09:47Z</time>
      </trkpt>
      <trkpt lat="46.59575" lon="0.57557">
        <ele>101.2</ele>
        <time>2021-10-10T07:09:48Z</time>
      </trkpt>
      <trkpt lat="46.59574" lon="0.5755">
        <ele>101.2</ele>
        <time>2021-10-10T07:09:49Z</time>
      </trkpt>
      <trkpt lat="46.59571" lon="0.57533">
        <ele>101.4</ele>
        <time>2021-10-10T07:09:52Z</time>
      </trkpt>
      <trkpt lat="46.5957" lon="0.57527">
        <ele>101.4</ele>
        <time>2021-10-10T07:09:53Z</time>
      </trkpt>
      <trkpt lat="46.59565" lon="0.57496">
        <ele>101.6</ele>
        <time>2021-10-10T07:09:58Z</time>
      </trkpt>
      <trkpt lat="46.59557" lon="0.57461">
        <ele>103</ele>
        <time>2021-10-10T07:10:03Z</time>
      </trkpt>
      <trkpt lat="46.5955" lon="0.57437">
        <ele>103.6</ele>
        <time>2021-10-10T07:10:07Z</time>
      </trkpt>
      <trkpt lat="46.59545" lon="0.57422">
        <ele>104</ele>
        <time>2021-10-10T07:10:10Z</time>
      </trkpt>
      <trkpt lat="46.59536" lon="0.574">
        <ele>104.2</ele>
        <time>2021-10-10T07:10:15Z</time>
      </trkpt>
      <trkpt lat="46.59531" lon="0.57383">
        <ele>105</ele>
        <time>2021-10-10T07:10:19Z</time>
      </trkpt>
      <trkpt lat="46.59529" lon="0.57374">
        <ele>105.6</ele>
        <time>2021-10-10T07:10:21Z</time>
      </trkpt>
      <trkpt lat="46.59525" lon="0.57361">
        <ele>106.2</ele>
        <time>2021-10-10T07:10:24Z</time>
      </trkpt>
      <trkpt lat="46.59519" lon="0.57336">
        <ele>107.2</ele>
        <time>2021-10-10T07:10:30Z</time>
      </trkpt>
      <trkpt lat="46.59516" lon="0.57318">
        <ele>108.2</ele>
        <time>2021-10-10T07:10:34Z</time>
      </trkpt>
      <trkpt lat="46.59509" lon="0.57289">
        <ele>108.6</ele>
        <time>2021-10-10T07:10:41Z</time>
      </trkpt>
      <trkpt lat="46.59501" lon="0.57263">
        <ele>109.2</ele>
        <time>2021-10-10T07:10:47Z</time>
      </trkpt>
      <trkpt lat="46.59499" lon="0.57255">
        <ele>109.4</ele>
        <time>2021-10-10T07:10:49Z</time>
      </trkpt>
      <trkpt lat="46.59492" lon="0.57226">
        <ele>110.2</ele>
        <time>2021-10-10T07:10:56Z</time>
      </trkpt>
      <trkpt lat="46.5949" lon="0.57218">
        <ele>110.2</ele>
        <time>2021-10-10T07:10:58Z</time>
      </trkpt>
      <trkpt lat="46.59483" lon="0.57199">
        <ele>111.2</ele>
        <time>2021-10-10T07:11:03Z</time>
      </trkpt>
      <trkpt lat="46.59482" lon="0.57195">
        <ele>111.4</ele>
        <time>2021-10-10T07:11:04Z</time>
      </trkpt>
      <trkpt lat="46.59474" lon="0.57171">
        <ele>112.2</ele>
        <time>2021-10-10T07:11:10Z</time>
      </trkpt>
      <trkpt lat="46.5947" lon="0.57159">
        <ele>112.4</ele>
        <time>2021-10-10T07:11:13Z</time>
      </trkpt>
      <trkpt lat="46.59465" lon="0.57143">
        <ele>112.6</ele>
        <time>2021-10-10T07:11:17Z</time>
      </trkpt>
      <trkpt lat="46.59454" lon="0.5712">
        <ele>113.2</ele>
        <time>2021-10-10T07:11:23Z</time>
      </trkpt>
      <trkpt lat="46.59447" lon="0.5711">
        <ele>113.4</ele>
        <time>2021-10-10T07:11:26Z</time>
      </trkpt>
      <trkpt lat="46.59443" lon="0.57104">
        <ele>113.4</ele>
        <time>2021-10-10T07:11:28Z</time>
      </trkpt>
      <trkpt lat="46.59431" lon="0.57083">
        <ele>114</ele>
        <time>2021-10-10T07:11:33Z</time>
      </trkpt>
      <trkpt lat="46.59424" lon="0.57068">
        <ele>114.4</ele>
        <time>2021-10-10T07:11:37Z</time>
      </trkpt>
      <trkpt lat="46.59421" lon="0.57059">
        <ele>114.4</ele>
        <time>2021-10-10T07:11:39Z</time>
      </trkpt>
      <trkpt lat="46.59409" lon="0.57032">
        <ele>115.2</ele>
        <time>2021-10-10T07:11:45Z</time>
      </trkpt>
      <trkpt lat="46.59395" lon="0.57004">
        <ele>115.4</ele>
        <time>2021-10-10T07:11:51Z</time>
      </trkpt>
      <trkpt lat="46.59388" lon="0.5698">
        <ele>115.8</ele>
        <time>2021-10-10T07:11:56Z</time>
      </trkpt>
      <trkpt lat="46.59384" lon="0.56961">
        <ele>115.8</ele>
        <time>2021-10-10T07:12:00Z</time>
      </trkpt>
      <trkpt lat="46.59379" lon="0.56939">
        <ele>115.8</ele>
        <time>2021-10-10T07:12:04Z</time>
      </trkpt>
      <trkpt lat="46.59376" lon="0.56927">
        <ele>116</ele>
        <time>2021-10-10T07:12:06Z</time>
      </trkpt>
      <trkpt lat="46.59369" lon="0.56907">
        <ele>116</ele>
        <time>2021-10-10T07:12:09Z</time>
      </trkpt>
      <trkpt lat="46.59363" lon="0.56894">
        <ele>116.2</ele>
        <time>2021-10-10T07:12:11Z</time>
      </trkpt>
      <trkpt lat="46.59349" lon="0.56874">
        <ele>116.6</ele>
        <time>2021-10-10T07:12:15Z</time>
      </trkpt>
      <trkpt lat="46.59345" lon="0.56868">
        <ele>116.6</ele>
        <time>2021-10-10T07:12:16Z</time>
      </trkpt>
      <trkpt lat="46.5932" lon="0.56829">
        <ele>116.8</ele>
        <time>2021-10-10T07:12:23Z</time>
      </trkpt>
      <trkpt lat="46.59292" lon="0.56796">
        <ele>116.6</ele>
        <time>2021-10-10T07:12:30Z</time>
      </trkpt>
      <trkpt lat="46.59287" lon="0.56792">
        <ele>116.6</ele>
        <time>2021-10-10T07:12:31Z</time>
      </trkpt>
      <trkpt lat="46.59278" lon="0.56787">
        <ele>116.6</ele>
        <time>2021-10-10T07:12:33Z</time>
      </trkpt>
      <trkpt lat="46.59273" lon="0.56785">
        <ele>116.6</ele>
        <time>2021-10-10T07:12:34Z</time>
      </trkpt>
      <trkpt lat="46.59268" lon="0.56782">
        <ele>116.6</ele>
        <time>2021-10-10T07:12:35Z</time>
      </trkpt>
      <trkpt lat="46.5926" lon="0.56777">
        <ele>116.4</ele>
        <time>2021-10-10T07:12:37Z</time>
      </trkpt>
      <trkpt lat="46.59252" lon="0.5677">
        <ele>116.4</ele>
        <time>2021-10-10T07:12:39Z</time>
      </trkpt>
      <trkpt lat="46.59244" lon="0.56764">
        <ele>116.4</ele>
        <time>2021-10-10T07:12:41Z</time>
      </trkpt>
      <trkpt lat="46.59228" lon="0.56751">
        <ele>116.6</ele>
        <time>2021-10-10T07:12:45Z</time>
      </trkpt>
      <trkpt lat="46.59224" lon="0.56748">
        <ele>116.8</ele>
        <time>2021-10-10T07:12:47Z</time>
      </trkpt>
      <trkpt lat="46.59223" lon="0.56746">
        <ele>116.8</ele>
        <time>2021-10-10T07:12:48Z</time>
      </trkpt>
      <trkpt lat="46.59223" lon="0.56743">
        <ele>116.4</ele>
        <time>2021-10-10T07:12:50Z</time>
      </trkpt>
      <trkpt lat="46.59225" lon="0.56741">
        <ele>116.2</ele>
        <time>2021-10-10T07:12:52Z</time>
      </trkpt>
      <trkpt lat="46.59235" lon="0.5673">
        <ele>116.2</ele>
        <time>2021-10-10T07:12:56Z</time>
      </trkpt>
      <trkpt lat="46.59249" lon="0.56716">
        <ele>115.6</ele>
        <time>2021-10-10T07:13:00Z</time>
      </trkpt>
      <trkpt lat="46.59253" lon="0.56714">
        <ele>115.4</ele>
        <time>2021-10-10T07:13:01Z</time>
      </trkpt>
      <trkpt lat="46.59257" lon="0.5671">
        <ele>115</ele>
        <time>2021-10-10T07:13:02Z</time>
      </trkpt>
      <trkpt lat="46.59286" lon="0.56678">
        <ele>114.4</ele>
        <time>2021-10-10T07:13:09Z</time>
      </trkpt>
      <trkpt lat="46.59292" lon="0.56674">
        <ele>114.4</ele>
        <time>2021-10-10T07:13:10Z</time>
      </trkpt>
      <trkpt lat="46.59297" lon="0.56671">
        <ele>114.2</ele>
        <time>2021-10-10T07:13:11Z</time>
      </trkpt>
      <trkpt lat="46.59307" lon="0.56664">
        <ele>113.8</ele>
        <time>2021-10-10T07:13:13Z</time>
      </trkpt>
      <trkpt lat="46.59312" lon="0.5666">
        <ele>113.6</ele>
        <time>2021-10-10T07:13:14Z</time>
      </trkpt>
      <trkpt lat="46.59317" lon="0.56657">
        <ele>113.2</ele>
        <time>2021-10-10T07:13:15Z</time>
      </trkpt>
      <trkpt lat="46.59323" lon="0.56655">
        <ele>113</ele>
        <time>2021-10-10T07:13:16Z</time>
      </trkpt>
      <trkpt lat="46.59334" lon="0.56652">
        <ele>112.2</ele>
        <time>2021-10-10T07:13:18Z</time>
      </trkpt>
      <trkpt lat="46.5934" lon="0.5665">
        <ele>111.8</ele>
        <time>2021-10-10T07:13:19Z</time>
      </trkpt>
      <trkpt lat="46.59359" lon="0.56644">
        <ele>111.2</ele>
        <time>2021-10-10T07:13:22Z</time>
      </trkpt>
      <trkpt lat="46.59372" lon="0.56641">
        <ele>111</ele>
        <time>2021-10-10T07:13:24Z</time>
      </trkpt>
      <trkpt lat="46.59383" lon="0.56636">
        <ele>110.6</ele>
        <time>2021-10-10T07:13:26Z</time>
      </trkpt>
      <trkpt lat="46.59389" lon="0.56633">
        <ele>110.2</ele>
        <time>2021-10-10T07:13:27Z</time>
      </trkpt>
      <trkpt lat="46.59402" lon="0.56628">
        <ele>110</ele>
        <time>2021-10-10T07:13:29Z</time>
      </trkpt>
      <trkpt lat="46.59411" lon="0.56624">
        <ele>109.2</ele>
        <time>2021-10-10T07:13:31Z</time>
      </trkpt>
      <trkpt lat="46.59414" lon="0.56623">
        <ele>108.8</ele>
        <time>2021-10-10T07:13:32Z</time>
      </trkpt>
      <trkpt lat="46.59416" lon="0.56624">
        <ele>108.2</ele>
        <time>2021-10-10T07:13:34Z</time>
      </trkpt>
      <trkpt lat="46.59416" lon="0.56625">
        <ele>108.2</ele>
        <time>2021-10-10T07:13:35Z</time>
      </trkpt>
      <trkpt lat="46.59416" lon="0.56625">
        <ele>108</ele>
        <time>2021-10-10T07:13:36Z</time>
      </trkpt>
      <trkpt lat="46.59415" lon="0.56628">
        <ele>108</ele>
        <time>2021-10-10T07:13:38Z</time>
      </trkpt>
      <trkpt lat="46.59415" lon="0.56634">
        <ele>108</ele>
        <time>2021-10-10T07:13:40Z</time>
      </trkpt>
      <trkpt lat="46.59417" lon="0.56652">
        <ele>108.6</ele>
        <time>2021-10-10T07:13:45Z</time>
      </trkpt>
      <trkpt lat="46.59418" lon="0.56668">
        <ele>109.2</ele>
        <time>2021-10-10T07:13:49Z</time>
      </trkpt>
      <trkpt lat="46.59419" lon="0.56673">
        <ele>109.4</ele>
        <time>2021-10-10T07:13:50Z</time>
      </trkpt>
      <trkpt lat="46.5942" lon="0.56679">
        <ele>109.8</ele>
        <time>2021-10-10T07:13:51Z</time>
      </trkpt>
      <trkpt lat="46.59423" lon="0.56689">
        <ele>110.2</ele>
        <time>2021-10-10T07:13:53Z</time>
      </trkpt>
      <trkpt lat="46.59425" lon="0.56695">
        <ele>110.4</ele>
        <time>2021-10-10T07:13:54Z</time>
      </trkpt>
      <trkpt lat="46.59428" lon="0.56705">
        <ele>110.6</ele>
        <time>2021-10-10T07:13:56Z</time>
      </trkpt>
      <trkpt lat="46.59429" lon="0.56715">
        <ele>110.8</ele>
        <time>2021-10-10T07:13:58Z</time>
      </trkpt>
      <trkpt lat="46.5943" lon="0.5672">
        <ele>111</ele>
        <time>2021-10-10T07:13:59Z</time>
      </trkpt>
      <trkpt lat="46.59435" lon="0.56741">
        <ele>111.2</ele>
        <time>2021-10-10T07:14:03Z</time>
      </trkpt>
      <trkpt lat="46.59437" lon="0.56753">
        <ele>111.6</ele>
        <time>2021-10-10T07:14:05Z</time>
      </trkpt>
      <trkpt lat="46.59445" lon="0.56797">
        <ele>112.2</ele>
        <time>2021-10-10T07:14:11Z</time>
      </trkpt>
      <trkpt lat="46.59456" lon="0.56842">
        <ele>112</ele>
        <time>2021-10-10T07:14:18Z</time>
      </trkpt>
      <trkpt lat="46.5947" lon="0.56884">
        <ele>111.6</ele>
        <time>2021-10-10T07:14:25Z</time>
      </trkpt>
      <trkpt lat="46.59481" lon="0.56921">
        <ele>110.6</ele>
        <time>2021-10-10T07:14:31Z</time>
      </trkpt>
      <trkpt lat="46.59481" lon="0.56926">
        <ele>110.6</ele>
        <time>2021-10-10T07:14:32Z</time>
      </trkpt>
      <trkpt lat="46.59483" lon="0.56943">
        <ele>110.8</ele>
        <time>2021-10-10T07:14:35Z</time>
      </trkpt>
      <trkpt lat="46.59484" lon="0.56954">
        <ele>111</ele>
        <time>2021-10-10T07:14:37Z</time>
      </trkpt>
      <trkpt lat="46.59486" lon="0.56993">
        <ele>111</ele>
        <time>2021-10-10T07:14:43Z</time>
      </trkpt>
      <trkpt lat="46.59486" lon="0.57">
        <ele>111.2</ele>
        <time>2021-10-10T07:14:44Z</time>
      </trkpt>
      <trkpt lat="46.59487" lon="0.57021">
        <ele>111.6</ele>
        <time>2021-10-10T07:14:47Z</time>
      </trkpt>
      <trkpt lat="46.59487" lon="0.57036">
        <ele>111.8</ele>
        <time>2021-10-10T07:14:49Z</time>
      </trkpt>
      <trkpt lat="46.59486" lon="0.57073">
        <ele>111.6</ele>
        <time>2021-10-10T07:14:55Z</time>
      </trkpt>
      <trkpt lat="46.59487" lon="0.57087">
        <ele>111.4</ele>
        <time>2021-10-10T07:14:57Z</time>
      </trkpt>
      <trkpt lat="46.59486" lon="0.57102">
        <ele>111.4</ele>
        <time>2021-10-10T07:14:59Z</time>
      </trkpt>
      <trkpt lat="46.59487" lon="0.57119">
        <ele>111.2</ele>
        <time>2021-10-10T07:15:02Z</time>
      </trkpt>
      <trkpt lat="46.5949" lon="0.57128">
        <ele>111.2</ele>
        <time>2021-10-10T07:15:04Z</time>
      </trkpt>
      <trkpt lat="46.59494" lon="0.57134">
        <ele>111.2</ele>
        <time>2021-10-10T07:15:06Z</time>
      </trkpt>
      <trkpt lat="46.595" lon="0.57143">
        <ele>111.2</ele>
        <time>2021-10-10T07:15:08Z</time>
      </trkpt>
      <trkpt lat="46.59508" lon="0.57154">
        <ele>110.6</ele>
        <time>2021-10-10T07:15:10Z</time>
      </trkpt>
      <trkpt lat="46.59513" lon="0.57159">
        <ele>110.4</ele>
        <time>2021-10-10T07:15:11Z</time>
      </trkpt>
      <trkpt lat="46.59535" lon="0.5719">
        <ele>109.4</ele>
        <time>2021-10-10T07:15:16Z</time>
      </trkpt>
      <trkpt lat="46.59555" lon="0.57225">
        <ele>108.4</ele>
        <time>2021-10-10T07:15:20Z</time>
      </trkpt>
      <trkpt lat="46.59564" lon="0.57242">
        <ele>107.6</ele>
        <time>2021-10-10T07:15:22Z</time>
      </trkpt>
      <trkpt lat="46.59578" lon="0.57263">
        <ele>107.2</ele>
        <time>2021-10-10T07:15:25Z</time>
      </trkpt>
      <trkpt lat="46.59589" lon="0.57276">
        <ele>107.2</ele>
        <time>2021-10-10T07:15:27Z</time>
      </trkpt>
      <trkpt lat="46.59608" lon="0.57301">
        <ele>106</ele>
        <time>2021-10-10T07:15:31Z</time>
      </trkpt>
      <trkpt lat="46.59612" lon="0.57306">
        <ele>105.6</ele>
        <time>2021-10-10T07:15:32Z</time>
      </trkpt>
      <trkpt lat="46.59634" lon="0.57331">
        <ele>105</ele>
        <time>2021-10-10T07:15:37Z</time>
      </trkpt>
      <trkpt lat="46.59639" lon="0.57336">
        <ele>104.8</ele>
        <time>2021-10-10T07:15:38Z</time>
      </trkpt>
      <trkpt lat="46.5967" lon="0.57367">
        <ele>103.8</ele>
        <time>2021-10-10T07:15:44Z</time>
      </trkpt>
      <trkpt lat="46.59676" lon="0.57371">
        <ele>103.6</ele>
        <time>2021-10-10T07:15:45Z</time>
      </trkpt>
      <trkpt lat="46.59692" lon="0.57379">
        <ele>103.4</ele>
        <time>2021-10-10T07:15:48Z</time>
      </trkpt>
      <trkpt lat="46.59708" lon="0.57385">
        <ele>102.4</ele>
        <time>2021-10-10T07:15:51Z</time>
      </trkpt>
      <trkpt lat="46.59725" lon="0.5739">
        <ele>101.6</ele>
        <time>2021-10-10T07:15:54Z</time>
      </trkpt>
      <trkpt lat="46.59735" lon="0.57394">
        <ele>101.4</ele>
        <time>2021-10-10T07:15:56Z</time>
      </trkpt>
      <trkpt lat="46.59744" lon="0.57399">
        <ele>101.2</ele>
        <time>2021-10-10T07:15:58Z</time>
      </trkpt>
      <trkpt lat="46.59748" lon="0.57402">
        <ele>101.2</ele>
        <time>2021-10-10T07:15:59Z</time>
      </trkpt>
      <trkpt lat="46.59762" lon="0.57418">
        <ele>100.2</ele>
        <time>2021-10-10T07:16:03Z</time>
      </trkpt>
      <trkpt lat="46.59766" lon="0.57421">
        <ele>99.8</ele>
        <time>2021-10-10T07:16:04Z</time>
      </trkpt>
      <trkpt lat="46.59773" lon="0.57429">
        <ele>99</ele>
        <time>2021-10-10T07:16:06Z</time>
      </trkpt>
      <trkpt lat="46.59789" lon="0.57446">
        <ele>97.6</ele>
        <time>2021-10-10T07:16:10Z</time>
      </trkpt>
      <trkpt lat="46.59794" lon="0.5745">
        <ele>97.4</ele>
        <time>2021-10-10T07:16:11Z</time>
      </trkpt>
      <trkpt lat="46.59805" lon="0.57459">
        <ele>96.4</ele>
        <time>2021-10-10T07:16:14Z</time>
      </trkpt>
      <trkpt lat="46.59808" lon="0.57462">
        <ele>96</ele>
        <time>2021-10-10T07:16:15Z</time>
      </trkpt>
      <trkpt lat="46.5981" lon="0.57465">
        <ele>95.6</ele>
        <time>2021-10-10T07:16:16Z</time>
      </trkpt>
      <trkpt lat="46.59811" lon="0.57468">
        <ele>95.4</ele>
        <time>2021-10-10T07:16:18Z</time>
      </trkpt>
      <trkpt lat="46.598" lon="0.5748">
        <ele>95.2</ele>
        <time>2021-10-10T07:16:22Z</time>
      </trkpt>
      <trkpt lat="46.59777" lon="0.57494">
        <ele>96.8</ele>
        <time>2021-10-10T07:16:30Z</time>
      </trkpt>
      <trkpt lat="46.59767" lon="0.57499">
        <ele>98</ele>
        <time>2021-10-10T07:16:33Z</time>
      </trkpt>
      <trkpt lat="46.59758" lon="0.57505">
        <ele>99.2</ele>
        <time>2021-10-10T07:16:36Z</time>
      </trkpt>
      <trkpt lat="46.59735" lon="0.57523">
        <ele>100.2</ele>
        <time>2021-10-10T07:16:43Z</time>
      </trkpt>
      <trkpt lat="46.59732" lon="0.57526">
        <ele>100.4</ele>
        <time>2021-10-10T07:16:44Z</time>
      </trkpt>
      <trkpt lat="46.59702" lon="0.57549">
        <ele>101.2</ele>
        <time>2021-10-10T07:16:52Z</time>
      </trkpt>
      <trkpt lat="46.59677" lon="0.57569">
        <ele>101</ele>
        <time>2021-10-10T07:16:59Z</time>
      </trkpt>
      <trkpt lat="46.5966" lon="0.57585">
        <ele>100.4</ele>
        <time>2021-10-10T07:17:03Z</time>
      </trkpt>
      <trkpt lat="46.59656" lon="0.57591">
        <ele>100.4</ele>
        <time>2021-10-10T07:17:04Z</time>
      </trkpt>
      <trkpt lat="46.59653" lon="0.57597">
        <ele>100.2</ele>
        <time>2021-10-10T07:17:05Z</time>
      </trkpt>
      <trkpt lat="46.59642" lon="0.57623">
        <ele>99</ele>
        <time>2021-10-10T07:17:09Z</time>
      </trkpt>
      <trkpt lat="46.5964" lon="0.57629">
        <ele>98.8</ele>
        <time>2021-10-10T07:17:10Z</time>
      </trkpt>
      <trkpt lat="46.59641" lon="0.5764">
        <ele>98.6</ele>
        <time>2021-10-10T07:17:12Z</time>
      </trkpt>
      <trkpt lat="46.59643" lon="0.57646">
        <ele>98.6</ele>
        <time>2021-10-10T07:17:13Z</time>
      </trkpt>
      <trkpt lat="46.59659" lon="0.57679">
        <ele>98</ele>
        <time>2021-10-10T07:17:18Z</time>
      </trkpt>
      <trkpt lat="46.59662" lon="0.57686">
        <ele>98.2</ele>
        <time>2021-10-10T07:17:19Z</time>
      </trkpt>
      <trkpt lat="46.59689" lon="0.57743">
        <ele>96.8</ele>
        <time>2021-10-10T07:17:27Z</time>
      </trkpt>
      <trkpt lat="46.59692" lon="0.5775">
        <ele>96.8</ele>
        <time>2021-10-10T07:17:28Z</time>
      </trkpt>
      <trkpt lat="46.59714" lon="0.57801">
        <ele>95.8</ele>
        <time>2021-10-10T07:17:35Z</time>
      </trkpt>
      <trkpt lat="46.59717" lon="0.57809">
        <ele>95.6</ele>
        <time>2021-10-10T07:17:36Z</time>
      </trkpt>
      <trkpt lat="46.59728" lon="0.57848">
        <ele>94.6</ele>
        <time>2021-10-10T07:17:41Z</time>
      </trkpt>
      <trkpt lat="46.59732" lon="0.57856">
        <ele>94.4</ele>
        <time>2021-10-10T07:17:42Z</time>
      </trkpt>
      <trkpt lat="46.59744" lon="0.57889">
        <ele>93.6</ele>
        <time>2021-10-10T07:17:46Z</time>
      </trkpt>
      <trkpt lat="46.59749" lon="0.57905">
        <ele>92.8</ele>
        <time>2021-10-10T07:17:48Z</time>
      </trkpt>
      <trkpt lat="46.59752" lon="0.57913">
        <ele>92.4</ele>
        <time>2021-10-10T07:17:49Z</time>
      </trkpt>
      <trkpt lat="46.59758" lon="0.57948">
        <ele>91.6</ele>
        <time>2021-10-10T07:17:53Z</time>
      </trkpt>
      <trkpt lat="46.59759" lon="0.57956">
        <ele>91.2</ele>
        <time>2021-10-10T07:17:54Z</time>
      </trkpt>
      <trkpt lat="46.59763" lon="0.57987">
        <ele>91</ele>
        <time>2021-10-10T07:17:58Z</time>
      </trkpt>
      <trkpt lat="46.59768" lon="0.58011">
        <ele>91</ele>
        <time>2021-10-10T07:18:01Z</time>
      </trkpt>
      <trkpt lat="46.59773" lon="0.58033">
        <ele>91.8</ele>
        <time>2021-10-10T07:18:04Z</time>
      </trkpt>
      <trkpt lat="46.59777" lon="0.58056">
        <ele>92.4</ele>
        <time>2021-10-10T07:18:07Z</time>
      </trkpt>
      <trkpt lat="46.5978" lon="0.58075">
        <ele>92.8</ele>
        <time>2021-10-10T07:18:10Z</time>
      </trkpt>
      <trkpt lat="46.59785" lon="0.58103">
        <ele>93.6</ele>
        <time>2021-10-10T07:18:14Z</time>
      </trkpt>
      <trkpt lat="46.59788" lon="0.58124">
        <ele>93.8</ele>
        <time>2021-10-10T07:18:17Z</time>
      </trkpt>
      <trkpt lat="46.59794" lon="0.58154">
        <ele>94.6</ele>
        <time>2021-10-10T07:18:22Z</time>
      </trkpt>
      <trkpt lat="46.59796" lon="0.5816">
        <ele>95</ele>
        <time>2021-10-10T07:18:23Z</time>
      </trkpt>
      <trkpt lat="46.59809" lon="0.58207">
        <ele>95.6</ele>
        <time>2021-10-10T07:18:30Z</time>
      </trkpt>
      <trkpt lat="46.59811" lon="0.58213">
        <ele>95.8</ele>
        <time>2021-10-10T07:18:31Z</time>
      </trkpt>
      <trkpt lat="46.59812" lon="0.58226">
        <ele>96</ele>
        <time>2021-10-10T07:18:33Z</time>
      </trkpt>
      <trkpt lat="46.59812" lon="0.58233">
        <ele>96.2</ele>
        <time>2021-10-10T07:18:34Z</time>
      </trkpt>
      <trkpt lat="46.59811" lon="0.58246">
        <ele>95.8</ele>
        <time>2021-10-10T07:18:36Z</time>
      </trkpt>
      <trkpt lat="46.59813" lon="0.58273">
        <ele>95</ele>
        <time>2021-10-10T07:18:40Z</time>
      </trkpt>
      <trkpt lat="46.59814" lon="0.58279">
        <ele>94.6</ele>
        <time>2021-10-10T07:18:41Z</time>
      </trkpt>
      <trkpt lat="46.59819" lon="0.58297">
        <ele>93.6</ele>
        <time>2021-10-10T07:18:44Z</time>
      </trkpt>
      <trkpt lat="46.59821" lon="0.583">
        <ele>93.2</ele>
        <time>2021-10-10T07:18:45Z</time>
      </trkpt>
      <trkpt lat="46.59833" lon="0.58313">
        <ele>93</ele>
        <time>2021-10-10T07:18:49Z</time>
      </trkpt>
      <trkpt lat="46.59853" lon="0.58338">
        <ele>93.2</ele>
        <time>2021-10-10T07:18:54Z</time>
      </trkpt>
      <trkpt lat="46.59865" lon="0.5835">
        <ele>93.2</ele>
        <time>2021-10-10T07:18:57Z</time>
      </trkpt>
      <trkpt lat="46.59873" lon="0.58349">
        <ele>93.2</ele>
        <time>2021-10-10T07:18:59Z</time>
      </trkpt>
      <trkpt lat="46.59875" lon="0.58337">
        <ele>93.4</ele>
        <time>2021-10-10T07:19:02Z</time>
      </trkpt>
      <trkpt lat="46.59872" lon="0.58312">
        <ele>94.4</ele>
        <time>2021-10-10T07:19:07Z</time>
      </trkpt>
      <trkpt lat="46.59874" lon="0.58294">
        <ele>94.2</ele>
        <time>2021-10-10T07:19:10Z</time>
      </trkpt>
      <trkpt lat="46.59874" lon="0.58275">
        <ele>93.6</ele>
        <time>2021-10-10T07:19:13Z</time>
      </trkpt>
      <trkpt lat="46.59874" lon="0.58269">
        <ele>93.2</ele>
        <time>2021-10-10T07:19:14Z</time>
      </trkpt>
      <trkpt lat="46.59875" lon="0.58262">
        <ele>93.2</ele>
        <time>2021-10-10T07:19:15Z</time>
      </trkpt>
      <trkpt lat="46.59876" lon="0.58239">
        <ele>92.2</ele>
        <time>2021-10-10T07:19:18Z</time>
      </trkpt>
      <trkpt lat="46.59876" lon="0.58224">
        <ele>91</ele>
        <time>2021-10-10T07:19:20Z</time>
      </trkpt>
      <trkpt lat="46.59876" lon="0.58202">
        <ele>88.6</ele>
        <time>2021-10-10T07:19:23Z</time>
      </trkpt>
      <trkpt lat="46.59877" lon="0.58187">
        <ele>87.2</ele>
        <time>2021-10-10T07:19:25Z</time>
      </trkpt>
      <trkpt lat="46.59877" lon="0.58179">
        <ele>86</ele>
        <time>2021-10-10T07:19:26Z</time>
      </trkpt>
      <trkpt lat="46.59877" lon="0.58172">
        <ele>85.4</ele>
        <time>2021-10-10T07:19:27Z</time>
      </trkpt>
      <trkpt lat="46.59875" lon="0.58167">
        <ele>85</ele>
        <time>2021-10-10T07:19:28Z</time>
      </trkpt>
      <trkpt lat="46.59874" lon="0.58164">
        <ele>84.8</ele>
        <time>2021-10-10T07:19:29Z</time>
      </trkpt>
      <trkpt lat="46.59869" lon="0.58161">
        <ele>84.6</ele>
        <time>2021-10-10T07:19:31Z</time>
      </trkpt>
      <trkpt lat="46.59861" lon="0.58144">
        <ele>84.8</ele>
        <time>2021-10-10T07:19:35Z</time>
      </trkpt>
      <trkpt lat="46.59849" lon="0.58123">
        <ele>85.2</ele>
        <time>2021-10-10T07:19:41Z</time>
      </trkpt>
      <trkpt lat="46.59841" lon="0.58108">
        <ele>85.6</ele>
        <time>2021-10-10T07:19:46Z</time>
      </trkpt>
      <trkpt lat="46.59833" lon="0.5809">
        <ele>85.6</ele>
        <time>2021-10-10T07:19:50Z</time>
      </trkpt>
      <trkpt lat="46.59823" lon="0.58067">
        <ele>85.4</ele>
        <time>2021-10-10T07:19:56Z</time>
      </trkpt>
      <trkpt lat="46.59816" lon="0.58048">
        <ele>86</ele>
        <time>2021-10-10T07:20:01Z</time>
      </trkpt>
      <trkpt lat="46.59808" lon="0.58028">
        <ele>86.6</ele>
        <time>2021-10-10T07:20:06Z</time>
      </trkpt>
      <trkpt lat="46.59806" lon="0.5802">
        <ele>86.8</ele>
        <time>2021-10-10T07:20:09Z</time>
      </trkpt>
      <trkpt lat="46.59807" lon="0.58016">
        <ele>87</ele>
        <time>2021-10-10T07:20:11Z</time>
      </trkpt>
      <trkpt lat="46.59816" lon="0.58019">
        <ele>87.6</ele>
        <time>2021-10-10T07:20:16Z</time>
      </trkpt>
      <trkpt lat="46.59821" lon="0.58022">
        <ele>88.2</ele>
        <time>2021-10-10T07:20:21Z</time>
      </trkpt>
      <trkpt lat="46.59825" lon="0.58028">
        <ele>89.6</ele>
        <time>2021-10-10T07:20:25Z</time>
      </trkpt>
      <trkpt lat="46.59829" lon="0.58033">
        <ele>90.4</ele>
        <time>2021-10-10T07:20:28Z</time>
      </trkpt>
      <trkpt lat="46.5983" lon="0.58034">
        <ele>90.6</ele>
        <time>2021-10-10T07:20:29Z</time>
      </trkpt>
      <trkpt lat="46.59836" lon="0.58038">
        <ele>91.8</ele>
        <time>2021-10-10T07:20:34Z</time>
      </trkpt>
      <trkpt lat="46.59838" lon="0.5804">
        <ele>92</ele>
        <time>2021-10-10T07:20:35Z</time>
      </trkpt>
      <trkpt lat="46.59849" lon="0.58049">
        <ele>93</ele>
        <time>2021-10-10T07:20:40Z</time>
      </trkpt>
      <trkpt lat="46.59854" lon="0.5805">
        <ele>93.4</ele>
        <time>2021-10-10T07:20:42Z</time>
      </trkpt>
      <trkpt lat="46.59862" lon="0.58055">
        <ele>94.2</ele>
        <time>2021-10-10T07:20:46Z</time>
      </trkpt>
      <trkpt lat="46.59869" lon="0.58061">
        <ele>94.6</ele>
        <time>2021-10-10T07:20:49Z</time>
      </trkpt>
      <trkpt lat="46.59876" lon="0.58067">
        <ele>95.2</ele>
        <time>2021-10-10T07:20:52Z</time>
      </trkpt>
      <trkpt lat="46.59887" lon="0.58078">
        <ele>96</ele>
        <time>2021-10-10T07:20:57Z</time>
      </trkpt>
      <trkpt lat="46.59894" lon="0.58084">
        <ele>96.4</ele>
        <time>2021-10-10T07:21:00Z</time>
      </trkpt>
      <trkpt lat="46.59906" lon="0.58096">
        <ele>97.4</ele>
        <time>2021-10-10T07:21:05Z</time>
      </trkpt>
      <trkpt lat="46.59908" lon="0.58098">
        <ele>97.6</ele>
        <time>2021-10-10T07:21:06Z</time>
      </trkpt>
      <trkpt lat="46.59921" lon="0.58115">
        <ele>98.2</ele>
        <time>2021-10-10T07:21:12Z</time>
      </trkpt>
      <trkpt lat="46.59935" lon="0.58131">
        <ele>98.6</ele>
        <time>2021-10-10T07:21:18Z</time>
      </trkpt>
      <trkpt lat="46.59949" lon="0.58157">
        <ele>99</ele>
        <time>2021-10-10T07:21:25Z</time>
      </trkpt>
      <trkpt lat="46.59951" lon="0.58162">
        <ele>99</ele>
        <time>2021-10-10T07:21:26Z</time>
      </trkpt>
      <trkpt lat="46.59955" lon="0.58172">
        <ele>99</ele>
        <time>2021-10-10T07:21:28Z</time>
      </trkpt>
      <trkpt lat="46.59958" lon="0.58183">
        <ele>98.4</ele>
        <time>2021-10-10T07:21:30Z</time>
      </trkpt>
      <trkpt lat="46.59967" lon="0.58199">
        <ele>97.6</ele>
        <time>2021-10-10T07:21:33Z</time>
      </trkpt>
      <trkpt lat="46.5997" lon="0.58204">
        <ele>97.6</ele>
        <time>2021-10-10T07:21:34Z</time>
      </trkpt>
      <trkpt lat="46.59974" lon="0.58208">
        <ele>97.6</ele>
        <time>2021-10-10T07:21:35Z</time>
      </trkpt>
      <trkpt lat="46.59989" lon="0.58221">
        <ele>98.4</ele>
        <time>2021-10-10T07:21:39Z</time>
      </trkpt>
      <trkpt lat="46.59995" lon="0.58226">
        <ele>98.8</ele>
        <time>2021-10-10T07:21:41Z</time>
      </trkpt>
      <trkpt lat="46.60009" lon="0.58236">
        <ele>99.4</ele>
        <time>2021-10-10T07:21:45Z</time>
      </trkpt>
      <trkpt lat="46.60013" lon="0.58238">
        <ele>99.4</ele>
        <time>2021-10-10T07:21:46Z</time>
      </trkpt>
      <trkpt lat="46.60016" lon="0.58239">
        <ele>99.6</ele>
        <time>2021-10-10T07:21:47Z</time>
      </trkpt>
      <trkpt lat="46.60019" lon="0.5824">
        <ele>99.8</ele>
        <time>2021-10-10T07:21:48Z</time>
      </trkpt>
      <trkpt lat="46.60032" lon="0.58242">
        <ele>100.8</ele>
        <time>2021-10-10T07:21:52Z</time>
      </trkpt>
      <trkpt lat="46.60035" lon="0.58243">
        <ele>101</ele>
        <time>2021-10-10T07:21:53Z</time>
      </trkpt>
      <trkpt lat="46.60057" lon="0.58249">
        <ele>102</ele>
        <time>2021-10-10T07:21:59Z</time>
      </trkpt>
      <trkpt lat="46.60061" lon="0.5825">
        <ele>102</ele>
        <time>2021-10-10T07:22:00Z</time>
      </trkpt>
      <trkpt lat="46.60085" lon="0.58256">
        <ele>103</ele>
        <time>2021-10-10T07:22:06Z</time>
      </trkpt>
      <trkpt lat="46.60089" lon="0.58257">
        <ele>103</ele>
        <time>2021-10-10T07:22:07Z</time>
      </trkpt>
      <trkpt lat="46.6012" lon="0.58262">
        <ele>102.8</ele>
        <time>2021-10-10T07:22:14Z</time>
      </trkpt>
      <trkpt lat="46.60159" lon="0.58269">
        <ele>103.4</ele>
        <time>2021-10-10T07:22:23Z</time>
      </trkpt>
      <trkpt lat="46.60198" lon="0.58277">
        <ele>103</ele>
        <time>2021-10-10T07:22:31Z</time>
      </trkpt>
      <trkpt lat="46.60226" lon="0.58282">
        <ele>102.6</ele>
        <time>2021-10-10T07:22:37Z</time>
      </trkpt>
      <trkpt lat="46.6023" lon="0.58284">
        <ele>102.2</ele>
        <time>2021-10-10T07:22:38Z</time>
      </trkpt>
      <trkpt lat="46.60234" lon="0.58287">
        <ele>102</ele>
        <time>2021-10-10T07:22:39Z</time>
      </trkpt>
      <trkpt lat="46.60237" lon="0.58291">
        <ele>102</ele>
        <time>2021-10-10T07:22:40Z</time>
      </trkpt>
      <trkpt lat="46.6024" lon="0.58296">
        <ele>102</ele>
        <time>2021-10-10T07:22:41Z</time>
      </trkpt>
      <trkpt lat="46.60243" lon="0.58302">
        <ele>101.8</ele>
        <time>2021-10-10T07:22:42Z</time>
      </trkpt>
      <trkpt lat="46.60263" lon="0.58341">
        <ele>101.4</ele>
        <time>2021-10-10T07:22:49Z</time>
      </trkpt>
      <trkpt lat="46.60272" lon="0.5836">
        <ele>101</ele>
        <time>2021-10-10T07:22:52Z</time>
      </trkpt>
      <trkpt lat="46.60288" lon="0.58391">
        <ele>99.8</ele>
        <time>2021-10-10T07:22:57Z</time>
      </trkpt>
      <trkpt lat="46.60302" lon="0.58419">
        <ele>98.6</ele>
        <time>2021-10-10T07:23:01Z</time>
      </trkpt>
      <trkpt lat="46.6031" lon="0.58434">
        <ele>98</ele>
        <time>2021-10-10T07:23:03Z</time>
      </trkpt>
      <trkpt lat="46.60314" lon="0.58442">
        <ele>97.6</ele>
        <time>2021-10-10T07:23:04Z</time>
      </trkpt>
      <trkpt lat="46.60327" lon="0.5847">
        <ele>96</ele>
        <time>2021-10-10T07:23:07Z</time>
      </trkpt>
      <trkpt lat="46.60331" lon="0.5848">
        <ele>94.6</ele>
        <time>2021-10-10T07:23:08Z</time>
      </trkpt>
      <trkpt lat="46.6034" lon="0.58499">
        <ele>93.6</ele>
        <time>2021-10-10T07:23:10Z</time>
      </trkpt>
      <trkpt lat="46.60343" lon="0.58506">
        <ele>93.2</ele>
        <time>2021-10-10T07:23:11Z</time>
      </trkpt>
      <trkpt lat="46.60346" lon="0.58511">
        <ele>93</ele>
        <time>2021-10-10T07:23:12Z</time>
      </trkpt>
      <trkpt lat="46.60348" lon="0.58513">
        <ele>92.4</ele>
        <time>2021-10-10T07:23:13Z</time>
      </trkpt>
      <trkpt lat="46.60351" lon="0.58515">
        <ele>92.2</ele>
        <time>2021-10-10T07:23:14Z</time>
      </trkpt>
      <trkpt lat="46.60357" lon="0.5852">
        <ele>92</ele>
        <time>2021-10-10T07:23:17Z</time>
      </trkpt>
      <trkpt lat="46.60357" lon="0.58522">
        <ele>92.2</ele>
        <time>2021-10-10T07:23:18Z</time>
      </trkpt>
      <trkpt lat="46.60356" lon="0.58528">
        <ele>92.4</ele>
        <time>2021-10-10T07:23:20Z</time>
      </trkpt>
      <trkpt lat="46.60351" lon="0.58536">
        <ele>92.6</ele>
        <time>2021-10-10T07:23:22Z</time>
      </trkpt>
      <trkpt lat="46.60345" lon="0.5855">
        <ele>92.2</ele>
        <time>2021-10-10T07:23:25Z</time>
      </trkpt>
      <trkpt lat="46.60342" lon="0.58561">
        <ele>91.8</ele>
        <time>2021-10-10T07:23:27Z</time>
      </trkpt>
      <trkpt lat="46.60341" lon="0.58566">
        <ele>91.8</ele>
        <time>2021-10-10T07:23:28Z</time>
      </trkpt>
      <trkpt lat="46.6034" lon="0.58585">
        <ele>91.6</ele>
        <time>2021-10-10T07:23:32Z</time>
      </trkpt>
      <trkpt lat="46.6034" lon="0.58596">
        <ele>91.4</ele>
        <time>2021-10-10T07:23:34Z</time>
      </trkpt>
      <trkpt lat="46.6034" lon="0.58602">
        <ele>91.4</ele>
        <time>2021-10-10T07:23:35Z</time>
      </trkpt>
      <trkpt lat="46.6034" lon="0.58608">
        <ele>91.2</ele>
        <time>2021-10-10T07:23:36Z</time>
      </trkpt>
      <trkpt lat="46.60341" lon="0.58615">
        <ele>90.2</ele>
        <time>2021-10-10T07:23:37Z</time>
      </trkpt>
      <trkpt lat="46.60344" lon="0.58641">
        <ele>88.8</ele>
        <time>2021-10-10T07:23:40Z</time>
      </trkpt>
      <trkpt lat="46.60345" lon="0.58657">
        <ele>88.2</ele>
        <time>2021-10-10T07:23:42Z</time>
      </trkpt>
      <trkpt lat="46.60345" lon="0.58665">
        <ele>87.8</ele>
        <time>2021-10-10T07:23:43Z</time>
      </trkpt>
      <trkpt lat="46.60346" lon="0.58672">
        <ele>87.6</ele>
        <time>2021-10-10T07:23:44Z</time>
      </trkpt>
      <trkpt lat="46.60351" lon="0.5872">
        <ele>86.8</ele>
        <time>2021-10-10T07:23:50Z</time>
      </trkpt>
      <trkpt lat="46.60352" lon="0.58732">
        <ele>86.8</ele>
        <time>2021-10-10T07:23:52Z</time>
      </trkpt>
      <trkpt lat="46.60353" lon="0.58742">
        <ele>87</ele>
        <time>2021-10-10T07:23:54Z</time>
      </trkpt>
      <trkpt lat="46.60354" lon="0.58748">
        <ele>87</ele>
        <time>2021-10-10T07:23:55Z</time>
      </trkpt>
      <trkpt lat="46.60356" lon="0.58771">
        <ele>86.8</ele>
        <time>2021-10-10T07:24:00Z</time>
      </trkpt>
      <trkpt lat="46.60355" lon="0.58776">
        <ele>86.6</ele>
        <time>2021-10-10T07:24:01Z</time>
      </trkpt>
      <trkpt lat="46.60354" lon="0.58791">
        <ele>85.8</ele>
        <time>2021-10-10T07:24:03Z</time>
      </trkpt>
      <trkpt lat="46.60353" lon="0.58799">
        <ele>85.4</ele>
        <time>2021-10-10T07:24:04Z</time>
      </trkpt>
      <trkpt lat="46.60351" lon="0.58806">
        <ele>85</ele>
        <time>2021-10-10T07:24:05Z</time>
      </trkpt>
      <trkpt lat="46.60345" lon="0.58821">
        <ele>84.2</ele>
        <time>2021-10-10T07:24:07Z</time>
      </trkpt>
      <trkpt lat="46.60335" lon="0.58842">
        <ele>84</ele>
        <time>2021-10-10T07:24:11Z</time>
      </trkpt>
      <trkpt lat="46.60329" lon="0.58849">
        <ele>84</ele>
        <time>2021-10-10T07:24:13Z</time>
      </trkpt>
      <trkpt lat="46.6032" lon="0.58855">
        <ele>84</ele>
        <time>2021-10-10T07:24:15Z</time>
      </trkpt>
      <trkpt lat="46.60311" lon="0.58859">
        <ele>83.6</ele>
        <time>2021-10-10T07:24:17Z</time>
      </trkpt>
      <trkpt lat="46.60307" lon="0.58859">
        <ele>83.2</ele>
        <time>2021-10-10T07:24:18Z</time>
      </trkpt>
      <trkpt lat="46.60299" lon="0.58858">
        <ele>83</ele>
        <time>2021-10-10T07:24:20Z</time>
      </trkpt>
      <trkpt lat="46.60295" lon="0.58858">
        <ele>83</ele>
        <time>2021-10-10T07:24:21Z</time>
      </trkpt>
      <trkpt lat="46.60286" lon="0.58856">
        <ele>82.8</ele>
        <time>2021-10-10T07:24:23Z</time>
      </trkpt>
      <trkpt lat="46.6028" lon="0.5885">
        <ele>82</ele>
        <time>2021-10-10T07:24:25Z</time>
      </trkpt>
      <trkpt lat="46.60272" lon="0.58845">
        <ele>80.8</ele>
        <time>2021-10-10T07:24:27Z</time>
      </trkpt>
      <trkpt lat="46.60263" lon="0.58841">
        <ele>80.2</ele>
        <time>2021-10-10T07:24:29Z</time>
      </trkpt>
      <trkpt lat="46.60253" lon="0.58831">
        <ele>80.2</ele>
        <time>2021-10-10T07:24:32Z</time>
      </trkpt>
      <trkpt lat="46.6025" lon="0.58828">
        <ele>80.2</ele>
        <time>2021-10-10T07:24:33Z</time>
      </trkpt>
      <trkpt lat="46.60247" lon="0.58825">
        <ele>80</ele>
        <time>2021-10-10T07:24:34Z</time>
      </trkpt>
      <trkpt lat="46.60244" lon="0.58822">
        <ele>79.8</ele>
        <time>2021-10-10T07:24:35Z</time>
      </trkpt>
      <trkpt lat="46.60241" lon="0.58817">
        <ele>79.8</ele>
        <time>2021-10-10T07:24:36Z</time>
      </trkpt>
      <trkpt lat="46.60237" lon="0.58809">
        <ele>79.4</ele>
        <time>2021-10-10T07:24:38Z</time>
      </trkpt>
      <trkpt lat="46.6023" lon="0.58803">
        <ele>78.6</ele>
        <time>2021-10-10T07:24:40Z</time>
      </trkpt>
      <trkpt lat="46.60223" lon="0.58796">
        <ele>77.8</ele>
        <time>2021-10-10T07:24:42Z</time>
      </trkpt>
      <trkpt lat="46.60219" lon="0.58794">
        <ele>77.6</ele>
        <time>2021-10-10T07:24:43Z</time>
      </trkpt>
      <trkpt lat="46.60195" lon="0.58784">
        <ele>76.6</ele>
        <time>2021-10-10T07:24:48Z</time>
      </trkpt>
      <trkpt lat="46.6019" lon="0.58783">
        <ele>76.4</ele>
        <time>2021-10-10T07:24:49Z</time>
      </trkpt>
      <trkpt lat="46.60175" lon="0.58782">
        <ele>75.6</ele>
        <time>2021-10-10T07:24:52Z</time>
      </trkpt>
      <trkpt lat="46.6017" lon="0.58782">
        <ele>75.4</ele>
        <time>2021-10-10T07:24:53Z</time>
      </trkpt>
      <trkpt lat="46.60166" lon="0.58784">
        <ele>75.4</ele>
        <time>2021-10-10T07:24:54Z</time>
      </trkpt>
      <trkpt lat="46.60142" lon="0.58791">
        <ele>74.4</ele>
        <time>2021-10-10T07:24:59Z</time>
      </trkpt>
      <trkpt lat="46.60136" lon="0.58792">
        <ele>74</ele>
        <time>2021-10-10T07:25:00Z</time>
      </trkpt>
      <trkpt lat="46.60119" lon="0.58799">
        <ele>73.6</ele>
        <time>2021-10-10T07:25:03Z</time>
      </trkpt>
      <trkpt lat="46.60109" lon="0.58804">
        <ele>73.4</ele>
        <time>2021-10-10T07:25:05Z</time>
      </trkpt>
      <trkpt lat="46.60104" lon="0.58806">
        <ele>73.2</ele>
        <time>2021-10-10T07:25:06Z</time>
      </trkpt>
      <trkpt lat="46.60095" lon="0.58809">
        <ele>72.6</ele>
        <time>2021-10-10T07:25:08Z</time>
      </trkpt>
      <trkpt lat="46.6009" lon="0.58811">
        <ele>72.4</ele>
        <time>2021-10-10T07:25:09Z</time>
      </trkpt>
      <trkpt lat="46.60086" lon="0.58813">
        <ele>72.2</ele>
        <time>2021-10-10T07:25:10Z</time>
      </trkpt>
      <trkpt lat="46.60079" lon="0.5882">
        <ele>71.6</ele>
        <time>2021-10-10T07:25:12Z</time>
      </trkpt>
      <trkpt lat="46.60076" lon="0.58822">
        <ele>71.4</ele>
        <time>2021-10-10T07:25:13Z</time>
      </trkpt>
      <trkpt lat="46.60069" lon="0.58828">
        <ele>71.2</ele>
        <time>2021-10-10T07:25:15Z</time>
      </trkpt>
      <trkpt lat="46.60063" lon="0.58839">
        <ele>71.2</ele>
        <time>2021-10-10T07:25:17Z</time>
      </trkpt>
      <trkpt lat="46.60059" lon="0.58845">
        <ele>71.2</ele>
        <time>2021-10-10T07:25:18Z</time>
      </trkpt>
      <trkpt lat="46.60055" lon="0.5885">
        <ele>71.2</ele>
        <time>2021-10-10T07:25:19Z</time>
      </trkpt>
      <trkpt lat="46.60047" lon="0.58862">
        <ele>70.6</ele>
        <time>2021-10-10T07:25:21Z</time>
      </trkpt>
      <trkpt lat="46.60041" lon="0.58873">
        <ele>70.2</ele>
        <time>2021-10-10T07:25:23Z</time>
      </trkpt>
      <trkpt lat="46.60031" lon="0.58903">
        <ele>70.4</ele>
        <time>2021-10-10T07:25:28Z</time>
      </trkpt>
      <trkpt lat="46.60018" lon="0.58944">
        <ele>71.2</ele>
        <time>2021-10-10T07:25:34Z</time>
      </trkpt>
      <trkpt lat="46.60016" lon="0.58951">
        <ele>71.6</ele>
        <time>2021-10-10T07:25:35Z</time>
      </trkpt>
      <trkpt lat="46.60011" lon="0.58967">
        <ele>72</ele>
        <time>2021-10-10T07:25:38Z</time>
      </trkpt>
      <trkpt lat="46.6001" lon="0.58973">
        <ele>72</ele>
        <time>2021-10-10T07:25:39Z</time>
      </trkpt>
      <trkpt lat="46.60007" lon="0.5899">
        <ele>71.6</ele>
        <time>2021-10-10T07:25:42Z</time>
      </trkpt>
      <trkpt lat="46.60006" lon="0.59">
        <ele>70.6</ele>
        <time>2021-10-10T07:25:44Z</time>
      </trkpt>
      <trkpt lat="46.60007" lon="0.59004">
        <ele>70.2</ele>
        <time>2021-10-10T07:25:45Z</time>
      </trkpt>
      <trkpt lat="46.60008" lon="0.59007">
        <ele>70</ele>
        <time>2021-10-10T07:25:46Z</time>
      </trkpt>
      <trkpt lat="46.60009" lon="0.59011">
        <ele>69.8</ele>
        <time>2021-10-10T07:25:47Z</time>
      </trkpt>
      <trkpt lat="46.60009" lon="0.59021">
        <ele>69.6</ele>
        <time>2021-10-10T07:25:49Z</time>
      </trkpt>
      <trkpt lat="46.60014" lon="0.59037">
        <ele>69.2</ele>
        <time>2021-10-10T07:25:52Z</time>
      </trkpt>
      <trkpt lat="46.60016" lon="0.59043">
        <ele>69</ele>
        <time>2021-10-10T07:25:53Z</time>
      </trkpt>
      <trkpt lat="46.60019" lon="0.59048">
        <ele>68.8</ele>
        <time>2021-10-10T07:25:54Z</time>
      </trkpt>
      <trkpt lat="46.60024" lon="0.59053">
        <ele>68.4</ele>
        <time>2021-10-10T07:25:56Z</time>
      </trkpt>
      <trkpt lat="46.60029" lon="0.59062">
        <ele>67.8</ele>
        <time>2021-10-10T07:25:58Z</time>
      </trkpt>
      <trkpt lat="46.60032" lon="0.59067">
        <ele>67.6</ele>
        <time>2021-10-10T07:25:59Z</time>
      </trkpt>
      <trkpt lat="46.60035" lon="0.59071">
        <ele>67.6</ele>
        <time>2021-10-10T07:26:00Z</time>
      </trkpt>
      <trkpt lat="46.60038" lon="0.59076">
        <ele>67.4</ele>
        <time>2021-10-10T07:26:01Z</time>
      </trkpt>
      <trkpt lat="46.60044" lon="0.59087">
        <ele>67.2</ele>
        <time>2021-10-10T07:26:03Z</time>
      </trkpt>
      <trkpt lat="46.60048" lon="0.59092">
        <ele>66.6</ele>
        <time>2021-10-10T07:26:04Z</time>
      </trkpt>
      <trkpt lat="46.60051" lon="0.59097">
        <ele>66.4</ele>
        <time>2021-10-10T07:26:05Z</time>
      </trkpt>
      <trkpt lat="46.60055" lon="0.59101">
        <ele>66</ele>
        <time>2021-10-10T07:26:06Z</time>
      </trkpt>
      <trkpt lat="46.60065" lon="0.59115">
        <ele>65.8</ele>
        <time>2021-10-10T07:26:09Z</time>
      </trkpt>
      <trkpt lat="46.60076" lon="0.59134">
        <ele>65.6</ele>
        <time>2021-10-10T07:26:12Z</time>
      </trkpt>
      <trkpt lat="46.60084" lon="0.59146">
        <ele>65.4</ele>
        <time>2021-10-10T07:26:14Z</time>
      </trkpt>
      <trkpt lat="46.60105" lon="0.59175">
        <ele>65.6</ele>
        <time>2021-10-10T07:26:19Z</time>
      </trkpt>
      <trkpt lat="46.60117" lon="0.59191">
        <ele>66</ele>
        <time>2021-10-10T07:26:22Z</time>
      </trkpt>
      <trkpt lat="46.60124" lon="0.59201">
        <ele>65.8</ele>
        <time>2021-10-10T07:26:24Z</time>
      </trkpt>
      <trkpt lat="46.60131" lon="0.5921">
        <ele>65.6</ele>
        <time>2021-10-10T07:26:26Z</time>
      </trkpt>
      <trkpt lat="46.60142" lon="0.59229">
        <ele>65.4</ele>
        <time>2021-10-10T07:26:29Z</time>
      </trkpt>
      <trkpt lat="46.60155" lon="0.5925">
        <ele>64.2</ele>
        <time>2021-10-10T07:26:32Z</time>
      </trkpt>
      <trkpt lat="46.60165" lon="0.59263">
        <ele>63.8</ele>
        <time>2021-10-10T07:26:34Z</time>
      </trkpt>
      <trkpt lat="46.6019" lon="0.59303">
        <ele>63.8</ele>
        <time>2021-10-10T07:26:40Z</time>
      </trkpt>
      <trkpt lat="46.60208" lon="0.59341">
        <ele>63.8</ele>
        <time>2021-10-10T07:26:46Z</time>
      </trkpt>
      <trkpt lat="46.60209" lon="0.59344">
        <ele>63.6</ele>
        <time>2021-10-10T07:26:47Z</time>
      </trkpt>
      <trkpt lat="46.60207" lon="0.59351">
        <ele>63.6</ele>
        <time>2021-10-10T07:26:49Z</time>
      </trkpt>
      <trkpt lat="46.60206" lon="0.59356">
        <ele>63.2</ele>
        <time>2021-10-10T07:26:50Z</time>
      </trkpt>
      <trkpt lat="46.60206" lon="0.59362">
        <ele>63</ele>
        <time>2021-10-10T07:26:51Z</time>
      </trkpt>
      <trkpt lat="46.60208" lon="0.59368">
        <ele>62.8</ele>
        <time>2021-10-10T07:26:52Z</time>
      </trkpt>
      <trkpt lat="46.60211" lon="0.59379">
        <ele>62.6</ele>
        <time>2021-10-10T07:26:54Z</time>
      </trkpt>
      <trkpt lat="46.60219" lon="0.59401">
        <ele>62.4</ele>
        <time>2021-10-10T07:26:58Z</time>
      </trkpt>
      <trkpt lat="46.60234" lon="0.59438">
        <ele>62.8</ele>
        <time>2021-10-10T07:27:04Z</time>
      </trkpt>
      <trkpt lat="46.60255" lon="0.59495">
        <ele>61.6</ele>
        <time>2021-10-10T07:27:12Z</time>
      </trkpt>
      <trkpt lat="46.60279" lon="0.5956">
        <ele>60.8</ele>
        <time>2021-10-10T07:27:20Z</time>
      </trkpt>
      <trkpt lat="46.60286" lon="0.59579">
        <ele>60.4</ele>
        <time>2021-10-10T07:27:22Z</time>
      </trkpt>
      <trkpt lat="46.603" lon="0.59618">
        <ele>59.8</ele>
        <time>2021-10-10T07:27:26Z</time>
      </trkpt>
      <trkpt lat="46.60308" lon="0.59638">
        <ele>59.4</ele>
        <time>2021-10-10T07:27:28Z</time>
      </trkpt>
      <trkpt lat="46.60321" lon="0.59673">
        <ele>58.6</ele>
        <time>2021-10-10T07:27:32Z</time>
      </trkpt>
      <trkpt lat="46.60325" lon="0.59678">
        <ele>58.4</ele>
        <time>2021-10-10T07:27:33Z</time>
      </trkpt>
      <trkpt lat="46.60328" lon="0.59681">
        <ele>58.2</ele>
        <time>2021-10-10T07:27:34Z</time>
      </trkpt>
      <trkpt lat="46.60333" lon="0.59682">
        <ele>58</ele>
        <time>2021-10-10T07:27:35Z</time>
      </trkpt>
      <trkpt lat="46.60338" lon="0.59682">
        <ele>58</ele>
        <time>2021-10-10T07:27:36Z</time>
      </trkpt>
      <trkpt lat="46.60348" lon="0.5968">
        <ele>57.8</ele>
        <time>2021-10-10T07:27:38Z</time>
      </trkpt>
      <trkpt lat="46.60352" lon="0.59677">
        <ele>58</ele>
        <time>2021-10-10T07:27:39Z</time>
      </trkpt>
      <trkpt lat="46.60357" lon="0.59674">
        <ele>58.2</ele>
        <time>2021-10-10T07:27:40Z</time>
      </trkpt>
      <trkpt lat="46.60366" lon="0.59669">
        <ele>58.2</ele>
        <time>2021-10-10T07:27:42Z</time>
      </trkpt>
      <trkpt lat="46.6037" lon="0.59669">
        <ele>58.2</ele>
        <time>2021-10-10T07:27:43Z</time>
      </trkpt>
      <trkpt lat="46.60375" lon="0.59671">
        <ele>58.2</ele>
        <time>2021-10-10T07:27:44Z</time>
      </trkpt>
      <trkpt lat="46.60382" lon="0.59682">
        <ele>58</ele>
        <time>2021-10-10T07:27:46Z</time>
      </trkpt>
      <trkpt lat="46.60401" lon="0.59715">
        <ele>57.8</ele>
        <time>2021-10-10T07:27:51Z</time>
      </trkpt>
      <trkpt lat="46.60405" lon="0.59721">
        <ele>57.8</ele>
        <time>2021-10-10T07:27:52Z</time>
      </trkpt>
      <trkpt lat="46.6041" lon="0.59726">
        <ele>57.6</ele>
        <time>2021-10-10T07:27:53Z</time>
      </trkpt>
      <trkpt lat="46.60426" lon="0.59726">
        <ele>57.6</ele>
        <time>2021-10-10T07:27:56Z</time>
      </trkpt>
      <trkpt lat="46.60438" lon="0.59717">
        <ele>57.2</ele>
        <time>2021-10-10T07:27:59Z</time>
      </trkpt>
      <trkpt lat="46.60441" lon="0.59716">
        <ele>57.2</ele>
        <time>2021-10-10T07:28:00Z</time>
      </trkpt>
      <trkpt lat="46.60448" lon="0.59712">
        <ele>56.2</ele>
        <time>2021-10-10T07:28:05Z</time>
      </trkpt>
      <trkpt lat="46.60448" lon="0.59707">
        <ele>55.8</ele>
        <time>2021-10-10T07:28:15Z</time>
      </trkpt>
      <trkpt lat="46.60456" lon="0.59706">
        <ele>56</ele>
        <time>2021-10-10T07:28:21Z</time>
      </trkpt>
      <trkpt lat="46.60467" lon="0.59707">
        <ele>55.8</ele>
        <time>2021-10-10T07:28:28Z</time>
      </trkpt>
      <trkpt lat="46.60469" lon="0.59707">
        <ele>55.8</ele>
        <time>2021-10-10T07:28:29Z</time>
      </trkpt>
      <trkpt lat="46.60471" lon="0.59702">
        <ele>55.8</ele>
        <time>2021-10-10T07:28:31Z</time>
      </trkpt>
      <trkpt lat="46.60471" lon="0.59699">
        <ele>55.8</ele>
        <time>2021-10-10T07:28:32Z</time>
      </trkpt>
      <trkpt lat="46.60468" lon="0.59697">
        <ele>56</ele>
        <time>2021-10-10T07:28:34Z</time>
      </trkpt>
      <trkpt lat="46.60465" lon="0.59696">
        <ele>56</ele>
        <time>2021-10-10T07:28:36Z</time>
      </trkpt>
      <trkpt lat="46.60465" lon="0.59695">
        <ele>56</ele>
        <time>2021-10-10T07:28:38Z</time>
      </trkpt>
      <trkpt lat="46.60463" lon="0.59694">
        <ele>55.8</ele>
        <time>2021-10-10T07:28:46Z</time>
      </trkpt>
      <trkpt lat="46.60464" lon="0.59697">
        <ele>55.8</ele>
        <time>2021-10-10T07:34:06Z</time>
      </trkpt>
      <trkpt lat="46.60463" lon="0.59704">
        <ele>56</ele>
        <time>2021-10-10T07:34:11Z</time>
      </trkpt>
      <trkpt lat="46.60467" lon="0.59723">
        <ele>56</ele>
        <time>2021-10-10T07:34:18Z</time>
      </trkpt>
      <trkpt lat="46.60469" lon="0.59729">
        <ele>56</ele>
        <time>2021-10-10T07:34:20Z</time>
      </trkpt>
      <trkpt lat="46.60469" lon="0.59736">
        <ele>55.8</ele>
        <time>2021-10-10T07:34:22Z</time>
      </trkpt>
      <trkpt lat="46.60469" lon="0.59758">
        <ele>55.6</ele>
        <time>2021-10-10T07:34:28Z</time>
      </trkpt>
      <trkpt lat="46.60474" lon="0.59764">
        <ele>55.6</ele>
        <time>2021-10-10T07:34:30Z</time>
      </trkpt>
      <trkpt lat="46.60478" lon="0.59765">
        <ele>55.6</ele>
        <time>2021-10-10T07:34:31Z</time>
      </trkpt>
      <trkpt lat="46.60482" lon="0.59764">
        <ele>55.6</ele>
        <time>2021-10-10T07:34:32Z</time>
      </trkpt>
      <trkpt lat="46.60494" lon="0.59757">
        <ele>55.8</ele>
        <time>2021-10-10T07:34:35Z</time>
      </trkpt>
      <trkpt lat="46.60524" lon="0.59733">
        <ele>56.4</ele>
        <time>2021-10-10T07:34:43Z</time>
      </trkpt>
      <trkpt lat="46.60541" lon="0.5971">
        <ele>57.4</ele>
        <time>2021-10-10T07:34:49Z</time>
      </trkpt>
      <trkpt lat="46.60544" lon="0.59708">
        <ele>57.6</ele>
        <time>2021-10-10T07:34:50Z</time>
      </trkpt>
      <trkpt lat="46.60556" lon="0.5971">
        <ele>58.2</ele>
        <time>2021-10-10T07:34:54Z</time>
      </trkpt>
      <trkpt lat="46.60558" lon="0.59713">
        <ele>58.4</ele>
        <time>2021-10-10T07:34:55Z</time>
      </trkpt>
      <trkpt lat="46.60562" lon="0.59728">
        <ele>58.8</ele>
        <time>2021-10-10T07:34:58Z</time>
      </trkpt>
      <trkpt lat="46.60565" lon="0.59745">
        <ele>59.6</ele>
        <time>2021-10-10T07:35:01Z</time>
      </trkpt>
      <trkpt lat="46.6057" lon="0.59763">
        <ele>60</ele>
        <time>2021-10-10T07:35:04Z</time>
      </trkpt>
      <trkpt lat="46.60576" lon="0.59787">
        <ele>60.6</ele>
        <time>2021-10-10T07:35:08Z</time>
      </trkpt>
      <trkpt lat="46.60582" lon="0.59812">
        <ele>61</ele>
        <time>2021-10-10T07:35:12Z</time>
      </trkpt>
      <trkpt lat="46.60599" lon="0.59882">
        <ele>60.8</ele>
        <time>2021-10-10T07:35:22Z</time>
      </trkpt>
      <trkpt lat="46.60613" lon="0.59936">
        <ele>60.6</ele>
        <time>2021-10-10T07:35:29Z</time>
      </trkpt>
      <trkpt lat="46.6063" lon="0.6">
        <ele>59.8</ele>
        <time>2021-10-10T07:35:37Z</time>
      </trkpt>
      <trkpt lat="46.60634" lon="0.60018">
        <ele>59.4</ele>
        <time>2021-10-10T07:35:40Z</time>
      </trkpt>
      <trkpt lat="46.60634" lon="0.60023">
        <ele>59.2</ele>
        <time>2021-10-10T07:35:41Z</time>
      </trkpt>
      <trkpt lat="46.60632" lon="0.60027">
        <ele>59</ele>
        <time>2021-10-10T07:35:42Z</time>
      </trkpt>
      <trkpt lat="46.60623" lon="0.60034">
        <ele>58.6</ele>
        <time>2021-10-10T07:35:44Z</time>
      </trkpt>
      <trkpt lat="46.60618" lon="0.60037">
        <ele>58.4</ele>
        <time>2021-10-10T07:35:45Z</time>
      </trkpt>
      <trkpt lat="46.60595" lon="0.60053">
        <ele>57.4</ele>
        <time>2021-10-10T07:35:49Z</time>
      </trkpt>
      <trkpt lat="46.60589" lon="0.60057">
        <ele>57.4</ele>
        <time>2021-10-10T07:35:50Z</time>
      </trkpt>
      <trkpt lat="46.60549" lon="0.60086">
        <ele>57</ele>
        <time>2021-10-10T07:35:57Z</time>
      </trkpt>
      <trkpt lat="46.605" lon="0.60123">
        <ele>57.4</ele>
        <time>2021-10-10T07:36:06Z</time>
      </trkpt>
      <trkpt lat="46.60495" lon="0.60127">
        <ele>57.4</ele>
        <time>2021-10-10T07:36:07Z</time>
      </trkpt>
      <trkpt lat="46.60446" lon="0.60164">
        <ele>57.6</ele>
        <time>2021-10-10T07:36:16Z</time>
      </trkpt>
      <trkpt lat="46.60395" lon="0.60203">
        <ele>57.2</ele>
        <time>2021-10-10T07:36:25Z</time>
      </trkpt>
      <trkpt lat="46.60384" lon="0.60211">
        <ele>57.2</ele>
        <time>2021-10-10T07:36:27Z</time>
      </trkpt>
      <trkpt lat="46.60333" lon="0.60248">
        <ele>57.4</ele>
        <time>2021-10-10T07:36:36Z</time>
      </trkpt>
      <trkpt lat="46.60283" lon="0.60287">
        <ele>57.2</ele>
        <time>2021-10-10T07:36:45Z</time>
      </trkpt>
      <trkpt lat="46.60273" lon="0.60297">
        <ele>57.2</ele>
        <time>2021-10-10T07:36:47Z</time>
      </trkpt>
      <trkpt lat="46.60261" lon="0.60315">
        <ele>57.2</ele>
        <time>2021-10-10T07:36:50Z</time>
      </trkpt>
      <trkpt lat="46.60232" lon="0.60367">
        <ele>57.4</ele>
        <time>2021-10-10T07:36:59Z</time>
      </trkpt>
      <trkpt lat="46.60204" lon="0.6042">
        <ele>57.6</ele>
        <time>2021-10-10T07:37:07Z</time>
      </trkpt>
      <trkpt lat="46.6018" lon="0.6046">
        <ele>57.6</ele>
        <time>2021-10-10T07:37:13Z</time>
      </trkpt>
      <trkpt lat="46.60158" lon="0.60497">
        <ele>57.6</ele>
        <time>2021-10-10T07:37:20Z</time>
      </trkpt>
      <trkpt lat="46.60144" lon="0.60518">
        <ele>58.6</ele>
        <time>2021-10-10T07:37:25Z</time>
      </trkpt>
      <trkpt lat="46.60141" lon="0.60522">
        <ele>58.8</ele>
        <time>2021-10-10T07:37:26Z</time>
      </trkpt>
      <trkpt lat="46.60112" lon="0.60558">
        <ele>59.4</ele>
        <time>2021-10-10T07:37:34Z</time>
      </trkpt>
      <trkpt lat="46.60092" lon="0.6058">
        <ele>59.6</ele>
        <time>2021-10-10T07:37:39Z</time>
      </trkpt>
      <trkpt lat="46.60076" lon="0.60599">
        <ele>60</ele>
        <time>2021-10-10T07:37:43Z</time>
      </trkpt>
      <trkpt lat="46.60069" lon="0.6061">
        <ele>59.8</ele>
        <time>2021-10-10T07:37:45Z</time>
      </trkpt>
      <trkpt lat="46.60064" lon="0.60622">
        <ele>59.6</ele>
        <time>2021-10-10T07:37:47Z</time>
      </trkpt>
      <trkpt lat="46.60062" lon="0.60629">
        <ele>59.6</ele>
        <time>2021-10-10T07:37:48Z</time>
      </trkpt>
      <trkpt lat="46.60048" lon="0.60684">
        <ele>59</ele>
        <time>2021-10-10T07:37:56Z</time>
      </trkpt>
      <trkpt lat="46.6004" lon="0.60709">
        <ele>58.6</ele>
        <time>2021-10-10T07:38:00Z</time>
      </trkpt>
      <trkpt lat="46.60039" lon="0.60712">
        <ele>58.6</ele>
        <time>2021-10-10T07:38:01Z</time>
      </trkpt>
      <trkpt lat="46.60039" lon="0.60713">
        <ele>58.6</ele>
        <time>2021-10-10T07:38:02Z</time>
      </trkpt>
      <trkpt lat="46.60038" lon="0.60713">
        <ele>58.6</ele>
        <time>2021-10-10T07:38:05Z</time>
      </trkpt>
      <trkpt lat="46.60039" lon="0.60711">
        <ele>58.4</ele>
        <time>2021-10-10T07:38:12Z</time>
      </trkpt>
      <trkpt lat="46.60039" lon="0.60711">
        <ele>58.6</ele>
        <time>2021-10-10T07:38:13Z</time>
      </trkpt>
      <trkpt lat="46.60037" lon="0.6071">
        <ele>57.6</ele>
        <time>2021-10-10T07:38:21Z</time>
      </trkpt>
      <trkpt lat="46.60036" lon="0.60709">
        <ele>57</ele>
        <time>2021-10-10T07:38:30Z</time>
      </trkpt>
      <trkpt lat="46.60031" lon="0.60706">
        <ele>55.8</ele>
        <time>2021-10-10T07:38:34Z</time>
      </trkpt>
      <trkpt lat="46.6003" lon="0.60706">
        <ele>54.6</ele>
        <time>2021-10-10T07:38:35Z</time>
      </trkpt>
      <trkpt lat="46.60029" lon="0.60707">
        <ele>54</ele>
        <time>2021-10-10T07:38:36Z</time>
      </trkpt>
      <trkpt lat="46.60029" lon="0.60707">
        <ele>53.6</ele>
        <time>2021-10-10T07:38:38Z</time>
      </trkpt>
      <trkpt lat="46.60028" lon="0.60708">
        <ele>53.4</ele>
        <time>2021-10-10T07:38:40Z</time>
      </trkpt>
      <trkpt lat="46.60025" lon="0.60714">
        <ele>53.4</ele>
        <time>2021-10-10T07:38:48Z</time>
      </trkpt>
      <trkpt lat="46.60022" lon="0.60722">
        <ele>53.6</ele>
        <time>2021-10-10T07:38:52Z</time>
      </trkpt>
      <trkpt lat="46.60017" lon="0.60729">
        <ele>53.6</ele>
        <time>2021-10-10T07:38:57Z</time>
      </trkpt>
      <trkpt lat="46.60015" lon="0.60731">
        <ele>54</ele>
        <time>2021-10-10T07:38:59Z</time>
      </trkpt>
      <trkpt lat="46.60012" lon="0.60734">
        <ele>54.6</ele>
        <time>2021-10-10T07:39:04Z</time>
      </trkpt>
      <trkpt lat="46.60011" lon="0.60734">
        <ele>54.8</ele>
        <time>2021-10-10T07:39:05Z</time>
      </trkpt>
      <trkpt lat="46.60008" lon="0.60736">
        <ele>55.8</ele>
        <time>2021-10-10T07:39:08Z</time>
      </trkpt>
      <trkpt lat="46.60006" lon="0.60737">
        <ele>56</ele>
        <time>2021-10-10T07:39:09Z</time>
      </trkpt>
      <trkpt lat="46.6" lon="0.60742">
        <ele>56.4</ele>
        <time>2021-10-10T07:39:14Z</time>
      </trkpt>
      <trkpt lat="46.59982" lon="0.60749">
        <ele>56.6</ele>
        <time>2021-10-10T07:39:21Z</time>
      </trkpt>
      <trkpt lat="46.59961" lon="0.60759">
        <ele>56</ele>
        <time>2021-10-10T07:39:27Z</time>
      </trkpt>
      <trkpt lat="46.59946" lon="0.6077">
        <ele>56</ele>
        <time>2021-10-10T07:39:32Z</time>
      </trkpt>
      <trkpt lat="46.59946" lon="0.60774">
        <ele>56.2</ele>
        <time>2021-10-10T07:39:33Z</time>
      </trkpt>
      <trkpt lat="46.59951" lon="0.60794">
        <ele>56.6</ele>
        <time>2021-10-10T07:39:37Z</time>
      </trkpt>
      <trkpt lat="46.59966" lon="0.60845">
        <ele>56.6</ele>
        <time>2021-10-10T07:39:46Z</time>
      </trkpt>
      <trkpt lat="46.59967" lon="0.60851">
        <ele>56.8</ele>
        <time>2021-10-10T07:39:47Z</time>
      </trkpt>
      <trkpt lat="46.59981" lon="0.60902">
        <ele>57.2</ele>
        <time>2021-10-10T07:39:55Z</time>
      </trkpt>
      <trkpt lat="46.59987" lon="0.60921">
        <ele>57.8</ele>
        <time>2021-10-10T07:39:58Z</time>
      </trkpt>
      <trkpt lat="46.59997" lon="0.60959">
        <ele>58.6</ele>
        <time>2021-10-10T07:40:04Z</time>
      </trkpt>
      <trkpt lat="46.60002" lon="0.61">
        <ele>58.6</ele>
        <time>2021-10-10T07:40:11Z</time>
      </trkpt>
      <trkpt lat="46.60003" lon="0.61007">
        <ele>58.8</ele>
        <time>2021-10-10T07:40:15Z</time>
      </trkpt>
      <trkpt lat="46.60004" lon="0.61012">
        <ele>58.8</ele>
        <time>2021-10-10T07:40:23Z</time>
      </trkpt>
      <trkpt lat="46.60006" lon="0.61032">
        <ele>58.8</ele>
        <time>2021-10-10T07:40:28Z</time>
      </trkpt>
      <trkpt lat="46.60007" lon="0.61044">
        <ele>59</ele>
        <time>2021-10-10T07:40:30Z</time>
      </trkpt>
      <trkpt lat="46.60007" lon="0.6105">
        <ele>59.2</ele>
        <time>2021-10-10T07:40:31Z</time>
      </trkpt>
      <trkpt lat="46.60008" lon="0.61063">
        <ele>59.6</ele>
        <time>2021-10-10T07:40:33Z</time>
      </trkpt>
      <trkpt lat="46.60009" lon="0.61098">
        <ele>60</ele>
        <time>2021-10-10T07:40:38Z</time>
      </trkpt>
      <trkpt lat="46.60009" lon="0.61118">
        <ele>60.2</ele>
        <time>2021-10-10T07:40:41Z</time>
      </trkpt>
      <trkpt lat="46.60009" lon="0.61139">
        <ele>61</ele>
        <time>2021-10-10T07:40:44Z</time>
      </trkpt>
      <trkpt lat="46.60009" lon="0.61177">
        <ele>60.6</ele>
        <time>2021-10-10T07:40:50Z</time>
      </trkpt>
      <trkpt lat="46.60009" lon="0.61235">
        <ele>61.6</ele>
        <time>2021-10-10T07:40:59Z</time>
      </trkpt>
      <trkpt lat="46.60008" lon="0.61274">
        <ele>62</ele>
        <time>2021-10-10T07:41:05Z</time>
      </trkpt>
      <trkpt lat="46.60008" lon="0.61286">
        <ele>62.4</ele>
        <time>2021-10-10T07:41:07Z</time>
      </trkpt>
      <trkpt lat="46.60003" lon="0.61316">
        <ele>62.6</ele>
        <time>2021-10-10T07:41:13Z</time>
      </trkpt>
      <trkpt lat="46.59996" lon="0.61325">
        <ele>63</ele>
        <time>2021-10-10T07:41:16Z</time>
      </trkpt>
      <trkpt lat="46.59995" lon="0.61328">
        <ele>63.2</ele>
        <time>2021-10-10T07:41:17Z</time>
      </trkpt>
      <trkpt lat="46.59995" lon="0.6133">
        <ele>63.2</ele>
        <time>2021-10-10T07:41:18Z</time>
      </trkpt>
      <trkpt lat="46.59998" lon="0.61338">
        <ele>63.4</ele>
        <time>2021-10-10T07:41:21Z</time>
      </trkpt>
      <trkpt lat="46.59999" lon="0.61348">
        <ele>63.4</ele>
        <time>2021-10-10T07:41:24Z</time>
      </trkpt>
      <trkpt lat="46.59999" lon="0.61356">
        <ele>63.6</ele>
        <time>2021-10-10T07:41:26Z</time>
      </trkpt>
      <trkpt lat="46.59998" lon="0.61379">
        <ele>64</ele>
        <time>2021-10-10T07:41:32Z</time>
      </trkpt>
      <trkpt lat="46.59999" lon="0.61383">
        <ele>64.2</ele>
        <time>2021-10-10T07:41:33Z</time>
      </trkpt>
      <trkpt lat="46.60003" lon="0.61404">
        <ele>64.6</ele>
        <time>2021-10-10T07:41:38Z</time>
      </trkpt>
      <trkpt lat="46.60011" lon="0.61422">
        <ele>64.2</ele>
        <time>2021-10-10T07:41:43Z</time>
      </trkpt>
      <trkpt lat="46.60018" lon="0.61436">
        <ele>64.2</ele>
        <time>2021-10-10T07:41:48Z</time>
      </trkpt>
      <trkpt lat="46.60019" lon="0.61438">
        <ele>64.2</ele>
        <time>2021-10-10T07:41:49Z</time>
      </trkpt>
      <trkpt lat="46.60023" lon="0.61445">
        <ele>63.8</ele>
        <time>2021-10-10T07:41:53Z</time>
      </trkpt>
      <trkpt lat="46.60035" lon="0.61461">
        <ele>63.8</ele>
        <time>2021-10-10T07:42:00Z</time>
      </trkpt>
      <trkpt lat="46.6005" lon="0.61483">
        <ele>64.4</ele>
        <time>2021-10-10T07:42:07Z</time>
      </trkpt>
      <trkpt lat="46.60059" lon="0.61502">
        <ele>65.2</ele>
        <time>2021-10-10T07:42:12Z</time>
      </trkpt>
      <trkpt lat="46.60062" lon="0.6151">
        <ele>65.4</ele>
        <time>2021-10-10T07:42:14Z</time>
      </trkpt>
      <trkpt lat="46.60063" lon="0.61518">
        <ele>65.8</ele>
        <time>2021-10-10T07:42:16Z</time>
      </trkpt>
      <trkpt lat="46.60065" lon="0.61535">
        <ele>66</ele>
        <time>2021-10-10T07:42:20Z</time>
      </trkpt>
      <trkpt lat="46.60067" lon="0.61563">
        <ele>66.4</ele>
        <time>2021-10-10T07:42:25Z</time>
      </trkpt>
      <trkpt lat="46.60067" lon="0.61575">
        <ele>66.6</ele>
        <time>2021-10-10T07:42:27Z</time>
      </trkpt>
      <trkpt lat="46.60067" lon="0.61593">
        <ele>67</ele>
        <time>2021-10-10T07:42:31Z</time>
      </trkpt>
      <trkpt lat="46.60068" lon="0.61609">
        <ele>67.4</ele>
        <time>2021-10-10T07:42:35Z</time>
      </trkpt>
      <trkpt lat="46.60069" lon="0.61622">
        <ele>67.6</ele>
        <time>2021-10-10T07:42:38Z</time>
      </trkpt>
      <trkpt lat="46.60069" lon="0.61647">
        <ele>68.4</ele>
        <time>2021-10-10T07:42:43Z</time>
      </trkpt>
      <trkpt lat="46.60069" lon="0.61652">
        <ele>68.6</ele>
        <time>2021-10-10T07:42:44Z</time>
      </trkpt>
      <trkpt lat="46.6007" lon="0.61684">
        <ele>69.2</ele>
        <time>2021-10-10T07:42:50Z</time>
      </trkpt>
      <trkpt lat="46.60067" lon="0.61722">
        <ele>69.2</ele>
        <time>2021-10-10T07:42:57Z</time>
      </trkpt>
      <trkpt lat="46.60067" lon="0.61748">
        <ele>69.4</ele>
        <time>2021-10-10T07:43:02Z</time>
      </trkpt>
      <trkpt lat="46.60067" lon="0.61758">
        <ele>69.6</ele>
        <time>2021-10-10T07:43:04Z</time>
      </trkpt>
      <trkpt lat="46.60066" lon="0.61788">
        <ele>70.4</ele>
        <time>2021-10-10T07:43:10Z</time>
      </trkpt>
      <trkpt lat="46.60067" lon="0.61834">
        <ele>70.4</ele>
        <time>2021-10-10T07:43:18Z</time>
      </trkpt>
      <trkpt lat="46.60067" lon="0.61839">
        <ele>70.6</ele>
        <time>2021-10-10T07:43:19Z</time>
      </trkpt>
      <trkpt lat="46.60068" lon="0.61868">
        <ele>70.8</ele>
        <time>2021-10-10T07:43:24Z</time>
      </trkpt>
      <trkpt lat="46.6007" lon="0.61899">
        <ele>71.2</ele>
        <time>2021-10-10T07:43:30Z</time>
      </trkpt>
      <trkpt lat="46.60072" lon="0.61916">
        <ele>71.8</ele>
        <time>2021-10-10T07:43:33Z</time>
      </trkpt>
      <trkpt lat="46.60075" lon="0.61931">
        <ele>72.2</ele>
        <time>2021-10-10T07:43:36Z</time>
      </trkpt>
      <trkpt lat="46.60083" lon="0.61959">
        <ele>72.4</ele>
        <time>2021-10-10T07:43:42Z</time>
      </trkpt>
      <trkpt lat="46.60092" lon="0.61979">
        <ele>72.8</ele>
        <time>2021-10-10T07:43:45Z</time>
      </trkpt>
      <trkpt lat="46.60095" lon="0.61987">
        <ele>72.8</ele>
        <time>2021-10-10T07:43:46Z</time>
      </trkpt>
      <trkpt lat="46.60103" lon="0.62002">
        <ele>72.8</ele>
        <time>2021-10-10T07:43:49Z</time>
      </trkpt>
      <trkpt lat="46.60105" lon="0.62011">
        <ele>72.8</ele>
        <time>2021-10-10T07:43:51Z</time>
      </trkpt>
      <trkpt lat="46.60116" lon="0.62035">
        <ele>73</ele>
        <time>2021-10-10T07:43:57Z</time>
      </trkpt>
      <trkpt lat="46.6013" lon="0.62056">
        <ele>73.8</ele>
        <time>2021-10-10T07:44:04Z</time>
      </trkpt>
      <trkpt lat="46.60135" lon="0.6207">
        <ele>74.4</ele>
        <time>2021-10-10T07:44:08Z</time>
      </trkpt>
      <trkpt lat="46.60142" lon="0.62082">
        <ele>74.8</ele>
        <time>2021-10-10T07:44:12Z</time>
      </trkpt>
      <trkpt lat="46.60146" lon="0.62088">
        <ele>75.4</ele>
        <time>2021-10-10T07:44:14Z</time>
      </trkpt>
      <trkpt lat="46.60151" lon="0.62097">
        <ele>76</ele>
        <time>2021-10-10T07:44:17Z</time>
      </trkpt>
      <trkpt lat="46.60159" lon="0.62111">
        <ele>76.6</ele>
        <time>2021-10-10T07:44:21Z</time>
      </trkpt>
      <trkpt lat="46.6017" lon="0.62127">
        <ele>76.8</ele>
        <time>2021-10-10T07:44:26Z</time>
      </trkpt>
      <trkpt lat="46.60172" lon="0.62131">
        <ele>77</ele>
        <time>2021-10-10T07:44:27Z</time>
      </trkpt>
      <trkpt lat="46.60182" lon="0.6215">
        <ele>77.4</ele>
        <time>2021-10-10T07:44:32Z</time>
      </trkpt>
      <trkpt lat="46.60191" lon="0.6218">
        <ele>77.4</ele>
        <time>2021-10-10T07:44:39Z</time>
      </trkpt>
      <trkpt lat="46.60196" lon="0.62209">
        <ele>78</ele>
        <time>2021-10-10T07:44:45Z</time>
      </trkpt>
      <trkpt lat="46.60194" lon="0.62226">
        <ele>78</ele>
        <time>2021-10-10T07:44:49Z</time>
      </trkpt>
      <trkpt lat="46.60193" lon="0.6224">
        <ele>78</ele>
        <time>2021-10-10T07:44:52Z</time>
      </trkpt>
      <trkpt lat="46.60193" lon="0.62257">
        <ele>78.8</ele>
        <time>2021-10-10T07:44:55Z</time>
      </trkpt>
      <trkpt lat="46.60199" lon="0.62279">
        <ele>78.2</ele>
        <time>2021-10-10T07:44:59Z</time>
      </trkpt>
      <trkpt lat="46.60202" lon="0.62284">
        <ele>78.2</ele>
        <time>2021-10-10T07:45:00Z</time>
      </trkpt>
      <trkpt lat="46.60214" lon="0.62299">
        <ele>78.2</ele>
        <time>2021-10-10T07:45:05Z</time>
      </trkpt>
      <trkpt lat="46.60215" lon="0.62304">
        <ele>79</ele>
        <time>2021-10-10T07:45:07Z</time>
      </trkpt>
      <trkpt lat="46.60214" lon="0.62307">
        <ele>79.6</ele>
        <time>2021-10-10T07:45:08Z</time>
      </trkpt>
      <trkpt lat="46.60213" lon="0.62314">
        <ele>80</ele>
        <time>2021-10-10T07:45:10Z</time>
      </trkpt>
      <trkpt lat="46.60213" lon="0.62329">
        <ele>80.6</ele>
        <time>2021-10-10T07:45:14Z</time>
      </trkpt>
      <trkpt lat="46.60213" lon="0.62337">
        <ele>81</ele>
        <time>2021-10-10T07:45:16Z</time>
      </trkpt>
      <trkpt lat="46.60216" lon="0.62361">
        <ele>81.6</ele>
        <time>2021-10-10T07:45:21Z</time>
      </trkpt>
      <trkpt lat="46.60217" lon="0.62365">
        <ele>81.6</ele>
        <time>2021-10-10T07:45:22Z</time>
      </trkpt>
      <trkpt lat="46.60222" lon="0.62389">
        <ele>81.8</ele>
        <time>2021-10-10T07:45:27Z</time>
      </trkpt>
      <trkpt lat="46.60225" lon="0.62408">
        <ele>82.6</ele>
        <time>2021-10-10T07:45:31Z</time>
      </trkpt>
      <trkpt lat="46.60226" lon="0.62418">
        <ele>83.8</ele>
        <time>2021-10-10T07:45:34Z</time>
      </trkpt>
      <trkpt lat="46.60227" lon="0.62431">
        <ele>84.8</ele>
        <time>2021-10-10T07:45:38Z</time>
      </trkpt>
      <trkpt lat="46.60228" lon="0.62437">
        <ele>85.4</ele>
        <time>2021-10-10T07:45:40Z</time>
      </trkpt>
      <trkpt lat="46.60229" lon="0.62443">
        <ele>86</ele>
        <time>2021-10-10T07:45:42Z</time>
      </trkpt>
      <trkpt lat="46.60233" lon="0.62455">
        <ele>86.8</ele>
        <time>2021-10-10T07:45:46Z</time>
      </trkpt>
      <trkpt lat="46.60235" lon="0.6246">
        <ele>87.2</ele>
        <time>2021-10-10T07:45:47Z</time>
      </trkpt>
      <trkpt lat="46.60241" lon="0.62478">
        <ele>88.2</ele>
        <time>2021-10-10T07:45:52Z</time>
      </trkpt>
      <trkpt lat="46.60248" lon="0.62496">
        <ele>89.2</ele>
        <time>2021-10-10T07:45:58Z</time>
      </trkpt>
      <trkpt lat="46.6025" lon="0.62498">
        <ele>89.4</ele>
        <time>2021-10-10T07:45:59Z</time>
      </trkpt>
      <trkpt lat="46.60261" lon="0.6252">
        <ele>90.4</ele>
        <time>2021-10-10T07:46:06Z</time>
      </trkpt>
      <trkpt lat="46.60273" lon="0.62539">
        <ele>90.6</ele>
        <time>2021-10-10T07:46:12Z</time>
      </trkpt>
      <trkpt lat="46.60288" lon="0.62566">
        <ele>91.4</ele>
        <time>2021-10-10T07:46:20Z</time>
      </trkpt>
      <trkpt lat="46.603" lon="0.62592">
        <ele>92.2</ele>
        <time>2021-10-10T07:46:27Z</time>
      </trkpt>
      <trkpt lat="46.60307" lon="0.62604">
        <ele>92.4</ele>
        <time>2021-10-10T07:46:30Z</time>
      </trkpt>
      <trkpt lat="46.60312" lon="0.62614">
        <ele>92.6</ele>
        <time>2021-10-10T07:46:33Z</time>
      </trkpt>
      <trkpt lat="46.60318" lon="0.62623">
        <ele>93.6</ele>
        <time>2021-10-10T07:46:37Z</time>
      </trkpt>
      <trkpt lat="46.60321" lon="0.62626">
        <ele>94.2</ele>
        <time>2021-10-10T07:46:39Z</time>
      </trkpt>
      <trkpt lat="46.60324" lon="0.62628">
        <ele>94.8</ele>
        <time>2021-10-10T07:46:41Z</time>
      </trkpt>
      <trkpt lat="46.60328" lon="0.6263">
        <ele>95.8</ele>
        <time>2021-10-10T07:46:44Z</time>
      </trkpt>
      <trkpt lat="46.60331" lon="0.62632">
        <ele>96.8</ele>
        <time>2021-10-10T07:46:47Z</time>
      </trkpt>
      <trkpt lat="46.60333" lon="0.62633">
        <ele>97.2</ele>
        <time>2021-10-10T07:46:48Z</time>
      </trkpt>
      <trkpt lat="46.60339" lon="0.62636">
        <ele>98.4</ele>
        <time>2021-10-10T07:46:53Z</time>
      </trkpt>
      <trkpt lat="46.60341" lon="0.62636">
        <ele>98.6</ele>
        <time>2021-10-10T07:46:54Z</time>
      </trkpt>
      <trkpt lat="46.60345" lon="0.62638">
        <ele>99.6</ele>
        <time>2021-10-10T07:46:57Z</time>
      </trkpt>
      <trkpt lat="46.60352" lon="0.62639">
        <ele>100.6</ele>
        <time>2021-10-10T07:47:02Z</time>
      </trkpt>
      <trkpt lat="46.60362" lon="0.62641">
        <ele>101.6</ele>
        <time>2021-10-10T07:47:09Z</time>
      </trkpt>
      <trkpt lat="46.60365" lon="0.62643">
        <ele>102.2</ele>
        <time>2021-10-10T07:47:11Z</time>
      </trkpt>
      <trkpt lat="46.60371" lon="0.62644">
        <ele>102.8</ele>
        <time>2021-10-10T07:47:15Z</time>
      </trkpt>
      <trkpt lat="46.60375" lon="0.62644">
        <ele>103</ele>
        <time>2021-10-10T07:47:18Z</time>
      </trkpt>
      <trkpt lat="46.60382" lon="0.62644">
        <ele>104</ele>
        <time>2021-10-10T07:47:22Z</time>
      </trkpt>
      <trkpt lat="46.60386" lon="0.62645">
        <ele>104.4</ele>
        <time>2021-10-10T07:47:25Z</time>
      </trkpt>
      <trkpt lat="46.6039" lon="0.62636">
        <ele>104.8</ele>
        <time>2021-10-10T07:47:29Z</time>
      </trkpt>
      <trkpt lat="46.604" lon="0.62624">
        <ele>104.6</ele>
        <time>2021-10-10T07:47:35Z</time>
      </trkpt>
      <trkpt lat="46.6041" lon="0.62617">
        <ele>105</ele>
        <time>2021-10-10T07:47:41Z</time>
      </trkpt>
      <trkpt lat="46.60413" lon="0.62615">
        <ele>105</ele>
        <time>2021-10-10T07:47:42Z</time>
      </trkpt>
      <trkpt lat="46.60428" lon="0.62609">
        <ele>105.6</ele>
        <time>2021-10-10T07:47:49Z</time>
      </trkpt>
      <trkpt lat="46.60454" lon="0.62602">
        <ele>105.6</ele>
        <time>2021-10-10T07:47:57Z</time>
      </trkpt>
      <trkpt lat="46.60466" lon="0.62598">
        <ele>105.4</ele>
        <time>2021-10-10T07:48:00Z</time>
      </trkpt>
      <trkpt lat="46.6047" lon="0.62597">
        <ele>105.4</ele>
        <time>2021-10-10T07:48:01Z</time>
      </trkpt>
      <trkpt lat="46.60474" lon="0.62596">
        <ele>105</ele>
        <time>2021-10-10T07:48:02Z</time>
      </trkpt>
      <trkpt lat="46.60478" lon="0.62595">
        <ele>104.8</ele>
        <time>2021-10-10T07:48:03Z</time>
      </trkpt>
      <trkpt lat="46.60486" lon="0.62592">
        <ele>104.6</ele>
        <time>2021-10-10T07:48:06Z</time>
      </trkpt>
      <trkpt lat="46.60487" lon="0.62593">
        <ele>104.4</ele>
        <time>2021-10-10T07:48:07Z</time>
      </trkpt>
      <trkpt lat="46.60487" lon="0.62595">
        <ele>104</ele>
        <time>2021-10-10T07:48:09Z</time>
      </trkpt>
      <trkpt lat="46.60484" lon="0.62595">
        <ele>103.8</ele>
        <time>2021-10-10T07:48:11Z</time>
      </trkpt>
      <trkpt lat="46.60478" lon="0.62596">
        <ele>103.8</ele>
        <time>2021-10-10T07:48:13Z</time>
      </trkpt>
      <trkpt lat="46.6046" lon="0.62602">
        <ele>104.8</ele>
        <time>2021-10-10T07:48:18Z</time>
      </trkpt>
      <trkpt lat="46.60456" lon="0.62603">
        <ele>105</ele>
        <time>2021-10-10T07:48:19Z</time>
      </trkpt>
      <trkpt lat="46.60434" lon="0.62608">
        <ele>105.6</ele>
        <time>2021-10-10T07:48:25Z</time>
      </trkpt>
      <trkpt lat="46.60422" lon="0.62609">
        <ele>105.6</ele>
        <time>2021-10-10T07:48:29Z</time>
      </trkpt>
      <trkpt lat="46.60422" lon="0.62612">
        <ele>105.4</ele>
        <time>2021-10-10T07:48:32Z</time>
      </trkpt>
      <trkpt lat="46.60431" lon="0.62609">
        <ele>105.4</ele>
        <time>2021-10-10T07:48:36Z</time>
      </trkpt>
      <trkpt lat="46.60446" lon="0.62605">
        <ele>106</ele>
        <time>2021-10-10T07:48:40Z</time>
      </trkpt>
      <trkpt lat="46.60451" lon="0.62604">
        <ele>106.2</ele>
        <time>2021-10-10T07:48:41Z</time>
      </trkpt>
      <trkpt lat="46.60477" lon="0.62596">
        <ele>105.8</ele>
        <time>2021-10-10T07:48:46Z</time>
      </trkpt>
      <trkpt lat="46.60483" lon="0.62594">
        <ele>105.6</ele>
        <time>2021-10-10T07:48:47Z</time>
      </trkpt>
      <trkpt lat="46.60513" lon="0.62587">
        <ele>105.2</ele>
        <time>2021-10-10T07:48:52Z</time>
      </trkpt>
      <trkpt lat="46.60519" lon="0.62586">
        <ele>104.8</ele>
        <time>2021-10-10T07:48:53Z</time>
      </trkpt>
      <trkpt lat="46.60563" lon="0.62579">
        <ele>103.8</ele>
        <time>2021-10-10T07:49:00Z</time>
      </trkpt>
      <trkpt lat="46.60563" lon="0.62579">
        <ele>103.8</ele>
        <time>2021-10-10T07:49:01Z</time>
      </trkpt>
      <trkpt lat="46.60579" lon="0.62579">
        <ele>103.8</ele>
        <time>2021-10-10T07:49:03Z</time>
      </trkpt>
      <trkpt lat="46.60602" lon="0.62584">
        <ele>104.2</ele>
        <time>2021-10-10T07:49:07Z</time>
      </trkpt>
      <trkpt lat="46.60619" lon="0.62587">
        <ele>104.2</ele>
        <time>2021-10-10T07:49:10Z</time>
      </trkpt>
      <trkpt lat="46.6063" lon="0.62585">
        <ele>104.4</ele>
        <time>2021-10-10T07:49:12Z</time>
      </trkpt>
      <trkpt lat="46.60657" lon="0.62571">
        <ele>104.8</ele>
        <time>2021-10-10T07:49:18Z</time>
      </trkpt>
      <trkpt lat="46.60662" lon="0.62568">
        <ele>105</ele>
        <time>2021-10-10T07:49:19Z</time>
      </trkpt>
      <trkpt lat="46.60688" lon="0.62552">
        <ele>105.8</ele>
        <time>2021-10-10T07:49:26Z</time>
      </trkpt>
      <trkpt lat="46.60691" lon="0.62549">
        <ele>106</ele>
        <time>2021-10-10T07:49:27Z</time>
      </trkpt>
      <trkpt lat="46.60709" lon="0.62534">
        <ele>106.6</ele>
        <time>2021-10-10T07:49:33Z</time>
      </trkpt>
      <trkpt lat="46.60709" lon="0.62524">
        <ele>107</ele>
        <time>2021-10-10T07:49:35Z</time>
      </trkpt>
      <trkpt lat="46.60708" lon="0.62518">
        <ele>107</ele>
        <time>2021-10-10T07:49:36Z</time>
      </trkpt>
      <trkpt lat="46.60701" lon="0.62487">
        <ele>106.8</ele>
        <time>2021-10-10T07:49:41Z</time>
      </trkpt>
      <trkpt lat="46.60699" lon="0.62474">
        <ele>106.8</ele>
        <time>2021-10-10T07:49:43Z</time>
      </trkpt>
      <trkpt lat="46.60688" lon="0.62427">
        <ele>107.4</ele>
        <time>2021-10-10T07:49:50Z</time>
      </trkpt>
      <trkpt lat="46.60677" lon="0.62378">
        <ele>108</ele>
        <time>2021-10-10T07:49:58Z</time>
      </trkpt>
      <trkpt lat="46.60671" lon="0.62355">
        <ele>108.4</ele>
        <time>2021-10-10T07:50:02Z</time>
      </trkpt>
      <trkpt lat="46.60665" lon="0.62332">
        <ele>108.6</ele>
        <time>2021-10-10T07:50:06Z</time>
      </trkpt>
      <trkpt lat="46.60656" lon="0.62299">
        <ele>109.4</ele>
        <time>2021-10-10T07:50:13Z</time>
      </trkpt>
      <trkpt lat="46.6065" lon="0.62278">
        <ele>110.4</ele>
        <time>2021-10-10T07:50:17Z</time>
      </trkpt>
      <trkpt lat="46.60647" lon="0.62268">
        <ele>110.2</ele>
        <time>2021-10-10T07:50:19Z</time>
      </trkpt>
      <trkpt lat="46.60638" lon="0.62237">
        <ele>111</ele>
        <time>2021-10-10T07:50:26Z</time>
      </trkpt>
      <trkpt lat="46.60635" lon="0.62229">
        <ele>111.6</ele>
        <time>2021-10-10T07:50:28Z</time>
      </trkpt>
      <trkpt lat="46.60628" lon="0.62209">
        <ele>112.6</ele>
        <time>2021-10-10T07:50:33Z</time>
      </trkpt>
      <trkpt lat="46.60626" lon="0.62204">
        <ele>112.8</ele>
        <time>2021-10-10T07:50:34Z</time>
      </trkpt>
      <trkpt lat="46.60618" lon="0.62174">
        <ele>113.8</ele>
        <time>2021-10-10T07:50:41Z</time>
      </trkpt>
      <trkpt lat="46.60615" lon="0.62161">
        <ele>114.2</ele>
        <time>2021-10-10T07:50:44Z</time>
      </trkpt>
      <trkpt lat="46.60608" lon="0.62134">
        <ele>115.2</ele>
        <time>2021-10-10T07:50:50Z</time>
      </trkpt>
      <trkpt lat="46.60603" lon="0.6212">
        <ele>115.6</ele>
        <time>2021-10-10T07:50:53Z</time>
      </trkpt>
      <trkpt lat="46.60603" lon="0.62095">
        <ele>116</ele>
        <time>2021-10-10T07:50:58Z</time>
      </trkpt>
      <trkpt lat="46.60609" lon="0.62081">
        <ele>116.2</ele>
        <time>2021-10-10T07:51:01Z</time>
      </trkpt>
      <trkpt lat="46.60616" lon="0.62068">
        <ele>116.4</ele>
        <time>2021-10-10T07:51:04Z</time>
      </trkpt>
      <trkpt lat="46.60623" lon="0.62055">
        <ele>116.6</ele>
        <time>2021-10-10T07:51:07Z</time>
      </trkpt>
      <trkpt lat="46.60635" lon="0.62039">
        <ele>117</ele>
        <time>2021-10-10T07:51:11Z</time>
      </trkpt>
      <trkpt lat="46.60638" lon="0.62035">
        <ele>116.8</ele>
        <time>2021-10-10T07:51:12Z</time>
      </trkpt>
      <trkpt lat="46.60655" lon="0.62011">
        <ele>116.8</ele>
        <time>2021-10-10T07:51:17Z</time>
      </trkpt>
      <trkpt lat="46.60659" lon="0.62007">
        <ele>116.8</ele>
        <time>2021-10-10T07:51:18Z</time>
      </trkpt>
      <trkpt lat="46.60668" lon="0.61993">
        <ele>116.8</ele>
        <time>2021-10-10T07:51:21Z</time>
      </trkpt>
      <trkpt lat="46.60675" lon="0.61983">
        <ele>117</ele>
        <time>2021-10-10T07:51:23Z</time>
      </trkpt>
      <trkpt lat="46.60698" lon="0.61943">
        <ele>116.8</ele>
        <time>2021-10-10T07:51:30Z</time>
      </trkpt>
      <trkpt lat="46.60727" lon="0.61888">
        <ele>116</ele>
        <time>2021-10-10T07:51:39Z</time>
      </trkpt>
      <trkpt lat="46.60743" lon="0.61858">
        <ele>115.2</ele>
        <time>2021-10-10T07:51:44Z</time>
      </trkpt>
      <trkpt lat="46.60755" lon="0.61833">
        <ele>114.8</ele>
        <time>2021-10-10T07:51:48Z</time>
      </trkpt>
      <trkpt lat="46.60777" lon="0.61789">
        <ele>114.2</ele>
        <time>2021-10-10T07:51:55Z</time>
      </trkpt>
      <trkpt lat="46.6078" lon="0.61782">
        <ele>114</ele>
        <time>2021-10-10T07:51:56Z</time>
      </trkpt>
      <trkpt lat="46.60787" lon="0.61751">
        <ele>113.4</ele>
        <time>2021-10-10T07:52:00Z</time>
      </trkpt>
      <trkpt lat="46.60793" lon="0.61733">
        <ele>113.2</ele>
        <time>2021-10-10T07:52:03Z</time>
      </trkpt>
      <trkpt lat="46.60795" lon="0.61729">
        <ele>112.8</ele>
        <time>2021-10-10T07:52:04Z</time>
      </trkpt>
      <trkpt lat="46.60798" lon="0.61725">
        <ele>112.4</ele>
        <time>2021-10-10T07:52:05Z</time>
      </trkpt>
      <trkpt lat="46.60806" lon="0.61722">
        <ele>111.6</ele>
        <time>2021-10-10T07:52:07Z</time>
      </trkpt>
      <trkpt lat="46.60815" lon="0.61721">
        <ele>111.6</ele>
        <time>2021-10-10T07:52:09Z</time>
      </trkpt>
      <trkpt lat="46.6083" lon="0.61715">
        <ele>111.4</ele>
        <time>2021-10-10T07:52:12Z</time>
      </trkpt>
      <trkpt lat="46.60835" lon="0.61712">
        <ele>111.4</ele>
        <time>2021-10-10T07:52:13Z</time>
      </trkpt>
      <trkpt lat="46.60861" lon="0.61695">
        <ele>111.2</ele>
        <time>2021-10-10T07:52:18Z</time>
      </trkpt>
      <trkpt lat="46.60871" lon="0.61689">
        <ele>110.6</ele>
        <time>2021-10-10T07:52:20Z</time>
      </trkpt>
      <trkpt lat="46.60901" lon="0.61673">
        <ele>109.8</ele>
        <time>2021-10-10T07:52:25Z</time>
      </trkpt>
      <trkpt lat="46.60907" lon="0.61669">
        <ele>109.4</ele>
        <time>2021-10-10T07:52:26Z</time>
      </trkpt>
      <trkpt lat="46.6094" lon="0.61653">
        <ele>108.4</ele>
        <time>2021-10-10T07:52:31Z</time>
      </trkpt>
      <trkpt lat="46.6096" lon="0.61645">
        <ele>107.4</ele>
        <time>2021-10-10T07:52:34Z</time>
      </trkpt>
      <trkpt lat="46.60985" lon="0.61635">
        <ele>106.2</ele>
        <time>2021-10-10T07:52:38Z</time>
      </trkpt>
      <trkpt lat="46.61002" lon="0.61628">
        <ele>105.8</ele>
        <time>2021-10-10T07:52:41Z</time>
      </trkpt>
      <trkpt lat="46.61015" lon="0.61625">
        <ele>105.4</ele>
        <time>2021-10-10T07:52:44Z</time>
      </trkpt>
      <trkpt lat="46.61019" lon="0.61624">
        <ele>105</ele>
        <time>2021-10-10T07:52:45Z</time>
      </trkpt>
      <trkpt lat="46.61034" lon="0.61624">
        <ele>104.4</ele>
        <time>2021-10-10T07:52:49Z</time>
      </trkpt>
      <trkpt lat="46.61066" lon="0.61617">
        <ele>104.2</ele>
        <time>2021-10-10T07:52:55Z</time>
      </trkpt>
      <trkpt lat="46.61085" lon="0.61613">
        <ele>103.8</ele>
        <time>2021-10-10T07:52:58Z</time>
      </trkpt>
      <trkpt lat="46.6112" lon="0.61604">
        <ele>103</ele>
        <time>2021-10-10T07:53:04Z</time>
      </trkpt>
      <trkpt lat="46.61126" lon="0.61603">
        <ele>102.6</ele>
        <time>2021-10-10T07:53:05Z</time>
      </trkpt>
      <trkpt lat="46.61163" lon="0.61588">
        <ele>101.8</ele>
        <time>2021-10-10T07:53:11Z</time>
      </trkpt>
      <trkpt lat="46.61177" lon="0.61584">
        <ele>101.4</ele>
        <time>2021-10-10T07:53:13Z</time>
      </trkpt>
      <trkpt lat="46.61207" lon="0.61577">
        <ele>100.6</ele>
        <time>2021-10-10T07:53:17Z</time>
      </trkpt>
      <trkpt lat="46.61222" lon="0.61575">
        <ele>99.8</ele>
        <time>2021-10-10T07:53:19Z</time>
      </trkpt>
      <trkpt lat="46.61236" lon="0.61574">
        <ele>98.6</ele>
        <time>2021-10-10T07:53:21Z</time>
      </trkpt>
      <trkpt lat="46.61251" lon="0.61577">
        <ele>97.8</ele>
        <time>2021-10-10T07:53:23Z</time>
      </trkpt>
      <trkpt lat="46.61258" lon="0.61579">
        <ele>97.4</ele>
        <time>2021-10-10T07:53:24Z</time>
      </trkpt>
      <trkpt lat="46.61273" lon="0.61581">
        <ele>95.4</ele>
        <time>2021-10-10T07:53:26Z</time>
      </trkpt>
      <trkpt lat="46.61289" lon="0.61582">
        <ele>93.8</ele>
        <time>2021-10-10T07:53:28Z</time>
      </trkpt>
      <trkpt lat="46.61306" lon="0.61582">
        <ele>92.8</ele>
        <time>2021-10-10T07:53:30Z</time>
      </trkpt>
      <trkpt lat="46.61323" lon="0.6158">
        <ele>91.6</ele>
        <time>2021-10-10T07:53:32Z</time>
      </trkpt>
      <trkpt lat="46.61332" lon="0.61578">
        <ele>91.2</ele>
        <time>2021-10-10T07:53:33Z</time>
      </trkpt>
      <trkpt lat="46.61355" lon="0.61568">
        <ele>90.6</ele>
        <time>2021-10-10T07:53:36Z</time>
      </trkpt>
      <trkpt lat="46.61362" lon="0.61565">
        <ele>90.2</ele>
        <time>2021-10-10T07:53:37Z</time>
      </trkpt>
      <trkpt lat="46.61375" lon="0.61559">
        <ele>89.4</ele>
        <time>2021-10-10T07:53:39Z</time>
      </trkpt>
      <trkpt lat="46.61395" lon="0.61554">
        <ele>89</ele>
        <time>2021-10-10T07:53:42Z</time>
      </trkpt>
      <trkpt lat="46.61442" lon="0.6155">
        <ele>90</ele>
        <time>2021-10-10T07:53:50Z</time>
      </trkpt>
      <trkpt lat="46.61447" lon="0.61549">
        <ele>90.4</ele>
        <time>2021-10-10T07:53:51Z</time>
      </trkpt>
      <trkpt lat="46.61452" lon="0.61548">
        <ele>91</ele>
        <time>2021-10-10T07:53:52Z</time>
      </trkpt>
      <trkpt lat="46.61461" lon="0.61547">
        <ele>92</ele>
        <time>2021-10-10T07:53:54Z</time>
      </trkpt>
      <trkpt lat="46.61471" lon="0.61548">
        <ele>92.6</ele>
        <time>2021-10-10T07:53:56Z</time>
      </trkpt>
      <trkpt lat="46.61476" lon="0.6155">
        <ele>92.6</ele>
        <time>2021-10-10T07:53:57Z</time>
      </trkpt>
      <trkpt lat="46.61481" lon="0.61552">
        <ele>92.8</ele>
        <time>2021-10-10T07:53:58Z</time>
      </trkpt>
      <trkpt lat="46.61493" lon="0.61565">
        <ele>92.8</ele>
        <time>2021-10-10T07:54:01Z</time>
      </trkpt>
      <trkpt lat="46.615" lon="0.61574">
        <ele>92.8</ele>
        <time>2021-10-10T07:54:03Z</time>
      </trkpt>
      <trkpt lat="46.61512" lon="0.61583">
        <ele>93.2</ele>
        <time>2021-10-10T07:54:06Z</time>
      </trkpt>
      <trkpt lat="46.61516" lon="0.61586">
        <ele>93.4</ele>
        <time>2021-10-10T07:54:07Z</time>
      </trkpt>
      <trkpt lat="46.61535" lon="0.61596">
        <ele>94.4</ele>
        <time>2021-10-10T07:54:12Z</time>
      </trkpt>
      <trkpt lat="46.61553" lon="0.61606">
        <ele>95.4</ele>
        <time>2021-10-10T07:54:17Z</time>
      </trkpt>
      <trkpt lat="46.61567" lon="0.61613">
        <ele>96.6</ele>
        <time>2021-10-10T07:54:21Z</time>
      </trkpt>
      <trkpt lat="46.61581" lon="0.61621">
        <ele>97</ele>
        <time>2021-10-10T07:54:25Z</time>
      </trkpt>
      <trkpt lat="46.6161" lon="0.61635">
        <ele>97.6</ele>
        <time>2021-10-10T07:54:33Z</time>
      </trkpt>
      <trkpt lat="46.61617" lon="0.61639">
        <ele>98</ele>
        <time>2021-10-10T07:54:35Z</time>
      </trkpt>
      <trkpt lat="46.61632" lon="0.61644">
        <ele>98.6</ele>
        <time>2021-10-10T07:54:39Z</time>
      </trkpt>
      <trkpt lat="46.61643" lon="0.61647">
        <ele>99</ele>
        <time>2021-10-10T07:54:42Z</time>
      </trkpt>
      <trkpt lat="46.61662" lon="0.61653">
        <ele>99.8</ele>
        <time>2021-10-10T07:54:47Z</time>
      </trkpt>
      <trkpt lat="46.61673" lon="0.61657">
        <ele>100.2</ele>
        <time>2021-10-10T07:54:50Z</time>
      </trkpt>
      <trkpt lat="46.61694" lon="0.61666">
        <ele>100.8</ele>
        <time>2021-10-10T07:54:56Z</time>
      </trkpt>
      <trkpt lat="46.61696" lon="0.61665">
        <ele>101</ele>
        <time>2021-10-10T07:54:57Z</time>
      </trkpt>
      <trkpt lat="46.61699" lon="0.61658">
        <ele>101</ele>
        <time>2021-10-10T07:54:59Z</time>
      </trkpt>
      <trkpt lat="46.61701" lon="0.61632">
        <ele>101</ele>
        <time>2021-10-10T07:55:04Z</time>
      </trkpt>
      <trkpt lat="46.61704" lon="0.61604">
        <ele>101.2</ele>
        <time>2021-10-10T07:55:09Z</time>
      </trkpt>
      <trkpt lat="46.61706" lon="0.61599">
        <ele>101</ele>
        <time>2021-10-10T07:55:10Z</time>
      </trkpt>
      <trkpt lat="46.61708" lon="0.61594">
        <ele>101</ele>
        <time>2021-10-10T07:55:11Z</time>
      </trkpt>
      <trkpt lat="46.61715" lon="0.61588">
        <ele>101</ele>
        <time>2021-10-10T07:55:13Z</time>
      </trkpt>
      <trkpt lat="46.61732" lon="0.61569">
        <ele>102</ele>
        <time>2021-10-10T07:55:19Z</time>
      </trkpt>
      <trkpt lat="46.61748" lon="0.61552">
        <ele>103.2</ele>
        <time>2021-10-10T07:55:25Z</time>
      </trkpt>
      <trkpt lat="46.61753" lon="0.61547">
        <ele>103.6</ele>
        <time>2021-10-10T07:55:27Z</time>
      </trkpt>
      <trkpt lat="46.61761" lon="0.6154">
        <ele>104.2</ele>
        <time>2021-10-10T07:55:30Z</time>
      </trkpt>
      <trkpt lat="46.61771" lon="0.61529">
        <ele>104.8</ele>
        <time>2021-10-10T07:55:34Z</time>
      </trkpt>
      <trkpt lat="46.61779" lon="0.61522">
        <ele>105.6</ele>
        <time>2021-10-10T07:55:37Z</time>
      </trkpt>
      <trkpt lat="46.61786" lon="0.61515">
        <ele>106</ele>
        <time>2021-10-10T07:55:40Z</time>
      </trkpt>
      <trkpt lat="46.618" lon="0.615">
        <ele>106.6</ele>
        <time>2021-10-10T07:55:46Z</time>
      </trkpt>
      <trkpt lat="46.61826" lon="0.61475">
        <ele>107.4</ele>
        <time>2021-10-10T07:55:56Z</time>
      </trkpt>
      <trkpt lat="46.61839" lon="0.6146">
        <ele>107.4</ele>
        <time>2021-10-10T07:56:00Z</time>
      </trkpt>
      <trkpt lat="46.6185" lon="0.6145">
        <ele>107.2</ele>
        <time>2021-10-10T07:56:03Z</time>
      </trkpt>
      <trkpt lat="46.61865" lon="0.61435">
        <ele>107.2</ele>
        <time>2021-10-10T07:56:07Z</time>
      </trkpt>
      <trkpt lat="46.61882" lon="0.61414">
        <ele>107.2</ele>
        <time>2021-10-10T07:56:12Z</time>
      </trkpt>
      <trkpt lat="46.61887" lon="0.61403">
        <ele>107.2</ele>
        <time>2021-10-10T07:56:14Z</time>
      </trkpt>
      <trkpt lat="46.61889" lon="0.61389">
        <ele>106.8</ele>
        <time>2021-10-10T07:56:16Z</time>
      </trkpt>
      <trkpt lat="46.61888" lon="0.61382">
        <ele>106.8</ele>
        <time>2021-10-10T07:56:17Z</time>
      </trkpt>
      <trkpt lat="46.6188" lon="0.61326">
        <ele>106.4</ele>
        <time>2021-10-10T07:56:24Z</time>
      </trkpt>
      <trkpt lat="46.61862" lon="0.61253">
        <ele>106</ele>
        <time>2021-10-10T07:56:33Z</time>
      </trkpt>
      <trkpt lat="46.61857" lon="0.61236">
        <ele>105.6</ele>
        <time>2021-10-10T07:56:35Z</time>
      </trkpt>
      <trkpt lat="46.61854" lon="0.61228">
        <ele>105.4</ele>
        <time>2021-10-10T07:56:36Z</time>
      </trkpt>
      <trkpt lat="46.61846" lon="0.61213">
        <ele>105.2</ele>
        <time>2021-10-10T07:56:38Z</time>
      </trkpt>
      <trkpt lat="46.61817" lon="0.61163">
        <ele>104.4</ele>
        <time>2021-10-10T07:56:45Z</time>
      </trkpt>
      <trkpt lat="46.61808" lon="0.61149">
        <ele>104.2</ele>
        <time>2021-10-10T07:56:47Z</time>
      </trkpt>
      <trkpt lat="46.61795" lon="0.61126">
        <ele>103.4</ele>
        <time>2021-10-10T07:56:50Z</time>
      </trkpt>
      <trkpt lat="46.61774" lon="0.61085">
        <ele>102.2</ele>
        <time>2021-10-10T07:56:55Z</time>
      </trkpt>
      <trkpt lat="46.61753" lon="0.61038">
        <ele>101</ele>
        <time>2021-10-10T07:57:00Z</time>
      </trkpt>
      <trkpt lat="46.61745" lon="0.61021">
        <ele>100.4</ele>
        <time>2021-10-10T07:57:02Z</time>
      </trkpt>
      <trkpt lat="46.61738" lon="0.61009">
        <ele>99.6</ele>
        <time>2021-10-10T07:57:04Z</time>
      </trkpt>
      <trkpt lat="46.61736" lon="0.61005">
        <ele>99</ele>
        <time>2021-10-10T07:57:05Z</time>
      </trkpt>
      <trkpt lat="46.61737" lon="0.61001">
        <ele>98.4</ele>
        <time>2021-10-10T07:57:06Z</time>
      </trkpt>
      <trkpt lat="46.61741" lon="0.60998">
        <ele>97.8</ele>
        <time>2021-10-10T07:57:08Z</time>
      </trkpt>
      <trkpt lat="46.61757" lon="0.61003">
        <ele>97.6</ele>
        <time>2021-10-10T07:57:13Z</time>
      </trkpt>
      <trkpt lat="46.61777" lon="0.61014">
        <ele>98.8</ele>
        <time>2021-10-10T07:57:19Z</time>
      </trkpt>
      <trkpt lat="46.6178" lon="0.61017">
        <ele>99</ele>
        <time>2021-10-10T07:57:20Z</time>
      </trkpt>
      <trkpt lat="46.61795" lon="0.61025">
        <ele>99.4</ele>
        <time>2021-10-10T07:57:24Z</time>
      </trkpt>
      <trkpt lat="46.61807" lon="0.61029">
        <ele>101</ele>
        <time>2021-10-10T07:57:27Z</time>
      </trkpt>
      <trkpt lat="46.61817" lon="0.61029">
        <ele>101.8</ele>
        <time>2021-10-10T07:57:29Z</time>
      </trkpt>
      <trkpt lat="46.61821" lon="0.61028">
        <ele>102</ele>
        <time>2021-10-10T07:57:30Z</time>
      </trkpt>
      <trkpt lat="46.61825" lon="0.61027">
        <ele>102.2</ele>
        <time>2021-10-10T07:57:31Z</time>
      </trkpt>
      <trkpt lat="46.61841" lon="0.61025">
        <ele>102.8</ele>
        <time>2021-10-10T07:57:35Z</time>
      </trkpt>
      <trkpt lat="46.61845" lon="0.61026">
        <ele>102.8</ele>
        <time>2021-10-10T07:57:36Z</time>
      </trkpt>
      <trkpt lat="46.61853" lon="0.61031">
        <ele>102.8</ele>
        <time>2021-10-10T07:57:38Z</time>
      </trkpt>
      <trkpt lat="46.61857" lon="0.61035">
        <ele>102.8</ele>
        <time>2021-10-10T07:57:39Z</time>
      </trkpt>
      <trkpt lat="46.6186" lon="0.6104">
        <ele>102.8</ele>
        <time>2021-10-10T07:57:40Z</time>
      </trkpt>
      <trkpt lat="46.61865" lon="0.6105">
        <ele>102.8</ele>
        <time>2021-10-10T07:57:42Z</time>
      </trkpt>
      <trkpt lat="46.61867" lon="0.61056">
        <ele>102.8</ele>
        <time>2021-10-10T07:57:43Z</time>
      </trkpt>
      <trkpt lat="46.61875" lon="0.61074">
        <ele>102.6</ele>
        <time>2021-10-10T07:57:46Z</time>
      </trkpt>
      <trkpt lat="46.61884" lon="0.61083">
        <ele>102.6</ele>
        <time>2021-10-10T07:57:48Z</time>
      </trkpt>
      <trkpt lat="46.61895" lon="0.61087">
        <ele>102.4</ele>
        <time>2021-10-10T07:57:50Z</time>
      </trkpt>
      <trkpt lat="46.61907" lon="0.61087">
        <ele>102.4</ele>
        <time>2021-10-10T07:57:52Z</time>
      </trkpt>
      <trkpt lat="46.61937" lon="0.61075">
        <ele>101.4</ele>
        <time>2021-10-10T07:57:57Z</time>
      </trkpt>
      <trkpt lat="46.61949" lon="0.61068">
        <ele>101</ele>
        <time>2021-10-10T07:57:59Z</time>
      </trkpt>
      <trkpt lat="46.61969" lon="0.61057">
        <ele>100.4</ele>
        <time>2021-10-10T07:58:02Z</time>
      </trkpt>
      <trkpt lat="46.61984" lon="0.61052">
        <ele>99.8</ele>
        <time>2021-10-10T07:58:04Z</time>
      </trkpt>
      <trkpt lat="46.62" lon="0.61048">
        <ele>98.6</ele>
        <time>2021-10-10T07:58:06Z</time>
      </trkpt>
      <trkpt lat="46.62008" lon="0.61047">
        <ele>97.8</ele>
        <time>2021-10-10T07:58:07Z</time>
      </trkpt>
      <trkpt lat="46.62017" lon="0.61047">
        <ele>97.2</ele>
        <time>2021-10-10T07:58:08Z</time>
      </trkpt>
      <trkpt lat="46.62042" lon="0.6105">
        <ele>96</ele>
        <time>2021-10-10T07:58:11Z</time>
      </trkpt>
      <trkpt lat="46.62049" lon="0.61049">
        <ele>95.2</ele>
        <time>2021-10-10T07:58:12Z</time>
      </trkpt>
      <trkpt lat="46.62056" lon="0.61045">
        <ele>94.6</ele>
        <time>2021-10-10T07:58:13Z</time>
      </trkpt>
      <trkpt lat="46.62061" lon="0.61039">
        <ele>94.4</ele>
        <time>2021-10-10T07:58:14Z</time>
      </trkpt>
      <trkpt lat="46.62066" lon="0.61031">
        <ele>94.2</ele>
        <time>2021-10-10T07:58:15Z</time>
      </trkpt>
      <trkpt lat="46.62068" lon="0.61022">
        <ele>94.2</ele>
        <time>2021-10-10T07:58:16Z</time>
      </trkpt>
      <trkpt lat="46.62071" lon="0.61003">
        <ele>94.4</ele>
        <time>2021-10-10T07:58:18Z</time>
      </trkpt>
      <trkpt lat="46.62078" lon="0.60972">
        <ele>95.8</ele>
        <time>2021-10-10T07:58:22Z</time>
      </trkpt>
      <trkpt lat="46.6208" lon="0.60965">
        <ele>96</ele>
        <time>2021-10-10T07:58:23Z</time>
      </trkpt>
      <trkpt lat="46.62083" lon="0.60958">
        <ele>97</ele>
        <time>2021-10-10T07:58:24Z</time>
      </trkpt>
      <trkpt lat="46.62093" lon="0.60947">
        <ele>97.6</ele>
        <time>2021-10-10T07:58:27Z</time>
      </trkpt>
      <trkpt lat="46.62098" lon="0.60943">
        <ele>98.2</ele>
        <time>2021-10-10T07:58:29Z</time>
      </trkpt>
      <trkpt lat="46.62103" lon="0.60937">
        <ele>98.6</ele>
        <time>2021-10-10T07:58:31Z</time>
      </trkpt>
      <trkpt lat="46.62103" lon="0.60933">
        <ele>98.8</ele>
        <time>2021-10-10T07:58:32Z</time>
      </trkpt>
      <trkpt lat="46.62102" lon="0.60913">
        <ele>99</ele>
        <time>2021-10-10T07:58:36Z</time>
      </trkpt>
      <trkpt lat="46.62102" lon="0.60901">
        <ele>98.8</ele>
        <time>2021-10-10T07:58:38Z</time>
      </trkpt>
      <trkpt lat="46.62102" lon="0.60886">
        <ele>98.4</ele>
        <time>2021-10-10T07:58:40Z</time>
      </trkpt>
      <trkpt lat="46.62102" lon="0.60846">
        <ele>97.2</ele>
        <time>2021-10-10T07:58:45Z</time>
      </trkpt>
      <trkpt lat="46.62101" lon="0.60839">
        <ele>97</ele>
        <time>2021-10-10T07:58:46Z</time>
      </trkpt>
      <trkpt lat="46.62098" lon="0.60819">
        <ele>96</ele>
        <time>2021-10-10T07:58:49Z</time>
      </trkpt>
      <trkpt lat="46.62098" lon="0.60811">
        <ele>95.2</ele>
        <time>2021-10-10T07:58:50Z</time>
      </trkpt>
      <trkpt lat="46.62097" lon="0.60802">
        <ele>94.8</ele>
        <time>2021-10-10T07:58:51Z</time>
      </trkpt>
      <trkpt lat="46.62097" lon="0.60778">
        <ele>93.2</ele>
        <time>2021-10-10T07:58:54Z</time>
      </trkpt>
      <trkpt lat="46.62098" lon="0.60772">
        <ele>92.6</ele>
        <time>2021-10-10T07:58:55Z</time>
      </trkpt>
      <trkpt lat="46.62099" lon="0.60759">
        <ele>91.8</ele>
        <time>2021-10-10T07:58:57Z</time>
      </trkpt>
      <trkpt lat="46.62102" lon="0.60741">
        <ele>91.4</ele>
        <time>2021-10-10T07:59:00Z</time>
      </trkpt>
      <trkpt lat="46.62103" lon="0.60727">
        <ele>91.4</ele>
        <time>2021-10-10T07:59:02Z</time>
      </trkpt>
      <trkpt lat="46.62103" lon="0.60703">
        <ele>91.4</ele>
        <time>2021-10-10T07:59:05Z</time>
      </trkpt>
      <trkpt lat="46.62103" lon="0.60694">
        <ele>91.4</ele>
        <time>2021-10-10T07:59:06Z</time>
      </trkpt>
      <trkpt lat="46.62102" lon="0.60668">
        <ele>91.6</ele>
        <time>2021-10-10T07:59:09Z</time>
      </trkpt>
      <trkpt lat="46.62101" lon="0.60661">
        <ele>91.6</ele>
        <time>2021-10-10T07:59:10Z</time>
      </trkpt>
      <trkpt lat="46.62095" lon="0.60628">
        <ele>90.6</ele>
        <time>2021-10-10T07:59:14Z</time>
      </trkpt>
      <trkpt lat="46.62092" lon="0.60611">
        <ele>90.2</ele>
        <time>2021-10-10T07:59:16Z</time>
      </trkpt>
      <trkpt lat="46.62085" lon="0.60584">
        <ele>90</ele>
        <time>2021-10-10T07:59:19Z</time>
      </trkpt>
      <trkpt lat="46.62081" lon="0.60576">
        <ele>89.2</ele>
        <time>2021-10-10T07:59:20Z</time>
      </trkpt>
      <trkpt lat="46.62078" lon="0.60568">
        <ele>88.6</ele>
        <time>2021-10-10T07:59:21Z</time>
      </trkpt>
      <trkpt lat="46.62075" lon="0.60561">
        <ele>87.6</ele>
        <time>2021-10-10T07:59:22Z</time>
      </trkpt>
      <trkpt lat="46.6207" lon="0.60548">
        <ele>86</ele>
        <time>2021-10-10T07:59:24Z</time>
      </trkpt>
      <trkpt lat="46.62068" lon="0.60542">
        <ele>84.6</ele>
        <time>2021-10-10T07:59:25Z</time>
      </trkpt>
      <trkpt lat="46.62065" lon="0.6053">
        <ele>83</ele>
        <time>2021-10-10T07:59:27Z</time>
      </trkpt>
      <trkpt lat="46.62063" lon="0.60518">
        <ele>82.2</ele>
        <time>2021-10-10T07:59:29Z</time>
      </trkpt>
      <trkpt lat="46.62061" lon="0.60514">
        <ele>81.8</ele>
        <time>2021-10-10T07:59:30Z</time>
      </trkpt>
      <trkpt lat="46.62059" lon="0.60512">
        <ele>81.6</ele>
        <time>2021-10-10T07:59:31Z</time>
      </trkpt>
      <trkpt lat="46.62054" lon="0.60506">
        <ele>81.2</ele>
        <time>2021-10-10T07:59:33Z</time>
      </trkpt>
      <trkpt lat="46.62053" lon="0.60501">
        <ele>80.8</ele>
        <time>2021-10-10T07:59:34Z</time>
      </trkpt>
      <trkpt lat="46.62049" lon="0.6049">
        <ele>80</ele>
        <time>2021-10-10T07:59:36Z</time>
      </trkpt>
      <trkpt lat="46.62043" lon="0.60479">
        <ele>79.8</ele>
        <time>2021-10-10T07:59:38Z</time>
      </trkpt>
      <trkpt lat="46.62028" lon="0.60454">
        <ele>78.4</ele>
        <time>2021-10-10T07:59:43Z</time>
      </trkpt>
      <trkpt lat="46.62022" lon="0.60444">
        <ele>77.8</ele>
        <time>2021-10-10T07:59:45Z</time>
      </trkpt>
      <trkpt lat="46.62017" lon="0.60437">
        <ele>77.2</ele>
        <time>2021-10-10T07:59:47Z</time>
      </trkpt>
      <trkpt lat="46.62008" lon="0.60428">
        <ele>77</ele>
        <time>2021-10-10T07:59:50Z</time>
      </trkpt>
      <trkpt lat="46.61997" lon="0.60418">
        <ele>76.2</ele>
        <time>2021-10-10T07:59:53Z</time>
      </trkpt>
      <trkpt lat="46.61989" lon="0.60411">
        <ele>76.2</ele>
        <time>2021-10-10T07:59:55Z</time>
      </trkpt>
      <trkpt lat="46.61985" lon="0.60407">
        <ele>76.2</ele>
        <time>2021-10-10T07:59:56Z</time>
      </trkpt>
      <trkpt lat="46.61978" lon="0.60399">
        <ele>76.2</ele>
        <time>2021-10-10T07:59:58Z</time>
      </trkpt>
      <trkpt lat="46.61971" lon="0.60391">
        <ele>76.2</ele>
        <time>2021-10-10T08:00:00Z</time>
      </trkpt>
      <trkpt lat="46.61962" lon="0.60378">
        <ele>75.6</ele>
        <time>2021-10-10T08:00:03Z</time>
      </trkpt>
      <trkpt lat="46.61956" lon="0.60369">
        <ele>75.4</ele>
        <time>2021-10-10T08:00:05Z</time>
      </trkpt>
      <trkpt lat="46.61952" lon="0.60364">
        <ele>75.4</ele>
        <time>2021-10-10T08:00:06Z</time>
      </trkpt>
      <trkpt lat="46.61919" lon="0.60328">
        <ele>75.8</ele>
        <time>2021-10-10T08:00:13Z</time>
      </trkpt>
      <trkpt lat="46.6191" lon="0.6032">
        <ele>76.2</ele>
        <time>2021-10-10T08:00:15Z</time>
      </trkpt>
      <trkpt lat="46.61894" lon="0.60302">
        <ele>77</ele>
        <time>2021-10-10T08:00:19Z</time>
      </trkpt>
      <trkpt lat="46.6189" lon="0.60298">
        <ele>77.2</ele>
        <time>2021-10-10T08:00:20Z</time>
      </trkpt>
      <trkpt lat="46.61867" lon="0.60275">
        <ele>78.2</ele>
        <time>2021-10-10T08:00:26Z</time>
      </trkpt>
      <trkpt lat="46.6186" lon="0.60269">
        <ele>79.2</ele>
        <time>2021-10-10T08:00:28Z</time>
      </trkpt>
      <trkpt lat="46.61856" lon="0.60265">
        <ele>79.6</ele>
        <time>2021-10-10T08:00:29Z</time>
      </trkpt>
      <trkpt lat="46.61845" lon="0.60253">
        <ele>80.2</ele>
        <time>2021-10-10T08:00:32Z</time>
      </trkpt>
      <trkpt lat="46.61842" lon="0.60249">
        <ele>80.6</ele>
        <time>2021-10-10T08:00:33Z</time>
      </trkpt>
      <trkpt lat="46.61832" lon="0.60237">
        <ele>81</ele>
        <time>2021-10-10T08:00:36Z</time>
      </trkpt>
      <trkpt lat="46.61828" lon="0.60234">
        <ele>81</ele>
        <time>2021-10-10T08:00:37Z</time>
      </trkpt>
      <trkpt lat="46.61823" lon="0.60228">
        <ele>81.2</ele>
        <time>2021-10-10T08:00:39Z</time>
      </trkpt>
      <trkpt lat="46.61822" lon="0.60224">
        <ele>81.2</ele>
        <time>2021-10-10T08:00:40Z</time>
      </trkpt>
      <trkpt lat="46.61816" lon="0.60187">
        <ele>80.6</ele>
        <time>2021-10-10T08:00:47Z</time>
      </trkpt>
      <trkpt lat="46.61814" lon="0.60181">
        <ele>80.6</ele>
        <time>2021-10-10T08:00:48Z</time>
      </trkpt>
      <trkpt lat="46.61811" lon="0.60168">
        <ele>80.6</ele>
        <time>2021-10-10T08:00:50Z</time>
      </trkpt>
      <trkpt lat="46.61809" lon="0.60152">
        <ele>80</ele>
        <time>2021-10-10T08:00:52Z</time>
      </trkpt>
      <trkpt lat="46.61806" lon="0.60132">
        <ele>78.6</ele>
        <time>2021-10-10T08:00:55Z</time>
      </trkpt>
      <trkpt lat="46.61802" lon="0.60122">
        <ele>77.6</ele>
        <time>2021-10-10T08:00:57Z</time>
      </trkpt>
      <trkpt lat="46.61794" lon="0.6011">
        <ele>76.8</ele>
        <time>2021-10-10T08:00:59Z</time>
      </trkpt>
      <trkpt lat="46.61789" lon="0.60105">
        <ele>75.6</ele>
        <time>2021-10-10T08:01:00Z</time>
      </trkpt>
      <trkpt lat="46.61784" lon="0.601">
        <ele>74.8</ele>
        <time>2021-10-10T08:01:01Z</time>
      </trkpt>
      <trkpt lat="46.61778" lon="0.60097">
        <ele>74.4</ele>
        <time>2021-10-10T08:01:02Z</time>
      </trkpt>
      <trkpt lat="46.61774" lon="0.60093">
        <ele>74.2</ele>
        <time>2021-10-10T08:01:03Z</time>
      </trkpt>
      <trkpt lat="46.6177" lon="0.60089">
        <ele>73.2</ele>
        <time>2021-10-10T08:01:04Z</time>
      </trkpt>
      <trkpt lat="46.61768" lon="0.60084">
        <ele>71.6</ele>
        <time>2021-10-10T08:01:05Z</time>
      </trkpt>
      <trkpt lat="46.61767" lon="0.6008">
        <ele>70.4</ele>
        <time>2021-10-10T08:01:06Z</time>
      </trkpt>
      <trkpt lat="46.61769" lon="0.60075">
        <ele>69.8</ele>
        <time>2021-10-10T08:01:07Z</time>
      </trkpt>
      <trkpt lat="46.61775" lon="0.60066">
        <ele>69.2</ele>
        <time>2021-10-10T08:01:09Z</time>
      </trkpt>
      <trkpt lat="46.61783" lon="0.60055">
        <ele>69</ele>
        <time>2021-10-10T08:01:11Z</time>
      </trkpt>
      <trkpt lat="46.61787" lon="0.60047">
        <ele>68.6</ele>
        <time>2021-10-10T08:01:12Z</time>
      </trkpt>
      <trkpt lat="46.61791" lon="0.60039">
        <ele>68</ele>
        <time>2021-10-10T08:01:13Z</time>
      </trkpt>
      <trkpt lat="46.61801" lon="0.60021">
        <ele>67.4</ele>
        <time>2021-10-10T08:01:15Z</time>
      </trkpt>
      <trkpt lat="46.61807" lon="0.60011">
        <ele>66</ele>
        <time>2021-10-10T08:01:16Z</time>
      </trkpt>
      <trkpt lat="46.61812" lon="0.6">
        <ele>65</ele>
        <time>2021-10-10T08:01:17Z</time>
      </trkpt>
      <trkpt lat="46.61817" lon="0.5999">
        <ele>63.8</ele>
        <time>2021-10-10T08:01:18Z</time>
      </trkpt>
      <trkpt lat="46.6182" lon="0.5998">
        <ele>63</ele>
        <time>2021-10-10T08:01:19Z</time>
      </trkpt>
      <trkpt lat="46.61823" lon="0.59972">
        <ele>62.6</ele>
        <time>2021-10-10T08:01:20Z</time>
      </trkpt>
      <trkpt lat="46.61824" lon="0.59966">
        <ele>62.2</ele>
        <time>2021-10-10T08:01:21Z</time>
      </trkpt>
      <trkpt lat="46.61826" lon="0.59964">
        <ele>61.8</ele>
        <time>2021-10-10T08:01:22Z</time>
      </trkpt>
      <trkpt lat="46.61828" lon="0.59964">
        <ele>61.4</ele>
        <time>2021-10-10T08:01:23Z</time>
      </trkpt>
      <trkpt lat="46.61836" lon="0.59965">
        <ele>60.8</ele>
        <time>2021-10-10T08:01:26Z</time>
      </trkpt>
      <trkpt lat="46.61848" lon="0.59967">
        <ele>61.8</ele>
        <time>2021-10-10T08:01:31Z</time>
      </trkpt>
      <trkpt lat="46.61851" lon="0.59967">
        <ele>62.6</ele>
        <time>2021-10-10T08:01:32Z</time>
      </trkpt>
      <trkpt lat="46.61858" lon="0.59969">
        <ele>63.8</ele>
        <time>2021-10-10T08:01:35Z</time>
      </trkpt>
      <trkpt lat="46.61866" lon="0.5997">
        <ele>64.8</ele>
        <time>2021-10-10T08:01:38Z</time>
      </trkpt>
      <trkpt lat="46.61876" lon="0.59973">
        <ele>66</ele>
        <time>2021-10-10T08:01:42Z</time>
      </trkpt>
      <trkpt lat="46.61881" lon="0.59974">
        <ele>66.6</ele>
        <time>2021-10-10T08:01:44Z</time>
      </trkpt>
      <trkpt lat="46.61885" lon="0.59975">
        <ele>67.2</ele>
        <time>2021-10-10T08:01:46Z</time>
      </trkpt>
      <trkpt lat="46.61887" lon="0.59976">
        <ele>67.6</ele>
        <time>2021-10-10T08:01:47Z</time>
      </trkpt>
      <trkpt lat="46.61893" lon="0.59976">
        <ele>68.6</ele>
        <time>2021-10-10T08:01:50Z</time>
      </trkpt>
      <trkpt lat="46.61895" lon="0.59976">
        <ele>69</ele>
        <time>2021-10-10T08:01:51Z</time>
      </trkpt>
      <trkpt lat="46.61901" lon="0.59978">
        <ele>69.6</ele>
        <time>2021-10-10T08:01:54Z</time>
      </trkpt>
      <trkpt lat="46.61904" lon="0.59978">
        <ele>70.2</ele>
        <time>2021-10-10T08:01:56Z</time>
      </trkpt>
      <trkpt lat="46.61912" lon="0.5998">
        <ele>70.8</ele>
        <time>2021-10-10T08:02:00Z</time>
      </trkpt>
      <trkpt lat="46.61915" lon="0.59981">
        <ele>71.6</ele>
        <time>2021-10-10T08:02:02Z</time>
      </trkpt>
      <trkpt lat="46.61917" lon="0.59981">
        <ele>72</ele>
        <time>2021-10-10T08:02:03Z</time>
      </trkpt>
      <trkpt lat="46.61924" lon="0.59984">
        <ele>72.8</ele>
        <time>2021-10-10T08:02:07Z</time>
      </trkpt>
      <trkpt lat="46.61926" lon="0.59985">
        <ele>73.2</ele>
        <time>2021-10-10T08:02:09Z</time>
      </trkpt>
      <trkpt lat="46.61931" lon="0.59988">
        <ele>74.4</ele>
        <time>2021-10-10T08:02:12Z</time>
      </trkpt>
      <trkpt lat="46.61933" lon="0.59989">
        <ele>74.6</ele>
        <time>2021-10-10T08:02:13Z</time>
      </trkpt>
      <trkpt lat="46.61944" lon="0.59995">
        <ele>74.8</ele>
        <time>2021-10-10T08:02:20Z</time>
      </trkpt>
      <trkpt lat="46.61949" lon="0.59998">
        <ele>75.6</ele>
        <time>2021-10-10T08:02:23Z</time>
      </trkpt>
      <trkpt lat="46.61954" lon="0.60001">
        <ele>76.8</ele>
        <time>2021-10-10T08:02:26Z</time>
      </trkpt>
      <trkpt lat="46.61956" lon="0.60003">
        <ele>77.2</ele>
        <time>2021-10-10T08:02:27Z</time>
      </trkpt>
      <trkpt lat="46.61963" lon="0.60008">
        <ele>78</ele>
        <time>2021-10-10T08:02:31Z</time>
      </trkpt>
      <trkpt lat="46.61968" lon="0.60011">
        <ele>78.2</ele>
        <time>2021-10-10T08:02:34Z</time>
      </trkpt>
      <trkpt lat="46.61974" lon="0.60015">
        <ele>79.2</ele>
        <time>2021-10-10T08:02:38Z</time>
      </trkpt>
      <trkpt lat="46.6198" lon="0.60019">
        <ele>80.4</ele>
        <time>2021-10-10T08:02:42Z</time>
      </trkpt>
      <trkpt lat="46.61983" lon="0.6002">
        <ele>80.6</ele>
        <time>2021-10-10T08:02:44Z</time>
      </trkpt>
      <trkpt lat="46.61989" lon="0.60023">
        <ele>81.6</ele>
        <time>2021-10-10T08:02:48Z</time>
      </trkpt>
      <trkpt lat="46.61997" lon="0.60028">
        <ele>82.8</ele>
        <time>2021-10-10T08:02:53Z</time>
      </trkpt>
      <trkpt lat="46.62004" lon="0.60032">
        <ele>83.8</ele>
        <time>2021-10-10T08:02:58Z</time>
      </trkpt>
      <trkpt lat="46.62006" lon="0.60035">
        <ele>84.2</ele>
        <time>2021-10-10T08:03:00Z</time>
      </trkpt>
      <trkpt lat="46.62007" lon="0.60036">
        <ele>84.4</ele>
        <time>2021-10-10T08:03:01Z</time>
      </trkpt>
      <trkpt lat="46.62011" lon="0.6004">
        <ele>84.8</ele>
        <time>2021-10-10T08:03:04Z</time>
      </trkpt>
      <trkpt lat="46.62013" lon="0.60041">
        <ele>85</ele>
        <time>2021-10-10T08:03:05Z</time>
      </trkpt>
      <trkpt lat="46.6202" lon="0.60047">
        <ele>86</ele>
        <time>2021-10-10T08:03:10Z</time>
      </trkpt>
      <trkpt lat="46.62024" lon="0.60049">
        <ele>86.6</ele>
        <time>2021-10-10T08:03:13Z</time>
      </trkpt>
      <trkpt lat="46.62027" lon="0.60051">
        <ele>87.2</ele>
        <time>2021-10-10T08:03:15Z</time>
      </trkpt>
      <trkpt lat="46.62035" lon="0.60057">
        <ele>87.8</ele>
        <time>2021-10-10T08:03:21Z</time>
      </trkpt>
      <trkpt lat="46.62041" lon="0.60061">
        <ele>88.2</ele>
        <time>2021-10-10T08:03:25Z</time>
      </trkpt>
      <trkpt lat="46.62047" lon="0.60065">
        <ele>88.8</ele>
        <time>2021-10-10T08:03:28Z</time>
      </trkpt>
      <trkpt lat="46.62059" lon="0.60071">
        <ele>89.2</ele>
        <time>2021-10-10T08:03:32Z</time>
      </trkpt>
      <trkpt lat="46.62062" lon="0.60073">
        <ele>89.4</ele>
        <time>2021-10-10T08:03:33Z</time>
      </trkpt>
      <trkpt lat="46.62078" lon="0.60083">
        <ele>90.4</ele>
        <time>2021-10-10T08:03:38Z</time>
      </trkpt>
      <trkpt lat="46.62081" lon="0.60085">
        <ele>90.4</ele>
        <time>2021-10-10T08:03:39Z</time>
      </trkpt>
      <trkpt lat="46.62102" lon="0.60107">
        <ele>91</ele>
        <time>2021-10-10T08:03:46Z</time>
      </trkpt>
      <trkpt lat="46.62116" lon="0.60128">
        <ele>91.2</ele>
        <time>2021-10-10T08:03:52Z</time>
      </trkpt>
      <trkpt lat="46.62117" lon="0.60131">
        <ele>91.4</ele>
        <time>2021-10-10T08:03:53Z</time>
      </trkpt>
      <trkpt lat="46.62125" lon="0.60144">
        <ele>92.2</ele>
        <time>2021-10-10T08:03:57Z</time>
      </trkpt>
      <trkpt lat="46.62129" lon="0.60156">
        <ele>92.4</ele>
        <time>2021-10-10T08:04:00Z</time>
      </trkpt>
      <trkpt lat="46.62134" lon="0.60169">
        <ele>92.8</ele>
        <time>2021-10-10T08:04:03Z</time>
      </trkpt>
      <trkpt lat="46.62144" lon="0.60193">
        <ele>93.2</ele>
        <time>2021-10-10T08:04:09Z</time>
      </trkpt>
      <trkpt lat="46.62149" lon="0.60203">
        <ele>93.6</ele>
        <time>2021-10-10T08:04:11Z</time>
      </trkpt>
      <trkpt lat="46.62161" lon="0.60226">
        <ele>94.2</ele>
        <time>2021-10-10T08:04:15Z</time>
      </trkpt>
      <trkpt lat="46.62164" lon="0.6023">
        <ele>94.4</ele>
        <time>2021-10-10T08:04:16Z</time>
      </trkpt>
      <trkpt lat="46.62172" lon="0.60234">
        <ele>94.4</ele>
        <time>2021-10-10T08:04:18Z</time>
      </trkpt>
      <trkpt lat="46.62182" lon="0.60235">
        <ele>94.8</ele>
        <time>2021-10-10T08:04:20Z</time>
      </trkpt>
      <trkpt lat="46.62196" lon="0.60232">
        <ele>95</ele>
        <time>2021-10-10T08:04:23Z</time>
      </trkpt>
      <trkpt lat="46.62234" lon="0.60214">
        <ele>94</ele>
        <time>2021-10-10T08:04:31Z</time>
      </trkpt>
      <trkpt lat="46.62251" lon="0.60209">
        <ele>93.6</ele>
        <time>2021-10-10T08:04:34Z</time>
      </trkpt>
      <trkpt lat="46.62269" lon="0.60204">
        <ele>93</ele>
        <time>2021-10-10T08:04:37Z</time>
      </trkpt>
      <trkpt lat="46.62292" lon="0.60194">
        <ele>92.4</ele>
        <time>2021-10-10T08:04:41Z</time>
      </trkpt>
      <trkpt lat="46.62307" lon="0.60187">
        <ele>92</ele>
        <time>2021-10-10T08:04:44Z</time>
      </trkpt>
      <trkpt lat="46.62326" lon="0.60179">
        <ele>92.6</ele>
        <time>2021-10-10T08:04:49Z</time>
      </trkpt>
      <trkpt lat="46.62334" lon="0.60171">
        <ele>93</ele>
        <time>2021-10-10T08:04:52Z</time>
      </trkpt>
      <trkpt lat="46.62336" lon="0.60167">
        <ele>93.2</ele>
        <time>2021-10-10T08:04:53Z</time>
      </trkpt>
      <trkpt lat="46.62338" lon="0.60143">
        <ele>93.4</ele>
        <time>2021-10-10T08:04:58Z</time>
      </trkpt>
      <trkpt lat="46.62339" lon="0.60138">
        <ele>93.2</ele>
        <time>2021-10-10T08:04:59Z</time>
      </trkpt>
      <trkpt lat="46.62341" lon="0.60133">
        <ele>93</ele>
        <time>2021-10-10T08:05:00Z</time>
      </trkpt>
      <trkpt lat="46.6235" lon="0.60111">
        <ele>92.6</ele>
        <time>2021-10-10T08:05:02Z</time>
      </trkpt>
      <trkpt lat="46.6235" lon="0.60111">
        <ele>92.2</ele>
        <time>2021-10-10T08:05:04Z</time>
      </trkpt>
      <trkpt lat="46.62353" lon="0.60106">
        <ele>92.2</ele>
        <time>2021-10-10T08:05:05Z</time>
      </trkpt>
      <trkpt lat="46.62359" lon="0.60099">
        <ele>90.8</ele>
        <time>2021-10-10T08:05:07Z</time>
      </trkpt>
      <trkpt lat="46.62362" lon="0.60098">
        <ele>90</ele>
        <time>2021-10-10T08:05:08Z</time>
      </trkpt>
      <trkpt lat="46.62365" lon="0.60097">
        <ele>89.2</ele>
        <time>2021-10-10T08:05:09Z</time>
      </trkpt>
      <trkpt lat="46.6237" lon="0.60094">
        <ele>88</ele>
        <time>2021-10-10T08:05:11Z</time>
      </trkpt>
      <trkpt lat="46.62377" lon="0.60089">
        <ele>87.2</ele>
        <time>2021-10-10T08:05:13Z</time>
      </trkpt>
      <trkpt lat="46.62381" lon="0.60086">
        <ele>87</ele>
        <time>2021-10-10T08:05:14Z</time>
      </trkpt>
      <trkpt lat="46.62384" lon="0.60083">
        <ele>86.6</ele>
        <time>2021-10-10T08:05:15Z</time>
      </trkpt>
      <trkpt lat="46.6239" lon="0.60076">
        <ele>84.8</ele>
        <time>2021-10-10T08:05:17Z</time>
      </trkpt>
      <trkpt lat="46.62392" lon="0.60071">
        <ele>83.6</ele>
        <time>2021-10-10T08:05:18Z</time>
      </trkpt>
      <trkpt lat="46.62394" lon="0.60064">
        <ele>82.8</ele>
        <time>2021-10-10T08:05:19Z</time>
      </trkpt>
      <trkpt lat="46.62395" lon="0.60055">
        <ele>82.2</ele>
        <time>2021-10-10T08:05:20Z</time>
      </trkpt>
      <trkpt lat="46.62397" lon="0.60048">
        <ele>80.8</ele>
        <time>2021-10-10T08:05:21Z</time>
      </trkpt>
      <trkpt lat="46.62398" lon="0.6004">
        <ele>79.6</ele>
        <time>2021-10-10T08:05:22Z</time>
      </trkpt>
      <trkpt lat="46.62399" lon="0.60032">
        <ele>77.8</ele>
        <time>2021-10-10T08:05:23Z</time>
      </trkpt>
      <trkpt lat="46.624" lon="0.60024">
        <ele>77</ele>
        <time>2021-10-10T08:05:24Z</time>
      </trkpt>
      <trkpt lat="46.62401" lon="0.60016">
        <ele>76.2</ele>
        <time>2021-10-10T08:05:25Z</time>
      </trkpt>
      <trkpt lat="46.624" lon="0.60007">
        <ele>75.8</ele>
        <time>2021-10-10T08:05:26Z</time>
      </trkpt>
      <trkpt lat="46.62398" lon="0.59996">
        <ele>75.2</ele>
        <time>2021-10-10T08:05:27Z</time>
      </trkpt>
      <trkpt lat="46.62397" lon="0.59985">
        <ele>73.4</ele>
        <time>2021-10-10T08:05:28Z</time>
      </trkpt>
      <trkpt lat="46.62396" lon="0.59967">
        <ele>71.2</ele>
        <time>2021-10-10T08:05:29Z</time>
      </trkpt>
      <trkpt lat="46.62396" lon="0.59967">
        <ele>70</ele>
        <time>2021-10-10T08:05:31Z</time>
      </trkpt>
      <trkpt lat="46.62394" lon="0.59952">
        <ele>68.4</ele>
        <time>2021-10-10T08:05:32Z</time>
      </trkpt>
      <trkpt lat="46.62394" lon="0.59947">
        <ele>67.4</ele>
        <time>2021-10-10T08:05:33Z</time>
      </trkpt>
      <trkpt lat="46.62394" lon="0.59941">
        <ele>65.8</ele>
        <time>2021-10-10T08:05:34Z</time>
      </trkpt>
      <trkpt lat="46.62395" lon="0.59937">
        <ele>64.8</ele>
        <time>2021-10-10T08:05:35Z</time>
      </trkpt>
      <trkpt lat="46.62397" lon="0.59933">
        <ele>63.6</ele>
        <time>2021-10-10T08:05:36Z</time>
      </trkpt>
      <trkpt lat="46.62398" lon="0.59928">
        <ele>63</ele>
        <time>2021-10-10T08:05:37Z</time>
      </trkpt>
      <trkpt lat="46.62402" lon="0.59926">
        <ele>62.6</ele>
        <time>2021-10-10T08:05:38Z</time>
      </trkpt>
      <trkpt lat="46.62402" lon="0.59926">
        <ele>62.4</ele>
        <time>2021-10-10T08:05:39Z</time>
      </trkpt>
      <trkpt lat="46.62403" lon="0.59927">
        <ele>62.2</ele>
        <time>2021-10-10T08:05:40Z</time>
      </trkpt>
      <trkpt lat="46.62412" lon="0.5993">
        <ele>63</ele>
        <time>2021-10-10T08:05:45Z</time>
      </trkpt>
      <trkpt lat="46.62418" lon="0.59938">
        <ele>63.8</ele>
        <time>2021-10-10T08:05:50Z</time>
      </trkpt>
      <trkpt lat="46.62419" lon="0.5994">
        <ele>64.6</ele>
        <time>2021-10-10T08:05:52Z</time>
      </trkpt>
      <trkpt lat="46.62421" lon="0.59945">
        <ele>65</ele>
        <time>2021-10-10T08:05:54Z</time>
      </trkpt>
      <trkpt lat="46.62423" lon="0.59952">
        <ele>66</ele>
        <time>2021-10-10T08:05:57Z</time>
      </trkpt>
      <trkpt lat="46.62425" lon="0.5996">
        <ele>67</ele>
        <time>2021-10-10T08:06:00Z</time>
      </trkpt>
      <trkpt lat="46.62427" lon="0.59962">
        <ele>67.2</ele>
        <time>2021-10-10T08:06:01Z</time>
      </trkpt>
      <trkpt lat="46.62428" lon="0.5997">
        <ele>68.6</ele>
        <time>2021-10-10T08:06:05Z</time>
      </trkpt>
      <trkpt lat="46.62428" lon="0.59973">
        <ele>69.2</ele>
        <time>2021-10-10T08:06:07Z</time>
      </trkpt>
      <trkpt lat="46.62428" lon="0.59976">
        <ele>69.8</ele>
        <time>2021-10-10T08:06:08Z</time>
      </trkpt>
      <trkpt lat="46.62431" lon="0.59985">
        <ele>70.8</ele>
        <time>2021-10-10T08:06:12Z</time>
      </trkpt>
      <trkpt lat="46.62432" lon="0.59987">
        <ele>71</ele>
        <time>2021-10-10T08:06:13Z</time>
      </trkpt>
      <trkpt lat="46.62432" lon="0.59994">
        <ele>71.8</ele>
        <time>2021-10-10T08:06:16Z</time>
      </trkpt>
      <trkpt lat="46.62433" lon="0.59999">
        <ele>72.6</ele>
        <time>2021-10-10T08:06:19Z</time>
      </trkpt>
      <trkpt lat="46.62433" lon="0.60001">
        <ele>72.8</ele>
        <time>2021-10-10T08:06:20Z</time>
      </trkpt>
      <trkpt lat="46.62433" lon="0.60008">
        <ele>73.8</ele>
        <time>2021-10-10T08:06:23Z</time>
      </trkpt>
      <trkpt lat="46.62434" lon="0.60014">
        <ele>74.8</ele>
        <time>2021-10-10T08:06:26Z</time>
      </trkpt>
      <trkpt lat="46.62435" lon="0.60017">
        <ele>75</ele>
        <time>2021-10-10T08:06:27Z</time>
      </trkpt>
      <trkpt lat="46.62438" lon="0.60026">
        <ele>76</ele>
        <time>2021-10-10T08:06:31Z</time>
      </trkpt>
      <trkpt lat="46.62439" lon="0.60033">
        <ele>76.6</ele>
        <time>2021-10-10T08:06:34Z</time>
      </trkpt>
      <trkpt lat="46.6244" lon="0.60038">
        <ele>77</ele>
        <time>2021-10-10T08:06:36Z</time>
      </trkpt>
      <trkpt lat="46.62442" lon="0.60049">
        <ele>78</ele>
        <time>2021-10-10T08:06:40Z</time>
      </trkpt>
      <trkpt lat="46.62442" lon="0.60052">
        <ele>78.4</ele>
        <time>2021-10-10T08:06:41Z</time>
      </trkpt>
      <trkpt lat="46.62445" lon="0.60062">
        <ele>79.4</ele>
        <time>2021-10-10T08:06:45Z</time>
      </trkpt>
      <trkpt lat="46.62447" lon="0.60067">
        <ele>79.8</ele>
        <time>2021-10-10T08:06:47Z</time>
      </trkpt>
      <trkpt lat="46.62447" lon="0.6007">
        <ele>79.8</ele>
        <time>2021-10-10T08:06:48Z</time>
      </trkpt>
      <trkpt lat="46.6245" lon="0.60078">
        <ele>80.6</ele>
        <time>2021-10-10T08:06:51Z</time>
      </trkpt>
      <trkpt lat="46.62454" lon="0.6009">
        <ele>81</ele>
        <time>2021-10-10T08:06:55Z</time>
      </trkpt>
      <trkpt lat="46.62457" lon="0.60098">
        <ele>81.6</ele>
        <time>2021-10-10T08:06:58Z</time>
      </trkpt>
      <trkpt lat="46.62463" lon="0.60111">
        <ele>82.2</ele>
        <time>2021-10-10T08:07:03Z</time>
      </trkpt>
      <trkpt lat="46.62467" lon="0.60119">
        <ele>82.6</ele>
        <time>2021-10-10T08:07:06Z</time>
      </trkpt>
      <trkpt lat="46.62472" lon="0.60129">
        <ele>83.2</ele>
        <time>2021-10-10T08:07:10Z</time>
      </trkpt>
      <trkpt lat="46.62477" lon="0.60139">
        <ele>83.8</ele>
        <time>2021-10-10T08:07:14Z</time>
      </trkpt>
      <trkpt lat="46.62483" lon="0.60153">
        <ele>85</ele>
        <time>2021-10-10T08:07:19Z</time>
      </trkpt>
      <trkpt lat="46.62484" lon="0.60156">
        <ele>85.2</ele>
        <time>2021-10-10T08:07:20Z</time>
      </trkpt>
      <trkpt lat="46.62489" lon="0.60172">
        <ele>86</ele>
        <time>2021-10-10T08:07:25Z</time>
      </trkpt>
      <trkpt lat="46.62491" lon="0.60179">
        <ele>86.4</ele>
        <time>2021-10-10T08:07:27Z</time>
      </trkpt>
      <trkpt lat="46.62498" lon="0.60197">
        <ele>87</ele>
        <time>2021-10-10T08:07:33Z</time>
      </trkpt>
      <trkpt lat="46.62502" lon="0.60205">
        <ele>87.8</ele>
        <time>2021-10-10T08:07:36Z</time>
      </trkpt>
      <trkpt lat="46.62505" lon="0.6021">
        <ele>88.2</ele>
        <time>2021-10-10T08:07:38Z</time>
      </trkpt>
      <trkpt lat="46.62511" lon="0.60219">
        <ele>89.4</ele>
        <time>2021-10-10T08:07:42Z</time>
      </trkpt>
      <trkpt lat="46.62514" lon="0.60223">
        <ele>89.8</ele>
        <time>2021-10-10T08:07:44Z</time>
      </trkpt>
      <trkpt lat="46.62521" lon="0.60229">
        <ele>90.6</ele>
        <time>2021-10-10T08:07:48Z</time>
      </trkpt>
      <trkpt lat="46.62528" lon="0.60236">
        <ele>91.8</ele>
        <time>2021-10-10T08:07:52Z</time>
      </trkpt>
      <trkpt lat="46.62532" lon="0.60239">
        <ele>92.4</ele>
        <time>2021-10-10T08:07:54Z</time>
      </trkpt>
      <trkpt lat="46.62538" lon="0.60242">
        <ele>92.8</ele>
        <time>2021-10-10T08:07:57Z</time>
      </trkpt>
      <trkpt lat="46.62538" lon="0.60242">
        <ele>94</ele>
        <time>2021-10-10T08:08:02Z</time>
      </trkpt>
      <trkpt lat="46.62548" lon="0.60247">
        <ele>94.4</ele>
        <time>2021-10-10T08:08:03Z</time>
      </trkpt>
      <trkpt lat="46.62557" lon="0.60248">
        <ele>95.2</ele>
        <time>2021-10-10T08:08:08Z</time>
      </trkpt>
      <trkpt lat="46.62563" lon="0.60247">
        <ele>95.8</ele>
        <time>2021-10-10T08:08:11Z</time>
      </trkpt>
      <trkpt lat="46.62566" lon="0.60245">
        <ele>96.4</ele>
        <time>2021-10-10T08:08:13Z</time>
      </trkpt>
      <trkpt lat="46.62573" lon="0.6024">
        <ele>96.8</ele>
        <time>2021-10-10T08:08:17Z</time>
      </trkpt>
      <trkpt lat="46.62577" lon="0.60237">
        <ele>97.4</ele>
        <time>2021-10-10T08:08:19Z</time>
      </trkpt>
      <trkpt lat="46.62583" lon="0.6023">
        <ele>98.6</ele>
        <time>2021-10-10T08:08:23Z</time>
      </trkpt>
      <trkpt lat="46.62594" lon="0.60224">
        <ele>99.6</ele>
        <time>2021-10-10T08:08:29Z</time>
      </trkpt>
      <trkpt lat="46.62596" lon="0.60224">
        <ele>99.8</ele>
        <time>2021-10-10T08:08:30Z</time>
      </trkpt>
      <trkpt lat="46.62613" lon="0.6023">
        <ele>100.2</ele>
        <time>2021-10-10T08:08:37Z</time>
      </trkpt>
      <trkpt lat="46.6263" lon="0.60244">
        <ele>100.4</ele>
        <time>2021-10-10T08:08:43Z</time>
      </trkpt>
      <trkpt lat="46.62647" lon="0.60266">
        <ele>99.6</ele>
        <time>2021-10-10T08:08:48Z</time>
      </trkpt>
      <trkpt lat="46.62671" lon="0.60302">
        <ele>98.6</ele>
        <time>2021-10-10T08:08:54Z</time>
      </trkpt>
      <trkpt lat="46.62675" lon="0.60309">
        <ele>98.4</ele>
        <time>2021-10-10T08:08:55Z</time>
      </trkpt>
      <trkpt lat="46.62693" lon="0.60348">
        <ele>98.6</ele>
        <time>2021-10-10T08:09:01Z</time>
      </trkpt>
      <trkpt lat="46.62696" lon="0.60362">
        <ele>99.2</ele>
        <time>2021-10-10T08:09:03Z</time>
      </trkpt>
      <trkpt lat="46.62699" lon="0.60383">
        <ele>99.6</ele>
        <time>2021-10-10T08:09:06Z</time>
      </trkpt>
      <trkpt lat="46.627" lon="0.60404">
        <ele>99.8</ele>
        <time>2021-10-10T08:09:09Z</time>
      </trkpt>
      <trkpt lat="46.62701" lon="0.6042">
        <ele>100</ele>
        <time>2021-10-10T08:09:12Z</time>
      </trkpt>
      <trkpt lat="46.62705" lon="0.60456">
        <ele>100.8</ele>
        <time>2021-10-10T08:09:18Z</time>
      </trkpt>
      <trkpt lat="46.62705" lon="0.60462">
        <ele>100.8</ele>
        <time>2021-10-10T08:09:19Z</time>
      </trkpt>
      <trkpt lat="46.6271" lon="0.60494">
        <ele>101.4</ele>
        <time>2021-10-10T08:09:24Z</time>
      </trkpt>
      <trkpt lat="46.62717" lon="0.60514">
        <ele>101.8</ele>
        <time>2021-10-10T08:09:28Z</time>
      </trkpt>
      <trkpt lat="46.62721" lon="0.60524">
        <ele>102.2</ele>
        <time>2021-10-10T08:09:30Z</time>
      </trkpt>
      <trkpt lat="46.62726" lon="0.60533">
        <ele>102.4</ele>
        <time>2021-10-10T08:09:32Z</time>
      </trkpt>
      <trkpt lat="46.62736" lon="0.60557">
        <ele>102.8</ele>
        <time>2021-10-10T08:09:37Z</time>
      </trkpt>
      <trkpt lat="46.62738" lon="0.60561">
        <ele>103</ele>
        <time>2021-10-10T08:09:38Z</time>
      </trkpt>
      <trkpt lat="46.62749" lon="0.60593">
        <ele>104</ele>
        <time>2021-10-10T08:09:45Z</time>
      </trkpt>
      <trkpt lat="46.62764" lon="0.60617">
        <ele>104.8</ele>
        <time>2021-10-10T08:09:52Z</time>
      </trkpt>
      <trkpt lat="46.62772" lon="0.60628">
        <ele>105</ele>
        <time>2021-10-10T08:09:56Z</time>
      </trkpt>
      <trkpt lat="46.62774" lon="0.60631">
        <ele>105</ele>
        <time>2021-10-10T08:09:57Z</time>
      </trkpt>
      <trkpt lat="46.62777" lon="0.60635">
        <ele>105</ele>
        <time>2021-10-10T08:09:58Z</time>
      </trkpt>
      <trkpt lat="46.62801" lon="0.60669">
        <ele>105.8</ele>
        <time>2021-10-10T08:10:08Z</time>
      </trkpt>
      <trkpt lat="46.62805" lon="0.60676">
        <ele>106.2</ele>
        <time>2021-10-10T08:10:10Z</time>
      </trkpt>
      <trkpt lat="46.62814" lon="0.6069">
        <ele>107.2</ele>
        <time>2021-10-10T08:10:15Z</time>
      </trkpt>
      <trkpt lat="46.62815" lon="0.60693">
        <ele>107.4</ele>
        <time>2021-10-10T08:10:16Z</time>
      </trkpt>
      <trkpt lat="46.62823" lon="0.60705">
        <ele>108.6</ele>
        <time>2021-10-10T08:10:21Z</time>
      </trkpt>
      <trkpt lat="46.62832" lon="0.60718">
        <ele>109.4</ele>
        <time>2021-10-10T08:10:26Z</time>
      </trkpt>
      <trkpt lat="46.62833" lon="0.60721">
        <ele>109.6</ele>
        <time>2021-10-10T08:10:27Z</time>
      </trkpt>
      <trkpt lat="46.62838" lon="0.60728">
        <ele>110.4</ele>
        <time>2021-10-10T08:10:30Z</time>
      </trkpt>
      <trkpt lat="46.62843" lon="0.60736">
        <ele>110.6</ele>
        <time>2021-10-10T08:10:33Z</time>
      </trkpt>
      <trkpt lat="46.6285" lon="0.60746">
        <ele>111.4</ele>
        <time>2021-10-10T08:10:37Z</time>
      </trkpt>
      <trkpt lat="46.62854" lon="0.60752">
        <ele>112</ele>
        <time>2021-10-10T08:10:39Z</time>
      </trkpt>
      <trkpt lat="46.62865" lon="0.60768">
        <ele>112.6</ele>
        <time>2021-10-10T08:10:45Z</time>
      </trkpt>
      <trkpt lat="46.62876" lon="0.60785">
        <ele>113.4</ele>
        <time>2021-10-10T08:10:51Z</time>
      </trkpt>
      <trkpt lat="46.6288" lon="0.60791">
        <ele>113.8</ele>
        <time>2021-10-10T08:10:53Z</time>
      </trkpt>
      <trkpt lat="46.62895" lon="0.60817">
        <ele>114.4</ele>
        <time>2021-10-10T08:11:01Z</time>
      </trkpt>
      <trkpt lat="46.62906" lon="0.60838">
        <ele>114.4</ele>
        <time>2021-10-10T08:11:07Z</time>
      </trkpt>
      <trkpt lat="46.62923" lon="0.60857">
        <ele>114.6</ele>
        <time>2021-10-10T08:11:13Z</time>
      </trkpt>
      <trkpt lat="46.6295" lon="0.60871">
        <ele>114</ele>
        <time>2021-10-10T08:11:19Z</time>
      </trkpt>
      <trkpt lat="46.62954" lon="0.60874">
        <ele>113</ele>
        <time>2021-10-10T08:11:20Z</time>
      </trkpt>
      <trkpt lat="46.62981" lon="0.60889">
        <ele>112</ele>
        <time>2021-10-10T08:11:25Z</time>
      </trkpt>
      <trkpt lat="46.63" lon="0.60903">
        <ele>112</ele>
        <time>2021-10-10T08:11:28Z</time>
      </trkpt>
      <trkpt lat="46.63013" lon="0.60915">
        <ele>111.4</ele>
        <time>2021-10-10T08:11:30Z</time>
      </trkpt>
      <trkpt lat="46.6303" lon="0.60936">
        <ele>110.8</ele>
        <time>2021-10-10T08:11:33Z</time>
      </trkpt>
      <trkpt lat="46.63036" lon="0.60944">
        <ele>109.4</ele>
        <time>2021-10-10T08:11:34Z</time>
      </trkpt>
      <trkpt lat="46.63042" lon="0.60952">
        <ele>108.6</ele>
        <time>2021-10-10T08:11:35Z</time>
      </trkpt>
      <trkpt lat="46.63048" lon="0.60959">
        <ele>108.2</ele>
        <time>2021-10-10T08:11:36Z</time>
      </trkpt>
      <trkpt lat="46.6306" lon="0.60973">
        <ele>107.4</ele>
        <time>2021-10-10T08:11:38Z</time>
      </trkpt>
      <trkpt lat="46.63067" lon="0.60979">
        <ele>107.2</ele>
        <time>2021-10-10T08:11:39Z</time>
      </trkpt>
      <trkpt lat="46.63073" lon="0.60985">
        <ele>106.8</ele>
        <time>2021-10-10T08:11:40Z</time>
      </trkpt>
      <trkpt lat="46.63079" lon="0.6099">
        <ele>106</ele>
        <time>2021-10-10T08:11:41Z</time>
      </trkpt>
      <trkpt lat="46.63097" lon="0.61005">
        <ele>105</ele>
        <time>2021-10-10T08:11:44Z</time>
      </trkpt>
      <trkpt lat="46.6312" lon="0.61022">
        <ele>103.6</ele>
        <time>2021-10-10T08:11:48Z</time>
      </trkpt>
      <trkpt lat="46.63163" lon="0.61053">
        <ele>102.8</ele>
        <time>2021-10-10T08:11:56Z</time>
      </trkpt>
      <trkpt lat="46.63167" lon="0.61056">
        <ele>102.8</ele>
        <time>2021-10-10T08:11:57Z</time>
      </trkpt>
      <trkpt lat="46.63181" lon="0.61076">
        <ele>102.8</ele>
        <time>2021-10-10T08:12:01Z</time>
      </trkpt>
      <trkpt lat="46.63186" lon="0.61085">
        <ele>102.4</ele>
        <time>2021-10-10T08:12:03Z</time>
      </trkpt>
      <trkpt lat="46.63193" lon="0.61092">
        <ele>102</ele>
        <time>2021-10-10T08:12:05Z</time>
      </trkpt>
      <trkpt lat="46.63197" lon="0.61094">
        <ele>101.8</ele>
        <time>2021-10-10T08:12:06Z</time>
      </trkpt>
      <trkpt lat="46.632" lon="0.61093">
        <ele>101.6</ele>
        <time>2021-10-10T08:12:07Z</time>
      </trkpt>
      <trkpt lat="46.63202" lon="0.61088">
        <ele>101.2</ele>
        <time>2021-10-10T08:12:09Z</time>
      </trkpt>
      <trkpt lat="46.63202" lon="0.61066">
        <ele>100.6</ele>
        <time>2021-10-10T08:12:14Z</time>
      </trkpt>
      <trkpt lat="46.63199" lon="0.61049">
        <ele>100.4</ele>
        <time>2021-10-10T08:12:17Z</time>
      </trkpt>
      <trkpt lat="46.63198" lon="0.61044">
        <ele>100</ele>
        <time>2021-10-10T08:12:18Z</time>
      </trkpt>
      <trkpt lat="46.63197" lon="0.61038">
        <ele>99.6</ele>
        <time>2021-10-10T08:12:19Z</time>
      </trkpt>
      <trkpt lat="46.63193" lon="0.6102">
        <ele>99.6</ele>
        <time>2021-10-10T08:12:22Z</time>
      </trkpt>
      <trkpt lat="46.63193" lon="0.6101">
        <ele>99.2</ele>
        <time>2021-10-10T08:12:24Z</time>
      </trkpt>
      <trkpt lat="46.63196" lon="0.60987">
        <ele>99.4</ele>
        <time>2021-10-10T08:12:29Z</time>
      </trkpt>
      <trkpt lat="46.63196" lon="0.60982">
        <ele>99.6</ele>
        <time>2021-10-10T08:12:30Z</time>
      </trkpt>
      <trkpt lat="46.63195" lon="0.60968">
        <ele>99.2</ele>
        <time>2021-10-10T08:12:33Z</time>
      </trkpt>
      <trkpt lat="46.63193" lon="0.60965">
        <ele>98.8</ele>
        <time>2021-10-10T08:12:34Z</time>
      </trkpt>
      <trkpt lat="46.6319" lon="0.60962">
        <ele>97.8</ele>
        <time>2021-10-10T08:12:36Z</time>
      </trkpt>
      <trkpt lat="46.6319" lon="0.60959">
        <ele>97.6</ele>
        <time>2021-10-10T08:12:37Z</time>
      </trkpt>
      <trkpt lat="46.63191" lon="0.60957">
        <ele>97.4</ele>
        <time>2021-10-10T08:12:38Z</time>
      </trkpt>
      <trkpt lat="46.63196" lon="0.60941">
        <ele>97</ele>
        <time>2021-10-10T08:12:42Z</time>
      </trkpt>
      <trkpt lat="46.63197" lon="0.60936">
        <ele>97</ele>
        <time>2021-10-10T08:12:43Z</time>
      </trkpt>
      <trkpt lat="46.63198" lon="0.60923">
        <ele>97.2</ele>
        <time>2021-10-10T08:12:45Z</time>
      </trkpt>
      <trkpt lat="46.63199" lon="0.60917">
        <ele>97.2</ele>
        <time>2021-10-10T08:12:46Z</time>
      </trkpt>
      <trkpt lat="46.632" lon="0.60905">
        <ele>97.2</ele>
        <time>2021-10-10T08:12:48Z</time>
      </trkpt>
      <trkpt lat="46.63201" lon="0.60895">
        <ele>97</ele>
        <time>2021-10-10T08:12:50Z</time>
      </trkpt>
      <trkpt lat="46.632" lon="0.60887">
        <ele>97</ele>
        <time>2021-10-10T08:12:52Z</time>
      </trkpt>
      <trkpt lat="46.63197" lon="0.60878">
        <ele>99</ele>
        <time>2021-10-10T08:12:57Z</time>
      </trkpt>
      <trkpt lat="46.63196" lon="0.60876">
        <ele>99.4</ele>
        <time>2021-10-10T08:12:58Z</time>
      </trkpt>
      <trkpt lat="46.63193" lon="0.60872">
        <ele>100.2</ele>
        <time>2021-10-10T08:13:00Z</time>
      </trkpt>
      <trkpt lat="46.63189" lon="0.60867">
        <ele>101</ele>
        <time>2021-10-10T08:13:02Z</time>
      </trkpt>
      <trkpt lat="46.63187" lon="0.60865">
        <ele>101.4</ele>
        <time>2021-10-10T08:13:03Z</time>
      </trkpt>
      <trkpt lat="46.63182" lon="0.60854">
        <ele>102.4</ele>
        <time>2021-10-10T08:13:07Z</time>
      </trkpt>
      <trkpt lat="46.6318" lon="0.60851">
        <ele>102.6</ele>
        <time>2021-10-10T08:13:08Z</time>
      </trkpt>
      <trkpt lat="46.63175" lon="0.60837">
        <ele>103.4</ele>
        <time>2021-10-10T08:13:13Z</time>
      </trkpt>
      <trkpt lat="46.63175" lon="0.60834">
        <ele>103.6</ele>
        <time>2021-10-10T08:13:14Z</time>
      </trkpt>
      <trkpt lat="46.63174" lon="0.60828">
        <ele>103.8</ele>
        <time>2021-10-10T08:13:16Z</time>
      </trkpt>
      <trkpt lat="46.63175" lon="0.60822">
        <ele>104</ele>
        <time>2021-10-10T08:13:19Z</time>
      </trkpt>
      <trkpt lat="46.63177" lon="0.60812">
        <ele>104</ele>
        <time>2021-10-10T08:13:23Z</time>
      </trkpt>
      <trkpt lat="46.63177" lon="0.60795">
        <ele>104.4</ele>
        <time>2021-10-10T08:13:27Z</time>
      </trkpt>
      <trkpt lat="46.63178" lon="0.60791">
        <ele>104.6</ele>
        <time>2021-10-10T08:13:28Z</time>
      </trkpt>
      <trkpt lat="46.63178" lon="0.60763">
        <ele>105.2</ele>
        <time>2021-10-10T08:13:34Z</time>
      </trkpt>
      <trkpt lat="46.6318" lon="0.60745">
        <ele>105.4</ele>
        <time>2021-10-10T08:13:38Z</time>
      </trkpt>
      <trkpt lat="46.63182" lon="0.60734">
        <ele>105.2</ele>
        <time>2021-10-10T08:13:40Z</time>
      </trkpt>
      <trkpt lat="46.63184" lon="0.60723">
        <ele>105</ele>
        <time>2021-10-10T08:13:42Z</time>
      </trkpt>
      <trkpt lat="46.63186" lon="0.60709">
        <ele>104.8</ele>
        <time>2021-10-10T08:13:44Z</time>
      </trkpt>
      <trkpt lat="46.63186" lon="0.60702">
        <ele>104.8</ele>
        <time>2021-10-10T08:13:45Z</time>
      </trkpt>
      <trkpt lat="46.63184" lon="0.60688">
        <ele>104.6</ele>
        <time>2021-10-10T08:13:47Z</time>
      </trkpt>
      <trkpt lat="46.63181" lon="0.60675">
        <ele>104.2</ele>
        <time>2021-10-10T08:13:49Z</time>
      </trkpt>
      <trkpt lat="46.63179" lon="0.60668">
        <ele>104.2</ele>
        <time>2021-10-10T08:13:50Z</time>
      </trkpt>
      <trkpt lat="46.63168" lon="0.60634">
        <ele>103.4</ele>
        <time>2021-10-10T08:13:55Z</time>
      </trkpt>
      <trkpt lat="46.63167" lon="0.60625">
        <ele>102.8</ele>
        <time>2021-10-10T08:13:56Z</time>
      </trkpt>
      <trkpt lat="46.63166" lon="0.60616">
        <ele>102.4</ele>
        <time>2021-10-10T08:13:57Z</time>
      </trkpt>
      <trkpt lat="46.63169" lon="0.60601">
        <ele>101.6</ele>
        <time>2021-10-10T08:13:59Z</time>
      </trkpt>
      <trkpt lat="46.6317" lon="0.60596">
        <ele>101</ele>
        <time>2021-10-10T08:14:00Z</time>
      </trkpt>
      <trkpt lat="46.63172" lon="0.60591">
        <ele>100.6</ele>
        <time>2021-10-10T08:14:01Z</time>
      </trkpt>
      <trkpt lat="46.63173" lon="0.60587">
        <ele>100</ele>
        <time>2021-10-10T08:14:02Z</time>
      </trkpt>
      <trkpt lat="46.63174" lon="0.60584">
        <ele>99.2</ele>
        <time>2021-10-10T08:14:03Z</time>
      </trkpt>
      <trkpt lat="46.63175" lon="0.60579">
        <ele>98.6</ele>
        <time>2021-10-10T08:14:04Z</time>
      </trkpt>
      <trkpt lat="46.63176" lon="0.60576">
        <ele>97</ele>
        <time>2021-10-10T08:14:05Z</time>
      </trkpt>
      <trkpt lat="46.63177" lon="0.60566">
        <ele>96.6</ele>
        <time>2021-10-10T08:14:07Z</time>
      </trkpt>
      <trkpt lat="46.63178" lon="0.60553">
        <ele>95.8</ele>
        <time>2021-10-10T08:14:09Z</time>
      </trkpt>
      <trkpt lat="46.63179" lon="0.60546">
        <ele>95.2</ele>
        <time>2021-10-10T08:14:10Z</time>
      </trkpt>
      <trkpt lat="46.6318" lon="0.60532">
        <ele>94.6</ele>
        <time>2021-10-10T08:14:12Z</time>
      </trkpt>
      <trkpt lat="46.6318" lon="0.60525">
        <ele>93.6</ele>
        <time>2021-10-10T08:14:13Z</time>
      </trkpt>
      <trkpt lat="46.6318" lon="0.60517">
        <ele>93.2</ele>
        <time>2021-10-10T08:14:14Z</time>
      </trkpt>
      <trkpt lat="46.63181" lon="0.6051">
        <ele>92.4</ele>
        <time>2021-10-10T08:14:15Z</time>
      </trkpt>
      <trkpt lat="46.63184" lon="0.60496">
        <ele>92</ele>
        <time>2021-10-10T08:14:17Z</time>
      </trkpt>
      <trkpt lat="46.63186" lon="0.60486">
        <ele>90.8</ele>
        <time>2021-10-10T08:14:19Z</time>
      </trkpt>
      <trkpt lat="46.63186" lon="0.60473">
        <ele>89.6</ele>
        <time>2021-10-10T08:14:21Z</time>
      </trkpt>
      <trkpt lat="46.63186" lon="0.60467">
        <ele>88.8</ele>
        <time>2021-10-10T08:14:22Z</time>
      </trkpt>
      <trkpt lat="46.63185" lon="0.6046">
        <ele>87.6</ele>
        <time>2021-10-10T08:14:23Z</time>
      </trkpt>
      <trkpt lat="46.63185" lon="0.60446">
        <ele>86.6</ele>
        <time>2021-10-10T08:14:25Z</time>
      </trkpt>
      <trkpt lat="46.63184" lon="0.60427">
        <ele>85.8</ele>
        <time>2021-10-10T08:14:27Z</time>
      </trkpt>
      <trkpt lat="46.63183" lon="0.60415">
        <ele>85.6</ele>
        <time>2021-10-10T08:14:28Z</time>
      </trkpt>
      <trkpt lat="46.63182" lon="0.60404">
        <ele>85.4</ele>
        <time>2021-10-10T08:14:29Z</time>
      </trkpt>
      <trkpt lat="46.63183" lon="0.60393">
        <ele>85</ele>
        <time>2021-10-10T08:14:30Z</time>
      </trkpt>
      <trkpt lat="46.63182" lon="0.60374">
        <ele>83.6</ele>
        <time>2021-10-10T08:14:32Z</time>
      </trkpt>
      <trkpt lat="46.6318" lon="0.60367">
        <ele>82.8</ele>
        <time>2021-10-10T08:14:33Z</time>
      </trkpt>
      <trkpt lat="46.63178" lon="0.6036">
        <ele>82</ele>
        <time>2021-10-10T08:14:34Z</time>
      </trkpt>
      <trkpt lat="46.63174" lon="0.60345">
        <ele>81</ele>
        <time>2021-10-10T08:14:36Z</time>
      </trkpt>
      <trkpt lat="46.6317" lon="0.60331">
        <ele>79.8</ele>
        <time>2021-10-10T08:14:38Z</time>
      </trkpt>
      <trkpt lat="46.63165" lon="0.60318">
        <ele>78.8</ele>
        <time>2021-10-10T08:14:40Z</time>
      </trkpt>
      <trkpt lat="46.63163" lon="0.60314">
        <ele>78</ele>
        <time>2021-10-10T08:14:41Z</time>
      </trkpt>
      <trkpt lat="46.63161" lon="0.6031">
        <ele>77.6</ele>
        <time>2021-10-10T08:14:42Z</time>
      </trkpt>
      <trkpt lat="46.63158" lon="0.60305">
        <ele>77.2</ele>
        <time>2021-10-10T08:14:43Z</time>
      </trkpt>
      <trkpt lat="46.63157" lon="0.603">
        <ele>76.2</ele>
        <time>2021-10-10T08:14:44Z</time>
      </trkpt>
      <trkpt lat="46.63154" lon="0.60294">
        <ele>75.6</ele>
        <time>2021-10-10T08:14:45Z</time>
      </trkpt>
      <trkpt lat="46.6315" lon="0.60283">
        <ele>75</ele>
        <time>2021-10-10T08:14:47Z</time>
      </trkpt>
      <trkpt lat="46.63142" lon="0.60267">
        <ele>74</ele>
        <time>2021-10-10T08:14:50Z</time>
      </trkpt>
      <trkpt lat="46.63134" lon="0.60248">
        <ele>72.6</ele>
        <time>2021-10-10T08:14:53Z</time>
      </trkpt>
      <trkpt lat="46.63129" lon="0.60227">
        <ele>70.6</ele>
        <time>2021-10-10T08:14:56Z</time>
      </trkpt>
      <trkpt lat="46.63126" lon="0.60217">
        <ele>69.6</ele>
        <time>2021-10-10T08:14:58Z</time>
      </trkpt>
      <trkpt lat="46.63122" lon="0.60194">
        <ele>68.4</ele>
        <time>2021-10-10T08:15:02Z</time>
      </trkpt>
      <trkpt lat="46.6312" lon="0.60187">
        <ele>68.2</ele>
        <time>2021-10-10T08:15:03Z</time>
      </trkpt>
      <trkpt lat="46.63117" lon="0.60173">
        <ele>68</ele>
        <time>2021-10-10T08:15:05Z</time>
      </trkpt>
      <trkpt lat="46.63109" lon="0.6015">
        <ele>67.8</ele>
        <time>2021-10-10T08:15:08Z</time>
      </trkpt>
      <trkpt lat="46.63108" lon="0.60141">
        <ele>67.8</ele>
        <time>2021-10-10T08:15:09Z</time>
      </trkpt>
      <trkpt lat="46.63106" lon="0.60123">
        <ele>67.4</ele>
        <time>2021-10-10T08:15:11Z</time>
      </trkpt>
      <trkpt lat="46.63106" lon="0.60112">
        <ele>67.2</ele>
        <time>2021-10-10T08:15:12Z</time>
      </trkpt>
      <trkpt lat="46.63102" lon="0.60081">
        <ele>66.4</ele>
        <time>2021-10-10T08:15:15Z</time>
      </trkpt>
      <trkpt lat="46.63098" lon="0.6006">
        <ele>66</ele>
        <time>2021-10-10T08:15:17Z</time>
      </trkpt>
      <trkpt lat="46.63097" lon="0.6001">
        <ele>65</ele>
        <time>2021-10-10T08:15:22Z</time>
      </trkpt>
      <trkpt lat="46.63096" lon="0.59977">
        <ele>64</ele>
        <time>2021-10-10T08:15:25Z</time>
      </trkpt>
      <trkpt lat="46.63096" lon="0.59965">
        <ele>63.4</ele>
        <time>2021-10-10T08:15:26Z</time>
      </trkpt>
      <trkpt lat="46.63095" lon="0.59954">
        <ele>63</ele>
        <time>2021-10-10T08:15:27Z</time>
      </trkpt>
      <trkpt lat="46.6309" lon="0.59934">
        <ele>62.4</ele>
        <time>2021-10-10T08:15:29Z</time>
      </trkpt>
      <trkpt lat="46.63083" lon="0.59907">
        <ele>61.8</ele>
        <time>2021-10-10T08:15:32Z</time>
      </trkpt>
      <trkpt lat="46.63077" lon="0.5989">
        <ele>61.4</ele>
        <time>2021-10-10T08:15:34Z</time>
      </trkpt>
      <trkpt lat="46.63074" lon="0.59882">
        <ele>61.4</ele>
        <time>2021-10-10T08:15:35Z</time>
      </trkpt>
      <trkpt lat="46.63064" lon="0.59849">
        <ele>60.6</ele>
        <time>2021-10-10T08:15:40Z</time>
      </trkpt>
      <trkpt lat="46.63061" lon="0.59827">
        <ele>60.2</ele>
        <time>2021-10-10T08:15:43Z</time>
      </trkpt>
      <trkpt lat="46.63057" lon="0.59796">
        <ele>60</ele>
        <time>2021-10-10T08:15:47Z</time>
      </trkpt>
      <trkpt lat="46.63055" lon="0.59755">
        <ele>59</ele>
        <time>2021-10-10T08:15:52Z</time>
      </trkpt>
      <trkpt lat="46.63058" lon="0.5973">
        <ele>58</ele>
        <time>2021-10-10T08:15:55Z</time>
      </trkpt>
      <trkpt lat="46.63058" lon="0.59724">
        <ele>57.6</ele>
        <time>2021-10-10T08:15:56Z</time>
      </trkpt>
      <trkpt lat="46.6306" lon="0.59719">
        <ele>57.2</ele>
        <time>2021-10-10T08:15:57Z</time>
      </trkpt>
      <trkpt lat="46.63064" lon="0.59718">
        <ele>56.6</ele>
        <time>2021-10-10T08:15:59Z</time>
      </trkpt>
      <trkpt lat="46.63065" lon="0.59719">
        <ele>56.4</ele>
        <time>2021-10-10T08:16:00Z</time>
      </trkpt>
      <trkpt lat="46.63067" lon="0.5973">
        <ele>56</ele>
        <time>2021-10-10T08:16:03Z</time>
      </trkpt>
      <trkpt lat="46.63071" lon="0.5975">
        <ele>56.2</ele>
        <time>2021-10-10T08:16:08Z</time>
      </trkpt>
      <trkpt lat="46.63072" lon="0.59778">
        <ele>57.2</ele>
        <time>2021-10-10T08:16:14Z</time>
      </trkpt>
      <trkpt lat="46.63074" lon="0.59796">
        <ele>57.6</ele>
        <time>2021-10-10T08:16:18Z</time>
      </trkpt>
      <trkpt lat="46.63077" lon="0.59809">
        <ele>58</ele>
        <time>2021-10-10T08:16:21Z</time>
      </trkpt>
      <trkpt lat="46.6308" lon="0.59828">
        <ele>58.6</ele>
        <time>2021-10-10T08:16:25Z</time>
      </trkpt>
      <trkpt lat="46.63085" lon="0.59844">
        <ele>59</ele>
        <time>2021-10-10T08:16:29Z</time>
      </trkpt>
      <trkpt lat="46.63093" lon="0.59868">
        <ele>59.6</ele>
        <time>2021-10-10T08:16:35Z</time>
      </trkpt>
      <trkpt lat="46.63105" lon="0.599">
        <ele>60.4</ele>
        <time>2021-10-10T08:16:42Z</time>
      </trkpt>
      <trkpt lat="46.63118" lon="0.5993">
        <ele>60.8</ele>
        <time>2021-10-10T08:16:49Z</time>
      </trkpt>
      <trkpt lat="46.63121" lon="0.5994">
        <ele>61.4</ele>
        <time>2021-10-10T08:16:50Z</time>
      </trkpt>
      <trkpt lat="46.63128" lon="0.5996">
        <ele>62</ele>
        <time>2021-10-10T08:16:55Z</time>
      </trkpt>
      <trkpt lat="46.63129" lon="0.59965">
        <ele>62</ele>
        <time>2021-10-10T08:16:56Z</time>
      </trkpt>
      <trkpt lat="46.63134" lon="0.59989">
        <ele>62.4</ele>
        <time>2021-10-10T08:17:01Z</time>
      </trkpt>
      <trkpt lat="46.63135" lon="0.60005">
        <ele>63</ele>
        <time>2021-10-10T08:17:04Z</time>
      </trkpt>
      <trkpt lat="46.63137" lon="0.60022">
        <ele>63.2</ele>
        <time>2021-10-10T08:17:07Z</time>
      </trkpt>
      <trkpt lat="46.6314" lon="0.60063">
        <ele>63.8</ele>
        <time>2021-10-10T08:17:14Z</time>
      </trkpt>
      <trkpt lat="46.63143" lon="0.60088">
        <ele>64.2</ele>
        <time>2021-10-10T08:17:19Z</time>
      </trkpt>
      <trkpt lat="46.63145" lon="0.60097">
        <ele>64.6</ele>
        <time>2021-10-10T08:17:21Z</time>
      </trkpt>
      <trkpt lat="46.63148" lon="0.60122">
        <ele>65.2</ele>
        <time>2021-10-10T08:17:27Z</time>
      </trkpt>
      <trkpt lat="46.63151" lon="0.60139">
        <ele>66</ele>
        <time>2021-10-10T08:17:32Z</time>
      </trkpt>
      <trkpt lat="46.63158" lon="0.60156">
        <ele>66.2</ele>
        <time>2021-10-10T08:17:36Z</time>
      </trkpt>
      <trkpt lat="46.63162" lon="0.60163">
        <ele>66.4</ele>
        <time>2021-10-10T08:17:38Z</time>
      </trkpt>
      <trkpt lat="46.63177" lon="0.60178">
        <ele>66.6</ele>
        <time>2021-10-10T08:17:43Z</time>
      </trkpt>
      <trkpt lat="46.63189" lon="0.60194">
        <ele>67.4</ele>
        <time>2021-10-10T08:17:48Z</time>
      </trkpt>
      <trkpt lat="46.63193" lon="0.60199">
        <ele>67.8</ele>
        <time>2021-10-10T08:17:50Z</time>
      </trkpt>
      <trkpt lat="46.632" lon="0.60208">
        <ele>68.4</ele>
        <time>2021-10-10T08:17:53Z</time>
      </trkpt>
      <trkpt lat="46.63208" lon="0.60218">
        <ele>69</ele>
        <time>2021-10-10T08:17:57Z</time>
      </trkpt>
      <trkpt lat="46.63216" lon="0.60229">
        <ele>69.2</ele>
        <time>2021-10-10T08:18:00Z</time>
      </trkpt>
      <trkpt lat="46.63223" lon="0.60236">
        <ele>69.4</ele>
        <time>2021-10-10T08:18:03Z</time>
      </trkpt>
      <trkpt lat="46.63236" lon="0.6025">
        <ele>69.6</ele>
        <time>2021-10-10T08:18:08Z</time>
      </trkpt>
      <trkpt lat="46.63248" lon="0.60266">
        <ele>70</ele>
        <time>2021-10-10T08:18:13Z</time>
      </trkpt>
      <trkpt lat="46.63258" lon="0.60293">
        <ele>70.2</ele>
        <time>2021-10-10T08:18:19Z</time>
      </trkpt>
      <trkpt lat="46.63258" lon="0.60307">
        <ele>70.8</ele>
        <time>2021-10-10T08:18:22Z</time>
      </trkpt>
      <trkpt lat="46.63258" lon="0.60317">
        <ele>71</ele>
        <time>2021-10-10T08:18:24Z</time>
      </trkpt>
      <trkpt lat="46.63257" lon="0.60349">
        <ele>71.8</ele>
        <time>2021-10-10T08:18:30Z</time>
      </trkpt>
      <trkpt lat="46.63265" lon="0.60377">
        <ele>72.4</ele>
        <time>2021-10-10T08:18:36Z</time>
      </trkpt>
      <trkpt lat="46.63271" lon="0.60387">
        <ele>72.8</ele>
        <time>2021-10-10T08:18:39Z</time>
      </trkpt>
      <trkpt lat="46.63278" lon="0.60398">
        <ele>73.4</ele>
        <time>2021-10-10T08:18:42Z</time>
      </trkpt>
      <trkpt lat="46.63283" lon="0.60408">
        <ele>74</ele>
        <time>2021-10-10T08:18:45Z</time>
      </trkpt>
      <trkpt lat="46.6329" lon="0.6042">
        <ele>74.8</ele>
        <time>2021-10-10T08:18:49Z</time>
      </trkpt>
      <trkpt lat="46.63292" lon="0.60423">
        <ele>75</ele>
        <time>2021-10-10T08:18:50Z</time>
      </trkpt>
      <trkpt lat="46.63303" lon="0.6044">
        <ele>76</ele>
        <time>2021-10-10T08:18:55Z</time>
      </trkpt>
      <trkpt lat="46.63305" lon="0.60443">
        <ele>76.2</ele>
        <time>2021-10-10T08:18:56Z</time>
      </trkpt>
      <trkpt lat="46.63317" lon="0.60456">
        <ele>76.8</ele>
        <time>2021-10-10T08:19:02Z</time>
      </trkpt>
      <trkpt lat="46.63324" lon="0.60462">
        <ele>77.2</ele>
        <time>2021-10-10T08:19:05Z</time>
      </trkpt>
      <trkpt lat="46.6333" lon="0.60468">
        <ele>77.2</ele>
        <time>2021-10-10T08:19:08Z</time>
      </trkpt>
      <trkpt lat="46.63345" lon="0.60476">
        <ele>78.2</ele>
        <time>2021-10-10T08:19:14Z</time>
      </trkpt>
      <trkpt lat="46.63348" lon="0.60478">
        <ele>78.2</ele>
        <time>2021-10-10T08:19:15Z</time>
      </trkpt>
      <trkpt lat="46.63361" lon="0.60487">
        <ele>78.4</ele>
        <time>2021-10-10T08:19:20Z</time>
      </trkpt>
      <trkpt lat="46.63374" lon="0.60509">
        <ele>78.4</ele>
        <time>2021-10-10T08:19:26Z</time>
      </trkpt>
      <trkpt lat="46.63383" lon="0.6053">
        <ele>79.2</ele>
        <time>2021-10-10T08:19:31Z</time>
      </trkpt>
      <trkpt lat="46.63384" lon="0.60534">
        <ele>79.4</ele>
        <time>2021-10-10T08:19:32Z</time>
      </trkpt>
      <trkpt lat="46.63387" lon="0.60548">
        <ele>80.6</ele>
        <time>2021-10-10T08:19:36Z</time>
      </trkpt>
      <trkpt lat="46.63392" lon="0.60558">
        <ele>81.2</ele>
        <time>2021-10-10T08:19:39Z</time>
      </trkpt>
      <trkpt lat="46.63398" lon="0.60574">
        <ele>81.6</ele>
        <time>2021-10-10T08:19:44Z</time>
      </trkpt>
      <trkpt lat="46.63401" lon="0.60585">
        <ele>82</ele>
        <time>2021-10-10T08:19:47Z</time>
      </trkpt>
      <trkpt lat="46.63406" lon="0.60611">
        <ele>82.6</ele>
        <time>2021-10-10T08:19:53Z</time>
      </trkpt>
      <trkpt lat="46.63406" lon="0.60615">
        <ele>82.6</ele>
        <time>2021-10-10T08:19:54Z</time>
      </trkpt>
      <trkpt lat="46.63408" lon="0.60634">
        <ele>83</ele>
        <time>2021-10-10T08:19:59Z</time>
      </trkpt>
      <trkpt lat="46.63408" lon="0.60656">
        <ele>83.8</ele>
        <time>2021-10-10T08:20:05Z</time>
      </trkpt>
      <trkpt lat="46.63406" lon="0.60682">
        <ele>84.8</ele>
        <time>2021-10-10T08:20:12Z</time>
      </trkpt>
      <trkpt lat="46.63406" lon="0.60684">
        <ele>84.8</ele>
        <time>2021-10-10T08:20:13Z</time>
      </trkpt>
      <trkpt lat="46.63408" lon="0.60696">
        <ele>86</ele>
        <time>2021-10-10T08:20:17Z</time>
      </trkpt>
      <trkpt lat="46.63409" lon="0.60699">
        <ele>86</ele>
        <time>2021-10-10T08:20:18Z</time>
      </trkpt>
      <trkpt lat="46.6341" lon="0.60712">
        <ele>87</ele>
        <time>2021-10-10T08:20:22Z</time>
      </trkpt>
      <trkpt lat="46.6341" lon="0.60719">
        <ele>87.6</ele>
        <time>2021-10-10T08:20:24Z</time>
      </trkpt>
      <trkpt lat="46.63409" lon="0.60724">
        <ele>88.2</ele>
        <time>2021-10-10T08:20:26Z</time>
      </trkpt>
      <trkpt lat="46.63409" lon="0.60735">
        <ele>88.6</ele>
        <time>2021-10-10T08:20:30Z</time>
      </trkpt>
      <trkpt lat="46.63408" lon="0.6074">
        <ele>89.2</ele>
        <time>2021-10-10T08:20:33Z</time>
      </trkpt>
      <trkpt lat="46.63408" lon="0.60747">
        <ele>90.2</ele>
        <time>2021-10-10T08:20:36Z</time>
      </trkpt>
      <trkpt lat="46.63407" lon="0.60752">
        <ele>90.6</ele>
        <time>2021-10-10T08:20:37Z</time>
      </trkpt>
      <trkpt lat="46.63404" lon="0.60762">
        <ele>91.6</ele>
        <time>2021-10-10T08:20:42Z</time>
      </trkpt>
      <trkpt lat="46.63402" lon="0.60766">
        <ele>92</ele>
        <time>2021-10-10T08:20:44Z</time>
      </trkpt>
      <trkpt lat="46.634" lon="0.60775">
        <ele>92.6</ele>
        <time>2021-10-10T08:20:48Z</time>
      </trkpt>
      <trkpt lat="46.63399" lon="0.6078">
        <ele>93.4</ele>
        <time>2021-10-10T08:20:51Z</time>
      </trkpt>
      <trkpt lat="46.63397" lon="0.60787">
        <ele>93.8</ele>
        <time>2021-10-10T08:20:54Z</time>
      </trkpt>
      <trkpt lat="46.63396" lon="0.60793">
        <ele>94.8</ele>
        <time>2021-10-10T08:20:57Z</time>
      </trkpt>
      <trkpt lat="46.63394" lon="0.60807">
        <ele>95.8</ele>
        <time>2021-10-10T08:21:04Z</time>
      </trkpt>
      <trkpt lat="46.6339" lon="0.60816">
        <ele>96.8</ele>
        <time>2021-10-10T08:21:09Z</time>
      </trkpt>
      <trkpt lat="46.6339" lon="0.60818">
        <ele>97.4</ele>
        <time>2021-10-10T08:21:11Z</time>
      </trkpt>
      <trkpt lat="46.63389" lon="0.60819">
        <ele>97.6</ele>
        <time>2021-10-10T08:21:12Z</time>
      </trkpt>
      <trkpt lat="46.63389" lon="0.60822">
        <ele>97.8</ele>
        <time>2021-10-10T08:21:14Z</time>
      </trkpt>
      <trkpt lat="46.63388" lon="0.60826">
        <ele>98</ele>
        <time>2021-10-10T08:21:16Z</time>
      </trkpt>
      <trkpt lat="46.63387" lon="0.60828">
        <ele>98.2</ele>
        <time>2021-10-10T08:21:17Z</time>
      </trkpt>
      <trkpt lat="46.63386" lon="0.60832">
        <ele>98.6</ele>
        <time>2021-10-10T08:21:20Z</time>
      </trkpt>
      <trkpt lat="46.63385" lon="0.60836">
        <ele>98.8</ele>
        <time>2021-10-10T08:21:22Z</time>
      </trkpt>
      <trkpt lat="46.63385" lon="0.60838">
        <ele>99</ele>
        <time>2021-10-10T08:21:24Z</time>
      </trkpt>
      <trkpt lat="46.63384" lon="0.60845">
        <ele>100</ele>
        <time>2021-10-10T08:21:28Z</time>
      </trkpt>
      <trkpt lat="46.63381" lon="0.60857">
        <ele>101.2</ele>
        <time>2021-10-10T08:21:34Z</time>
      </trkpt>
      <trkpt lat="46.63379" lon="0.6087">
        <ele>102.2</ele>
        <time>2021-10-10T08:21:40Z</time>
      </trkpt>
      <trkpt lat="46.63378" lon="0.60878">
        <ele>102.6</ele>
        <time>2021-10-10T08:21:43Z</time>
      </trkpt>
      <trkpt lat="46.63378" lon="0.6088">
        <ele>102.8</ele>
        <time>2021-10-10T08:21:44Z</time>
      </trkpt>
      <trkpt lat="46.63375" lon="0.60891">
        <ele>103.2</ele>
        <time>2021-10-10T08:21:48Z</time>
      </trkpt>
      <trkpt lat="46.63375" lon="0.60894">
        <ele>103.4</ele>
        <time>2021-10-10T08:21:49Z</time>
      </trkpt>
      <trkpt lat="46.6337" lon="0.60913">
        <ele>103.8</ele>
        <time>2021-10-10T08:21:55Z</time>
      </trkpt>
      <trkpt lat="46.63364" lon="0.6094">
        <ele>104.4</ele>
        <time>2021-10-10T08:22:02Z</time>
      </trkpt>
      <trkpt lat="46.63363" lon="0.60944">
        <ele>104.4</ele>
        <time>2021-10-10T08:22:03Z</time>
      </trkpt>
      <trkpt lat="46.6336" lon="0.60965">
        <ele>105</ele>
        <time>2021-10-10T08:22:08Z</time>
      </trkpt>
      <trkpt lat="46.63359" lon="0.6099">
        <ele>105.4</ele>
        <time>2021-10-10T08:22:14Z</time>
      </trkpt>
      <trkpt lat="46.63359" lon="0.60996">
        <ele>105.6</ele>
        <time>2021-10-10T08:22:15Z</time>
      </trkpt>
      <trkpt lat="46.6336" lon="0.61024">
        <ele>105.4</ele>
        <time>2021-10-10T08:22:21Z</time>
      </trkpt>
      <trkpt lat="46.63361" lon="0.6103">
        <ele>105.4</ele>
        <time>2021-10-10T08:22:22Z</time>
      </trkpt>
      <trkpt lat="46.63363" lon="0.61042">
        <ele>105.2</ele>
        <time>2021-10-10T08:22:24Z</time>
      </trkpt>
      <trkpt lat="46.63367" lon="0.6106">
        <ele>105</ele>
        <time>2021-10-10T08:22:27Z</time>
      </trkpt>
      <trkpt lat="46.63368" lon="0.61071">
        <ele>105</ele>
        <time>2021-10-10T08:22:29Z</time>
      </trkpt>
      <trkpt lat="46.6337" lon="0.61095">
        <ele>104.4</ele>
        <time>2021-10-10T08:22:33Z</time>
      </trkpt>
      <trkpt lat="46.63373" lon="0.61119">
        <ele>104.6</ele>
        <time>2021-10-10T08:22:37Z</time>
      </trkpt>
      <trkpt lat="46.63375" lon="0.6113">
        <ele>105.2</ele>
        <time>2021-10-10T08:22:39Z</time>
      </trkpt>
      <trkpt lat="46.63377" lon="0.61136">
        <ele>106</ele>
        <time>2021-10-10T08:22:40Z</time>
      </trkpt>
      <trkpt lat="46.63383" lon="0.61168">
        <ele>106.8</ele>
        <time>2021-10-10T08:22:45Z</time>
      </trkpt>
      <trkpt lat="46.63385" lon="0.6118">
        <ele>107</ele>
        <time>2021-10-10T08:22:47Z</time>
      </trkpt>
      <trkpt lat="46.63389" lon="0.61198">
        <ele>107</ele>
        <time>2021-10-10T08:22:51Z</time>
      </trkpt>
      <trkpt lat="46.63399" lon="0.61208">
        <ele>107</ele>
        <time>2021-10-10T08:22:54Z</time>
      </trkpt>
      <trkpt lat="46.63419" lon="0.61222">
        <ele>106.2</ele>
        <time>2021-10-10T08:22:58Z</time>
      </trkpt>
      <trkpt lat="46.63432" lon="0.61229">
        <ele>105.6</ele>
        <time>2021-10-10T08:23:00Z</time>
      </trkpt>
      <trkpt lat="46.63437" lon="0.61234">
        <ele>105</ele>
        <time>2021-10-10T08:23:01Z</time>
      </trkpt>
      <trkpt lat="46.63443" lon="0.61238">
        <ele>104.6</ele>
        <time>2021-10-10T08:23:02Z</time>
      </trkpt>
      <trkpt lat="46.6345" lon="0.61241">
        <ele>104.4</ele>
        <time>2021-10-10T08:23:03Z</time>
      </trkpt>
      <trkpt lat="46.63472" lon="0.61242">
        <ele>103.8</ele>
        <time>2021-10-10T08:23:07Z</time>
      </trkpt>
      <trkpt lat="46.63476" lon="0.61241">
        <ele>103.6</ele>
        <time>2021-10-10T08:23:08Z</time>
      </trkpt>
      <trkpt lat="46.63479" lon="0.61238">
        <ele>103.4</ele>
        <time>2021-10-10T08:23:10Z</time>
      </trkpt>
      <trkpt lat="46.63482" lon="0.61231">
        <ele>104</ele>
        <time>2021-10-10T08:23:14Z</time>
      </trkpt>
      <trkpt lat="46.63482" lon="0.61229">
        <ele>104.4</ele>
        <time>2021-10-10T08:23:15Z</time>
      </trkpt>
      <trkpt lat="46.63482" lon="0.61227">
        <ele>104.8</ele>
        <time>2021-10-10T08:23:16Z</time>
      </trkpt>
      <trkpt lat="46.6348" lon="0.61212">
        <ele>106</ele>
        <time>2021-10-10T08:23:21Z</time>
      </trkpt>
      <trkpt lat="46.63476" lon="0.61197">
        <ele>106.2</ele>
        <time>2021-10-10T08:23:26Z</time>
      </trkpt>
      <trkpt lat="46.63471" lon="0.61184">
        <ele>106.2</ele>
        <time>2021-10-10T08:23:32Z</time>
      </trkpt>
      <trkpt lat="46.63471" lon="0.61183">
        <ele>106</ele>
        <time>2021-10-10T08:23:33Z</time>
      </trkpt>
      <trkpt lat="46.6347" lon="0.61175">
        <ele>106</ele>
        <time>2021-10-10T08:23:37Z</time>
      </trkpt>
      <trkpt lat="46.63466" lon="0.61156">
        <ele>105.8</ele>
        <time>2021-10-10T08:23:44Z</time>
      </trkpt>
      <trkpt lat="46.63461" lon="0.61134">
        <ele>105.6</ele>
        <time>2021-10-10T08:23:49Z</time>
      </trkpt>
      <trkpt lat="46.63461" lon="0.61108">
        <ele>106.2</ele>
        <time>2021-10-10T08:23:55Z</time>
      </trkpt>
      <trkpt lat="46.63459" lon="0.61094">
        <ele>106.6</ele>
        <time>2021-10-10T08:23:58Z</time>
      </trkpt>
      <trkpt lat="46.6346" lon="0.6109">
        <ele>107</ele>
        <time>2021-10-10T08:23:59Z</time>
      </trkpt>
      <trkpt lat="46.63465" lon="0.61081">
        <ele>107.8</ele>
        <time>2021-10-10T08:24:03Z</time>
      </trkpt>
      <trkpt lat="46.6347" lon="0.61065">
        <ele>108</ele>
        <time>2021-10-10T08:24:07Z</time>
      </trkpt>
      <trkpt lat="46.63474" lon="0.61033">
        <ele>108.4</ele>
        <time>2021-10-10T08:24:13Z</time>
      </trkpt>
      <trkpt lat="46.63474" lon="0.61027">
        <ele>108.6</ele>
        <time>2021-10-10T08:24:14Z</time>
      </trkpt>
      <trkpt lat="46.63476" lon="0.61017">
        <ele>108.8</ele>
        <time>2021-10-10T08:24:16Z</time>
      </trkpt>
      <trkpt lat="46.63479" lon="0.61009">
        <ele>108.4</ele>
        <time>2021-10-10T08:24:18Z</time>
      </trkpt>
      <trkpt lat="46.6348" lon="0.61007">
        <ele>108.2</ele>
        <time>2021-10-10T08:24:19Z</time>
      </trkpt>
      <trkpt lat="46.63484" lon="0.61005">
        <ele>108.2</ele>
        <time>2021-10-10T08:24:22Z</time>
      </trkpt>
      <trkpt lat="46.63486" lon="0.61002">
        <ele>108</ele>
        <time>2021-10-10T08:24:24Z</time>
      </trkpt>
      <trkpt lat="46.63488" lon="0.60997">
        <ele>107.8</ele>
        <time>2021-10-10T08:24:26Z</time>
      </trkpt>
      <trkpt lat="46.63494" lon="0.60978">
        <ele>107.8</ele>
        <time>2021-10-10T08:24:31Z</time>
      </trkpt>
      <trkpt lat="46.63507" lon="0.60958">
        <ele>107.8</ele>
        <time>2021-10-10T08:24:37Z</time>
      </trkpt>
      <trkpt lat="46.63523" lon="0.6094">
        <ele>108.4</ele>
        <time>2021-10-10T08:24:42Z</time>
      </trkpt>
      <trkpt lat="46.63527" lon="0.60936">
        <ele>108.4</ele>
        <time>2021-10-10T08:24:43Z</time>
      </trkpt>
      <trkpt lat="46.63546" lon="0.6091">
        <ele>107.6</ele>
        <time>2021-10-10T08:24:50Z</time>
      </trkpt>
      <trkpt lat="46.63563" lon="0.60887">
        <ele>107.2</ele>
        <time>2021-10-10T08:24:54Z</time>
      </trkpt>
      <trkpt lat="46.63569" lon="0.60883">
        <ele>107.2</ele>
        <time>2021-10-10T08:24:55Z</time>
      </trkpt>
      <trkpt lat="46.63575" lon="0.60881">
        <ele>107</ele>
        <time>2021-10-10T08:24:56Z</time>
      </trkpt>
      <trkpt lat="46.63579" lon="0.6088">
        <ele>107</ele>
        <time>2021-10-10T08:24:57Z</time>
      </trkpt>
      <trkpt lat="46.63585" lon="0.60878">
        <ele>106</ele>
        <time>2021-10-10T08:24:59Z</time>
      </trkpt>
      <trkpt lat="46.63589" lon="0.60877">
        <ele>105.8</ele>
        <time>2021-10-10T08:25:00Z</time>
      </trkpt>
      <trkpt lat="46.63593" lon="0.60875">
        <ele>105.6</ele>
        <time>2021-10-10T08:25:01Z</time>
      </trkpt>
      <trkpt lat="46.63607" lon="0.60873">
        <ele>105</ele>
        <time>2021-10-10T08:25:04Z</time>
      </trkpt>
      <trkpt lat="46.63622" lon="0.60874">
        <ele>104.8</ele>
        <time>2021-10-10T08:25:07Z</time>
      </trkpt>
      <trkpt lat="46.63636" lon="0.60878">
        <ele>104.6</ele>
        <time>2021-10-10T08:25:10Z</time>
      </trkpt>
      <trkpt lat="46.63646" lon="0.60881">
        <ele>104.4</ele>
        <time>2021-10-10T08:25:12Z</time>
      </trkpt>
      <trkpt lat="46.63661" lon="0.60884">
        <ele>103.8</ele>
        <time>2021-10-10T08:25:15Z</time>
      </trkpt>
      <trkpt lat="46.63666" lon="0.60885">
        <ele>103.4</ele>
        <time>2021-10-10T08:25:16Z</time>
      </trkpt>
      <trkpt lat="46.63676" lon="0.60889">
        <ele>102.8</ele>
        <time>2021-10-10T08:25:18Z</time>
      </trkpt>
      <trkpt lat="46.63686" lon="0.60896">
        <ele>102.2</ele>
        <time>2021-10-10T08:25:20Z</time>
      </trkpt>
      <trkpt lat="46.6369" lon="0.60899">
        <ele>101.8</ele>
        <time>2021-10-10T08:25:21Z</time>
      </trkpt>
      <trkpt lat="46.63695" lon="0.60902">
        <ele>101.2</ele>
        <time>2021-10-10T08:25:22Z</time>
      </trkpt>
      <trkpt lat="46.637" lon="0.60904">
        <ele>100.2</ele>
        <time>2021-10-10T08:25:23Z</time>
      </trkpt>
      <trkpt lat="46.63706" lon="0.60904">
        <ele>99.6</ele>
        <time>2021-10-10T08:25:24Z</time>
      </trkpt>
      <trkpt lat="46.63711" lon="0.609">
        <ele>99.2</ele>
        <time>2021-10-10T08:25:25Z</time>
      </trkpt>
      <trkpt lat="46.63715" lon="0.60895">
        <ele>98.8</ele>
        <time>2021-10-10T08:25:26Z</time>
      </trkpt>
      <trkpt lat="46.63721" lon="0.6088">
        <ele>97.4</ele>
        <time>2021-10-10T08:25:28Z</time>
      </trkpt>
      <trkpt lat="46.63726" lon="0.60871">
        <ele>95.4</ele>
        <time>2021-10-10T08:25:30Z</time>
      </trkpt>
      <trkpt lat="46.63728" lon="0.60869">
        <ele>94.8</ele>
        <time>2021-10-10T08:25:31Z</time>
      </trkpt>
      <trkpt lat="46.63731" lon="0.60867">
        <ele>94.4</ele>
        <time>2021-10-10T08:25:32Z</time>
      </trkpt>
      <trkpt lat="46.63746" lon="0.60865">
        <ele>94.4</ele>
        <time>2021-10-10T08:25:35Z</time>
      </trkpt>
      <trkpt lat="46.63756" lon="0.60862">
        <ele>94.6</ele>
        <time>2021-10-10T08:25:37Z</time>
      </trkpt>
      <trkpt lat="46.63768" lon="0.60856">
        <ele>95</ele>
        <time>2021-10-10T08:25:40Z</time>
      </trkpt>
      <trkpt lat="46.63774" lon="0.60853">
        <ele>95.4</ele>
        <time>2021-10-10T08:25:42Z</time>
      </trkpt>
      <trkpt lat="46.63782" lon="0.60847">
        <ele>96.6</ele>
        <time>2021-10-10T08:25:45Z</time>
      </trkpt>
      <trkpt lat="46.63784" lon="0.60844">
        <ele>97</ele>
        <time>2021-10-10T08:25:46Z</time>
      </trkpt>
      <trkpt lat="46.63792" lon="0.60836">
        <ele>98</ele>
        <time>2021-10-10T08:25:49Z</time>
      </trkpt>
      <trkpt lat="46.63799" lon="0.60827">
        <ele>99.2</ele>
        <time>2021-10-10T08:25:52Z</time>
      </trkpt>
      <trkpt lat="46.63802" lon="0.60824">
        <ele>99.4</ele>
        <time>2021-10-10T08:25:53Z</time>
      </trkpt>
      <trkpt lat="46.63824" lon="0.60802">
        <ele>100</ele>
        <time>2021-10-10T08:25:59Z</time>
      </trkpt>
      <trkpt lat="46.63831" lon="0.60795">
        <ele>100.4</ele>
        <time>2021-10-10T08:26:01Z</time>
      </trkpt>
      <trkpt lat="46.63847" lon="0.60785">
        <ele>101.6</ele>
        <time>2021-10-10T08:26:05Z</time>
      </trkpt>
      <trkpt lat="46.63858" lon="0.60785">
        <ele>102</ele>
        <time>2021-10-10T08:26:08Z</time>
      </trkpt>
      <trkpt lat="46.63869" lon="0.60782">
        <ele>102.6</ele>
        <time>2021-10-10T08:26:11Z</time>
      </trkpt>
      <trkpt lat="46.63873" lon="0.6078">
        <ele>102.6</ele>
        <time>2021-10-10T08:26:12Z</time>
      </trkpt>
      <trkpt lat="46.63892" lon="0.60772">
        <ele>103.4</ele>
        <time>2021-10-10T08:26:17Z</time>
      </trkpt>
      <trkpt lat="46.63903" lon="0.60772">
        <ele>103.6</ele>
        <time>2021-10-10T08:26:20Z</time>
      </trkpt>
      <trkpt lat="46.63914" lon="0.60775">
        <ele>103.8</ele>
        <time>2021-10-10T08:26:23Z</time>
      </trkpt>
      <trkpt lat="46.63937" lon="0.60786">
        <ele>103.6</ele>
        <time>2021-10-10T08:26:28Z</time>
      </trkpt>
      <trkpt lat="46.63942" lon="0.60787">
        <ele>103.2</ele>
        <time>2021-10-10T08:26:29Z</time>
      </trkpt>
      <trkpt lat="46.63948" lon="0.60788">
        <ele>103</ele>
        <time>2021-10-10T08:26:30Z</time>
      </trkpt>
      <trkpt lat="46.63958" lon="0.60789">
        <ele>102.8</ele>
        <time>2021-10-10T08:26:32Z</time>
      </trkpt>
      <trkpt lat="46.63963" lon="0.6079">
        <ele>102.6</ele>
        <time>2021-10-10T08:26:33Z</time>
      </trkpt>
      <trkpt lat="46.63973" lon="0.60797">
        <ele>102.2</ele>
        <time>2021-10-10T08:26:35Z</time>
      </trkpt>
      <trkpt lat="46.63982" lon="0.60807">
        <ele>101.6</ele>
        <time>2021-10-10T08:26:37Z</time>
      </trkpt>
      <trkpt lat="46.63986" lon="0.60813">
        <ele>101.4</ele>
        <time>2021-10-10T08:26:38Z</time>
      </trkpt>
      <trkpt lat="46.63994" lon="0.60831">
        <ele>101.2</ele>
        <time>2021-10-10T08:26:41Z</time>
      </trkpt>
      <trkpt lat="46.63996" lon="0.60837">
        <ele>101.4</ele>
        <time>2021-10-10T08:26:42Z</time>
      </trkpt>
      <trkpt lat="46.63998" lon="0.60847">
        <ele>101.8</ele>
        <time>2021-10-10T08:26:44Z</time>
      </trkpt>
      <trkpt lat="46.63998" lon="0.60851">
        <ele>102</ele>
        <time>2021-10-10T08:26:45Z</time>
      </trkpt>
      <trkpt lat="46.64005" lon="0.60864">
        <ele>103</ele>
        <time>2021-10-10T08:26:49Z</time>
      </trkpt>
      <trkpt lat="46.64012" lon="0.60873">
        <ele>104.2</ele>
        <time>2021-10-10T08:26:52Z</time>
      </trkpt>
      <trkpt lat="46.64021" lon="0.60886">
        <ele>105</ele>
        <time>2021-10-10T08:26:56Z</time>
      </trkpt>
      <trkpt lat="46.64023" lon="0.60889">
        <ele>105.2</ele>
        <time>2021-10-10T08:26:57Z</time>
      </trkpt>
      <trkpt lat="46.64032" lon="0.6089">
        <ele>105.6</ele>
        <time>2021-10-10T08:27:00Z</time>
      </trkpt>
      <trkpt lat="46.64051" lon="0.60877">
        <ele>105</ele>
        <time>2021-10-10T08:27:07Z</time>
      </trkpt>
      <trkpt lat="46.64055" lon="0.60875">
        <ele>105</ele>
        <time>2021-10-10T08:27:08Z</time>
      </trkpt>
      <trkpt lat="46.64067" lon="0.60868">
        <ele>103.8</ele>
        <time>2021-10-10T08:27:11Z</time>
      </trkpt>
      <trkpt lat="46.64072" lon="0.60864">
        <ele>103.4</ele>
        <time>2021-10-10T08:27:12Z</time>
      </trkpt>
      <trkpt lat="46.64084" lon="0.6085">
        <ele>102.8</ele>
        <time>2021-10-10T08:27:15Z</time>
      </trkpt>
      <trkpt lat="46.64088" lon="0.60845">
        <ele>102.6</ele>
        <time>2021-10-10T08:27:16Z</time>
      </trkpt>
      <trkpt lat="46.64091" lon="0.6084">
        <ele>102.2</ele>
        <time>2021-10-10T08:27:17Z</time>
      </trkpt>
      <trkpt lat="46.64094" lon="0.60827">
        <ele>101.6</ele>
        <time>2021-10-10T08:27:19Z</time>
      </trkpt>
      <trkpt lat="46.64094" lon="0.60803">
        <ele>101.2</ele>
        <time>2021-10-10T08:27:22Z</time>
      </trkpt>
      <trkpt lat="46.64093" lon="0.60796">
        <ele>101.4</ele>
        <time>2021-10-10T08:27:23Z</time>
      </trkpt>
      <trkpt lat="46.64091" lon="0.6077">
        <ele>102.4</ele>
        <time>2021-10-10T08:27:27Z</time>
      </trkpt>
      <trkpt lat="46.64092" lon="0.60764">
        <ele>102.6</ele>
        <time>2021-10-10T08:27:28Z</time>
      </trkpt>
      <trkpt lat="46.64092" lon="0.60745">
        <ele>104</ele>
        <time>2021-10-10T08:27:31Z</time>
      </trkpt>
      <trkpt lat="46.64092" lon="0.60731">
        <ele>104.6</ele>
        <time>2021-10-10T08:27:33Z</time>
      </trkpt>
      <trkpt lat="46.6409" lon="0.60717">
        <ele>105</ele>
        <time>2021-10-10T08:27:35Z</time>
      </trkpt>
      <trkpt lat="46.6409" lon="0.60691">
        <ele>106</ele>
        <time>2021-10-10T08:27:39Z</time>
      </trkpt>
      <trkpt lat="46.6409" lon="0.60685">
        <ele>106</ele>
        <time>2021-10-10T08:27:40Z</time>
      </trkpt>
      <trkpt lat="46.64091" lon="0.60679">
        <ele>106.2</ele>
        <time>2021-10-10T08:27:41Z</time>
      </trkpt>
      <trkpt lat="46.64089" lon="0.60662">
        <ele>106.4</ele>
        <time>2021-10-10T08:27:44Z</time>
      </trkpt>
      <trkpt lat="46.64089" lon="0.60646">
        <ele>107.2</ele>
        <time>2021-10-10T08:27:47Z</time>
      </trkpt>
      <trkpt lat="46.64088" lon="0.60635">
        <ele>107.6</ele>
        <time>2021-10-10T08:27:49Z</time>
      </trkpt>
      <trkpt lat="46.64088" lon="0.60629">
        <ele>107.8</ele>
        <time>2021-10-10T08:27:50Z</time>
      </trkpt>
      <trkpt lat="46.64088" lon="0.60623">
        <ele>107.8</ele>
        <time>2021-10-10T08:27:51Z</time>
      </trkpt>
      <trkpt lat="46.64087" lon="0.60613">
        <ele>108.2</ele>
        <time>2021-10-10T08:27:53Z</time>
      </trkpt>
      <trkpt lat="46.64087" lon="0.60603">
        <ele>108.4</ele>
        <time>2021-10-10T08:27:55Z</time>
      </trkpt>
      <trkpt lat="46.64086" lon="0.60588">
        <ele>108.4</ele>
        <time>2021-10-10T08:27:58Z</time>
      </trkpt>
      <trkpt lat="46.64085" lon="0.60577">
        <ele>108.2</ele>
        <time>2021-10-10T08:28:00Z</time>
      </trkpt>
      <trkpt lat="46.64083" lon="0.6057">
        <ele>108</ele>
        <time>2021-10-10T08:28:01Z</time>
      </trkpt>
      <trkpt lat="46.64078" lon="0.60529">
        <ele>108.4</ele>
        <time>2021-10-10T08:28:07Z</time>
      </trkpt>
      <trkpt lat="46.64078" lon="0.6052">
        <ele>108.8</ele>
        <time>2021-10-10T08:28:08Z</time>
      </trkpt>
      <trkpt lat="46.6408" lon="0.60514">
        <ele>108.8</ele>
        <time>2021-10-10T08:28:09Z</time>
      </trkpt>
      <trkpt lat="46.64086" lon="0.60505">
        <ele>109</ele>
        <time>2021-10-10T08:28:11Z</time>
      </trkpt>
      <trkpt lat="46.64092" lon="0.60497">
        <ele>109</ele>
        <time>2021-10-10T08:28:13Z</time>
      </trkpt>
      <trkpt lat="46.64102" lon="0.60481">
        <ele>109.2</ele>
        <time>2021-10-10T08:28:17Z</time>
      </trkpt>
      <trkpt lat="46.64114" lon="0.60465">
        <ele>110.4</ele>
        <time>2021-10-10T08:28:22Z</time>
      </trkpt>
      <trkpt lat="46.64118" lon="0.60458">
        <ele>110.8</ele>
        <time>2021-10-10T08:28:24Z</time>
      </trkpt>
      <trkpt lat="46.64122" lon="0.6045">
        <ele>111.4</ele>
        <time>2021-10-10T08:28:26Z</time>
      </trkpt>
      <trkpt lat="46.6413" lon="0.60435">
        <ele>112.4</ele>
        <time>2021-10-10T08:28:30Z</time>
      </trkpt>
      <trkpt lat="46.64132" lon="0.60431">
        <ele>112.6</ele>
        <time>2021-10-10T08:28:31Z</time>
      </trkpt>
      <trkpt lat="46.64144" lon="0.60413">
        <ele>113.6</ele>
        <time>2021-10-10T08:28:35Z</time>
      </trkpt>
      <trkpt lat="46.64151" lon="0.60396">
        <ele>114.2</ele>
        <time>2021-10-10T08:28:38Z</time>
      </trkpt>
      <trkpt lat="46.64158" lon="0.60383">
        <ele>114.6</ele>
        <time>2021-10-10T08:28:41Z</time>
      </trkpt>
      <trkpt lat="46.64168" lon="0.60363">
        <ele>115.8</ele>
        <time>2021-10-10T08:28:46Z</time>
      </trkpt>
      <trkpt lat="46.6419" lon="0.60324">
        <ele>116.6</ele>
        <time>2021-10-10T08:28:55Z</time>
      </trkpt>
      <trkpt lat="46.64197" lon="0.60311">
        <ele>116.6</ele>
        <time>2021-10-10T08:28:58Z</time>
      </trkpt>
      <trkpt lat="46.64217" lon="0.60278">
        <ele>117</ele>
        <time>2021-10-10T08:29:05Z</time>
      </trkpt>
      <trkpt lat="46.64244" lon="0.60231">
        <ele>117.4</ele>
        <time>2021-10-10T08:29:15Z</time>
      </trkpt>
      <trkpt lat="46.6426" lon="0.60203">
        <ele>118</ele>
        <time>2021-10-10T08:29:21Z</time>
      </trkpt>
      <trkpt lat="46.64265" lon="0.60194">
        <ele>118.4</ele>
        <time>2021-10-10T08:29:23Z</time>
      </trkpt>
      <trkpt lat="46.6428" lon="0.60167">
        <ele>119</ele>
        <time>2021-10-10T08:29:29Z</time>
      </trkpt>
      <trkpt lat="46.64288" lon="0.60153">
        <ele>119.6</ele>
        <time>2021-10-10T08:29:32Z</time>
      </trkpt>
      <trkpt lat="46.64296" lon="0.6014">
        <ele>120.2</ele>
        <time>2021-10-10T08:29:35Z</time>
      </trkpt>
      <trkpt lat="46.64304" lon="0.60125">
        <ele>120.4</ele>
        <time>2021-10-10T08:29:38Z</time>
      </trkpt>
      <trkpt lat="46.64319" lon="0.60096">
        <ele>121.2</ele>
        <time>2021-10-10T08:29:44Z</time>
      </trkpt>
      <trkpt lat="46.64321" lon="0.60091">
        <ele>121.4</ele>
        <time>2021-10-10T08:29:45Z</time>
      </trkpt>
      <trkpt lat="46.64322" lon="0.60085">
        <ele>121.4</ele>
        <time>2021-10-10T08:29:46Z</time>
      </trkpt>
      <trkpt lat="46.64323" lon="0.60079">
        <ele>121.6</ele>
        <time>2021-10-10T08:29:47Z</time>
      </trkpt>
      <trkpt lat="46.64323" lon="0.60067">
        <ele>121.8</ele>
        <time>2021-10-10T08:29:49Z</time>
      </trkpt>
      <trkpt lat="46.64322" lon="0.60061">
        <ele>121.8</ele>
        <time>2021-10-10T08:29:50Z</time>
      </trkpt>
      <trkpt lat="46.64314" lon="0.6001">
        <ele>121.8</ele>
        <time>2021-10-10T08:29:58Z</time>
      </trkpt>
      <trkpt lat="46.64304" lon="0.59952">
        <ele>120.4</ele>
        <time>2021-10-10T08:30:06Z</time>
      </trkpt>
      <trkpt lat="46.64301" lon="0.59935">
        <ele>120</ele>
        <time>2021-10-10T08:30:08Z</time>
      </trkpt>
      <trkpt lat="46.64297" lon="0.59908">
        <ele>118.8</ele>
        <time>2021-10-10T08:30:11Z</time>
      </trkpt>
      <trkpt lat="46.64293" lon="0.59889">
        <ele>118.4</ele>
        <time>2021-10-10T08:30:13Z</time>
      </trkpt>
      <trkpt lat="46.64288" lon="0.59861">
        <ele>117</ele>
        <time>2021-10-10T08:30:16Z</time>
      </trkpt>
      <trkpt lat="46.64283" lon="0.59831">
        <ele>115.6</ele>
        <time>2021-10-10T08:30:19Z</time>
      </trkpt>
      <trkpt lat="46.64281" lon="0.59821">
        <ele>115</ele>
        <time>2021-10-10T08:30:20Z</time>
      </trkpt>
      <trkpt lat="46.6428" lon="0.59809">
        <ele>114.4</ele>
        <time>2021-10-10T08:30:21Z</time>
      </trkpt>
      <trkpt lat="46.64276" lon="0.59787">
        <ele>113.2</ele>
        <time>2021-10-10T08:30:23Z</time>
      </trkpt>
      <trkpt lat="46.64272" lon="0.59764">
        <ele>112</ele>
        <time>2021-10-10T08:30:25Z</time>
      </trkpt>
      <trkpt lat="46.64268" lon="0.5974">
        <ele>110.8</ele>
        <time>2021-10-10T08:30:27Z</time>
      </trkpt>
      <trkpt lat="46.64267" lon="0.59728">
        <ele>110.2</ele>
        <time>2021-10-10T08:30:28Z</time>
      </trkpt>
      <trkpt lat="46.64268" lon="0.59715">
        <ele>109.4</ele>
        <time>2021-10-10T08:30:29Z</time>
      </trkpt>
      <trkpt lat="46.64269" lon="0.59703">
        <ele>108.4</ele>
        <time>2021-10-10T08:30:30Z</time>
      </trkpt>
      <trkpt lat="46.64272" lon="0.59691">
        <ele>107.8</ele>
        <time>2021-10-10T08:30:31Z</time>
      </trkpt>
      <trkpt lat="46.64277" lon="0.59668">
        <ele>106.8</ele>
        <time>2021-10-10T08:30:33Z</time>
      </trkpt>
      <trkpt lat="46.64286" lon="0.59631">
        <ele>105.4</ele>
        <time>2021-10-10T08:30:36Z</time>
      </trkpt>
      <trkpt lat="46.64295" lon="0.59595">
        <ele>104.2</ele>
        <time>2021-10-10T08:30:39Z</time>
      </trkpt>
      <trkpt lat="46.64303" lon="0.59559">
        <ele>102.8</ele>
        <time>2021-10-10T08:30:42Z</time>
      </trkpt>
      <trkpt lat="46.64311" lon="0.59524">
        <ele>101.4</ele>
        <time>2021-10-10T08:30:45Z</time>
      </trkpt>
      <trkpt lat="46.64317" lon="0.59502">
        <ele>100.2</ele>
        <time>2021-10-10T08:30:47Z</time>
      </trkpt>
      <trkpt lat="46.64319" lon="0.59492">
        <ele>99.2</ele>
        <time>2021-10-10T08:30:48Z</time>
      </trkpt>
      <trkpt lat="46.64321" lon="0.59483">
        <ele>98.8</ele>
        <time>2021-10-10T08:30:49Z</time>
      </trkpt>
      <trkpt lat="46.64326" lon="0.59459">
        <ele>97.8</ele>
        <time>2021-10-10T08:30:52Z</time>
      </trkpt>
      <trkpt lat="46.64328" lon="0.59454">
        <ele>97.4</ele>
        <time>2021-10-10T08:30:53Z</time>
      </trkpt>
      <trkpt lat="46.64334" lon="0.59449">
        <ele>96.8</ele>
        <time>2021-10-10T08:30:55Z</time>
      </trkpt>
      <trkpt lat="46.64356" lon="0.5944">
        <ele>96.6</ele>
        <time>2021-10-10T08:31:00Z</time>
      </trkpt>
      <trkpt lat="46.64393" lon="0.59425">
        <ele>96</ele>
        <time>2021-10-10T08:31:07Z</time>
      </trkpt>
      <trkpt lat="46.6441" lon="0.59418">
        <ele>95.8</ele>
        <time>2021-10-10T08:31:10Z</time>
      </trkpt>
      <trkpt lat="46.64433" lon="0.59404">
        <ele>95.2</ele>
        <time>2021-10-10T08:31:14Z</time>
      </trkpt>
      <trkpt lat="46.64445" lon="0.59396">
        <ele>94.6</ele>
        <time>2021-10-10T08:31:16Z</time>
      </trkpt>
      <trkpt lat="46.6447" lon="0.59375">
        <ele>93.6</ele>
        <time>2021-10-10T08:31:20Z</time>
      </trkpt>
      <trkpt lat="46.64476" lon="0.59369">
        <ele>93.4</ele>
        <time>2021-10-10T08:31:21Z</time>
      </trkpt>
      <trkpt lat="46.64495" lon="0.59352">
        <ele>92</ele>
        <time>2021-10-10T08:31:24Z</time>
      </trkpt>
      <trkpt lat="46.64509" lon="0.59341">
        <ele>90.6</ele>
        <time>2021-10-10T08:31:26Z</time>
      </trkpt>
      <trkpt lat="46.64525" lon="0.59325">
        <ele>89.4</ele>
        <time>2021-10-10T08:31:29Z</time>
      </trkpt>
      <trkpt lat="46.6453" lon="0.59321">
        <ele>89</ele>
        <time>2021-10-10T08:31:30Z</time>
      </trkpt>
      <trkpt lat="46.64533" lon="0.59318">
        <ele>88.4</ele>
        <time>2021-10-10T08:31:31Z</time>
      </trkpt>
      <trkpt lat="46.64535" lon="0.59315">
        <ele>87.6</ele>
        <time>2021-10-10T08:31:32Z</time>
      </trkpt>
      <trkpt lat="46.64536" lon="0.59312">
        <ele>87.2</ele>
        <time>2021-10-10T08:31:33Z</time>
      </trkpt>
      <trkpt lat="46.64533" lon="0.59296">
        <ele>86.6</ele>
        <time>2021-10-10T08:31:36Z</time>
      </trkpt>
      <trkpt lat="46.6452" lon="0.59258">
        <ele>85.6</ele>
        <time>2021-10-10T08:31:42Z</time>
      </trkpt>
      <trkpt lat="46.6451" lon="0.59227">
        <ele>84.4</ele>
        <time>2021-10-10T08:31:46Z</time>
      </trkpt>
      <trkpt lat="46.64504" lon="0.59184">
        <ele>83.6</ele>
        <time>2021-10-10T08:31:51Z</time>
      </trkpt>
      <trkpt lat="46.64505" lon="0.59167">
        <ele>83</ele>
        <time>2021-10-10T08:31:52Z</time>
      </trkpt>
      <trkpt lat="46.64513" lon="0.59125">
        <ele>81.4</ele>
        <time>2021-10-10T08:31:58Z</time>
      </trkpt>
      <trkpt lat="46.64515" lon="0.59119">
        <ele>81</ele>
        <time>2021-10-10T08:31:59Z</time>
      </trkpt>
      <trkpt lat="46.64516" lon="0.59112">
        <ele>80.6</ele>
        <time>2021-10-10T08:32:00Z</time>
      </trkpt>
      <trkpt lat="46.64516" lon="0.59104">
        <ele>80.2</ele>
        <time>2021-10-10T08:32:01Z</time>
      </trkpt>
      <trkpt lat="46.6452" lon="0.59081">
        <ele>79.4</ele>
        <time>2021-10-10T08:32:04Z</time>
      </trkpt>
      <trkpt lat="46.64522" lon="0.59074">
        <ele>78.6</ele>
        <time>2021-10-10T08:32:05Z</time>
      </trkpt>
      <trkpt lat="46.64527" lon="0.59068">
        <ele>78</ele>
        <time>2021-10-10T08:32:06Z</time>
      </trkpt>
      <trkpt lat="46.64532" lon="0.59063">
        <ele>77.6</ele>
        <time>2021-10-10T08:32:07Z</time>
      </trkpt>
      <trkpt lat="46.64553" lon="0.59051">
        <ele>76.4</ele>
        <time>2021-10-10T08:32:10Z</time>
      </trkpt>
      <trkpt lat="46.64568" lon="0.59044">
        <ele>75.6</ele>
        <time>2021-10-10T08:32:12Z</time>
      </trkpt>
      <trkpt lat="46.64575" lon="0.59041">
        <ele>75.4</ele>
        <time>2021-10-10T08:32:13Z</time>
      </trkpt>
      <trkpt lat="46.64589" lon="0.59034">
        <ele>74.2</ele>
        <time>2021-10-10T08:32:15Z</time>
      </trkpt>
      <trkpt lat="46.64604" lon="0.59025">
        <ele>73</ele>
        <time>2021-10-10T08:32:17Z</time>
      </trkpt>
      <trkpt lat="46.6462" lon="0.59017">
        <ele>71.6</ele>
        <time>2021-10-10T08:32:19Z</time>
      </trkpt>
      <trkpt lat="46.64636" lon="0.59009">
        <ele>70</ele>
        <time>2021-10-10T08:32:21Z</time>
      </trkpt>
      <trkpt lat="46.64653" lon="0.59001">
        <ele>68.6</ele>
        <time>2021-10-10T08:32:23Z</time>
      </trkpt>
      <trkpt lat="46.64687" lon="0.58986">
        <ele>68</ele>
        <time>2021-10-10T08:32:27Z</time>
      </trkpt>
      <trkpt lat="46.64695" lon="0.58982">
        <ele>66.8</ele>
        <time>2021-10-10T08:32:28Z</time>
      </trkpt>
      <trkpt lat="46.64711" lon="0.58974">
        <ele>65.6</ele>
        <time>2021-10-10T08:32:30Z</time>
      </trkpt>
      <trkpt lat="46.64728" lon="0.58968">
        <ele>64.2</ele>
        <time>2021-10-10T08:32:32Z</time>
      </trkpt>
      <trkpt lat="46.64745" lon="0.58963">
        <ele>63</ele>
        <time>2021-10-10T08:32:34Z</time>
      </trkpt>
      <trkpt lat="46.64753" lon="0.58961">
        <ele>62.4</ele>
        <time>2021-10-10T08:32:35Z</time>
      </trkpt>
      <trkpt lat="46.64761" lon="0.58958">
        <ele>61.8</ele>
        <time>2021-10-10T08:32:36Z</time>
      </trkpt>
      <trkpt lat="46.6477" lon="0.58955">
        <ele>61.4</ele>
        <time>2021-10-10T08:32:37Z</time>
      </trkpt>
      <trkpt lat="46.64778" lon="0.5895">
        <ele>60.6</ele>
        <time>2021-10-10T08:32:38Z</time>
      </trkpt>
      <trkpt lat="46.64785" lon="0.58943">
        <ele>60.2</ele>
        <time>2021-10-10T08:32:39Z</time>
      </trkpt>
      <trkpt lat="46.64792" lon="0.58935">
        <ele>59.4</ele>
        <time>2021-10-10T08:32:40Z</time>
      </trkpt>
      <trkpt lat="46.64797" lon="0.58925">
        <ele>58.4</ele>
        <time>2021-10-10T08:32:41Z</time>
      </trkpt>
      <trkpt lat="46.64799" lon="0.58912">
        <ele>57.4</ele>
        <time>2021-10-10T08:32:42Z</time>
      </trkpt>
      <trkpt lat="46.648" lon="0.58899">
        <ele>56.6</ele>
        <time>2021-10-10T08:32:43Z</time>
      </trkpt>
      <trkpt lat="46.64799" lon="0.58886">
        <ele>55.8</ele>
        <time>2021-10-10T08:32:44Z</time>
      </trkpt>
      <trkpt lat="46.64798" lon="0.58872">
        <ele>55</ele>
        <time>2021-10-10T08:32:45Z</time>
      </trkpt>
      <trkpt lat="46.64796" lon="0.58859">
        <ele>54.6</ele>
        <time>2021-10-10T08:32:46Z</time>
      </trkpt>
      <trkpt lat="46.64786" lon="0.58812">
        <ele>53.8</ele>
        <time>2021-10-10T08:32:50Z</time>
      </trkpt>
      <trkpt lat="46.64782" lon="0.58801">
        <ele>53.4</ele>
        <time>2021-10-10T08:32:51Z</time>
      </trkpt>
      <trkpt lat="46.64766" lon="0.58754">
        <ele>52.2</ele>
        <time>2021-10-10T08:32:56Z</time>
      </trkpt>
      <trkpt lat="46.64758" lon="0.58728">
        <ele>51.6</ele>
        <time>2021-10-10T08:33:00Z</time>
      </trkpt>
      <trkpt lat="46.64756" lon="0.58724">
        <ele>51.4</ele>
        <time>2021-10-10T08:33:01Z</time>
      </trkpt>
      <trkpt lat="46.64754" lon="0.58719">
        <ele>51.2</ele>
        <time>2021-10-10T08:33:03Z</time>
      </trkpt>
      <trkpt lat="46.64754" lon="0.58717">
        <ele>51</ele>
        <time>2021-10-10T08:33:04Z</time>
      </trkpt>
      <trkpt lat="46.64748" lon="0.58709">
        <ele>51</ele>
        <time>2021-10-10T08:33:11Z</time>
      </trkpt>
      <trkpt lat="46.64735" lon="0.58699">
        <ele>51</ele>
        <time>2021-10-10T08:33:15Z</time>
      </trkpt>
      <trkpt lat="46.64708" lon="0.58666">
        <ele>50.8</ele>
        <time>2021-10-10T08:33:22Z</time>
      </trkpt>
      <trkpt lat="46.64691" lon="0.58646">
        <ele>51.2</ele>
        <time>2021-10-10T08:33:26Z</time>
      </trkpt>
      <trkpt lat="46.64676" lon="0.58633">
        <ele>51.6</ele>
        <time>2021-10-10T08:33:29Z</time>
      </trkpt>
      <trkpt lat="46.64642" lon="0.586">
        <ele>51.2</ele>
        <time>2021-10-10T08:33:36Z</time>
      </trkpt>
      <trkpt lat="46.64609" lon="0.58551">
        <ele>50.6</ele>
        <time>2021-10-10T08:33:44Z</time>
      </trkpt>
      <trkpt lat="46.64602" lon="0.58537">
        <ele>50.6</ele>
        <time>2021-10-10T08:33:46Z</time>
      </trkpt>
      <trkpt lat="46.64595" lon="0.58513">
        <ele>51.2</ele>
        <time>2021-10-10T08:33:49Z</time>
      </trkpt>
      <trkpt lat="46.64577" lon="0.58444">
        <ele>50.2</ele>
        <time>2021-10-10T08:33:58Z</time>
      </trkpt>
      <trkpt lat="46.6457" lon="0.58417">
        <ele>50</ele>
        <time>2021-10-10T08:34:02Z</time>
      </trkpt>
      <trkpt lat="46.64564" lon="0.58408">
        <ele>49.8</ele>
        <time>2021-10-10T08:34:04Z</time>
      </trkpt>
      <trkpt lat="46.64557" lon="0.58407">
        <ele>49.6</ele>
        <time>2021-10-10T08:34:06Z</time>
      </trkpt>
      <trkpt lat="46.64552" lon="0.58408">
        <ele>49.6</ele>
        <time>2021-10-10T08:34:07Z</time>
      </trkpt>
      <trkpt lat="46.64531" lon="0.58415">
        <ele>49.6</ele>
        <time>2021-10-10T08:34:11Z</time>
      </trkpt>
      <trkpt lat="46.64519" lon="0.5842">
        <ele>49.2</ele>
        <time>2021-10-10T08:34:13Z</time>
      </trkpt>
      <trkpt lat="46.64514" lon="0.58423">
        <ele>48.8</ele>
        <time>2021-10-10T08:34:14Z</time>
      </trkpt>
      <trkpt lat="46.64509" lon="0.58426">
        <ele>48.8</ele>
        <time>2021-10-10T08:34:15Z</time>
      </trkpt>
      <trkpt lat="46.64501" lon="0.58434">
        <ele>48.6</ele>
        <time>2021-10-10T08:34:17Z</time>
      </trkpt>
      <trkpt lat="46.64495" lon="0.58447">
        <ele>48.6</ele>
        <time>2021-10-10T08:34:19Z</time>
      </trkpt>
      <trkpt lat="46.64494" lon="0.58453">
        <ele>48.8</ele>
        <time>2021-10-10T08:34:20Z</time>
      </trkpt>
      <trkpt lat="46.64484" lon="0.58488">
        <ele>49.4</ele>
        <time>2021-10-10T08:34:26Z</time>
      </trkpt>
      <trkpt lat="46.64481" lon="0.58508">
        <ele>49.8</ele>
        <time>2021-10-10T08:34:29Z</time>
      </trkpt>
      <trkpt lat="46.64482" lon="0.58515">
        <ele>50</ele>
        <time>2021-10-10T08:34:30Z</time>
      </trkpt>
      <trkpt lat="46.64483" lon="0.58522">
        <ele>50</ele>
        <time>2021-10-10T08:34:31Z</time>
      </trkpt>
      <trkpt lat="46.64486" lon="0.58543">
        <ele>50.2</ele>
        <time>2021-10-10T08:34:34Z</time>
      </trkpt>
      <trkpt lat="46.64486" lon="0.58551">
        <ele>50.2</ele>
        <time>2021-10-10T08:34:35Z</time>
      </trkpt>
      <trkpt lat="46.64484" lon="0.58583">
        <ele>50.6</ele>
        <time>2021-10-10T08:34:39Z</time>
      </trkpt>
      <trkpt lat="46.6448" lon="0.58622">
        <ele>51</ele>
        <time>2021-10-10T08:34:44Z</time>
      </trkpt>
      <trkpt lat="46.64478" lon="0.58635">
        <ele>51.2</ele>
        <time>2021-10-10T08:34:46Z</time>
      </trkpt>
      <trkpt lat="46.64471" lon="0.58669">
        <ele>52</ele>
        <time>2021-10-10T08:34:51Z</time>
      </trkpt>
      <trkpt lat="46.64469" lon="0.58676">
        <ele>52.2</ele>
        <time>2021-10-10T08:34:52Z</time>
      </trkpt>
      <trkpt lat="46.64455" lon="0.58729">
        <ele>52.6</ele>
        <time>2021-10-10T08:35:00Z</time>
      </trkpt>
      <trkpt lat="46.6445" lon="0.5875">
        <ele>53.2</ele>
        <time>2021-10-10T08:35:03Z</time>
      </trkpt>
      <trkpt lat="46.64445" lon="0.58774">
        <ele>53</ele>
        <time>2021-10-10T08:35:07Z</time>
      </trkpt>
      <trkpt lat="46.64449" lon="0.58784">
        <ele>53</ele>
        <time>2021-10-10T08:35:10Z</time>
      </trkpt>
      <trkpt lat="46.64462" lon="0.58785">
        <ele>52.8</ele>
        <time>2021-10-10T08:35:14Z</time>
      </trkpt>
      <trkpt lat="46.6449" lon="0.58776">
        <ele>52.8</ele>
        <time>2021-10-10T08:35:21Z</time>
      </trkpt>
      <trkpt lat="46.64506" lon="0.58771">
        <ele>52.6</ele>
        <time>2021-10-10T08:35:25Z</time>
      </trkpt>
      <trkpt lat="46.64513" lon="0.58772">
        <ele>52.2</ele>
        <time>2021-10-10T08:35:27Z</time>
      </trkpt>
      <trkpt lat="46.64515" lon="0.58773">
        <ele>52</ele>
        <time>2021-10-10T08:35:28Z</time>
      </trkpt>
      <trkpt lat="46.64517" lon="0.58775">
        <ele>51.8</ele>
        <time>2021-10-10T08:35:30Z</time>
      </trkpt>
      <trkpt lat="46.64517" lon="0.58776">
        <ele>51.4</ele>
        <time>2021-10-10T08:35:32Z</time>
      </trkpt>
      <trkpt lat="46.64517" lon="0.58777">
        <ele>51.6</ele>
        <time>2021-10-10T08:35:36Z</time>
      </trkpt>
      <trkpt lat="46.64516" lon="0.58775">
        <ele>51.4</ele>
        <time>2021-10-10T08:45:17Z</time>
      </trkpt>
      <trkpt lat="46.64516" lon="0.58775">
        <ele>51.4</ele>
        <time>2021-10-10T08:45:18Z</time>
      </trkpt>
      <trkpt lat="46.6452" lon="0.58765">
        <ele>51.6</ele>
        <time>2021-10-10T08:45:26Z</time>
      </trkpt>
      <trkpt lat="46.64521" lon="0.58765">
        <ele>51.6</ele>
        <time>2021-10-10T08:45:27Z</time>
      </trkpt>
      <trkpt lat="46.64528" lon="0.58761">
        <ele>51.6</ele>
        <time>2021-10-10T08:45:31Z</time>
      </trkpt>
      <trkpt lat="46.64545" lon="0.58753">
        <ele>51.8</ele>
        <time>2021-10-10T08:45:37Z</time>
      </trkpt>
      <trkpt lat="46.64566" lon="0.5874">
        <ele>51.8</ele>
        <time>2021-10-10T08:45:43Z</time>
      </trkpt>
      <trkpt lat="46.64571" lon="0.58727">
        <ele>51.6</ele>
        <time>2021-10-10T08:45:46Z</time>
      </trkpt>
      <trkpt lat="46.64569" lon="0.58701">
        <ele>51.6</ele>
        <time>2021-10-10T08:45:51Z</time>
      </trkpt>
      <trkpt lat="46.64567" lon="0.58675">
        <ele>51.6</ele>
        <time>2021-10-10T08:45:58Z</time>
      </trkpt>
      <trkpt lat="46.64567" lon="0.58672">
        <ele>51.4</ele>
        <time>2021-10-10T08:46:00Z</time>
      </trkpt>
      <trkpt lat="46.64567" lon="0.58672">
        <ele>51.6</ele>
        <time>2021-10-10T08:46:03Z</time>
      </trkpt>
      <trkpt lat="46.64567" lon="0.58672">
        <ele>51.6</ele>
        <time>2021-10-10T08:46:11Z</time>
      </trkpt>
      <trkpt lat="46.64566" lon="0.58664">
        <ele>51.8</ele>
        <time>2021-10-10T08:46:19Z</time>
      </trkpt>
      <trkpt lat="46.64562" lon="0.58636">
        <ele>52.2</ele>
        <time>2021-10-10T08:46:25Z</time>
      </trkpt>
      <trkpt lat="46.64555" lon="0.58582">
        <ele>52.8</ele>
        <time>2021-10-10T08:46:35Z</time>
      </trkpt>
      <trkpt lat="46.64551" lon="0.58558">
        <ele>53</ele>
        <time>2021-10-10T08:46:39Z</time>
      </trkpt>
      <trkpt lat="46.64547" lon="0.58529">
        <ele>53.8</ele>
        <time>2021-10-10T08:46:44Z</time>
      </trkpt>
      <trkpt lat="46.64545" lon="0.58517">
        <ele>54</ele>
        <time>2021-10-10T08:46:46Z</time>
      </trkpt>
      <trkpt lat="46.64541" lon="0.58482">
        <ele>55</ele>
        <time>2021-10-10T08:46:52Z</time>
      </trkpt>
      <trkpt lat="46.6454" lon="0.58476">
        <ele>55.2</ele>
        <time>2021-10-10T08:46:53Z</time>
      </trkpt>
      <trkpt lat="46.64533" lon="0.58429">
        <ele>56</ele>
        <time>2021-10-10T08:47:01Z</time>
      </trkpt>
      <trkpt lat="46.64532" lon="0.58416">
        <ele>56.2</ele>
        <time>2021-10-10T08:47:03Z</time>
      </trkpt>
      <trkpt lat="46.64525" lon="0.58365">
        <ele>56.6</ele>
        <time>2021-10-10T08:47:11Z</time>
      </trkpt>
      <trkpt lat="46.64519" lon="0.58326">
        <ele>56.6</ele>
        <time>2021-10-10T08:47:17Z</time>
      </trkpt>
      <trkpt lat="46.64516" lon="0.583">
        <ele>56.4</ele>
        <time>2021-10-10T08:47:21Z</time>
      </trkpt>
      <trkpt lat="46.6451" lon="0.58253">
        <ele>56.2</ele>
        <time>2021-10-10T08:47:29Z</time>
      </trkpt>
      <trkpt lat="46.6451" lon="0.58242">
        <ele>56.2</ele>
        <time>2021-10-10T08:47:31Z</time>
      </trkpt>
      <trkpt lat="46.64513" lon="0.58202">
        <ele>57.2</ele>
        <time>2021-10-10T08:47:38Z</time>
      </trkpt>
      <trkpt lat="46.64514" lon="0.58196">
        <ele>57.4</ele>
        <time>2021-10-10T08:47:39Z</time>
      </trkpt>
      <trkpt lat="46.64518" lon="0.5816">
        <ele>58.4</ele>
        <time>2021-10-10T08:47:45Z</time>
      </trkpt>
      <trkpt lat="46.64519" lon="0.58148">
        <ele>58.8</ele>
        <time>2021-10-10T08:47:47Z</time>
      </trkpt>
      <trkpt lat="46.6452" lon="0.58123">
        <ele>60</ele>
        <time>2021-10-10T08:47:51Z</time>
      </trkpt>
      <trkpt lat="46.64519" lon="0.5811">
        <ele>60.2</ele>
        <time>2021-10-10T08:47:53Z</time>
      </trkpt>
      <trkpt lat="46.64518" lon="0.58104">
        <ele>60.4</ele>
        <time>2021-10-10T08:47:54Z</time>
      </trkpt>
      <trkpt lat="46.64512" lon="0.58077">
        <ele>61</ele>
        <time>2021-10-10T08:47:59Z</time>
      </trkpt>
      <trkpt lat="46.64511" lon="0.58072">
        <ele>61.2</ele>
        <time>2021-10-10T08:48:00Z</time>
      </trkpt>
      <trkpt lat="46.64507" lon="0.5804">
        <ele>62.2</ele>
        <time>2021-10-10T08:48:06Z</time>
      </trkpt>
      <trkpt lat="46.64505" lon="0.58024">
        <ele>62.8</ele>
        <time>2021-10-10T08:48:09Z</time>
      </trkpt>
      <trkpt lat="46.64504" lon="0.58008">
        <ele>63.4</ele>
        <time>2021-10-10T08:48:12Z</time>
      </trkpt>
      <trkpt lat="46.64506" lon="0.57993">
        <ele>64</ele>
        <time>2021-10-10T08:48:15Z</time>
      </trkpt>
      <trkpt lat="46.64508" lon="0.57983">
        <ele>64.4</ele>
        <time>2021-10-10T08:48:17Z</time>
      </trkpt>
      <trkpt lat="46.64512" lon="0.57971">
        <ele>65.4</ele>
        <time>2021-10-10T08:48:20Z</time>
      </trkpt>
      <trkpt lat="46.64514" lon="0.57966">
        <ele>66.4</ele>
        <time>2021-10-10T08:48:22Z</time>
      </trkpt>
      <trkpt lat="46.64516" lon="0.57963">
        <ele>66.6</ele>
        <time>2021-10-10T08:48:23Z</time>
      </trkpt>
      <trkpt lat="46.64522" lon="0.57954">
        <ele>67.8</ele>
        <time>2021-10-10T08:48:26Z</time>
      </trkpt>
      <trkpt lat="46.64527" lon="0.57949">
        <ele>68.4</ele>
        <time>2021-10-10T08:48:28Z</time>
      </trkpt>
      <trkpt lat="46.64532" lon="0.57943">
        <ele>69</ele>
        <time>2021-10-10T08:48:30Z</time>
      </trkpt>
      <trkpt lat="46.64539" lon="0.57936">
        <ele>70</ele>
        <time>2021-10-10T08:48:33Z</time>
      </trkpt>
      <trkpt lat="46.64545" lon="0.57929">
        <ele>70.6</ele>
        <time>2021-10-10T08:48:35Z</time>
      </trkpt>
      <trkpt lat="46.64553" lon="0.57918">
        <ele>71.2</ele>
        <time>2021-10-10T08:48:38Z</time>
      </trkpt>
      <trkpt lat="46.6456" lon="0.57901">
        <ele>72.2</ele>
        <time>2021-10-10T08:48:42Z</time>
      </trkpt>
      <trkpt lat="46.64567" lon="0.57879">
        <ele>73.4</ele>
        <time>2021-10-10T08:48:46Z</time>
      </trkpt>
      <trkpt lat="46.64568" lon="0.57873">
        <ele>73.4</ele>
        <time>2021-10-10T08:48:47Z</time>
      </trkpt>
      <trkpt lat="46.64572" lon="0.57856">
        <ele>74.2</ele>
        <time>2021-10-10T08:48:50Z</time>
      </trkpt>
      <trkpt lat="46.64577" lon="0.5784">
        <ele>74.4</ele>
        <time>2021-10-10T08:48:53Z</time>
      </trkpt>
      <trkpt lat="46.64581" lon="0.57814">
        <ele>75</ele>
        <time>2021-10-10T08:48:58Z</time>
      </trkpt>
      <trkpt lat="46.6458" lon="0.5781">
        <ele>75.2</ele>
        <time>2021-10-10T08:48:59Z</time>
      </trkpt>
      <trkpt lat="46.64574" lon="0.57804">
        <ele>75.6</ele>
        <time>2021-10-10T08:49:01Z</time>
      </trkpt>
      <trkpt lat="46.64563" lon="0.57794">
        <ele>76.8</ele>
        <time>2021-10-10T08:49:06Z</time>
      </trkpt>
      <trkpt lat="46.64561" lon="0.57792">
        <ele>77</ele>
        <time>2021-10-10T08:49:07Z</time>
      </trkpt>
      <trkpt lat="46.64555" lon="0.57786">
        <ele>78</ele>
        <time>2021-10-10T08:49:10Z</time>
      </trkpt>
      <trkpt lat="46.6455" lon="0.57781">
        <ele>79</ele>
        <time>2021-10-10T08:49:13Z</time>
      </trkpt>
      <trkpt lat="46.64547" lon="0.57777">
        <ele>79.6</ele>
        <time>2021-10-10T08:49:15Z</time>
      </trkpt>
      <trkpt lat="46.64543" lon="0.57774">
        <ele>80.4</ele>
        <time>2021-10-10T08:49:17Z</time>
      </trkpt>
      <trkpt lat="46.64534" lon="0.57766">
        <ele>81.6</ele>
        <time>2021-10-10T08:49:22Z</time>
      </trkpt>
      <trkpt lat="46.64526" lon="0.57763">
        <ele>82.6</ele>
        <time>2021-10-10T08:49:26Z</time>
      </trkpt>
      <trkpt lat="46.64519" lon="0.57762">
        <ele>83.6</ele>
        <time>2021-10-10T08:49:30Z</time>
      </trkpt>
      <trkpt lat="46.64517" lon="0.57761">
        <ele>83.8</ele>
        <time>2021-10-10T08:49:31Z</time>
      </trkpt>
      <trkpt lat="46.64514" lon="0.57761">
        <ele>84</ele>
        <time>2021-10-10T08:49:32Z</time>
      </trkpt>
      <trkpt lat="46.64507" lon="0.5776">
        <ele>84.4</ele>
        <time>2021-10-10T08:49:35Z</time>
      </trkpt>
      <trkpt lat="46.64499" lon="0.5775">
        <ele>85.2</ele>
        <time>2021-10-10T08:49:39Z</time>
      </trkpt>
      <trkpt lat="46.64497" lon="0.57747">
        <ele>85.4</ele>
        <time>2021-10-10T08:49:40Z</time>
      </trkpt>
      <trkpt lat="46.6449" lon="0.57734">
        <ele>86.2</ele>
        <time>2021-10-10T08:49:44Z</time>
      </trkpt>
      <trkpt lat="46.64485" lon="0.57722">
        <ele>86.6</ele>
        <time>2021-10-10T08:49:47Z</time>
      </trkpt>
      <trkpt lat="46.64478" lon="0.57707">
        <ele>87</ele>
        <time>2021-10-10T08:49:51Z</time>
      </trkpt>
      <trkpt lat="46.64475" lon="0.57707">
        <ele>87</ele>
        <time>2021-10-10T08:49:52Z</time>
      </trkpt>
      <trkpt lat="46.64458" lon="0.57712">
        <ele>87.2</ele>
        <time>2021-10-10T08:49:57Z</time>
      </trkpt>
      <trkpt lat="46.64455" lon="0.57713">
        <ele>87.4</ele>
        <time>2021-10-10T08:49:58Z</time>
      </trkpt>
      <trkpt lat="46.64443" lon="0.5771">
        <ele>87.6</ele>
        <time>2021-10-10T08:50:01Z</time>
      </trkpt>
      <trkpt lat="46.64439" lon="0.57707">
        <ele>87.6</ele>
        <time>2021-10-10T08:50:02Z</time>
      </trkpt>
      <trkpt lat="46.64436" lon="0.57702">
        <ele>87.8</ele>
        <time>2021-10-10T08:50:03Z</time>
      </trkpt>
      <trkpt lat="46.64429" lon="0.57688">
        <ele>87.6</ele>
        <time>2021-10-10T08:50:06Z</time>
      </trkpt>
      <trkpt lat="46.64426" lon="0.57683">
        <ele>87.6</ele>
        <time>2021-10-10T08:50:07Z</time>
      </trkpt>
      <trkpt lat="46.64411" lon="0.5765">
        <ele>88.4</ele>
        <time>2021-10-10T08:50:14Z</time>
      </trkpt>
      <trkpt lat="46.64409" lon="0.57646">
        <ele>88.6</ele>
        <time>2021-10-10T08:50:15Z</time>
      </trkpt>
      <trkpt lat="46.64392" lon="0.57613">
        <ele>89.6</ele>
        <time>2021-10-10T08:50:22Z</time>
      </trkpt>
      <trkpt lat="46.64387" lon="0.57603">
        <ele>89.6</ele>
        <time>2021-10-10T08:50:24Z</time>
      </trkpt>
      <trkpt lat="46.64375" lon="0.57579">
        <ele>90.6</ele>
        <time>2021-10-10T08:50:29Z</time>
      </trkpt>
      <trkpt lat="46.64365" lon="0.57559">
        <ele>90.6</ele>
        <time>2021-10-10T08:50:33Z</time>
      </trkpt>
      <trkpt lat="46.64342" lon="0.57518">
        <ele>91</ele>
        <time>2021-10-10T08:50:41Z</time>
      </trkpt>
      <trkpt lat="46.64325" lon="0.57475">
        <ele>91</ele>
        <time>2021-10-10T08:50:48Z</time>
      </trkpt>
      <trkpt lat="46.64321" lon="0.57462">
        <ele>91.6</ele>
        <time>2021-10-10T08:50:50Z</time>
      </trkpt>
      <trkpt lat="46.6431" lon="0.57417">
        <ele>92.2</ele>
        <time>2021-10-10T08:50:57Z</time>
      </trkpt>
      <trkpt lat="46.64306" lon="0.57398">
        <ele>92.6</ele>
        <time>2021-10-10T08:51:00Z</time>
      </trkpt>
      <trkpt lat="46.64302" lon="0.57382">
        <ele>93</ele>
        <time>2021-10-10T08:51:03Z</time>
      </trkpt>
      <trkpt lat="46.64299" lon="0.57377">
        <ele>93.2</ele>
        <time>2021-10-10T08:51:04Z</time>
      </trkpt>
      <trkpt lat="46.64288" lon="0.57373">
        <ele>94</ele>
        <time>2021-10-10T08:51:07Z</time>
      </trkpt>
      <trkpt lat="46.64257" lon="0.57377">
        <ele>94.2</ele>
        <time>2021-10-10T08:51:14Z</time>
      </trkpt>
      <trkpt lat="46.64235" lon="0.5738">
        <ele>93.8</ele>
        <time>2021-10-10T08:51:19Z</time>
      </trkpt>
      <trkpt lat="46.64222" lon="0.57384">
        <ele>93.6</ele>
        <time>2021-10-10T08:51:22Z</time>
      </trkpt>
      <trkpt lat="46.64196" lon="0.57389">
        <ele>93.2</ele>
        <time>2021-10-10T08:51:28Z</time>
      </trkpt>
      <trkpt lat="46.64192" lon="0.57388">
        <ele>93.2</ele>
        <time>2021-10-10T08:51:29Z</time>
      </trkpt>
      <trkpt lat="46.64179" lon="0.57385">
        <ele>93</ele>
        <time>2021-10-10T08:51:32Z</time>
      </trkpt>
      <trkpt lat="46.64174" lon="0.57383">
        <ele>92.8</ele>
        <time>2021-10-10T08:51:33Z</time>
      </trkpt>
      <trkpt lat="46.64153" lon="0.57371">
        <ele>92.6</ele>
        <time>2021-10-10T08:51:38Z</time>
      </trkpt>
      <trkpt lat="46.64146" lon="0.57363">
        <ele>93</ele>
        <time>2021-10-10T08:51:40Z</time>
      </trkpt>
      <trkpt lat="46.64138" lon="0.57347">
        <ele>93</ele>
        <time>2021-10-10T08:51:43Z</time>
      </trkpt>
      <trkpt lat="46.64124" lon="0.57313">
        <ele>94</ele>
        <time>2021-10-10T08:51:49Z</time>
      </trkpt>
      <trkpt lat="46.6412" lon="0.573">
        <ele>94.2</ele>
        <time>2021-10-10T08:51:51Z</time>
      </trkpt>
      <trkpt lat="46.64114" lon="0.57282">
        <ele>95.2</ele>
        <time>2021-10-10T08:51:54Z</time>
      </trkpt>
      <trkpt lat="46.64106" lon="0.57261">
        <ele>95.6</ele>
        <time>2021-10-10T08:51:58Z</time>
      </trkpt>
      <trkpt lat="46.64102" lon="0.57251">
        <ele>96.4</ele>
        <time>2021-10-10T08:52:00Z</time>
      </trkpt>
      <trkpt lat="46.6409" lon="0.57222">
        <ele>97.4</ele>
        <time>2021-10-10T08:52:06Z</time>
      </trkpt>
      <trkpt lat="46.6408" lon="0.57191">
        <ele>98.8</ele>
        <time>2021-10-10T08:52:12Z</time>
      </trkpt>
      <trkpt lat="46.64076" lon="0.5718">
        <ele>99.2</ele>
        <time>2021-10-10T08:52:14Z</time>
      </trkpt>
      <trkpt lat="46.64064" lon="0.57148">
        <ele>99.8</ele>
        <time>2021-10-10T08:52:21Z</time>
      </trkpt>
      <trkpt lat="46.64044" lon="0.57123">
        <ele>100.4</ele>
        <time>2021-10-10T08:52:28Z</time>
      </trkpt>
      <trkpt lat="46.64027" lon="0.57101">
        <ele>101</ele>
        <time>2021-10-10T08:52:34Z</time>
      </trkpt>
      <trkpt lat="46.64017" lon="0.57088">
        <ele>101.2</ele>
        <time>2021-10-10T08:52:38Z</time>
      </trkpt>
      <trkpt lat="46.64011" lon="0.5708">
        <ele>101.2</ele>
        <time>2021-10-10T08:52:40Z</time>
      </trkpt>
      <trkpt lat="46.63991" lon="0.57051">
        <ele>101.6</ele>
        <time>2021-10-10T08:52:47Z</time>
      </trkpt>
      <trkpt lat="46.63971" lon="0.57018">
        <ele>101.8</ele>
        <time>2021-10-10T08:52:54Z</time>
      </trkpt>
      <trkpt lat="46.63964" lon="0.57006">
        <ele>102</ele>
        <time>2021-10-10T08:52:57Z</time>
      </trkpt>
      <trkpt lat="46.63958" lon="0.56998">
        <ele>101.6</ele>
        <time>2021-10-10T08:52:59Z</time>
      </trkpt>
      <trkpt lat="46.6395" lon="0.56991">
        <ele>102</ele>
        <time>2021-10-10T08:53:01Z</time>
      </trkpt>
      <trkpt lat="46.63947" lon="0.56988">
        <ele>102.2</ele>
        <time>2021-10-10T08:53:02Z</time>
      </trkpt>
      <trkpt lat="46.63927" lon="0.56973">
        <ele>102.4</ele>
        <time>2021-10-10T08:53:07Z</time>
      </trkpt>
      <trkpt lat="46.63923" lon="0.5697">
        <ele>102.4</ele>
        <time>2021-10-10T08:53:08Z</time>
      </trkpt>
      <trkpt lat="46.63903" lon="0.56957">
        <ele>102.6</ele>
        <time>2021-10-10T08:53:13Z</time>
      </trkpt>
      <trkpt lat="46.63885" lon="0.56946">
        <ele>103.2</ele>
        <time>2021-10-10T08:53:18Z</time>
      </trkpt>
      <trkpt lat="46.63871" lon="0.56938">
        <ele>103.2</ele>
        <time>2021-10-10T08:53:22Z</time>
      </trkpt>
      <trkpt lat="46.63847" lon="0.56937">
        <ele>103.4</ele>
        <time>2021-10-10T08:53:28Z</time>
      </trkpt>
      <trkpt lat="46.63845" lon="0.56944">
        <ele>103.6</ele>
        <time>2021-10-10T08:53:30Z</time>
      </trkpt>
      <trkpt lat="46.63846" lon="0.56949">
        <ele>103.6</ele>
        <time>2021-10-10T08:53:31Z</time>
      </trkpt>
      <trkpt lat="46.63855" lon="0.5698">
        <ele>103.2</ele>
        <time>2021-10-10T08:53:36Z</time>
      </trkpt>
      <trkpt lat="46.63874" lon="0.57034">
        <ele>102.4</ele>
        <time>2021-10-10T08:53:44Z</time>
      </trkpt>
      <trkpt lat="46.63887" lon="0.57064">
        <ele>102</ele>
        <time>2021-10-10T08:53:49Z</time>
      </trkpt>
      <trkpt lat="46.63893" lon="0.57076">
        <ele>101.6</ele>
        <time>2021-10-10T08:53:51Z</time>
      </trkpt>
      <trkpt lat="46.63909" lon="0.57112">
        <ele>100.8</ele>
        <time>2021-10-10T08:53:57Z</time>
      </trkpt>
      <trkpt lat="46.63912" lon="0.57119">
        <ele>100.6</ele>
        <time>2021-10-10T08:53:58Z</time>
      </trkpt>
      <trkpt lat="46.6392" lon="0.57146">
        <ele>99.8</ele>
        <time>2021-10-10T08:54:02Z</time>
      </trkpt>
      <trkpt lat="46.63922" lon="0.57154">
        <ele>99.6</ele>
        <time>2021-10-10T08:54:03Z</time>
      </trkpt>
      <trkpt lat="46.63927" lon="0.57179">
        <ele>98.8</ele>
        <time>2021-10-10T08:54:06Z</time>
      </trkpt>
      <trkpt lat="46.63927" lon="0.57188">
        <ele>98.4</ele>
        <time>2021-10-10T08:54:07Z</time>
      </trkpt>
      <trkpt lat="46.63928" lon="0.57196">
        <ele>97.8</ele>
        <time>2021-10-10T08:54:08Z</time>
      </trkpt>
      <trkpt lat="46.63931" lon="0.57214">
        <ele>97.2</ele>
        <time>2021-10-10T08:54:10Z</time>
      </trkpt>
      <trkpt lat="46.63931" lon="0.57242">
        <ele>95.6</ele>
        <time>2021-10-10T08:54:13Z</time>
      </trkpt>
      <trkpt lat="46.63933" lon="0.57251">
        <ele>94.4</ele>
        <time>2021-10-10T08:54:14Z</time>
      </trkpt>
      <trkpt lat="46.63934" lon="0.5726">
        <ele>93</ele>
        <time>2021-10-10T08:54:15Z</time>
      </trkpt>
      <trkpt lat="46.63935" lon="0.57269">
        <ele>92</ele>
        <time>2021-10-10T08:54:16Z</time>
      </trkpt>
      <trkpt lat="46.63936" lon="0.57287">
        <ele>90.4</ele>
        <time>2021-10-10T08:54:18Z</time>
      </trkpt>
      <trkpt lat="46.63937" lon="0.57295">
        <ele>88.6</ele>
        <time>2021-10-10T08:54:19Z</time>
      </trkpt>
      <trkpt lat="46.63938" lon="0.57305">
        <ele>87.6</ele>
        <time>2021-10-10T08:54:20Z</time>
      </trkpt>
      <trkpt lat="46.6394" lon="0.57314">
        <ele>87</ele>
        <time>2021-10-10T08:54:21Z</time>
      </trkpt>
      <trkpt lat="46.63943" lon="0.57323">
        <ele>86.2</ele>
        <time>2021-10-10T08:54:22Z</time>
      </trkpt>
      <trkpt lat="46.63947" lon="0.57332">
        <ele>84.4</ele>
        <time>2021-10-10T08:54:23Z</time>
      </trkpt>
      <trkpt lat="46.63951" lon="0.5734">
        <ele>83.2</ele>
        <time>2021-10-10T08:54:24Z</time>
      </trkpt>
      <trkpt lat="46.63956" lon="0.57346">
        <ele>82.8</ele>
        <time>2021-10-10T08:54:25Z</time>
      </trkpt>
      <trkpt lat="46.63959" lon="0.5735">
        <ele>81.8</ele>
        <time>2021-10-10T08:54:26Z</time>
      </trkpt>
      <trkpt lat="46.63961" lon="0.57354">
        <ele>81.4</ele>
        <time>2021-10-10T08:54:27Z</time>
      </trkpt>
      <trkpt lat="46.63965" lon="0.57362">
        <ele>81</ele>
        <time>2021-10-10T08:54:29Z</time>
      </trkpt>
      <trkpt lat="46.63965" lon="0.57364">
        <ele>81</ele>
        <time>2021-10-10T08:54:30Z</time>
      </trkpt>
      <trkpt lat="46.6396" lon="0.57369">
        <ele>80.8</ele>
        <time>2021-10-10T08:54:33Z</time>
      </trkpt>
      <trkpt lat="46.63949" lon="0.57375">
        <ele>81</ele>
        <time>2021-10-10T08:54:39Z</time>
      </trkpt>
      <trkpt lat="46.63933" lon="0.57377">
        <ele>81.6</ele>
        <time>2021-10-10T08:54:46Z</time>
      </trkpt>
      <trkpt lat="46.63914" lon="0.57378">
        <ele>82</ele>
        <time>2021-10-10T08:54:53Z</time>
      </trkpt>
      <trkpt lat="46.63898" lon="0.57376">
        <ele>82.4</ele>
        <time>2021-10-10T08:54:58Z</time>
      </trkpt>
      <trkpt lat="46.63895" lon="0.57375">
        <ele>82.4</ele>
        <time>2021-10-10T08:54:59Z</time>
      </trkpt>
      <trkpt lat="46.63888" lon="0.57372">
        <ele>82.6</ele>
        <time>2021-10-10T08:55:01Z</time>
      </trkpt>
      <trkpt lat="46.63885" lon="0.5737">
        <ele>82.6</ele>
        <time>2021-10-10T08:55:02Z</time>
      </trkpt>
      <trkpt lat="46.63875" lon="0.57365">
        <ele>82.6</ele>
        <time>2021-10-10T08:55:05Z</time>
      </trkpt>
      <trkpt lat="46.63869" lon="0.57361">
        <ele>82.4</ele>
        <time>2021-10-10T08:55:07Z</time>
      </trkpt>
      <trkpt lat="46.63866" lon="0.57359">
        <ele>82.4</ele>
        <time>2021-10-10T08:55:08Z</time>
      </trkpt>
      <trkpt lat="46.6386" lon="0.57353">
        <ele>82.2</ele>
        <time>2021-10-10T08:55:11Z</time>
      </trkpt>
      <trkpt lat="46.63857" lon="0.57347">
        <ele>82.4</ele>
        <time>2021-10-10T08:55:13Z</time>
      </trkpt>
      <trkpt lat="46.63854" lon="0.57345">
        <ele>82.4</ele>
        <time>2021-10-10T08:55:14Z</time>
      </trkpt>
      <trkpt lat="46.6385" lon="0.57341">
        <ele>82.4</ele>
        <time>2021-10-10T08:55:16Z</time>
      </trkpt>
      <trkpt lat="46.63844" lon="0.57333">
        <ele>82.6</ele>
        <time>2021-10-10T08:55:18Z</time>
      </trkpt>
      <trkpt lat="46.63834" lon="0.57322">
        <ele>82.8</ele>
        <time>2021-10-10T08:55:21Z</time>
      </trkpt>
      <trkpt lat="46.63827" lon="0.57315">
        <ele>83</ele>
        <time>2021-10-10T08:55:23Z</time>
      </trkpt>
      <trkpt lat="46.63815" lon="0.573">
        <ele>83.4</ele>
        <time>2021-10-10T08:55:27Z</time>
      </trkpt>
      <trkpt lat="46.63809" lon="0.57294">
        <ele>83.6</ele>
        <time>2021-10-10T08:55:29Z</time>
      </trkpt>
      <trkpt lat="46.63804" lon="0.5729">
        <ele>83.6</ele>
        <time>2021-10-10T08:55:30Z</time>
      </trkpt>
      <trkpt lat="46.63795" lon="0.57285">
        <ele>83.6</ele>
        <time>2021-10-10T08:55:32Z</time>
      </trkpt>
      <trkpt lat="46.63787" lon="0.57282">
        <ele>83.6</ele>
        <time>2021-10-10T08:55:34Z</time>
      </trkpt>
      <trkpt lat="46.6376" lon="0.57272">
        <ele>83.8</ele>
        <time>2021-10-10T08:55:40Z</time>
      </trkpt>
      <trkpt lat="46.63744" lon="0.57266">
        <ele>84</ele>
        <time>2021-10-10T08:55:42Z</time>
      </trkpt>
      <trkpt lat="46.63728" lon="0.57259">
        <ele>84.6</ele>
        <time>2021-10-10T08:55:45Z</time>
      </trkpt>
      <trkpt lat="46.63714" lon="0.57253">
        <ele>85</ele>
        <time>2021-10-10T08:55:48Z</time>
      </trkpt>
      <trkpt lat="46.63708" lon="0.57251">
        <ele>85.2</ele>
        <time>2021-10-10T08:55:49Z</time>
      </trkpt>
      <trkpt lat="46.63696" lon="0.57248">
        <ele>85.6</ele>
        <time>2021-10-10T08:55:51Z</time>
      </trkpt>
      <trkpt lat="46.63686" lon="0.57245">
        <ele>85.6</ele>
        <time>2021-10-10T08:55:53Z</time>
      </trkpt>
      <trkpt lat="46.63663" lon="0.57241">
        <ele>86</ele>
        <time>2021-10-10T08:55:57Z</time>
      </trkpt>
      <trkpt lat="46.63648" lon="0.57238">
        <ele>86</ele>
        <time>2021-10-10T08:56:00Z</time>
      </trkpt>
      <trkpt lat="46.63636" lon="0.57233">
        <ele>86.2</ele>
        <time>2021-10-10T08:56:03Z</time>
      </trkpt>
      <trkpt lat="46.63632" lon="0.57231">
        <ele>86.2</ele>
        <time>2021-10-10T08:56:04Z</time>
      </trkpt>
      <trkpt lat="46.63619" lon="0.57224">
        <ele>86.6</ele>
        <time>2021-10-10T08:56:07Z</time>
      </trkpt>
      <trkpt lat="46.63615" lon="0.57222">
        <ele>86.6</ele>
        <time>2021-10-10T08:56:08Z</time>
      </trkpt>
      <trkpt lat="46.63608" lon="0.5722">
        <ele>86.6</ele>
        <time>2021-10-10T08:56:10Z</time>
      </trkpt>
      <trkpt lat="46.63595" lon="0.57217">
        <ele>86.2</ele>
        <time>2021-10-10T08:56:14Z</time>
      </trkpt>
      <trkpt lat="46.63575" lon="0.57212">
        <ele>86.6</ele>
        <time>2021-10-10T08:56:18Z</time>
      </trkpt>
      <trkpt lat="46.63571" lon="0.57212">
        <ele>86.6</ele>
        <time>2021-10-10T08:56:19Z</time>
      </trkpt>
      <trkpt lat="46.63566" lon="0.57213">
        <ele>86.8</ele>
        <time>2021-10-10T08:56:20Z</time>
      </trkpt>
      <trkpt lat="46.6355" lon="0.5722">
        <ele>86.8</ele>
        <time>2021-10-10T08:56:24Z</time>
      </trkpt>
      <trkpt lat="46.63541" lon="0.57223">
        <ele>87.2</ele>
        <time>2021-10-10T08:56:26Z</time>
      </trkpt>
      <trkpt lat="46.63533" lon="0.57224">
        <ele>87.2</ele>
        <time>2021-10-10T08:56:28Z</time>
      </trkpt>
      <trkpt lat="46.63529" lon="0.57226">
        <ele>87.4</ele>
        <time>2021-10-10T08:56:29Z</time>
      </trkpt>
      <trkpt lat="46.63525" lon="0.57227">
        <ele>87.4</ele>
        <time>2021-10-10T08:56:30Z</time>
      </trkpt>
      <trkpt lat="46.63521" lon="0.57228">
        <ele>87.4</ele>
        <time>2021-10-10T08:56:31Z</time>
      </trkpt>
      <trkpt lat="46.6351" lon="0.57235">
        <ele>87.8</ele>
        <time>2021-10-10T08:56:34Z</time>
      </trkpt>
      <trkpt lat="46.63503" lon="0.57241">
        <ele>88.2</ele>
        <time>2021-10-10T08:56:36Z</time>
      </trkpt>
      <trkpt lat="46.63497" lon="0.57248">
        <ele>88.2</ele>
        <time>2021-10-10T08:56:38Z</time>
      </trkpt>
      <trkpt lat="46.63479" lon="0.57271">
        <ele>88.4</ele>
        <time>2021-10-10T08:56:44Z</time>
      </trkpt>
      <trkpt lat="46.63476" lon="0.57275">
        <ele>88.4</ele>
        <time>2021-10-10T08:56:45Z</time>
      </trkpt>
      <trkpt lat="46.63467" lon="0.57282">
        <ele>88.6</ele>
        <time>2021-10-10T08:56:47Z</time>
      </trkpt>
      <trkpt lat="46.63461" lon="0.57284">
        <ele>88.8</ele>
        <time>2021-10-10T08:56:48Z</time>
      </trkpt>
      <trkpt lat="46.63455" lon="0.57284">
        <ele>88.8</ele>
        <time>2021-10-10T08:56:49Z</time>
      </trkpt>
      <trkpt lat="46.63434" lon="0.57285">
        <ele>88.8</ele>
        <time>2021-10-10T08:56:53Z</time>
      </trkpt>
      <trkpt lat="46.6341" lon="0.57277">
        <ele>89.4</ele>
        <time>2021-10-10T08:56:59Z</time>
      </trkpt>
      <trkpt lat="46.63389" lon="0.57262">
        <ele>89.6</ele>
        <time>2021-10-10T08:57:05Z</time>
      </trkpt>
      <trkpt lat="46.63376" lon="0.57257">
        <ele>89.8</ele>
        <time>2021-10-10T08:57:10Z</time>
      </trkpt>
      <trkpt lat="46.63362" lon="0.5726">
        <ele>90.6</ele>
        <time>2021-10-10T08:57:14Z</time>
      </trkpt>
      <trkpt lat="46.63355" lon="0.57262">
        <ele>91</ele>
        <time>2021-10-10T08:57:16Z</time>
      </trkpt>
      <trkpt lat="46.63335" lon="0.57266">
        <ele>91.6</ele>
        <time>2021-10-10T08:57:21Z</time>
      </trkpt>
      <trkpt lat="46.63331" lon="0.57268">
        <ele>91.8</ele>
        <time>2021-10-10T08:57:22Z</time>
      </trkpt>
      <trkpt lat="46.63323" lon="0.5727">
        <ele>93</ele>
        <time>2021-10-10T08:57:24Z</time>
      </trkpt>
      <trkpt lat="46.6331" lon="0.57274">
        <ele>94</ele>
        <time>2021-10-10T08:57:27Z</time>
      </trkpt>
      <trkpt lat="46.63307" lon="0.57276">
        <ele>94.2</ele>
        <time>2021-10-10T08:57:28Z</time>
      </trkpt>
      <trkpt lat="46.63292" lon="0.5729">
        <ele>95.4</ele>
        <time>2021-10-10T08:57:33Z</time>
      </trkpt>
      <trkpt lat="46.63283" lon="0.57298">
        <ele>96</ele>
        <time>2021-10-10T08:57:36Z</time>
      </trkpt>
      <trkpt lat="46.63274" lon="0.57306">
        <ele>96.6</ele>
        <time>2021-10-10T08:57:39Z</time>
      </trkpt>
      <trkpt lat="46.63262" lon="0.57318">
        <ele>97.6</ele>
        <time>2021-10-10T08:57:43Z</time>
      </trkpt>
      <trkpt lat="46.6326" lon="0.57322">
        <ele>97.8</ele>
        <time>2021-10-10T08:57:44Z</time>
      </trkpt>
      <trkpt lat="46.6326" lon="0.5733">
        <ele>98.2</ele>
        <time>2021-10-10T08:57:46Z</time>
      </trkpt>
      <trkpt lat="46.63264" lon="0.57341">
        <ele>98.6</ele>
        <time>2021-10-10T08:57:49Z</time>
      </trkpt>
      <trkpt lat="46.63267" lon="0.57342">
        <ele>98.8</ele>
        <time>2021-10-10T08:57:50Z</time>
      </trkpt>
      <trkpt lat="46.63283" lon="0.57351">
        <ele>99.6</ele>
        <time>2021-10-10T08:57:55Z</time>
      </trkpt>
      <trkpt lat="46.63301" lon="0.57362">
        <ele>100</ele>
        <time>2021-10-10T08:58:01Z</time>
      </trkpt>
      <trkpt lat="46.63308" lon="0.57367">
        <ele>100.2</ele>
        <time>2021-10-10T08:58:03Z</time>
      </trkpt>
      <trkpt lat="46.63326" lon="0.57378">
        <ele>100.6</ele>
        <time>2021-10-10T08:58:08Z</time>
      </trkpt>
      <trkpt lat="46.63333" lon="0.57385">
        <ele>101</ele>
        <time>2021-10-10T08:58:10Z</time>
      </trkpt>
      <trkpt lat="46.63366" lon="0.57404">
        <ele>101.6</ele>
        <time>2021-10-10T08:58:18Z</time>
      </trkpt>
      <trkpt lat="46.634" lon="0.57425">
        <ele>102</ele>
        <time>2021-10-10T08:58:26Z</time>
      </trkpt>
      <trkpt lat="46.63409" lon="0.57431">
        <ele>102</ele>
        <time>2021-10-10T08:58:28Z</time>
      </trkpt>
      <trkpt lat="46.63413" lon="0.57433">
        <ele>102</ele>
        <time>2021-10-10T08:58:29Z</time>
      </trkpt>
      <trkpt lat="46.63437" lon="0.57444">
        <ele>102.2</ele>
        <time>2021-10-10T08:58:34Z</time>
      </trkpt>
      <trkpt lat="46.63442" lon="0.57446">
        <ele>102.4</ele>
        <time>2021-10-10T08:58:35Z</time>
      </trkpt>
      <trkpt lat="46.63482" lon="0.57457">
        <ele>102</ele>
        <time>2021-10-10T08:58:43Z</time>
      </trkpt>
      <trkpt lat="46.63525" lon="0.57471">
        <ele>102</ele>
        <time>2021-10-10T08:58:52Z</time>
      </trkpt>
      <trkpt lat="46.63573" lon="0.57486">
        <ele>102</ele>
        <time>2021-10-10T08:59:02Z</time>
      </trkpt>
      <trkpt lat="46.63577" lon="0.57488">
        <ele>102</ele>
        <time>2021-10-10T08:59:03Z</time>
      </trkpt>
      <trkpt lat="46.63585" lon="0.575">
        <ele>101.8</ele>
        <time>2021-10-10T08:59:06Z</time>
      </trkpt>
      <trkpt lat="46.63589" lon="0.57532">
        <ele>101</ele>
        <time>2021-10-10T08:59:12Z</time>
      </trkpt>
      <trkpt lat="46.63591" lon="0.57582">
        <ele>99.8</ele>
        <time>2021-10-10T08:59:20Z</time>
      </trkpt>
      <trkpt lat="46.63593" lon="0.57604">
        <ele>99.4</ele>
        <time>2021-10-10T08:59:23Z</time>
      </trkpt>
      <trkpt lat="46.63594" lon="0.57627">
        <ele>98.8</ele>
        <time>2021-10-10T08:59:26Z</time>
      </trkpt>
      <trkpt lat="46.63594" lon="0.57634">
        <ele>98.8</ele>
        <time>2021-10-10T08:59:27Z</time>
      </trkpt>
      <trkpt lat="46.636" lon="0.57694">
        <ele>98.2</ele>
        <time>2021-10-10T08:59:35Z</time>
      </trkpt>
      <trkpt lat="46.63601" lon="0.57711">
        <ele>97.8</ele>
        <time>2021-10-10T08:59:37Z</time>
      </trkpt>
      <trkpt lat="46.63603" lon="0.57744">
        <ele>96.8</ele>
        <time>2021-10-10T08:59:41Z</time>
      </trkpt>
      <trkpt lat="46.63606" lon="0.57779">
        <ele>96.4</ele>
        <time>2021-10-10T08:59:45Z</time>
      </trkpt>
      <trkpt lat="46.63607" lon="0.57804">
        <ele>95.6</ele>
        <time>2021-10-10T08:59:48Z</time>
      </trkpt>
      <trkpt lat="46.6361" lon="0.57846">
        <ele>94.6</ele>
        <time>2021-10-10T08:59:53Z</time>
      </trkpt>
      <trkpt lat="46.63613" lon="0.57904">
        <ele>93.4</ele>
        <time>2021-10-10T09:00:00Z</time>
      </trkpt>
      <trkpt lat="46.63613" lon="0.57912">
        <ele>93.2</ele>
        <time>2021-10-10T09:00:01Z</time>
      </trkpt>
      <trkpt lat="46.63616" lon="0.57951">
        <ele>93</ele>
        <time>2021-10-10T09:00:06Z</time>
      </trkpt>
      <trkpt lat="46.63616" lon="0.57958">
        <ele>93</ele>
        <time>2021-10-10T09:00:07Z</time>
      </trkpt>
      <trkpt lat="46.63616" lon="0.57965">
        <ele>92.8</ele>
        <time>2021-10-10T09:00:08Z</time>
      </trkpt>
      <trkpt lat="46.63619" lon="0.57988">
        <ele>92.6</ele>
        <time>2021-10-10T09:00:11Z</time>
      </trkpt>
      <trkpt lat="46.63622" lon="0.58013">
        <ele>92.4</ele>
        <time>2021-10-10T09:00:14Z</time>
      </trkpt>
      <trkpt lat="46.63625" lon="0.58052">
        <ele>92.2</ele>
        <time>2021-10-10T09:00:19Z</time>
      </trkpt>
      <trkpt lat="46.63633" lon="0.58124">
        <ele>91.2</ele>
        <time>2021-10-10T09:00:28Z</time>
      </trkpt>
      <trkpt lat="46.63634" lon="0.58139">
        <ele>90.8</ele>
        <time>2021-10-10T09:00:30Z</time>
      </trkpt>
      <trkpt lat="46.63634" lon="0.58153">
        <ele>90.2</ele>
        <time>2021-10-10T09:00:32Z</time>
      </trkpt>
      <trkpt lat="46.63633" lon="0.5816">
        <ele>90</ele>
        <time>2021-10-10T09:00:33Z</time>
      </trkpt>
      <trkpt lat="46.6363" lon="0.58165">
        <ele>90</ele>
        <time>2021-10-10T09:00:34Z</time>
      </trkpt>
      <trkpt lat="46.63619" lon="0.58172">
        <ele>89.8</ele>
        <time>2021-10-10T09:00:36Z</time>
      </trkpt>
      <trkpt lat="46.63613" lon="0.58175">
        <ele>89.4</ele>
        <time>2021-10-10T09:00:37Z</time>
      </trkpt>
      <trkpt lat="46.63608" lon="0.58177">
        <ele>89</ele>
        <time>2021-10-10T09:00:38Z</time>
      </trkpt>
      <trkpt lat="46.63583" lon="0.58184">
        <ele>88</ele>
        <time>2021-10-10T09:00:42Z</time>
      </trkpt>
      <trkpt lat="46.63571" lon="0.58188">
        <ele>87.4</ele>
        <time>2021-10-10T09:00:44Z</time>
      </trkpt>
      <trkpt lat="46.63566" lon="0.5819">
        <ele>86.8</ele>
        <time>2021-10-10T09:00:45Z</time>
      </trkpt>
      <trkpt lat="46.6356" lon="0.582">
        <ele>85.8</ele>
        <time>2021-10-10T09:00:47Z</time>
      </trkpt>
      <trkpt lat="46.63563" lon="0.58227">
        <ele>84.6</ele>
        <time>2021-10-10T09:00:50Z</time>
      </trkpt>
      <trkpt lat="46.63566" lon="0.58236">
        <ele>83.6</ele>
        <time>2021-10-10T09:00:51Z</time>
      </trkpt>
      <trkpt lat="46.63569" lon="0.58244">
        <ele>82.6</ele>
        <time>2021-10-10T09:00:52Z</time>
      </trkpt>
      <trkpt lat="46.63573" lon="0.58251">
        <ele>82.2</ele>
        <time>2021-10-10T09:00:53Z</time>
      </trkpt>
      <trkpt lat="46.63582" lon="0.58263">
        <ele>81.2</ele>
        <time>2021-10-10T09:00:55Z</time>
      </trkpt>
      <trkpt lat="46.63584" lon="0.5827">
        <ele>80.8</ele>
        <time>2021-10-10T09:00:56Z</time>
      </trkpt>
      <trkpt lat="46.63586" lon="0.58278">
        <ele>80.4</ele>
        <time>2021-10-10T09:00:57Z</time>
      </trkpt>
      <trkpt lat="46.63588" lon="0.58288">
        <ele>79.8</ele>
        <time>2021-10-10T09:00:58Z</time>
      </trkpt>
      <trkpt lat="46.63589" lon="0.58298">
        <ele>79.4</ele>
        <time>2021-10-10T09:00:59Z</time>
      </trkpt>
      <trkpt lat="46.63592" lon="0.58323">
        <ele>77.2</ele>
        <time>2021-10-10T09:01:01Z</time>
      </trkpt>
      <trkpt lat="46.63596" lon="0.58353">
        <ele>75.8</ele>
        <time>2021-10-10T09:01:03Z</time>
      </trkpt>
      <trkpt lat="46.63598" lon="0.58368">
        <ele>74.6</ele>
        <time>2021-10-10T09:01:04Z</time>
      </trkpt>
      <trkpt lat="46.636" lon="0.58384">
        <ele>73.4</ele>
        <time>2021-10-10T09:01:05Z</time>
      </trkpt>
      <trkpt lat="46.63601" lon="0.584">
        <ele>72.2</ele>
        <time>2021-10-10T09:01:06Z</time>
      </trkpt>
      <trkpt lat="46.63603" lon="0.58416">
        <ele>71</ele>
        <time>2021-10-10T09:01:07Z</time>
      </trkpt>
      <trkpt lat="46.63606" lon="0.58448">
        <ele>69.4</ele>
        <time>2021-10-10T09:01:09Z</time>
      </trkpt>
      <trkpt lat="46.6361" lon="0.58479">
        <ele>68.2</ele>
        <time>2021-10-10T09:01:11Z</time>
      </trkpt>
      <trkpt lat="46.63611" lon="0.58494">
        <ele>67</ele>
        <time>2021-10-10T09:01:12Z</time>
      </trkpt>
      <trkpt lat="46.63613" lon="0.58508">
        <ele>65.2</ele>
        <time>2021-10-10T09:01:13Z</time>
      </trkpt>
      <trkpt lat="46.63614" lon="0.5853">
        <ele>63.4</ele>
        <time>2021-10-10T09:01:15Z</time>
      </trkpt>
      <trkpt lat="46.63613" lon="0.58538">
        <ele>63</ele>
        <time>2021-10-10T09:01:16Z</time>
      </trkpt>
      <trkpt lat="46.63609" lon="0.58544">
        <ele>62.4</ele>
        <time>2021-10-10T09:01:17Z</time>
      </trkpt>
      <trkpt lat="46.636" lon="0.58551">
        <ele>61</ele>
        <time>2021-10-10T09:01:19Z</time>
      </trkpt>
      <trkpt lat="46.63587" lon="0.58554">
        <ele>60.8</ele>
        <time>2021-10-10T09:01:21Z</time>
      </trkpt>
      <trkpt lat="46.6358" lon="0.58556">
        <ele>60.6</ele>
        <time>2021-10-10T09:01:22Z</time>
      </trkpt>
      <trkpt lat="46.63528" lon="0.58574">
        <ele>61</ele>
        <time>2021-10-10T09:01:30Z</time>
      </trkpt>
      <trkpt lat="46.63484" lon="0.58585">
        <ele>61.2</ele>
        <time>2021-10-10T09:01:37Z</time>
      </trkpt>
      <trkpt lat="46.63443" lon="0.58604">
        <ele>61.4</ele>
        <time>2021-10-10T09:01:44Z</time>
      </trkpt>
      <trkpt lat="46.6341" lon="0.58621">
        <ele>60.2</ele>
        <time>2021-10-10T09:01:50Z</time>
      </trkpt>
      <trkpt lat="46.63398" lon="0.58627">
        <ele>60</ele>
        <time>2021-10-10T09:01:52Z</time>
      </trkpt>
      <trkpt lat="46.63375" lon="0.58638">
        <ele>59.8</ele>
        <time>2021-10-10T09:01:56Z</time>
      </trkpt>
      <trkpt lat="46.6334" lon="0.58654">
        <ele>60</ele>
        <time>2021-10-10T09:02:02Z</time>
      </trkpt>
      <trkpt lat="46.63299" lon="0.58668">
        <ele>60.2</ele>
        <time>2021-10-10T09:02:09Z</time>
      </trkpt>
      <trkpt lat="46.63267" lon="0.58678">
        <ele>59.8</ele>
        <time>2021-10-10T09:02:14Z</time>
      </trkpt>
      <trkpt lat="46.63239" lon="0.58698">
        <ele>60</ele>
        <time>2021-10-10T09:02:19Z</time>
      </trkpt>
      <trkpt lat="46.63222" lon="0.58708">
        <ele>60.6</ele>
        <time>2021-10-10T09:02:22Z</time>
      </trkpt>
      <trkpt lat="46.6321" lon="0.5871">
        <ele>60.8</ele>
        <time>2021-10-10T09:02:24Z</time>
      </trkpt>
      <trkpt lat="46.63205" lon="0.58711">
        <ele>60.8</ele>
        <time>2021-10-10T09:02:25Z</time>
      </trkpt>
      <trkpt lat="46.63196" lon="0.58719">
        <ele>60.8</ele>
        <time>2021-10-10T09:02:27Z</time>
      </trkpt>
      <trkpt lat="46.63191" lon="0.58723">
        <ele>60.8</ele>
        <time>2021-10-10T09:02:28Z</time>
      </trkpt>
      <trkpt lat="46.63181" lon="0.58728">
        <ele>60.4</ele>
        <time>2021-10-10T09:02:30Z</time>
      </trkpt>
      <trkpt lat="46.63163" lon="0.5873">
        <ele>60</ele>
        <time>2021-10-10T09:02:33Z</time>
      </trkpt>
      <trkpt lat="46.63154" lon="0.58737">
        <ele>59.8</ele>
        <time>2021-10-10T09:02:35Z</time>
      </trkpt>
      <trkpt lat="46.63154" lon="0.58753">
        <ele>58.8</ele>
        <time>2021-10-10T09:02:37Z</time>
      </trkpt>
      <trkpt lat="46.63157" lon="0.58775">
        <ele>57.4</ele>
        <time>2021-10-10T09:02:39Z</time>
      </trkpt>
      <trkpt lat="46.6316" lon="0.58788">
        <ele>56.6</ele>
        <time>2021-10-10T09:02:40Z</time>
      </trkpt>
      <trkpt lat="46.63163" lon="0.588">
        <ele>56</ele>
        <time>2021-10-10T09:02:41Z</time>
      </trkpt>
      <trkpt lat="46.63172" lon="0.58836">
        <ele>54.2</ele>
        <time>2021-10-10T09:02:44Z</time>
      </trkpt>
      <trkpt lat="46.63177" lon="0.58859">
        <ele>52.6</ele>
        <time>2021-10-10T09:02:46Z</time>
      </trkpt>
      <trkpt lat="46.63179" lon="0.58869">
        <ele>52.2</ele>
        <time>2021-10-10T09:02:47Z</time>
      </trkpt>
      <trkpt lat="46.63177" lon="0.58885">
        <ele>51.2</ele>
        <time>2021-10-10T09:02:49Z</time>
      </trkpt>
      <trkpt lat="46.63173" lon="0.5889">
        <ele>50.6</ele>
        <time>2021-10-10T09:02:50Z</time>
      </trkpt>
      <trkpt lat="46.63169" lon="0.58894">
        <ele>50.2</ele>
        <time>2021-10-10T09:02:51Z</time>
      </trkpt>
      <trkpt lat="46.63149" lon="0.58917">
        <ele>49.6</ele>
        <time>2021-10-10T09:02:55Z</time>
      </trkpt>
      <trkpt lat="46.63113" lon="0.58956">
        <ele>50.2</ele>
        <time>2021-10-10T09:03:02Z</time>
      </trkpt>
      <trkpt lat="46.63068" lon="0.58995">
        <ele>50.2</ele>
        <time>2021-10-10T09:03:10Z</time>
      </trkpt>
      <trkpt lat="46.63056" lon="0.59003">
        <ele>50</ele>
        <time>2021-10-10T09:03:12Z</time>
      </trkpt>
      <trkpt lat="46.63043" lon="0.59007">
        <ele>49.8</ele>
        <time>2021-10-10T09:03:14Z</time>
      </trkpt>
      <trkpt lat="46.63018" lon="0.59012">
        <ele>49.8</ele>
        <time>2021-10-10T09:03:18Z</time>
      </trkpt>
      <trkpt lat="46.63007" lon="0.59016">
        <ele>49.8</ele>
        <time>2021-10-10T09:03:20Z</time>
      </trkpt>
      <trkpt lat="46.62997" lon="0.5902">
        <ele>49.8</ele>
        <time>2021-10-10T09:03:22Z</time>
      </trkpt>
      <trkpt lat="46.62987" lon="0.59021">
        <ele>49.8</ele>
        <time>2021-10-10T09:03:24Z</time>
      </trkpt>
      <trkpt lat="46.62981" lon="0.59021">
        <ele>49.8</ele>
        <time>2021-10-10T09:03:25Z</time>
      </trkpt>
      <trkpt lat="46.62945" lon="0.5902">
        <ele>49.6</ele>
        <time>2021-10-10T09:03:31Z</time>
      </trkpt>
      <trkpt lat="46.62926" lon="0.59019">
        <ele>49.8</ele>
        <time>2021-10-10T09:03:34Z</time>
      </trkpt>
      <trkpt lat="46.62912" lon="0.59018">
        <ele>50.4</ele>
        <time>2021-10-10T09:03:36Z</time>
      </trkpt>
      <trkpt lat="46.62892" lon="0.59016">
        <ele>51.4</ele>
        <time>2021-10-10T09:03:39Z</time>
      </trkpt>
      <trkpt lat="46.62865" lon="0.59014">
        <ele>51.6</ele>
        <time>2021-10-10T09:03:43Z</time>
      </trkpt>
      <trkpt lat="46.62828" lon="0.59013">
        <ele>51.2</ele>
        <time>2021-10-10T09:03:49Z</time>
      </trkpt>
      <trkpt lat="46.62818" lon="0.59006">
        <ele>51.2</ele>
        <time>2021-10-10T09:03:51Z</time>
      </trkpt>
      <trkpt lat="46.62808" lon="0.58975">
        <ele>51.2</ele>
        <time>2021-10-10T09:03:55Z</time>
      </trkpt>
      <trkpt lat="46.62786" lon="0.58897">
        <ele>52.2</ele>
        <time>2021-10-10T09:04:05Z</time>
      </trkpt>
      <trkpt lat="46.62782" lon="0.58884">
        <ele>52.6</ele>
        <time>2021-10-10T09:04:07Z</time>
      </trkpt>
      <trkpt lat="46.62776" lon="0.58861">
        <ele>53.8</ele>
        <time>2021-10-10T09:04:11Z</time>
      </trkpt>
      <trkpt lat="46.62774" lon="0.58856">
        <ele>54</ele>
        <time>2021-10-10T09:04:12Z</time>
      </trkpt>
      <trkpt lat="46.62772" lon="0.58849">
        <ele>55</ele>
        <time>2021-10-10T09:04:14Z</time>
      </trkpt>
      <trkpt lat="46.62765" lon="0.58836">
        <ele>56</ele>
        <time>2021-10-10T09:04:19Z</time>
      </trkpt>
      <trkpt lat="46.62762" lon="0.58831">
        <ele>57.2</ele>
        <time>2021-10-10T09:04:21Z</time>
      </trkpt>
      <trkpt lat="46.62754" lon="0.58816">
        <ele>58</ele>
        <time>2021-10-10T09:04:27Z</time>
      </trkpt>
      <trkpt lat="46.62753" lon="0.58813">
        <ele>58.6</ele>
        <time>2021-10-10T09:04:28Z</time>
      </trkpt>
      <trkpt lat="46.62749" lon="0.58805">
        <ele>59.8</ele>
        <time>2021-10-10T09:04:31Z</time>
      </trkpt>
      <trkpt lat="46.62743" lon="0.58794">
        <ele>61</ele>
        <time>2021-10-10T09:04:35Z</time>
      </trkpt>
      <trkpt lat="46.62741" lon="0.58791">
        <ele>61.2</ele>
        <time>2021-10-10T09:04:36Z</time>
      </trkpt>
      <trkpt lat="46.62735" lon="0.58779">
        <ele>62</ele>
        <time>2021-10-10T09:04:40Z</time>
      </trkpt>
      <trkpt lat="46.62728" lon="0.58773">
        <ele>62.6</ele>
        <time>2021-10-10T09:04:43Z</time>
      </trkpt>
      <trkpt lat="46.62726" lon="0.58773">
        <ele>62.8</ele>
        <time>2021-10-10T09:04:44Z</time>
      </trkpt>
      <trkpt lat="46.62726" lon="0.58773">
        <ele>63</ele>
        <time>2021-10-10T09:04:47Z</time>
      </trkpt>
      <trkpt lat="46.62702" lon="0.58782">
        <ele>63.4</ele>
        <time>2021-10-10T09:04:51Z</time>
      </trkpt>
      <trkpt lat="46.6267" lon="0.58796">
        <ele>63.6</ele>
        <time>2021-10-10T09:04:59Z</time>
      </trkpt>
      <trkpt lat="46.62666" lon="0.58797">
        <ele>63.6</ele>
        <time>2021-10-10T09:05:00Z</time>
      </trkpt>
      <trkpt lat="46.62645" lon="0.58808">
        <ele>64</ele>
        <time>2021-10-10T09:05:05Z</time>
      </trkpt>
      <trkpt lat="46.62641" lon="0.5881">
        <ele>64.2</ele>
        <time>2021-10-10T09:05:06Z</time>
      </trkpt>
      <trkpt lat="46.62613" lon="0.58825">
        <ele>64.6</ele>
        <time>2021-10-10T09:05:12Z</time>
      </trkpt>
      <trkpt lat="46.62597" lon="0.58834">
        <ele>64.4</ele>
        <time>2021-10-10T09:05:15Z</time>
      </trkpt>
      <trkpt lat="46.62577" lon="0.58851">
        <ele>64.4</ele>
        <time>2021-10-10T09:05:19Z</time>
      </trkpt>
      <trkpt lat="46.62543" lon="0.58876">
        <ele>64.8</ele>
        <time>2021-10-10T09:05:26Z</time>
      </trkpt>
      <trkpt lat="46.62529" lon="0.58883">
        <ele>65.4</ele>
        <time>2021-10-10T09:05:29Z</time>
      </trkpt>
      <trkpt lat="46.62511" lon="0.58891">
        <ele>66.6</ele>
        <time>2021-10-10T09:05:33Z</time>
      </trkpt>
      <trkpt lat="46.62502" lon="0.58894">
        <ele>67</ele>
        <time>2021-10-10T09:05:35Z</time>
      </trkpt>
      <trkpt lat="46.62494" lon="0.58897">
        <ele>67.2</ele>
        <time>2021-10-10T09:05:37Z</time>
      </trkpt>
      <trkpt lat="46.62486" lon="0.589">
        <ele>67.2</ele>
        <time>2021-10-10T09:05:39Z</time>
      </trkpt>
      <trkpt lat="46.62483" lon="0.58902">
        <ele>67.2</ele>
        <time>2021-10-10T09:05:40Z</time>
      </trkpt>
      <trkpt lat="46.62481" lon="0.58907">
        <ele>67</ele>
        <time>2021-10-10T09:05:41Z</time>
      </trkpt>
      <trkpt lat="46.62481" lon="0.58919">
        <ele>66.6</ele>
        <time>2021-10-10T09:05:43Z</time>
      </trkpt>
      <trkpt lat="46.62479" lon="0.58924">
        <ele>66.4</ele>
        <time>2021-10-10T09:05:44Z</time>
      </trkpt>
      <trkpt lat="46.62475" lon="0.58928">
        <ele>66.4</ele>
        <time>2021-10-10T09:05:45Z</time>
      </trkpt>
      <trkpt lat="46.6247" lon="0.58931">
        <ele>66.2</ele>
        <time>2021-10-10T09:05:46Z</time>
      </trkpt>
      <trkpt lat="46.62461" lon="0.58936">
        <ele>65.8</ele>
        <time>2021-10-10T09:05:48Z</time>
      </trkpt>
      <trkpt lat="46.62457" lon="0.5894">
        <ele>65.6</ele>
        <time>2021-10-10T09:05:49Z</time>
      </trkpt>
      <trkpt lat="46.62449" lon="0.58948">
        <ele>65.6</ele>
        <time>2021-10-10T09:05:51Z</time>
      </trkpt>
      <trkpt lat="46.62438" lon="0.58949">
        <ele>65.6</ele>
        <time>2021-10-10T09:05:53Z</time>
      </trkpt>
      <trkpt lat="46.62433" lon="0.58949">
        <ele>65.6</ele>
        <time>2021-10-10T09:05:54Z</time>
      </trkpt>
      <trkpt lat="46.62424" lon="0.58949">
        <ele>65.6</ele>
        <time>2021-10-10T09:05:56Z</time>
      </trkpt>
      <trkpt lat="46.6242" lon="0.58952">
        <ele>65.8</ele>
        <time>2021-10-10T09:05:57Z</time>
      </trkpt>
      <trkpt lat="46.62417" lon="0.58956">
        <ele>65.8</ele>
        <time>2021-10-10T09:05:58Z</time>
      </trkpt>
      <trkpt lat="46.62405" lon="0.5897">
        <ele>66.2</ele>
        <time>2021-10-10T09:06:01Z</time>
      </trkpt>
      <trkpt lat="46.62399" lon="0.58974">
        <ele>66.2</ele>
        <time>2021-10-10T09:06:02Z</time>
      </trkpt>
      <trkpt lat="46.62379" lon="0.58982">
        <ele>66</ele>
        <time>2021-10-10T09:06:05Z</time>
      </trkpt>
      <trkpt lat="46.6236" lon="0.58988">
        <ele>65.6</ele>
        <time>2021-10-10T09:06:08Z</time>
      </trkpt>
      <trkpt lat="46.62354" lon="0.5899">
        <ele>65.4</ele>
        <time>2021-10-10T09:06:09Z</time>
      </trkpt>
      <trkpt lat="46.62342" lon="0.58996">
        <ele>65.2</ele>
        <time>2021-10-10T09:06:11Z</time>
      </trkpt>
      <trkpt lat="46.62311" lon="0.59009">
        <ele>65.4</ele>
        <time>2021-10-10T09:06:17Z</time>
      </trkpt>
      <trkpt lat="46.62278" lon="0.59015">
        <ele>66.4</ele>
        <time>2021-10-10T09:06:24Z</time>
      </trkpt>
      <trkpt lat="46.62251" lon="0.59019">
        <ele>67.6</ele>
        <time>2021-10-10T09:06:30Z</time>
      </trkpt>
      <trkpt lat="46.62246" lon="0.5902">
        <ele>67.6</ele>
        <time>2021-10-10T09:06:31Z</time>
      </trkpt>
      <trkpt lat="46.62205" lon="0.59015">
        <ele>68.4</ele>
        <time>2021-10-10T09:06:39Z</time>
      </trkpt>
      <trkpt lat="46.62184" lon="0.59012">
        <ele>68.6</ele>
        <time>2021-10-10T09:06:43Z</time>
      </trkpt>
      <trkpt lat="46.62167" lon="0.5901">
        <ele>68.8</ele>
        <time>2021-10-10T09:06:46Z</time>
      </trkpt>
      <trkpt lat="46.62128" lon="0.59001">
        <ele>69.2</ele>
        <time>2021-10-10T09:06:53Z</time>
      </trkpt>
      <trkpt lat="46.62092" lon="0.58994">
        <ele>69.4</ele>
        <time>2021-10-10T09:07:00Z</time>
      </trkpt>
      <trkpt lat="46.62067" lon="0.58997">
        <ele>69.2</ele>
        <time>2021-10-10T09:07:05Z</time>
      </trkpt>
      <trkpt lat="46.62028" lon="0.59003">
        <ele>69</ele>
        <time>2021-10-10T09:07:12Z</time>
      </trkpt>
      <trkpt lat="46.61982" lon="0.59014">
        <ele>68</ele>
        <time>2021-10-10T09:07:20Z</time>
      </trkpt>
      <trkpt lat="46.61952" lon="0.59014">
        <ele>67.6</ele>
        <time>2021-10-10T09:07:25Z</time>
      </trkpt>
      <trkpt lat="46.61946" lon="0.59014">
        <ele>67.4</ele>
        <time>2021-10-10T09:07:26Z</time>
      </trkpt>
      <trkpt lat="46.61911" lon="0.59015">
        <ele>67</ele>
        <time>2021-10-10T09:07:32Z</time>
      </trkpt>
      <trkpt lat="46.61905" lon="0.59015">
        <ele>67</ele>
        <time>2021-10-10T09:07:33Z</time>
      </trkpt>
      <trkpt lat="46.61879" lon="0.59013">
        <ele>66.6</ele>
        <time>2021-10-10T09:07:37Z</time>
      </trkpt>
      <trkpt lat="46.61866" lon="0.59013">
        <ele>66.4</ele>
        <time>2021-10-10T09:07:39Z</time>
      </trkpt>
      <trkpt lat="46.61837" lon="0.59006">
        <ele>65.2</ele>
        <time>2021-10-10T09:07:43Z</time>
      </trkpt>
      <trkpt lat="46.6183" lon="0.59005">
        <ele>64.8</ele>
        <time>2021-10-10T09:07:44Z</time>
      </trkpt>
      <trkpt lat="46.61822" lon="0.59004">
        <ele>64.2</ele>
        <time>2021-10-10T09:07:45Z</time>
      </trkpt>
      <trkpt lat="46.61813" lon="0.59004">
        <ele>63.4</ele>
        <time>2021-10-10T09:07:46Z</time>
      </trkpt>
      <trkpt lat="46.61804" lon="0.59004">
        <ele>62.6</ele>
        <time>2021-10-10T09:07:47Z</time>
      </trkpt>
      <trkpt lat="46.61796" lon="0.59003">
        <ele>62.2</ele>
        <time>2021-10-10T09:07:48Z</time>
      </trkpt>
      <trkpt lat="46.61789" lon="0.59">
        <ele>61.8</ele>
        <time>2021-10-10T09:07:49Z</time>
      </trkpt>
      <trkpt lat="46.61783" lon="0.58996">
        <ele>61.4</ele>
        <time>2021-10-10T09:07:50Z</time>
      </trkpt>
      <trkpt lat="46.61777" lon="0.58991">
        <ele>61</ele>
        <time>2021-10-10T09:07:51Z</time>
      </trkpt>
      <trkpt lat="46.61766" lon="0.58981">
        <ele>61</ele>
        <time>2021-10-10T09:07:53Z</time>
      </trkpt>
      <trkpt lat="46.61746" lon="0.58964">
        <ele>61.2</ele>
        <time>2021-10-10T09:07:57Z</time>
      </trkpt>
      <trkpt lat="46.61726" lon="0.58943">
        <ele>62.4</ele>
        <time>2021-10-10T09:08:01Z</time>
      </trkpt>
      <trkpt lat="46.61723" lon="0.58938">
        <ele>62.8</ele>
        <time>2021-10-10T09:08:02Z</time>
      </trkpt>
      <trkpt lat="46.61721" lon="0.58933">
        <ele>63.2</ele>
        <time>2021-10-10T09:08:03Z</time>
      </trkpt>
      <trkpt lat="46.61721" lon="0.58927">
        <ele>63.6</ele>
        <time>2021-10-10T09:08:04Z</time>
      </trkpt>
      <trkpt lat="46.61721" lon="0.58922">
        <ele>63.8</ele>
        <time>2021-10-10T09:08:05Z</time>
      </trkpt>
      <trkpt lat="46.61721" lon="0.58916">
        <ele>64</ele>
        <time>2021-10-10T09:08:06Z</time>
      </trkpt>
      <trkpt lat="46.61725" lon="0.589">
        <ele>64.6</ele>
        <time>2021-10-10T09:08:09Z</time>
      </trkpt>
      <trkpt lat="46.61726" lon="0.58876">
        <ele>65.6</ele>
        <time>2021-10-10T09:08:13Z</time>
      </trkpt>
      <trkpt lat="46.61726" lon="0.58871">
        <ele>66</ele>
        <time>2021-10-10T09:08:14Z</time>
      </trkpt>
      <trkpt lat="46.61728" lon="0.58847">
        <ele>67</ele>
        <time>2021-10-10T09:08:19Z</time>
      </trkpt>
      <trkpt lat="46.61727" lon="0.58838">
        <ele>67</ele>
        <time>2021-10-10T09:08:21Z</time>
      </trkpt>
      <trkpt lat="46.61728" lon="0.58818">
        <ele>67.6</ele>
        <time>2021-10-10T09:08:25Z</time>
      </trkpt>
      <trkpt lat="46.6173" lon="0.58788">
        <ele>68</ele>
        <time>2021-10-10T09:08:30Z</time>
      </trkpt>
      <trkpt lat="46.6173" lon="0.58782">
        <ele>68.2</ele>
        <time>2021-10-10T09:08:31Z</time>
      </trkpt>
      <trkpt lat="46.61734" lon="0.5875">
        <ele>69.2</ele>
        <time>2021-10-10T09:08:37Z</time>
      </trkpt>
      <trkpt lat="46.61735" lon="0.58744">
        <ele>69.2</ele>
        <time>2021-10-10T09:08:38Z</time>
      </trkpt>
      <trkpt lat="46.61742" lon="0.5872">
        <ele>69.6</ele>
        <time>2021-10-10T09:08:43Z</time>
      </trkpt>
      <trkpt lat="46.61745" lon="0.58711">
        <ele>69.6</ele>
        <time>2021-10-10T09:08:45Z</time>
      </trkpt>
      <trkpt lat="46.61749" lon="0.58701">
        <ele>70</ele>
        <time>2021-10-10T09:08:47Z</time>
      </trkpt>
      <trkpt lat="46.61752" lon="0.58696">
        <ele>70.2</ele>
        <time>2021-10-10T09:08:48Z</time>
      </trkpt>
      <trkpt lat="46.61754" lon="0.58691">
        <ele>70.6</ele>
        <time>2021-10-10T09:08:49Z</time>
      </trkpt>
      <trkpt lat="46.61759" lon="0.58677">
        <ele>71.2</ele>
        <time>2021-10-10T09:08:52Z</time>
      </trkpt>
      <trkpt lat="46.61762" lon="0.58667">
        <ele>71</ele>
        <time>2021-10-10T09:08:54Z</time>
      </trkpt>
      <trkpt lat="46.61764" lon="0.58652">
        <ele>70.8</ele>
        <time>2021-10-10T09:08:56Z</time>
      </trkpt>
      <trkpt lat="46.61762" lon="0.58645">
        <ele>69.8</ele>
        <time>2021-10-10T09:08:58Z</time>
      </trkpt>
      <trkpt lat="46.61761" lon="0.58643">
        <ele>69.6</ele>
        <time>2021-10-10T09:08:59Z</time>
      </trkpt>
      <trkpt lat="46.61749" lon="0.58664">
        <ele>69.2</ele>
        <time>2021-10-10T09:09:05Z</time>
      </trkpt>
      <trkpt lat="46.61745" lon="0.58669">
        <ele>69.2</ele>
        <time>2021-10-10T09:09:06Z</time>
      </trkpt>
      <trkpt lat="46.61741" lon="0.58673">
        <ele>69</ele>
        <time>2021-10-10T09:09:07Z</time>
      </trkpt>
      <trkpt lat="46.61737" lon="0.58677">
        <ele>69</ele>
        <time>2021-10-10T09:09:08Z</time>
      </trkpt>
      <trkpt lat="46.61728" lon="0.58687">
        <ele>69</ele>
        <time>2021-10-10T09:09:10Z</time>
      </trkpt>
      <trkpt lat="46.617" lon="0.58712">
        <ele>69.6</ele>
        <time>2021-10-10T09:09:17Z</time>
      </trkpt>
      <trkpt lat="46.61697" lon="0.58716">
        <ele>69.8</ele>
        <time>2021-10-10T09:09:18Z</time>
      </trkpt>
      <trkpt lat="46.6169" lon="0.58721">
        <ele>70.6</ele>
        <time>2021-10-10T09:09:20Z</time>
      </trkpt>
      <trkpt lat="46.61687" lon="0.58728">
        <ele>71.6</ele>
        <time>2021-10-10T09:09:22Z</time>
      </trkpt>
      <trkpt lat="46.61677" lon="0.58731">
        <ele>72.8</ele>
        <time>2021-10-10T09:09:26Z</time>
      </trkpt>
      <trkpt lat="46.61676" lon="0.58734">
        <ele>73.2</ele>
        <time>2021-10-10T09:09:27Z</time>
      </trkpt>
      <trkpt lat="46.6167" lon="0.58738">
        <ele>74</ele>
        <time>2021-10-10T09:09:30Z</time>
      </trkpt>
      <trkpt lat="46.61664" lon="0.58739">
        <ele>75.2</ele>
        <time>2021-10-10T09:09:33Z</time>
      </trkpt>
      <trkpt lat="46.61661" lon="0.58739">
        <ele>75.4</ele>
        <time>2021-10-10T09:09:35Z</time>
      </trkpt>
      <trkpt lat="46.61655" lon="0.58737">
        <ele>76.2</ele>
        <time>2021-10-10T09:09:38Z</time>
      </trkpt>
      <trkpt lat="46.6165" lon="0.58735">
        <ele>76.6</ele>
        <time>2021-10-10T09:09:41Z</time>
      </trkpt>
      <trkpt lat="46.61643" lon="0.58734">
        <ele>77.4</ele>
        <time>2021-10-10T09:09:44Z</time>
      </trkpt>
      <trkpt lat="46.61634" lon="0.58731">
        <ele>78.4</ele>
        <time>2021-10-10T09:09:48Z</time>
      </trkpt>
      <trkpt lat="46.61631" lon="0.5873">
        <ele>78.6</ele>
        <time>2021-10-10T09:09:49Z</time>
      </trkpt>
      <trkpt lat="46.61616" lon="0.58727">
        <ele>79.4</ele>
        <time>2021-10-10T09:09:55Z</time>
      </trkpt>
      <trkpt lat="46.61614" lon="0.58726">
        <ele>79.6</ele>
        <time>2021-10-10T09:09:56Z</time>
      </trkpt>
      <trkpt lat="46.61595" lon="0.58721">
        <ele>80.8</ele>
        <time>2021-10-10T09:10:03Z</time>
      </trkpt>
      <trkpt lat="46.61578" lon="0.58716">
        <ele>81.8</ele>
        <time>2021-10-10T09:10:10Z</time>
      </trkpt>
      <trkpt lat="46.61557" lon="0.58704">
        <ele>82.4</ele>
        <time>2021-10-10T09:10:17Z</time>
      </trkpt>
      <trkpt lat="46.61548" lon="0.58696">
        <ele>83</ele>
        <time>2021-10-10T09:10:20Z</time>
      </trkpt>
      <trkpt lat="46.61534" lon="0.58686">
        <ele>83.4</ele>
        <time>2021-10-10T09:10:24Z</time>
      </trkpt>
      <trkpt lat="46.61514" lon="0.5867">
        <ele>84</ele>
        <time>2021-10-10T09:10:31Z</time>
      </trkpt>
      <trkpt lat="46.61511" lon="0.58667">
        <ele>84.2</ele>
        <time>2021-10-10T09:10:32Z</time>
      </trkpt>
      <trkpt lat="46.61495" lon="0.58658">
        <ele>85.2</ele>
        <time>2021-10-10T09:10:37Z</time>
      </trkpt>
      <trkpt lat="46.6149" lon="0.58655">
        <ele>85.6</ele>
        <time>2021-10-10T09:10:39Z</time>
      </trkpt>
      <trkpt lat="46.61478" lon="0.58648">
        <ele>86.4</ele>
        <time>2021-10-10T09:10:43Z</time>
      </trkpt>
      <trkpt lat="46.61472" lon="0.58644">
        <ele>86.8</ele>
        <time>2021-10-10T09:10:45Z</time>
      </trkpt>
      <trkpt lat="46.61454" lon="0.58638">
        <ele>87.4</ele>
        <time>2021-10-10T09:10:51Z</time>
      </trkpt>
      <trkpt lat="46.61451" lon="0.58638">
        <ele>87.6</ele>
        <time>2021-10-10T09:10:52Z</time>
      </trkpt>
      <trkpt lat="46.61437" lon="0.58632">
        <ele>88.6</ele>
        <time>2021-10-10T09:10:57Z</time>
      </trkpt>
      <trkpt lat="46.6143" lon="0.58628">
        <ele>89.2</ele>
        <time>2021-10-10T09:11:00Z</time>
      </trkpt>
      <trkpt lat="46.61425" lon="0.58626">
        <ele>89.6</ele>
        <time>2021-10-10T09:11:02Z</time>
      </trkpt>
      <trkpt lat="46.61414" lon="0.58618">
        <ele>90.6</ele>
        <time>2021-10-10T09:11:07Z</time>
      </trkpt>
      <trkpt lat="46.61397" lon="0.58615">
        <ele>91.6</ele>
        <time>2021-10-10T09:11:13Z</time>
      </trkpt>
      <trkpt lat="46.61394" lon="0.58615">
        <ele>91.8</ele>
        <time>2021-10-10T09:11:14Z</time>
      </trkpt>
      <trkpt lat="46.61377" lon="0.58616">
        <ele>93.2</ele>
        <time>2021-10-10T09:11:20Z</time>
      </trkpt>
      <trkpt lat="46.61366" lon="0.58616">
        <ele>94</ele>
        <time>2021-10-10T09:11:24Z</time>
      </trkpt>
      <trkpt lat="46.61363" lon="0.58616">
        <ele>94.2</ele>
        <time>2021-10-10T09:11:25Z</time>
      </trkpt>
      <trkpt lat="46.61348" lon="0.58616">
        <ele>95.4</ele>
        <time>2021-10-10T09:11:30Z</time>
      </trkpt>
      <trkpt lat="46.61338" lon="0.58616">
        <ele>95.8</ele>
        <time>2021-10-10T09:11:33Z</time>
      </trkpt>
      <trkpt lat="46.61325" lon="0.58616">
        <ele>96.6</ele>
        <time>2021-10-10T09:11:37Z</time>
      </trkpt>
      <trkpt lat="46.61313" lon="0.58616">
        <ele>97.4</ele>
        <time>2021-10-10T09:11:41Z</time>
      </trkpt>
      <trkpt lat="46.6131" lon="0.58616">
        <ele>97.8</ele>
        <time>2021-10-10T09:11:42Z</time>
      </trkpt>
      <trkpt lat="46.61287" lon="0.58616">
        <ele>98.6</ele>
        <time>2021-10-10T09:11:49Z</time>
      </trkpt>
      <trkpt lat="46.61284" lon="0.58616">
        <ele>98.8</ele>
        <time>2021-10-10T09:11:50Z</time>
      </trkpt>
      <trkpt lat="46.61262" lon="0.58615">
        <ele>100</ele>
        <time>2021-10-10T09:11:56Z</time>
      </trkpt>
      <trkpt lat="46.61258" lon="0.58614">
        <ele>100</ele>
        <time>2021-10-10T09:11:57Z</time>
      </trkpt>
      <trkpt lat="46.61229" lon="0.58613">
        <ele>100.4</ele>
        <time>2021-10-10T09:12:04Z</time>
      </trkpt>
      <trkpt lat="46.61205" lon="0.5861">
        <ele>100.2</ele>
        <time>2021-10-10T09:12:09Z</time>
      </trkpt>
      <trkpt lat="46.61196" lon="0.58604">
        <ele>100.2</ele>
        <time>2021-10-10T09:12:11Z</time>
      </trkpt>
      <trkpt lat="46.61191" lon="0.58591">
        <ele>100.2</ele>
        <time>2021-10-10T09:12:13Z</time>
      </trkpt>
      <trkpt lat="46.6119" lon="0.58584">
        <ele>100.4</ele>
        <time>2021-10-10T09:12:14Z</time>
      </trkpt>
      <trkpt lat="46.6119" lon="0.58571">
        <ele>100.8</ele>
        <time>2021-10-10T09:12:16Z</time>
      </trkpt>
      <trkpt lat="46.61192" lon="0.58551">
        <ele>101</ele>
        <time>2021-10-10T09:12:19Z</time>
      </trkpt>
      <trkpt lat="46.61193" lon="0.58544">
        <ele>101</ele>
        <time>2021-10-10T09:12:20Z</time>
      </trkpt>
      <trkpt lat="46.61195" lon="0.58517">
        <ele>101.8</ele>
        <time>2021-10-10T09:12:24Z</time>
      </trkpt>
      <trkpt lat="46.61196" lon="0.58511">
        <ele>102</ele>
        <time>2021-10-10T09:12:25Z</time>
      </trkpt>
      <trkpt lat="46.61197" lon="0.58504">
        <ele>102.2</ele>
        <time>2021-10-10T09:12:26Z</time>
      </trkpt>
      <trkpt lat="46.61198" lon="0.58491">
        <ele>102.2</ele>
        <time>2021-10-10T09:12:28Z</time>
      </trkpt>
      <trkpt lat="46.61201" lon="0.58432">
        <ele>102.6</ele>
        <time>2021-10-10T09:12:37Z</time>
      </trkpt>
      <trkpt lat="46.61203" lon="0.58413">
        <ele>103</ele>
        <time>2021-10-10T09:12:40Z</time>
      </trkpt>
      <trkpt lat="46.61207" lon="0.58357">
        <ele>103.8</ele>
        <time>2021-10-10T09:12:48Z</time>
      </trkpt>
      <trkpt lat="46.61207" lon="0.5835">
        <ele>104.2</ele>
        <time>2021-10-10T09:12:49Z</time>
      </trkpt>
      <trkpt lat="46.61211" lon="0.58294">
        <ele>104.2</ele>
        <time>2021-10-10T09:12:57Z</time>
      </trkpt>
      <trkpt lat="46.61214" lon="0.58238">
        <ele>104</ele>
        <time>2021-10-10T09:13:05Z</time>
      </trkpt>
      <trkpt lat="46.61218" lon="0.58183">
        <ele>103.8</ele>
        <time>2021-10-10T09:13:12Z</time>
      </trkpt>
      <trkpt lat="46.61219" lon="0.58157">
        <ele>103.2</ele>
        <time>2021-10-10T09:13:15Z</time>
      </trkpt>
      <trkpt lat="46.61217" lon="0.5815">
        <ele>102.6</ele>
        <time>2021-10-10T09:13:16Z</time>
      </trkpt>
      <trkpt lat="46.61213" lon="0.58145">
        <ele>102.2</ele>
        <time>2021-10-10T09:13:17Z</time>
      </trkpt>
      <trkpt lat="46.61208" lon="0.58142">
        <ele>102</ele>
        <time>2021-10-10T09:13:18Z</time>
      </trkpt>
      <trkpt lat="46.61203" lon="0.58142">
        <ele>102</ele>
        <time>2021-10-10T09:13:19Z</time>
      </trkpt>
      <trkpt lat="46.61171" lon="0.58138">
        <ele>102</ele>
        <time>2021-10-10T09:13:25Z</time>
      </trkpt>
      <trkpt lat="46.61114" lon="0.58129">
        <ele>102.6</ele>
        <time>2021-10-10T09:13:36Z</time>
      </trkpt>
      <trkpt lat="46.61093" lon="0.58126">
        <ele>103</ele>
        <time>2021-10-10T09:13:40Z</time>
      </trkpt>
      <trkpt lat="46.61057" lon="0.5812">
        <ele>103</ele>
        <time>2021-10-10T09:13:47Z</time>
      </trkpt>
      <trkpt lat="46.61017" lon="0.58114">
        <ele>103.8</ele>
        <time>2021-10-10T09:13:55Z</time>
      </trkpt>
      <trkpt lat="46.60968" lon="0.58105">
        <ele>103.8</ele>
        <time>2021-10-10T09:14:05Z</time>
      </trkpt>
      <trkpt lat="46.60948" lon="0.58102">
        <ele>104</ele>
        <time>2021-10-10T09:14:09Z</time>
      </trkpt>
      <trkpt lat="46.60933" lon="0.58099">
        <ele>104.4</ele>
        <time>2021-10-10T09:14:12Z</time>
      </trkpt>
      <trkpt lat="46.60892" lon="0.58092">
        <ele>105</ele>
        <time>2021-10-10T09:14:20Z</time>
      </trkpt>
      <trkpt lat="46.60876" lon="0.58088">
        <ele>105.2</ele>
        <time>2021-10-10T09:14:23Z</time>
      </trkpt>
      <trkpt lat="46.60855" lon="0.58083">
        <ele>104.8</ele>
        <time>2021-10-10T09:14:27Z</time>
      </trkpt>
      <trkpt lat="46.60845" lon="0.58089">
        <ele>104.4</ele>
        <time>2021-10-10T09:14:29Z</time>
      </trkpt>
      <trkpt lat="46.6084" lon="0.58102">
        <ele>104</ele>
        <time>2021-10-10T09:14:31Z</time>
      </trkpt>
      <trkpt lat="46.6084" lon="0.58109">
        <ele>104</ele>
        <time>2021-10-10T09:14:32Z</time>
      </trkpt>
      <trkpt lat="46.60838" lon="0.58125">
        <ele>104.2</ele>
        <time>2021-10-10T09:14:34Z</time>
      </trkpt>
      <trkpt lat="46.60832" lon="0.58136">
        <ele>104.4</ele>
        <time>2021-10-10T09:14:36Z</time>
      </trkpt>
      <trkpt lat="46.60821" lon="0.58139">
        <ele>104.4</ele>
        <time>2021-10-10T09:14:38Z</time>
      </trkpt>
      <trkpt lat="46.60816" lon="0.58138">
        <ele>104.4</ele>
        <time>2021-10-10T09:14:39Z</time>
      </trkpt>
      <trkpt lat="46.60774" lon="0.58133">
        <ele>103.2</ele>
        <time>2021-10-10T09:14:46Z</time>
      </trkpt>
      <trkpt lat="46.6076" lon="0.58131">
        <ele>103</ele>
        <time>2021-10-10T09:14:48Z</time>
      </trkpt>
      <trkpt lat="46.60724" lon="0.58127">
        <ele>101.6</ele>
        <time>2021-10-10T09:14:53Z</time>
      </trkpt>
      <trkpt lat="46.60709" lon="0.58125">
        <ele>101</ele>
        <time>2021-10-10T09:14:55Z</time>
      </trkpt>
      <trkpt lat="46.60687" lon="0.58122">
        <ele>100.6</ele>
        <time>2021-10-10T09:14:58Z</time>
      </trkpt>
      <trkpt lat="46.60664" lon="0.58118">
        <ele>99.6</ele>
        <time>2021-10-10T09:15:01Z</time>
      </trkpt>
      <trkpt lat="46.60656" lon="0.58117">
        <ele>99.4</ele>
        <time>2021-10-10T09:15:02Z</time>
      </trkpt>
      <trkpt lat="46.60625" lon="0.58113">
        <ele>98.2</ele>
        <time>2021-10-10T09:15:06Z</time>
      </trkpt>
      <trkpt lat="46.60609" lon="0.58111">
        <ele>97.2</ele>
        <time>2021-10-10T09:15:08Z</time>
      </trkpt>
      <trkpt lat="46.60602" lon="0.5811">
        <ele>97</ele>
        <time>2021-10-10T09:15:09Z</time>
      </trkpt>
      <trkpt lat="46.60573" lon="0.58107">
        <ele>95.8</ele>
        <time>2021-10-10T09:15:13Z</time>
      </trkpt>
      <trkpt lat="46.60567" lon="0.58105">
        <ele>95.6</ele>
        <time>2021-10-10T09:15:14Z</time>
      </trkpt>
      <trkpt lat="46.60555" lon="0.58105">
        <ele>95</ele>
        <time>2021-10-10T09:15:17Z</time>
      </trkpt>
      <trkpt lat="46.60552" lon="0.58108">
        <ele>95</ele>
        <time>2021-10-10T09:15:19Z</time>
      </trkpt>
      <trkpt lat="46.6055" lon="0.58112">
        <ele>95.2</ele>
        <time>2021-10-10T09:15:21Z</time>
      </trkpt>
      <trkpt lat="46.60547" lon="0.58131">
        <ele>95.6</ele>
        <time>2021-10-10T09:15:26Z</time>
      </trkpt>
      <trkpt lat="46.60542" lon="0.58151">
        <ele>95.2</ele>
        <time>2021-10-10T09:15:32Z</time>
      </trkpt>
      <trkpt lat="46.60532" lon="0.58173">
        <ele>95.6</ele>
        <time>2021-10-10T09:15:36Z</time>
      </trkpt>
      <trkpt lat="46.60507" lon="0.58219">
        <ele>96.2</ele>
        <time>2021-10-10T09:15:43Z</time>
      </trkpt>
      <trkpt lat="46.60473" lon="0.58282">
        <ele>96.8</ele>
        <time>2021-10-10T09:15:52Z</time>
      </trkpt>
      <trkpt lat="46.60466" lon="0.58296">
        <ele>96.6</ele>
        <time>2021-10-10T09:15:54Z</time>
      </trkpt>
      <trkpt lat="46.60431" lon="0.58361">
        <ele>96.4</ele>
        <time>2021-10-10T09:16:03Z</time>
      </trkpt>
      <trkpt lat="46.60423" lon="0.58376">
        <ele>95.8</ele>
        <time>2021-10-10T09:16:05Z</time>
      </trkpt>
      <trkpt lat="46.60403" lon="0.58414">
        <ele>94.8</ele>
        <time>2021-10-10T09:16:10Z</time>
      </trkpt>
      <trkpt lat="46.60384" lon="0.58451">
        <ele>93.8</ele>
        <time>2021-10-10T09:16:15Z</time>
      </trkpt>
      <trkpt lat="46.60376" lon="0.58466">
        <ele>93.4</ele>
        <time>2021-10-10T09:16:17Z</time>
      </trkpt>
      <trkpt lat="46.60359" lon="0.58498">
        <ele>92</ele>
        <time>2021-10-10T09:16:21Z</time>
      </trkpt>
      <trkpt lat="46.60355" lon="0.58505">
        <ele>91.8</ele>
        <time>2021-10-10T09:16:22Z</time>
      </trkpt>
      <trkpt lat="46.60349" lon="0.58515">
        <ele>91</ele>
        <time>2021-10-10T09:16:24Z</time>
      </trkpt>
      <trkpt lat="46.60345" lon="0.58515">
        <ele>90.8</ele>
        <time>2021-10-10T09:16:25Z</time>
      </trkpt>
      <trkpt lat="46.60339" lon="0.58503">
        <ele>90.2</ele>
        <time>2021-10-10T09:16:28Z</time>
      </trkpt>
      <trkpt lat="46.60337" lon="0.58498">
        <ele>89.8</ele>
        <time>2021-10-10T09:16:29Z</time>
      </trkpt>
      <trkpt lat="46.60335" lon="0.58493">
        <ele>89.6</ele>
        <time>2021-10-10T09:16:30Z</time>
      </trkpt>
      <trkpt lat="46.60329" lon="0.58473">
        <ele>89.2</ele>
        <time>2021-10-10T09:16:33Z</time>
      </trkpt>
      <trkpt lat="46.60317" lon="0.58447">
        <ele>89.8</ele>
        <time>2021-10-10T09:16:38Z</time>
      </trkpt>
      <trkpt lat="46.60313" lon="0.58439">
        <ele>91</ele>
        <time>2021-10-10T09:16:40Z</time>
      </trkpt>
      <trkpt lat="46.60308" lon="0.58428">
        <ele>92.4</ele>
        <time>2021-10-10T09:16:43Z</time>
      </trkpt>
      <trkpt lat="46.60303" lon="0.5842">
        <ele>93</ele>
        <time>2021-10-10T09:16:45Z</time>
      </trkpt>
      <trkpt lat="46.60301" lon="0.58416">
        <ele>93.6</ele>
        <time>2021-10-10T09:16:46Z</time>
      </trkpt>
      <trkpt lat="46.60295" lon="0.58405">
        <ele>94.6</ele>
        <time>2021-10-10T09:16:49Z</time>
      </trkpt>
      <trkpt lat="46.60288" lon="0.58391">
        <ele>95.6</ele>
        <time>2021-10-10T09:16:52Z</time>
      </trkpt>
      <trkpt lat="46.60286" lon="0.58387">
        <ele>95.8</ele>
        <time>2021-10-10T09:16:53Z</time>
      </trkpt>
      <trkpt lat="46.60272" lon="0.58358">
        <ele>96.4</ele>
        <time>2021-10-10T09:17:00Z</time>
      </trkpt>
      <trkpt lat="46.60264" lon="0.58342">
        <ele>96.8</ele>
        <time>2021-10-10T09:17:05Z</time>
      </trkpt>
      <trkpt lat="46.60255" lon="0.58325">
        <ele>97.4</ele>
        <time>2021-10-10T09:17:09Z</time>
      </trkpt>
      <trkpt lat="46.60247" lon="0.58308">
        <ele>97.8</ele>
        <time>2021-10-10T09:17:13Z</time>
      </trkpt>
      <trkpt lat="46.60238" lon="0.58292">
        <ele>98</ele>
        <time>2021-10-10T09:17:17Z</time>
      </trkpt>
      <trkpt lat="46.60226" lon="0.58283">
        <ele>98.4</ele>
        <time>2021-10-10T09:17:21Z</time>
      </trkpt>
      <trkpt lat="46.602" lon="0.5828">
        <ele>98.4</ele>
        <time>2021-10-10T09:17:28Z</time>
      </trkpt>
      <trkpt lat="46.60181" lon="0.58277">
        <ele>98.8</ele>
        <time>2021-10-10T09:17:33Z</time>
      </trkpt>
      <trkpt lat="46.60169" lon="0.58275">
        <ele>99</ele>
        <time>2021-10-10T09:17:36Z</time>
      </trkpt>
      <trkpt lat="46.60135" lon="0.5827">
        <ele>99.4</ele>
        <time>2021-10-10T09:17:44Z</time>
      </trkpt>
      <trkpt lat="46.60109" lon="0.58267">
        <ele>99.4</ele>
        <time>2021-10-10T09:17:50Z</time>
      </trkpt>
      <trkpt lat="46.60075" lon="0.58264">
        <ele>99</ele>
        <time>2021-10-10T09:17:57Z</time>
      </trkpt>
      <trkpt lat="46.60046" lon="0.5826">
        <ele>98.4</ele>
        <time>2021-10-10T09:18:03Z</time>
      </trkpt>
      <trkpt lat="46.60027" lon="0.58254">
        <ele>98</ele>
        <time>2021-10-10T09:18:07Z</time>
      </trkpt>
      <trkpt lat="46.60022" lon="0.58252">
        <ele>97.6</ele>
        <time>2021-10-10T09:18:08Z</time>
      </trkpt>
      <trkpt lat="46.60002" lon="0.58236">
        <ele>96.4</ele>
        <time>2021-10-10T09:18:12Z</time>
      </trkpt>
      <trkpt lat="46.5999" lon="0.58225">
        <ele>95.6</ele>
        <time>2021-10-10T09:18:14Z</time>
      </trkpt>
      <trkpt lat="46.59985" lon="0.58219">
        <ele>95.4</ele>
        <time>2021-10-10T09:18:15Z</time>
      </trkpt>
      <trkpt lat="46.59981" lon="0.58211">
        <ele>95.2</ele>
        <time>2021-10-10T09:18:16Z</time>
      </trkpt>
      <trkpt lat="46.59975" lon="0.58196">
        <ele>95</ele>
        <time>2021-10-10T09:18:18Z</time>
      </trkpt>
      <trkpt lat="46.59973" lon="0.58189">
        <ele>95</ele>
        <time>2021-10-10T09:18:19Z</time>
      </trkpt>
      <trkpt lat="46.59965" lon="0.58168">
        <ele>95.2</ele>
        <time>2021-10-10T09:18:22Z</time>
      </trkpt>
      <trkpt lat="46.59962" lon="0.58162">
        <ele>95.4</ele>
        <time>2021-10-10T09:18:23Z</time>
      </trkpt>
      <trkpt lat="46.59957" lon="0.58152">
        <ele>95.8</ele>
        <time>2021-10-10T09:18:25Z</time>
      </trkpt>
      <trkpt lat="46.59944" lon="0.58138">
        <ele>95.8</ele>
        <time>2021-10-10T09:18:28Z</time>
      </trkpt>
      <trkpt lat="46.59919" lon="0.58111">
        <ele>95.4</ele>
        <time>2021-10-10T09:18:33Z</time>
      </trkpt>
      <trkpt lat="46.59885" lon="0.58079">
        <ele>94.2</ele>
        <time>2021-10-10T09:18:39Z</time>
      </trkpt>
      <trkpt lat="46.59868" lon="0.58063">
        <ele>92.6</ele>
        <time>2021-10-10T09:18:42Z</time>
      </trkpt>
      <trkpt lat="46.59857" lon="0.58053">
        <ele>91.4</ele>
        <time>2021-10-10T09:18:44Z</time>
      </trkpt>
      <trkpt lat="46.59852" lon="0.58047">
        <ele>91</ele>
        <time>2021-10-10T09:18:45Z</time>
      </trkpt>
      <trkpt lat="46.59842" lon="0.58037">
        <ele>90.2</ele>
        <time>2021-10-10T09:18:47Z</time>
      </trkpt>
      <trkpt lat="46.59832" lon="0.58025">
        <ele>88.8</ele>
        <time>2021-10-10T09:18:49Z</time>
      </trkpt>
      <trkpt lat="46.59825" lon="0.58019">
        <ele>87.8</ele>
        <time>2021-10-10T09:18:50Z</time>
      </trkpt>
      <trkpt lat="46.59817" lon="0.58013">
        <ele>87.2</ele>
        <time>2021-10-10T09:18:51Z</time>
      </trkpt>
      <trkpt lat="46.59809" lon="0.58009">
        <ele>86.8</ele>
        <time>2021-10-10T09:18:52Z</time>
      </trkpt>
      <trkpt lat="46.59794" lon="0.58003">
        <ele>86</ele>
        <time>2021-10-10T09:18:54Z</time>
      </trkpt>
      <trkpt lat="46.59763" lon="0.57996">
        <ele>86.2</ele>
        <time>2021-10-10T09:18:58Z</time>
      </trkpt>
      <trkpt lat="46.59753" lon="0.57998">
        <ele>87.4</ele>
        <time>2021-10-10T09:19:00Z</time>
      </trkpt>
      <trkpt lat="46.59743" lon="0.57999">
        <ele>88.2</ele>
        <time>2021-10-10T09:19:02Z</time>
      </trkpt>
      <trkpt lat="46.59738" lon="0.58">
        <ele>88.6</ele>
        <time>2021-10-10T09:19:03Z</time>
      </trkpt>
      <trkpt lat="46.59718" lon="0.58004">
        <ele>90.4</ele>
        <time>2021-10-10T09:19:08Z</time>
      </trkpt>
      <trkpt lat="46.59711" lon="0.58006">
        <ele>91.4</ele>
        <time>2021-10-10T09:19:10Z</time>
      </trkpt>
      <trkpt lat="46.59697" lon="0.5801">
        <ele>92.6</ele>
        <time>2021-10-10T09:19:14Z</time>
      </trkpt>
      <trkpt lat="46.59694" lon="0.5801">
        <ele>92.8</ele>
        <time>2021-10-10T09:19:15Z</time>
      </trkpt>
      <trkpt lat="46.59686" lon="0.58011">
        <ele>93.6</ele>
        <time>2021-10-10T09:19:18Z</time>
      </trkpt>
      <trkpt lat="46.59675" lon="0.58012">
        <ele>94.4</ele>
        <time>2021-10-10T09:19:22Z</time>
      </trkpt>
      <trkpt lat="46.59672" lon="0.58012">
        <ele>94.8</ele>
        <time>2021-10-10T09:19:23Z</time>
      </trkpt>
      <trkpt lat="46.5966" lon="0.58013">
        <ele>95.4</ele>
        <time>2021-10-10T09:19:28Z</time>
      </trkpt>
      <trkpt lat="46.59655" lon="0.58013">
        <ele>95.8</ele>
        <time>2021-10-10T09:19:30Z</time>
      </trkpt>
      <trkpt lat="46.59642" lon="0.58017">
        <ele>96.4</ele>
        <time>2021-10-10T09:19:35Z</time>
      </trkpt>
      <trkpt lat="46.59636" lon="0.58019">
        <ele>96.8</ele>
        <time>2021-10-10T09:19:37Z</time>
      </trkpt>
      <trkpt lat="46.59619" lon="0.58025">
        <ele>97.6</ele>
        <time>2021-10-10T09:19:42Z</time>
      </trkpt>
      <trkpt lat="46.5961" lon="0.58029">
        <ele>98</ele>
        <time>2021-10-10T09:19:45Z</time>
      </trkpt>
      <trkpt lat="46.596" lon="0.58035">
        <ele>98.2</ele>
        <time>2021-10-10T09:19:48Z</time>
      </trkpt>
      <trkpt lat="46.59576" lon="0.58045">
        <ele>98.2</ele>
        <time>2021-10-10T09:19:54Z</time>
      </trkpt>
      <trkpt lat="46.59558" lon="0.58049">
        <ele>98</ele>
        <time>2021-10-10T09:19:58Z</time>
      </trkpt>
      <trkpt lat="46.59553" lon="0.58049">
        <ele>98</ele>
        <time>2021-10-10T09:19:59Z</time>
      </trkpt>
      <trkpt lat="46.5955" lon="0.58048">
        <ele>97.8</ele>
        <time>2021-10-10T09:20:00Z</time>
      </trkpt>
      <trkpt lat="46.59537" lon="0.58042">
        <ele>97.6</ele>
        <time>2021-10-10T09:20:04Z</time>
      </trkpt>
      <trkpt lat="46.5953" lon="0.58038">
        <ele>97.4</ele>
        <time>2021-10-10T09:20:06Z</time>
      </trkpt>
      <trkpt lat="46.59523" lon="0.58039">
        <ele>97.2</ele>
        <time>2021-10-10T09:20:08Z</time>
      </trkpt>
      <trkpt lat="46.59518" lon="0.58047">
        <ele>96.8</ele>
        <time>2021-10-10T09:20:11Z</time>
      </trkpt>
      <trkpt lat="46.59516" lon="0.58051">
        <ele>96.4</ele>
        <time>2021-10-10T09:20:13Z</time>
      </trkpt>
      <trkpt lat="46.59512" lon="0.58069">
        <ele>96</ele>
        <time>2021-10-10T09:20:17Z</time>
      </trkpt>
      <trkpt lat="46.59509" lon="0.58081">
        <ele>96</ele>
        <time>2021-10-10T09:20:19Z</time>
      </trkpt>
      <trkpt lat="46.59504" lon="0.58094">
        <ele>95.8</ele>
        <time>2021-10-10T09:20:21Z</time>
      </trkpt>
      <trkpt lat="46.59501" lon="0.58101">
        <ele>95.8</ele>
        <time>2021-10-10T09:20:22Z</time>
      </trkpt>
      <trkpt lat="46.5948" lon="0.58134">
        <ele>95.6</ele>
        <time>2021-10-10T09:20:28Z</time>
      </trkpt>
      <trkpt lat="46.59467" lon="0.5815">
        <ele>96.4</ele>
        <time>2021-10-10T09:20:32Z</time>
      </trkpt>
      <trkpt lat="46.59465" lon="0.58154">
        <ele>96.6</ele>
        <time>2021-10-10T09:20:33Z</time>
      </trkpt>
      <trkpt lat="46.59463" lon="0.58159">
        <ele>96.8</ele>
        <time>2021-10-10T09:20:34Z</time>
      </trkpt>
      <trkpt lat="46.59457" lon="0.58173">
        <ele>97.8</ele>
        <time>2021-10-10T09:20:37Z</time>
      </trkpt>
      <trkpt lat="46.59455" lon="0.58178">
        <ele>98</ele>
        <time>2021-10-10T09:20:38Z</time>
      </trkpt>
      <trkpt lat="46.59452" lon="0.58209">
        <ele>99.2</ele>
        <time>2021-10-10T09:20:43Z</time>
      </trkpt>
      <trkpt lat="46.59452" lon="0.58216">
        <ele>99.4</ele>
        <time>2021-10-10T09:20:44Z</time>
      </trkpt>
      <trkpt lat="46.5945" lon="0.58255">
        <ele>100.4</ele>
        <time>2021-10-10T09:20:50Z</time>
      </trkpt>
      <trkpt lat="46.59449" lon="0.58268">
        <ele>101</ele>
        <time>2021-10-10T09:20:52Z</time>
      </trkpt>
      <trkpt lat="46.59447" lon="0.58302">
        <ele>101.6</ele>
        <time>2021-10-10T09:20:57Z</time>
      </trkpt>
      <trkpt lat="46.59444" lon="0.58329">
        <ele>102.2</ele>
        <time>2021-10-10T09:21:01Z</time>
      </trkpt>
      <trkpt lat="46.59439" lon="0.58342">
        <ele>102.8</ele>
        <time>2021-10-10T09:21:03Z</time>
      </trkpt>
      <trkpt lat="46.59432" lon="0.58351">
        <ele>103.2</ele>
        <time>2021-10-10T09:21:05Z</time>
      </trkpt>
      <trkpt lat="46.59423" lon="0.58358">
        <ele>103.6</ele>
        <time>2021-10-10T09:21:07Z</time>
      </trkpt>
      <trkpt lat="46.59419" lon="0.58361">
        <ele>103.8</ele>
        <time>2021-10-10T09:21:08Z</time>
      </trkpt>
      <trkpt lat="46.59405" lon="0.58368">
        <ele>104.2</ele>
        <time>2021-10-10T09:21:11Z</time>
      </trkpt>
      <trkpt lat="46.59387" lon="0.58378">
        <ele>105</ele>
        <time>2021-10-10T09:21:15Z</time>
      </trkpt>
      <trkpt lat="46.59365" lon="0.58391">
        <ele>106</ele>
        <time>2021-10-10T09:21:20Z</time>
      </trkpt>
      <trkpt lat="46.59326" lon="0.58415">
        <ele>106.4</ele>
        <time>2021-10-10T09:21:29Z</time>
      </trkpt>
      <trkpt lat="46.59292" lon="0.58442">
        <ele>106.4</ele>
        <time>2021-10-10T09:21:36Z</time>
      </trkpt>
      <trkpt lat="46.59287" lon="0.58446">
        <ele>106.4</ele>
        <time>2021-10-10T09:21:37Z</time>
      </trkpt>
      <trkpt lat="46.59277" lon="0.58451">
        <ele>106.2</ele>
        <time>2021-10-10T09:21:39Z</time>
      </trkpt>
      <trkpt lat="46.59271" lon="0.58452">
        <ele>106.4</ele>
        <time>2021-10-10T09:21:40Z</time>
      </trkpt>
      <trkpt lat="46.5923" lon="0.58458">
        <ele>106.8</ele>
        <time>2021-10-10T09:21:47Z</time>
      </trkpt>
      <trkpt lat="46.59199" lon="0.5847">
        <ele>107</ele>
        <time>2021-10-10T09:21:52Z</time>
      </trkpt>
      <trkpt lat="46.59177" lon="0.58484">
        <ele>107.2</ele>
        <time>2021-10-10T09:21:56Z</time>
      </trkpt>
      <trkpt lat="46.59153" lon="0.585">
        <ele>107.6</ele>
        <time>2021-10-10T09:22:00Z</time>
      </trkpt>
      <trkpt lat="46.5912" lon="0.58524">
        <ele>107.8</ele>
        <time>2021-10-10T09:22:06Z</time>
      </trkpt>
      <trkpt lat="46.5911" lon="0.58533">
        <ele>108.2</ele>
        <time>2021-10-10T09:22:08Z</time>
      </trkpt>
      <trkpt lat="46.59078" lon="0.58558">
        <ele>109.2</ele>
        <time>2021-10-10T09:22:14Z</time>
      </trkpt>
      <trkpt lat="46.59074" lon="0.58563">
        <ele>109.2</ele>
        <time>2021-10-10T09:22:15Z</time>
      </trkpt>
      <trkpt lat="46.59069" lon="0.58568">
        <ele>109.4</ele>
        <time>2021-10-10T09:22:16Z</time>
      </trkpt>
      <trkpt lat="46.59063" lon="0.58581">
        <ele>109.4</ele>
        <time>2021-10-10T09:22:18Z</time>
      </trkpt>
      <trkpt lat="46.59061" lon="0.58598">
        <ele>109.8</ele>
        <time>2021-10-10T09:22:20Z</time>
      </trkpt>
      <trkpt lat="46.59062" lon="0.58606">
        <ele>109.8</ele>
        <time>2021-10-10T09:22:21Z</time>
      </trkpt>
      <trkpt lat="46.59069" lon="0.58632">
        <ele>110</ele>
        <time>2021-10-10T09:22:24Z</time>
      </trkpt>
      <trkpt lat="46.59075" lon="0.58648">
        <ele>110.2</ele>
        <time>2021-10-10T09:22:26Z</time>
      </trkpt>
      <trkpt lat="46.59074" lon="0.58665">
        <ele>110</ele>
        <time>2021-10-10T09:22:28Z</time>
      </trkpt>
      <trkpt lat="46.59065" lon="0.58672">
        <ele>109.2</ele>
        <time>2021-10-10T09:22:30Z</time>
      </trkpt>
      <trkpt lat="46.5904" lon="0.58671">
        <ele>108.8</ele>
        <time>2021-10-10T09:22:34Z</time>
      </trkpt>
      <trkpt lat="46.58985" lon="0.58671">
        <ele>109.2</ele>
        <time>2021-10-10T09:22:42Z</time>
      </trkpt>
      <trkpt lat="46.58931" lon="0.58673">
        <ele>109.4</ele>
        <time>2021-10-10T09:22:50Z</time>
      </trkpt>
      <trkpt lat="46.58873" lon="0.58674">
        <ele>110</ele>
        <time>2021-10-10T09:22:59Z</time>
      </trkpt>
      <trkpt lat="46.58829" lon="0.58667">
        <ele>109.8</ele>
        <time>2021-10-10T09:23:06Z</time>
      </trkpt>
      <trkpt lat="46.58811" lon="0.58658">
        <ele>109.8</ele>
        <time>2021-10-10T09:23:09Z</time>
      </trkpt>
      <trkpt lat="46.58801" lon="0.58648">
        <ele>109.8</ele>
        <time>2021-10-10T09:23:11Z</time>
      </trkpt>
      <trkpt lat="46.58768" lon="0.58608">
        <ele>110</ele>
        <time>2021-10-10T09:23:18Z</time>
      </trkpt>
      <trkpt lat="46.5875" lon="0.58584">
        <ele>110.4</ele>
        <time>2021-10-10T09:23:22Z</time>
      </trkpt>
      <trkpt lat="46.58724" lon="0.5855">
        <ele>111</ele>
        <time>2021-10-10T09:23:28Z</time>
      </trkpt>
      <trkpt lat="46.58702" lon="0.58523">
        <ele>111.4</ele>
        <time>2021-10-10T09:23:33Z</time>
      </trkpt>
      <trkpt lat="46.58688" lon="0.58507">
        <ele>111.6</ele>
        <time>2021-10-10T09:23:36Z</time>
      </trkpt>
      <trkpt lat="46.58667" lon="0.58479">
        <ele>111.6</ele>
        <time>2021-10-10T09:23:41Z</time>
      </trkpt>
      <trkpt lat="46.58655" lon="0.5846">
        <ele>111.6</ele>
        <time>2021-10-10T09:23:43Z</time>
      </trkpt>
      <trkpt lat="46.58645" lon="0.5845">
        <ele>111.6</ele>
        <time>2021-10-10T09:23:46Z</time>
      </trkpt>
      <trkpt lat="46.58635" lon="0.58445">
        <ele>111.8</ele>
        <time>2021-10-10T09:23:48Z</time>
      </trkpt>
      <trkpt lat="46.58627" lon="0.58454">
        <ele>112</ele>
        <time>2021-10-10T09:23:50Z</time>
      </trkpt>
      <trkpt lat="46.58626" lon="0.58471">
        <ele>112</ele>
        <time>2021-10-10T09:23:52Z</time>
      </trkpt>
      <trkpt lat="46.58626" lon="0.5848">
        <ele>111.8</ele>
        <time>2021-10-10T09:23:53Z</time>
      </trkpt>
      <trkpt lat="46.58629" lon="0.58546">
        <ele>110.6</ele>
        <time>2021-10-10T09:24:00Z</time>
      </trkpt>
      <trkpt lat="46.5863" lon="0.58556">
        <ele>110.6</ele>
        <time>2021-10-10T09:24:01Z</time>
      </trkpt>
      <trkpt lat="46.58631" lon="0.58566">
        <ele>110.4</ele>
        <time>2021-10-10T09:24:02Z</time>
      </trkpt>
      <trkpt lat="46.58635" lon="0.58628">
        <ele>109.4</ele>
        <time>2021-10-10T09:24:08Z</time>
      </trkpt>
      <trkpt lat="46.58635" lon="0.58639">
        <ele>109.4</ele>
        <time>2021-10-10T09:24:09Z</time>
      </trkpt>
      <trkpt lat="46.58641" lon="0.58724">
        <ele>109</ele>
        <time>2021-10-10T09:24:17Z</time>
      </trkpt>
      <trkpt lat="46.58642" lon="0.58744">
        <ele>108.4</ele>
        <time>2021-10-10T09:24:19Z</time>
      </trkpt>
      <trkpt lat="46.58643" lon="0.58754">
        <ele>108.4</ele>
        <time>2021-10-10T09:24:20Z</time>
      </trkpt>
      <trkpt lat="46.58645" lon="0.58794">
        <ele>107.2</ele>
        <time>2021-10-10T09:24:24Z</time>
      </trkpt>
      <trkpt lat="46.58648" lon="0.58836">
        <ele>106</ele>
        <time>2021-10-10T09:24:28Z</time>
      </trkpt>
      <trkpt lat="46.5865" lon="0.58878">
        <ele>104.8</ele>
        <time>2021-10-10T09:24:32Z</time>
      </trkpt>
      <trkpt lat="46.58652" lon="0.58931">
        <ele>103.8</ele>
        <time>2021-10-10T09:24:37Z</time>
      </trkpt>
      <trkpt lat="46.58655" lon="0.58985">
        <ele>103</ele>
        <time>2021-10-10T09:24:42Z</time>
      </trkpt>
      <trkpt lat="46.58656" lon="0.58995">
        <ele>102.8</ele>
        <time>2021-10-10T09:24:43Z</time>
      </trkpt>
      <trkpt lat="46.58657" lon="0.59005">
        <ele>101.6</ele>
        <time>2021-10-10T09:24:44Z</time>
      </trkpt>
      <trkpt lat="46.58657" lon="0.59013">
        <ele>101.2</ele>
        <time>2021-10-10T09:24:45Z</time>
      </trkpt>
      <trkpt lat="46.58655" lon="0.5902">
        <ele>100.8</ele>
        <time>2021-10-10T09:24:46Z</time>
      </trkpt>
      <trkpt lat="46.58652" lon="0.59026">
        <ele>100.4</ele>
        <time>2021-10-10T09:24:47Z</time>
      </trkpt>
      <trkpt lat="46.58641" lon="0.59031">
        <ele>99.8</ele>
        <time>2021-10-10T09:24:49Z</time>
      </trkpt>
      <trkpt lat="46.58629" lon="0.59036">
        <ele>99.4</ele>
        <time>2021-10-10T09:24:51Z</time>
      </trkpt>
      <trkpt lat="46.58597" lon="0.59045">
        <ele>99.2</ele>
        <time>2021-10-10T09:24:56Z</time>
      </trkpt>
      <trkpt lat="46.58585" lon="0.59048">
        <ele>99.4</ele>
        <time>2021-10-10T09:24:58Z</time>
      </trkpt>
      <trkpt lat="46.58576" lon="0.59048">
        <ele>99.2</ele>
        <time>2021-10-10T09:25:00Z</time>
      </trkpt>
      <trkpt lat="46.58561" lon="0.59043">
        <ele>100</ele>
        <time>2021-10-10T09:25:04Z</time>
      </trkpt>
      <trkpt lat="46.58555" lon="0.59038">
        <ele>100.4</ele>
        <time>2021-10-10T09:25:06Z</time>
      </trkpt>
      <trkpt lat="46.58551" lon="0.59035">
        <ele>100.6</ele>
        <time>2021-10-10T09:25:07Z</time>
      </trkpt>
      <trkpt lat="46.58543" lon="0.59029">
        <ele>101</ele>
        <time>2021-10-10T09:25:10Z</time>
      </trkpt>
      <trkpt lat="46.58541" lon="0.59027">
        <ele>101</ele>
        <time>2021-10-10T09:25:11Z</time>
      </trkpt>
      <trkpt lat="46.58536" lon="0.59021">
        <ele>101.2</ele>
        <time>2021-10-10T09:25:13Z</time>
      </trkpt>
      <trkpt lat="46.5853" lon="0.59015">
        <ele>101.4</ele>
        <time>2021-10-10T09:25:15Z</time>
      </trkpt>
      <trkpt lat="46.58524" lon="0.59009">
        <ele>101.6</ele>
        <time>2021-10-10T09:25:17Z</time>
      </trkpt>
      <trkpt lat="46.58521" lon="0.59006">
        <ele>101.8</ele>
        <time>2021-10-10T09:25:18Z</time>
      </trkpt>
      <trkpt lat="46.58511" lon="0.58995">
        <ele>101.8</ele>
        <time>2021-10-10T09:25:21Z</time>
      </trkpt>
      <trkpt lat="46.58504" lon="0.58986">
        <ele>102</ele>
        <time>2021-10-10T09:25:23Z</time>
      </trkpt>
      <trkpt lat="46.58499" lon="0.58977">
        <ele>102.6</ele>
        <time>2021-10-10T09:25:25Z</time>
      </trkpt>
      <trkpt lat="46.58496" lon="0.58973">
        <ele>102.8</ele>
        <time>2021-10-10T09:25:26Z</time>
      </trkpt>
      <trkpt lat="46.5849" lon="0.58963">
        <ele>102.8</ele>
        <time>2021-10-10T09:25:28Z</time>
      </trkpt>
      <trkpt lat="46.58488" lon="0.58959">
        <ele>103</ele>
        <time>2021-10-10T09:25:29Z</time>
      </trkpt>
      <trkpt lat="46.58475" lon="0.58938">
        <ele>103.4</ele>
        <time>2021-10-10T09:25:33Z</time>
      </trkpt>
      <trkpt lat="46.5847" lon="0.5893">
        <ele>103.4</ele>
        <time>2021-10-10T09:25:35Z</time>
      </trkpt>
      <trkpt lat="46.58464" lon="0.58921">
        <ele>103.6</ele>
        <time>2021-10-10T09:25:37Z</time>
      </trkpt>
      <trkpt lat="46.58453" lon="0.58906">
        <ele>104</ele>
        <time>2021-10-10T09:25:40Z</time>
      </trkpt>
      <trkpt lat="46.58446" lon="0.58897">
        <ele>104.4</ele>
        <time>2021-10-10T09:25:42Z</time>
      </trkpt>
      <trkpt lat="46.58439" lon="0.58888">
        <ele>104.6</ele>
        <time>2021-10-10T09:25:44Z</time>
      </trkpt>
      <trkpt lat="46.58432" lon="0.5888">
        <ele>105.2</ele>
        <time>2021-10-10T09:25:46Z</time>
      </trkpt>
      <trkpt lat="46.58416" lon="0.58858">
        <ele>105.8</ele>
        <time>2021-10-10T09:25:51Z</time>
      </trkpt>
      <trkpt lat="46.58396" lon="0.58825">
        <ele>106.2</ele>
        <time>2021-10-10T09:25:58Z</time>
      </trkpt>
      <trkpt lat="46.58393" lon="0.5882">
        <ele>106.2</ele>
        <time>2021-10-10T09:25:59Z</time>
      </trkpt>
      <trkpt lat="46.58384" lon="0.58804">
        <ele>106.6</ele>
        <time>2021-10-10T09:26:02Z</time>
      </trkpt>
      <trkpt lat="46.58379" lon="0.58796">
        <ele>106.6</ele>
        <time>2021-10-10T09:26:04Z</time>
      </trkpt>
      <trkpt lat="46.58371" lon="0.58783">
        <ele>106.8</ele>
        <time>2021-10-10T09:26:07Z</time>
      </trkpt>
      <trkpt lat="46.58364" lon="0.58776">
        <ele>106.8</ele>
        <time>2021-10-10T09:26:09Z</time>
      </trkpt>
      <trkpt lat="46.58353" lon="0.58764">
        <ele>107.2</ele>
        <time>2021-10-10T09:26:12Z</time>
      </trkpt>
      <trkpt lat="46.58345" lon="0.58756">
        <ele>107.6</ele>
        <time>2021-10-10T09:26:14Z</time>
      </trkpt>
      <trkpt lat="46.58324" lon="0.5873">
        <ele>108</ele>
        <time>2021-10-10T09:26:20Z</time>
      </trkpt>
      <trkpt lat="46.58313" lon="0.58717">
        <ele>108.4</ele>
        <time>2021-10-10T09:26:23Z</time>
      </trkpt>
      <trkpt lat="46.58303" lon="0.58707">
        <ele>108.4</ele>
        <time>2021-10-10T09:26:26Z</time>
      </trkpt>
      <trkpt lat="46.583" lon="0.58704">
        <ele>108.4</ele>
        <time>2021-10-10T09:26:27Z</time>
      </trkpt>
      <trkpt lat="46.58283" lon="0.58693">
        <ele>108.4</ele>
        <time>2021-10-10T09:26:31Z</time>
      </trkpt>
      <trkpt lat="46.58255" lon="0.58685">
        <ele>108.4</ele>
        <time>2021-10-10T09:26:37Z</time>
      </trkpt>
      <trkpt lat="46.58221" lon="0.58676">
        <ele>107.8</ele>
        <time>2021-10-10T09:26:43Z</time>
      </trkpt>
      <trkpt lat="46.58202" lon="0.5867">
        <ele>107.8</ele>
        <time>2021-10-10T09:26:46Z</time>
      </trkpt>
      <trkpt lat="46.58189" lon="0.58662">
        <ele>107.8</ele>
        <time>2021-10-10T09:26:48Z</time>
      </trkpt>
      <trkpt lat="46.58179" lon="0.58652">
        <ele>107.8</ele>
        <time>2021-10-10T09:26:50Z</time>
      </trkpt>
      <trkpt lat="46.58171" lon="0.58643">
        <ele>107.2</ele>
        <time>2021-10-10T09:26:52Z</time>
      </trkpt>
      <trkpt lat="46.58156" lon="0.58628">
        <ele>107.2</ele>
        <time>2021-10-10T09:26:56Z</time>
      </trkpt>
      <trkpt lat="46.58152" lon="0.58623">
        <ele>107.2</ele>
        <time>2021-10-10T09:26:57Z</time>
      </trkpt>
      <trkpt lat="46.58135" lon="0.58587">
        <ele>107.8</ele>
        <time>2021-10-10T09:27:03Z</time>
      </trkpt>
      <trkpt lat="46.58125" lon="0.58569">
        <ele>108.6</ele>
        <time>2021-10-10T09:27:06Z</time>
      </trkpt>
      <trkpt lat="46.58119" lon="0.58557">
        <ele>108.6</ele>
        <time>2021-10-10T09:27:08Z</time>
      </trkpt>
      <trkpt lat="46.58116" lon="0.58551">
        <ele>108.8</ele>
        <time>2021-10-10T09:27:09Z</time>
      </trkpt>
      <trkpt lat="46.58094" lon="0.58509">
        <ele>109.4</ele>
        <time>2021-10-10T09:27:16Z</time>
      </trkpt>
      <trkpt lat="46.58084" lon="0.58492">
        <ele>109.4</ele>
        <time>2021-10-10T09:27:19Z</time>
      </trkpt>
      <trkpt lat="46.58079" lon="0.58486">
        <ele>109.4</ele>
        <time>2021-10-10T09:27:21Z</time>
      </trkpt>
      <trkpt lat="46.5807" lon="0.58462">
        <ele>109</ele>
        <time>2021-10-10T09:27:26Z</time>
      </trkpt>
      <trkpt lat="46.58066" lon="0.58451">
        <ele>109</ele>
        <time>2021-10-10T09:27:28Z</time>
      </trkpt>
      <trkpt lat="46.58053" lon="0.58429">
        <ele>109</ele>
        <time>2021-10-10T09:27:32Z</time>
      </trkpt>
      <trkpt lat="46.5805" lon="0.58423">
        <ele>109</ele>
        <time>2021-10-10T09:27:33Z</time>
      </trkpt>
      <trkpt lat="46.58044" lon="0.58403">
        <ele>109.2</ele>
        <time>2021-10-10T09:27:36Z</time>
      </trkpt>
      <trkpt lat="46.58043" lon="0.58396">
        <ele>109.2</ele>
        <time>2021-10-10T09:27:37Z</time>
      </trkpt>
      <trkpt lat="46.58043" lon="0.58389">
        <ele>109.2</ele>
        <time>2021-10-10T09:27:38Z</time>
      </trkpt>
      <trkpt lat="46.58045" lon="0.58375">
        <ele>109.4</ele>
        <time>2021-10-10T09:27:40Z</time>
      </trkpt>
      <trkpt lat="46.5805" lon="0.58355">
        <ele>109.6</ele>
        <time>2021-10-10T09:27:43Z</time>
      </trkpt>
      <trkpt lat="46.58056" lon="0.58337">
        <ele>110</ele>
        <time>2021-10-10T09:27:46Z</time>
      </trkpt>
      <trkpt lat="46.58061" lon="0.58326">
        <ele>110</ele>
        <time>2021-10-10T09:27:48Z</time>
      </trkpt>
      <trkpt lat="46.58053" lon="0.58312">
        <ele>110</ele>
        <time>2021-10-10T09:27:51Z</time>
      </trkpt>
      <trkpt lat="46.58035" lon="0.58295">
        <ele>109.8</ele>
        <time>2021-10-10T09:27:55Z</time>
      </trkpt>
      <trkpt lat="46.58031" lon="0.5829">
        <ele>109.8</ele>
        <time>2021-10-10T09:27:56Z</time>
      </trkpt>
      <trkpt lat="46.57998" lon="0.58258">
        <ele>108.4</ele>
        <time>2021-10-10T09:28:02Z</time>
      </trkpt>
      <trkpt lat="46.57972" lon="0.58235">
        <ele>107.2</ele>
        <time>2021-10-10T09:28:06Z</time>
      </trkpt>
      <trkpt lat="46.57957" lon="0.58222">
        <ele>106.4</ele>
        <time>2021-10-10T09:28:08Z</time>
      </trkpt>
      <trkpt lat="46.5795" lon="0.58216">
        <ele>106</ele>
        <time>2021-10-10T09:28:09Z</time>
      </trkpt>
      <trkpt lat="46.57936" lon="0.58204">
        <ele>104.8</ele>
        <time>2021-10-10T09:28:11Z</time>
      </trkpt>
      <trkpt lat="46.57922" lon="0.58192">
        <ele>103.4</ele>
        <time>2021-10-10T09:28:13Z</time>
      </trkpt>
      <trkpt lat="46.57916" lon="0.58187">
        <ele>103.2</ele>
        <time>2021-10-10T09:28:14Z</time>
      </trkpt>
      <trkpt lat="46.57912" lon="0.58181">
        <ele>103</ele>
        <time>2021-10-10T09:28:15Z</time>
      </trkpt>
      <trkpt lat="46.5791" lon="0.58174">
        <ele>102.4</ele>
        <time>2021-10-10T09:28:16Z</time>
      </trkpt>
      <trkpt lat="46.57908" lon="0.58167">
        <ele>101.8</ele>
        <time>2021-10-10T09:28:17Z</time>
      </trkpt>
      <trkpt lat="46.57904" lon="0.58151">
        <ele>101.4</ele>
        <time>2021-10-10T09:28:19Z</time>
      </trkpt>
      <trkpt lat="46.57897" lon="0.58095">
        <ele>100.6</ele>
        <time>2021-10-10T09:28:25Z</time>
      </trkpt>
      <trkpt lat="46.57896" lon="0.58085">
        <ele>100.2</ele>
        <time>2021-10-10T09:28:26Z</time>
      </trkpt>
      <trkpt lat="46.57889" lon="0.58069">
        <ele>100</ele>
        <time>2021-10-10T09:28:28Z</time>
      </trkpt>
      <trkpt lat="46.57866" lon="0.58044">
        <ele>100.6</ele>
        <time>2021-10-10T09:28:33Z</time>
      </trkpt>
      <trkpt lat="46.57837" lon="0.58018">
        <ele>101</ele>
        <time>2021-10-10T09:28:39Z</time>
      </trkpt>
      <trkpt lat="46.57817" lon="0.57985">
        <ele>101.4</ele>
        <time>2021-10-10T09:28:45Z</time>
      </trkpt>
      <trkpt lat="46.57815" lon="0.57979">
        <ele>101.6</ele>
        <time>2021-10-10T09:28:46Z</time>
      </trkpt>
      <trkpt lat="46.57805" lon="0.57951">
        <ele>102.4</ele>
        <time>2021-10-10T09:28:50Z</time>
      </trkpt>
      <trkpt lat="46.57802" lon="0.57944">
        <ele>102.6</ele>
        <time>2021-10-10T09:28:51Z</time>
      </trkpt>
      <trkpt lat="46.57788" lon="0.57908">
        <ele>102.8</ele>
        <time>2021-10-10T09:28:56Z</time>
      </trkpt>
      <trkpt lat="46.57764" lon="0.57859">
        <ele>102</ele>
        <time>2021-10-10T09:29:02Z</time>
      </trkpt>
      <trkpt lat="46.57755" lon="0.57841">
        <ele>101.4</ele>
        <time>2021-10-10T09:29:04Z</time>
      </trkpt>
      <trkpt lat="46.57731" lon="0.57793">
        <ele>100.8</ele>
        <time>2021-10-10T09:29:10Z</time>
      </trkpt>
      <trkpt lat="46.57705" lon="0.57744">
        <ele>101</ele>
        <time>2021-10-10T09:29:17Z</time>
      </trkpt>
      <trkpt lat="46.57693" lon="0.57724">
        <ele>100.2</ele>
        <time>2021-10-10T09:29:20Z</time>
      </trkpt>
      <trkpt lat="46.57677" lon="0.57696">
        <ele>99.6</ele>
        <time>2021-10-10T09:29:24Z</time>
      </trkpt>
      <trkpt lat="46.57652" lon="0.57655">
        <ele>100</ele>
        <time>2021-10-10T09:29:31Z</time>
      </trkpt>
      <trkpt lat="46.57643" lon="0.57643">
        <ele>100</ele>
        <time>2021-10-10T09:29:33Z</time>
      </trkpt>
      <trkpt lat="46.57627" lon="0.57616">
        <ele>100.8</ele>
        <time>2021-10-10T09:29:37Z</time>
      </trkpt>
      <trkpt lat="46.57623" lon="0.57602">
        <ele>101.2</ele>
        <time>2021-10-10T09:29:39Z</time>
      </trkpt>
      <trkpt lat="46.57623" lon="0.57594">
        <ele>101.4</ele>
        <time>2021-10-10T09:29:40Z</time>
      </trkpt>
      <trkpt lat="46.57624" lon="0.57587">
        <ele>101.4</ele>
        <time>2021-10-10T09:29:41Z</time>
      </trkpt>
      <trkpt lat="46.5763" lon="0.57561">
        <ele>101.6</ele>
        <time>2021-10-10T09:29:45Z</time>
      </trkpt>
      <trkpt lat="46.57641" lon="0.57512">
        <ele>102.4</ele>
        <time>2021-10-10T09:29:53Z</time>
      </trkpt>
      <trkpt lat="46.57658" lon="0.57445">
        <ele>103.2</ele>
        <time>2021-10-10T09:30:05Z</time>
      </trkpt>
      <trkpt lat="46.57661" lon="0.57434">
        <ele>103.4</ele>
        <time>2021-10-10T09:30:07Z</time>
      </trkpt>
      <trkpt lat="46.57662" lon="0.57429">
        <ele>103.6</ele>
        <time>2021-10-10T09:30:08Z</time>
      </trkpt>
      <trkpt lat="46.57667" lon="0.57412">
        <ele>103.8</ele>
        <time>2021-10-10T09:30:11Z</time>
      </trkpt>
      <trkpt lat="46.57678" lon="0.57378">
        <ele>104.2</ele>
        <time>2021-10-10T09:30:17Z</time>
      </trkpt>
      <trkpt lat="46.57684" lon="0.57348">
        <ele>104.4</ele>
        <time>2021-10-10T09:30:22Z</time>
      </trkpt>
      <trkpt lat="46.57684" lon="0.57343">
        <ele>104.4</ele>
        <time>2021-10-10T09:30:23Z</time>
      </trkpt>
      <trkpt lat="46.57683" lon="0.57338">
        <ele>104.6</ele>
        <time>2021-10-10T09:30:24Z</time>
      </trkpt>
      <trkpt lat="46.57676" lon="0.57333">
        <ele>104.4</ele>
        <time>2021-10-10T09:30:26Z</time>
      </trkpt>
      <trkpt lat="46.57667" lon="0.57329">
        <ele>104.4</ele>
        <time>2021-10-10T09:30:28Z</time>
      </trkpt>
      <trkpt lat="46.57654" lon="0.57319">
        <ele>104</ele>
        <time>2021-10-10T09:30:31Z</time>
      </trkpt>
      <trkpt lat="46.57649" lon="0.57315">
        <ele>103.8</ele>
        <time>2021-10-10T09:30:32Z</time>
      </trkpt>
      <trkpt lat="46.57631" lon="0.57292">
        <ele>103.6</ele>
        <time>2021-10-10T09:30:36Z</time>
      </trkpt>
      <trkpt lat="46.57619" lon="0.57271">
        <ele>103.4</ele>
        <time>2021-10-10T09:30:39Z</time>
      </trkpt>
      <trkpt lat="46.57602" lon="0.57235">
        <ele>103.8</ele>
        <time>2021-10-10T09:30:44Z</time>
      </trkpt>
      <trkpt lat="46.5757" lon="0.57174">
        <ele>104.6</ele>
        <time>2021-10-10T09:30:53Z</time>
      </trkpt>
      <trkpt lat="46.57566" lon="0.57168">
        <ele>104.6</ele>
        <time>2021-10-10T09:30:54Z</time>
      </trkpt>
      <trkpt lat="46.57539" lon="0.57121">
        <ele>105.4</ele>
        <time>2021-10-10T09:31:01Z</time>
      </trkpt>
      <trkpt lat="46.57508" lon="0.57074">
        <ele>105.4</ele>
        <time>2021-10-10T09:31:09Z</time>
      </trkpt>
      <trkpt lat="46.57491" lon="0.57052">
        <ele>105.6</ele>
        <time>2021-10-10T09:31:13Z</time>
      </trkpt>
      <trkpt lat="46.57475" lon="0.57036">
        <ele>105.8</ele>
        <time>2021-10-10T09:31:16Z</time>
      </trkpt>
      <trkpt lat="46.57438" lon="0.56999">
        <ele>106</ele>
        <time>2021-10-10T09:31:23Z</time>
      </trkpt>
      <trkpt lat="46.57394" lon="0.5696">
        <ele>104.8</ele>
        <time>2021-10-10T09:31:31Z</time>
      </trkpt>
      <trkpt lat="46.57349" lon="0.56921">
        <ele>105.2</ele>
        <time>2021-10-10T09:31:39Z</time>
      </trkpt>
      <trkpt lat="46.57308" lon="0.56883">
        <ele>105.6</ele>
        <time>2021-10-10T09:31:47Z</time>
      </trkpt>
      <trkpt lat="46.57284" lon="0.56845">
        <ele>106.2</ele>
        <time>2021-10-10T09:31:53Z</time>
      </trkpt>
      <trkpt lat="46.57277" lon="0.56832">
        <ele>106.6</ele>
        <time>2021-10-10T09:31:55Z</time>
      </trkpt>
      <trkpt lat="46.57274" lon="0.56825">
        <ele>106.6</ele>
        <time>2021-10-10T09:31:56Z</time>
      </trkpt>
      <trkpt lat="46.57266" lon="0.56806">
        <ele>107</ele>
        <time>2021-10-10T09:31:59Z</time>
      </trkpt>
      <trkpt lat="46.57264" lon="0.568">
        <ele>107</ele>
        <time>2021-10-10T09:32:00Z</time>
      </trkpt>
      <trkpt lat="46.5726" lon="0.56788">
        <ele>107.2</ele>
        <time>2021-10-10T09:32:02Z</time>
      </trkpt>
      <trkpt lat="46.57255" lon="0.56771">
        <ele>107.4</ele>
        <time>2021-10-10T09:32:05Z</time>
      </trkpt>
      <trkpt lat="46.57248" lon="0.56745">
        <ele>107.8</ele>
        <time>2021-10-10T09:32:10Z</time>
      </trkpt>
      <trkpt lat="46.57248" lon="0.56734">
        <ele>107.8</ele>
        <time>2021-10-10T09:32:12Z</time>
      </trkpt>
      <trkpt lat="46.57251" lon="0.56724">
        <ele>108</ele>
        <time>2021-10-10T09:32:14Z</time>
      </trkpt>
      <trkpt lat="46.57254" lon="0.56719">
        <ele>108</ele>
        <time>2021-10-10T09:32:15Z</time>
      </trkpt>
      <trkpt lat="46.57256" lon="0.56713">
        <ele>107.8</ele>
        <time>2021-10-10T09:32:16Z</time>
      </trkpt>
      <trkpt lat="46.57259" lon="0.56698">
        <ele>107.6</ele>
        <time>2021-10-10T09:32:18Z</time>
      </trkpt>
      <trkpt lat="46.57262" lon="0.56675">
        <ele>107.2</ele>
        <time>2021-10-10T09:32:21Z</time>
      </trkpt>
      <trkpt lat="46.57267" lon="0.56661">
        <ele>107</ele>
        <time>2021-10-10T09:32:23Z</time>
      </trkpt>
      <trkpt lat="46.57271" lon="0.56649">
        <ele>107</ele>
        <time>2021-10-10T09:32:25Z</time>
      </trkpt>
      <trkpt lat="46.5727" lon="0.56637">
        <ele>107</ele>
        <time>2021-10-10T09:32:27Z</time>
      </trkpt>
      <trkpt lat="46.57261" lon="0.56631">
        <ele>107.2</ele>
        <time>2021-10-10T09:32:29Z</time>
      </trkpt>
      <trkpt lat="46.57257" lon="0.5663">
        <ele>107.2</ele>
        <time>2021-10-10T09:32:30Z</time>
      </trkpt>
      <trkpt lat="46.57252" lon="0.56627">
        <ele>107.4</ele>
        <time>2021-10-10T09:32:31Z</time>
      </trkpt>
      <trkpt lat="46.57245" lon="0.56617">
        <ele>107.4</ele>
        <time>2021-10-10T09:32:33Z</time>
      </trkpt>
      <trkpt lat="46.57222" lon="0.56571">
        <ele>108</ele>
        <time>2021-10-10T09:32:41Z</time>
      </trkpt>
      <trkpt lat="46.57208" lon="0.56543">
        <ele>108.6</ele>
        <time>2021-10-10T09:32:46Z</time>
      </trkpt>
      <trkpt lat="46.57206" lon="0.5653">
        <ele>108.6</ele>
        <time>2021-10-10T09:32:48Z</time>
      </trkpt>
      <trkpt lat="46.57206" lon="0.5653">
        <ele>108.8</ele>
        <time>2021-10-10T09:32:51Z</time>
      </trkpt>
      <trkpt lat="46.57205" lon="0.56464">
        <ele>109</ele>
        <time>2021-10-10T09:32:58Z</time>
      </trkpt>
      <trkpt lat="46.57204" lon="0.56452">
        <ele>109.4</ele>
        <time>2021-10-10T09:33:00Z</time>
      </trkpt>
      <trkpt lat="46.572" lon="0.56443">
        <ele>109.6</ele>
        <time>2021-10-10T09:33:02Z</time>
      </trkpt>
      <trkpt lat="46.57194" lon="0.56436">
        <ele>109.6</ele>
        <time>2021-10-10T09:33:04Z</time>
      </trkpt>
      <trkpt lat="46.57181" lon="0.56427">
        <ele>109.6</ele>
        <time>2021-10-10T09:33:07Z</time>
      </trkpt>
      <trkpt lat="46.57173" lon="0.56421">
        <ele>110</ele>
        <time>2021-10-10T09:33:09Z</time>
      </trkpt>
      <trkpt lat="46.57152" lon="0.56403">
        <ele>110.6</ele>
        <time>2021-10-10T09:33:14Z</time>
      </trkpt>
      <trkpt lat="46.57124" lon="0.56382">
        <ele>110.6</ele>
        <time>2021-10-10T09:33:21Z</time>
      </trkpt>
      <trkpt lat="46.5712" lon="0.56379">
        <ele>110.6</ele>
        <time>2021-10-10T09:33:22Z</time>
      </trkpt>
      <trkpt lat="46.57113" lon="0.56373">
        <ele>110.6</ele>
        <time>2021-10-10T09:33:24Z</time>
      </trkpt>
      <trkpt lat="46.57106" lon="0.56368">
        <ele>110.8</ele>
        <time>2021-10-10T09:33:26Z</time>
      </trkpt>
      <trkpt lat="46.57092" lon="0.56358">
        <ele>111</ele>
        <time>2021-10-10T09:33:30Z</time>
      </trkpt>
      <trkpt lat="46.57089" lon="0.56354">
        <ele>111</ele>
        <time>2021-10-10T09:33:31Z</time>
      </trkpt>
      <trkpt lat="46.57086" lon="0.56346">
        <ele>111.4</ele>
        <time>2021-10-10T09:33:33Z</time>
      </trkpt>
      <trkpt lat="46.57087" lon="0.56337">
        <ele>111.4</ele>
        <time>2021-10-10T09:33:35Z</time>
      </trkpt>
      <trkpt lat="46.57092" lon="0.56305">
        <ele>111.8</ele>
        <time>2021-10-10T09:33:41Z</time>
      </trkpt>
      <trkpt lat="46.57096" lon="0.56281">
        <ele>112.2</ele>
        <time>2021-10-10T09:33:45Z</time>
      </trkpt>
      <trkpt lat="46.571" lon="0.56255">
        <ele>112.6</ele>
        <time>2021-10-10T09:33:49Z</time>
      </trkpt>
      <trkpt lat="46.57109" lon="0.56196">
        <ele>113.2</ele>
        <time>2021-10-10T09:33:58Z</time>
      </trkpt>
      <trkpt lat="46.57118" lon="0.56143">
        <ele>113.8</ele>
        <time>2021-10-10T09:34:06Z</time>
      </trkpt>
      <trkpt lat="46.57122" lon="0.56131">
        <ele>114.2</ele>
        <time>2021-10-10T09:34:08Z</time>
      </trkpt>
      <trkpt lat="46.57126" lon="0.56119">
        <ele>114.6</ele>
        <time>2021-10-10T09:34:10Z</time>
      </trkpt>
      <trkpt lat="46.57127" lon="0.56107">
        <ele>114.8</ele>
        <time>2021-10-10T09:34:12Z</time>
      </trkpt>
      <trkpt lat="46.57129" lon="0.56089">
        <ele>115</ele>
        <time>2021-10-10T09:34:15Z</time>
      </trkpt>
      <trkpt lat="46.5713" lon="0.56071">
        <ele>114.8</ele>
        <time>2021-10-10T09:34:18Z</time>
      </trkpt>
      <trkpt lat="46.57134" lon="0.56037">
        <ele>115.2</ele>
        <time>2021-10-10T09:34:23Z</time>
      </trkpt>
      <trkpt lat="46.57136" lon="0.56023">
        <ele>115.4</ele>
        <time>2021-10-10T09:34:25Z</time>
      </trkpt>
      <trkpt lat="46.57143" lon="0.55961">
        <ele>115.8</ele>
        <time>2021-10-10T09:34:33Z</time>
      </trkpt>
      <trkpt lat="46.57149" lon="0.55899">
        <ele>116.2</ele>
        <time>2021-10-10T09:34:41Z</time>
      </trkpt>
      <trkpt lat="46.57158" lon="0.55834">
        <ele>115.2</ele>
        <time>2021-10-10T09:34:49Z</time>
      </trkpt>
      <trkpt lat="46.57164" lon="0.55803">
        <ele>114.8</ele>
        <time>2021-10-10T09:34:53Z</time>
      </trkpt>
      <trkpt lat="46.57165" lon="0.55796">
        <ele>114.8</ele>
        <time>2021-10-10T09:34:54Z</time>
      </trkpt>
      <trkpt lat="46.57167" lon="0.5579">
        <ele>115</ele>
        <time>2021-10-10T09:34:55Z</time>
      </trkpt>
      <trkpt lat="46.57173" lon="0.55784">
        <ele>115</ele>
        <time>2021-10-10T09:34:57Z</time>
      </trkpt>
      <trkpt lat="46.57182" lon="0.55786">
        <ele>115</ele>
        <time>2021-10-10T09:34:59Z</time>
      </trkpt>
      <trkpt lat="46.5719" lon="0.55787">
        <ele>114.6</ele>
        <time>2021-10-10T09:35:01Z</time>
      </trkpt>
      <trkpt lat="46.57198" lon="0.55777">
        <ele>114.2</ele>
        <time>2021-10-10T09:35:04Z</time>
      </trkpt>
      <trkpt lat="46.57202" lon="0.5577">
        <ele>113.8</ele>
        <time>2021-10-10T09:35:06Z</time>
      </trkpt>
      <trkpt lat="46.57204" lon="0.55762">
        <ele>113.8</ele>
        <time>2021-10-10T09:35:08Z</time>
      </trkpt>
      <trkpt lat="46.57208" lon="0.5574">
        <ele>113.4</ele>
        <time>2021-10-10T09:35:13Z</time>
      </trkpt>
      <trkpt lat="46.57208" lon="0.55738">
        <ele>113.4</ele>
        <time>2021-10-10T09:35:15Z</time>
      </trkpt>
    </trkseg>
  </trk>
</gpx>